# Wetter Temperatur Luftdruck Luftfeuchtigkeit Sichtweite Windgeschwindigkeit Windrichtung Zeit
1 Clouds 8 1009 56 10000 6.2 310 19:42 02.04.2020
2 Clouds 8 1009 56 10000 6.2 310 19:42 02.04.2020
3 Clouds 9 1009 52 10000 7.7 310 19:20 02.04.2020
4 Clouds 9 1009 52 10000 7.7 310 18:56 02.04.2020
5 Clouds 10 1009 52 10000 7.7 320 18:38 02.04.2020
6 Clouds 10 1009 45 10000 8.2 300 18:19 02.04.2020
7 Clouds 11 1009 45 10000 6.7 310 17:44 02.04.2020
8 Clouds 11 1009 45 10000 6.7 310 17:26 02.04.2020
9 Clouds 11 1009 46 10000 6.7 310 16:59 02.04.2020
10 Clouds 11 1010 43 10000 5.1 320 16:40 02.04.2020
11 Clouds 11 1010 43 10000 5.1 320 16:22 02.04.2020
12 Clouds 11 1010 39 10000 4.1 320 15:57 02.04.2020
13 Clouds 11 1010 42 10000 6.2 310 15:39 02.04.2020
14 Clouds 10 1011 42 10000 4.1 320 15:19 02.04.2020
15 Clouds 10 1011 42 10000 4.1 320 14:57 02.04.2020
16 Clouds 10 1011 45 10000 4.6 330 14:38 02.04.2020
17 Clouds 10 1012 45 10000 3.1 320 14:18 02.04.2020
18 Clouds 9 1012 42 10000 4.1 280 13:55 02.04.2020
19 Clouds 9 1012 42 10000 4.1 280 13:37 02.04.2020
20 Clouds 9 1012 48 10000 4.6 300 13:18 02.04.2020
21 Clouds 8 1013 45 10000 2.6 320 12:45 02.04.2020
22 Clouds 8 1013 45 10000 2.6 320 12:45 02.04.2020
23 Clouds 8 1013 45 10000 2.1 0 12:19 02.04.2020
24 Clouds 8 1013 45 10000 2.1 0 11:58 02.04.2020
25 Clouds 8 1013 45 10000 2.1 0 11:58 02.04.2020
26 Clouds 8 1013 45 10000 2.1 0 11:58 02.04.2020
27 Clouds 7 1013 60 10000 2.1 0 11:39 02.04.2020
28 Clouds 7 1014 60 10000 1.5 100 11:20 02.04.2020
29 Clouds 6 1014 69 10000 1.5 100 10:56 02.04.2020
30 Clouds 5 1014 69 10000 1.5 100 10:38 02.04.2020
31 Clouds 5 1014 69 10000 1.5 100 10:38 02.04.2020
32 Clouds 4 1014 69 10000 2.1 90 10:20 02.04.2020
33 Clouds 3 1014 69 10000 2.1 90 09:58 02.04.2020
34 Clouds 3 1014 69 10000 2.1 90 09:58 02.04.2020
35 Clouds 2 1014 74 10000 2.1 130 09:40 02.04.2020
36 Clouds 2 1014 80 10000 1.5 150 09:20 02.04.2020
37 Clouds 0 1014 86 10000 1 0 08:47 02.04.2020
38 Clouds -1 1014 86 10000 1.5 190 08:28 02.04.2020
39 Clouds -2 1014 86 10000 1.5 190 07:54 02.04.2020
40 Clouds -2 1014 92 10000 1 0 07:36 02.04.2020
41 Clouds -2 1015 85 10000 1.5 290 07:18 02.04.2020
42 Clouds -2 1015 86 10000 2.1 300 06:23 02.04.2020
43 Clear -2 1015 86 10000 2.1 300 05:46 02.04.2020
44 Clear -2 1015 86 10000 2.1 300 05:46 02.04.2020
45 Clear -1 1016 79 7000 2.6 320 04:50 02.04.2020
46 Clear -1 1016 93 7000 1.5 0 02:19 02.04.2020
47 Clear 0 1016 64 7000 2.6 310 00:58 02.04.2020
48 Clear 0 1017 59 7000 3.1 310 00:36 02.04.2020
49 Clouds 0 1017 59 7000 3.1 310 00:18 02.04.2020
50 Clouds 0 1017 59 7000 3.1 310 23:38 01.04.2020
51 Clouds 1 1017 55 9000 2.6 310 23:19 01.04.2020
52 Clouds 1 1017 55 9000 2.6 310 22:41 01.04.2020
53 Clouds 1 1017 59 8000 2.1 310 22:22 01.04.2020
54 Clouds 2 1017 59 8000 2.1 310 21:58 01.04.2020
55 Clouds 2 1017 59 8000 2.1 310 21:39 01.04.2020
56 Clouds 3 1017 48 10000 2.1 320 21:19 01.04.2020
57 Clouds 4 1017 48 10000 2.1 320 20:56 01.04.2020
58 Clouds 4 1017 48 10000 2.1 320 20:38 01.04.2020
59 Clouds 5 1017 48 10000 2.1 320 20:19 01.04.2020
60 Clouds 6 1017 48 10000 2.1 320 19:55 01.04.2020
61 Clouds 7 1017 42 10000 2.6 320 19:37 01.04.2020
62 Clouds 8 1017 39 10000 2.6 310 19:19 01.04.2020
63 Clouds 9 1017 39 10000 3.1 300 18:41 01.04.2020
64 Clouds 9 1017 34 10000 3.1 320 18:21 01.04.2020
65 Clouds 9 1017 36 10000 3.1 320 17:56 01.04.2020
66 Clouds 9 1017 36 10000 3.1 320 17:37 01.04.2020
67 Clouds 9 1018 34 10000 3.1 350 17:18 01.04.2020
68 Clouds 9 1018 34 10000 3.1 350 16:56 01.04.2020
69 -273 0 0 0 0 0 16:38 01.04.2020
70 Clouds 9 1018 39 10000 2.6 330 16:20 01.04.2020
71 Clouds 9 1019 39 10000 3.1 0 15:42 01.04.2020
72 Clouds 9 1019 39 10000 3.1 0 15:22 01.04.2020
73 Clouds 9 1019 39 10000 3.1 0 14:59 01.04.2020
74 Clouds 9 1019 36 10000 1.5 0 14:39 01.04.2020
75 Clouds 9 1020 36 10000 2.1 120 14:21 01.04.2020
76 Clouds 8 1020 38 10000 1.5 0 13:59 01.04.2020
77 Clouds 8 1020 38 10000 2.1 0 13:38 01.04.2020
78 Clouds 7 1021 38 10000 2.1 0 13:20 01.04.2020
79 Clouds 7 1021 38 10000 2.1 0 12:57 01.04.2020
80 Clouds 7 1021 44 10000 2.1 0 12:37 01.04.2020
81 Clouds 6 1022 44 10000 1.5 280 12:18 01.04.2020
82 Clouds 6 1022 44 10000 1.5 280 12:18 01.04.2020
83 Clouds 5 1022 48 10000 2.1 300 11:56 01.04.2020
84 Clouds 6 1022 48 10000 2.1 300 11:37 01.04.2020
85 Clouds 5 1022 55 10000 1.5 90 11:18 01.04.2020
86 Clouds 4 1022 59 10000 1.5 70 10:38 01.04.2020
87 Clouds 4 1022 64 10000 1.5 90 10:20 01.04.2020
88 Clouds 3 1022 64 10000 1.5 90 09:58 01.04.2020
89 Clouds 1 1023 59 10000 1.5 90 09:39 01.04.2020
90 Clear -1 1023 68 10000 1.5 90 09:19 01.04.2020
91 Clear -2 1023 74 10000 1.5 110 08:43 01.04.2020
92 Clear -3 1023 79 10000 1.5 110 08:18 01.04.2020
93 Clear -4 1023 85 10000 1.5 110 07:48 01.04.2020
94 Clear -4 1024 85 10000 1.23 199 07:22 01.04.2020
95 Clear -4 1024 85 10000 1.23 199 06:58 01.04.2020
96 Clear -4 1024 85 10000 1.23 199 06:27 01.04.2020
97 Clear -4 1024 85 10000 1.2 200 05:59 01.04.2020
98 Clear -3 1025 79 6000 1.5 300 04:38 01.04.2020
99 Clear -4 1025 79 7000 1.5 290 03:35 01.04.2020
100 Clear -3 1026 73 6000 2.1 310 02:57 01.04.2020
101 Clear -3 1026 73 7000 2.6 300 02:21 01.04.2020
102 Clear -3 1026 73 7000 2.6 300 01:40 01.04.2020
103 Clear -3 1027 79 7000 1 300 01:22 01.04.2020
104 Clear -2 1027 79 7000 1 300 00:46 01.04.2020
105 Clear -2 1027 79 7000 1 300 00:46 01.04.2020
106 Clear -2 1027 74 8000 1 280 00:21 01.04.2020
107 Clear -2 1027 74 8000 1 280 23:49 31.03.2020
108 Clear -1 1027 74 8000 1 280 23:28 31.03.2020
109 Clear -1 1027 74 8000 1 280 22:59 31.03.2020
110 Clear -1 1027 55 7000 0.5 300 22:37 31.03.2020
111 Clear 0 1027 55 7000 0.5 300 22:19 31.03.2020
112 Clear 0 1027 55 7000 0.5 300 21:57 31.03.2020
113 Clear 1 1027 41 9000 2.1 20 21:39 31.03.2020
114 Clear 1 1027 41 9000 2.1 20 21:20 31.03.2020
115 Clear 1 1027 41 9000 2.1 20 21:20 31.03.2020
116 Clouds 1 1027 44 10000 1 20 21:20 31.03.2020
117 Clouds 1 1027 44 10000 1 20 20:56 31.03.2020
118 Clouds 2 1027 44 10000 1 20 20:37 31.03.2020
119 Clouds 3 1027 44 10000 1 20 20:18 31.03.2020
120 Clouds 4 1027 41 10000 2.1 30 19:54 31.03.2020
121 Clouds 4 1027 41 10000 2.1 30 19:36 31.03.2020
122 Clouds 5 1027 41 10000 1.5 340 19:18 31.03.2020
123 Clouds 6 1027 35 10000 1 0 18:41 31.03.2020
124 Clouds 6 1027 36 10000 1 0 18:19 31.03.2020
125 Clouds 6 1027 38 10000 2.1 30 17:56 31.03.2020
126 Clouds 6 1027 38 10000 2.1 30 17:37 31.03.2020
127 Clouds 6 1028 38 10000 2.6 360 17:19 31.03.2020
128 Clouds 6 1028 38 10000 3.1 40 16:41 31.03.2020
129 Clouds 7 1028 35 10000 2.6 0 16:20 31.03.2020
130 Clouds 6 1028 35 10000 2.6 0 15:59 31.03.2020
131 Clouds 6 1028 38 10000 2.1 100 15:41 31.03.2020
132 Clouds 6 1029 38 10000 2.6 60 15:23 31.03.2020
133 Clouds 6 1029 38 10000 2.6 60 14:59 31.03.2020
134 Clouds 6 1029 41 10000 3.6 70 14:40 31.03.2020
135 Clouds 5 1029 41 10000 3.6 70 14:21 31.03.2020
136 Clouds 5 1029 38 10000 3.1 70 13:54 31.03.2020
137 Clouds 5 1029 41 10000 3.1 40 13:36 31.03.2020
138 Clouds 4 1029 48 10000 3.1 60 13:18 31.03.2020
139 Clouds 5 1030 48 10000 3.1 100 12:42 31.03.2020
140 Clouds 4 1030 55 10000 3.1 120 12:20 31.03.2020
141 Clouds 4 1030 55 10000 3.1 120 11:55 31.03.2020
142 Clouds 3 1030 55 10000 3.1 0 11:36 31.03.2020
143 Clouds 3 1030 74 10000 2.1 60 11:18 31.03.2020
144 Clouds 3 1030 74 10000 2.1 60 10:54 31.03.2020
145 Clouds 3 1030 80 10000 3.1 50 10:36 31.03.2020
146 Clouds 3 1030 74 10000 2.6 40 10:18 31.03.2020
147 Clouds 2 1029 76 10000 2.1 70 09:42 31.03.2020
148 Clouds 1 1029 72 10000 2.1 70 09:24 31.03.2020
149 Clouds 0 1029 86 10000 0.5 0 08:57 31.03.2020
150 Clouds 0 1029 92 10000 1.5 80 08:39 31.03.2020
151 Clouds -1 1028 92 10000 1.5 20 08:19 31.03.2020
152 Clouds -1 1028 92 10000 1.5 20 08:19 31.03.2020
153 Clouds -1 1028 92 10000 1.5 20 07:56 31.03.2020
154 Clouds -1 1028 92 10000 1.5 10 07:37 31.03.2020
155 Clouds -1 1028 92 5000 1 0 07:18 31.03.2020
156 Clouds -1 1028 80 10000 2.6 30 06:45 31.03.2020
157 Clouds -1 1028 96 9000 1.5 50 06:18 31.03.2020
158 Clouds -1 1028 92 10000 1.5 60 05:39 31.03.2020
159 Clouds 0 1027 96 7000 2.6 20 03:34 31.03.2020
160 Snow 1 1026 86 7000 2.6 50 01:54 31.03.2020
161 Snow 2 1026 86 7000 2.6 50 01:34 31.03.2020
162 Snow 2 1026 86 7000 0.5 150 00:47 31.03.2020
163 Snow 3 1026 69 8000 1.63 13 00:25 31.03.2020
164 Snow 2 1026 69 8000 0.94 61 23:42 30.03.2020
165 Snow 3 1025 69 8000 0.5 160 23:20 30.03.2020
166 Snow 3 1025 69 8000 0.5 160 22:58 30.03.2020
167 Snow 3 1025 69 8000 0.5 160 22:39 30.03.2020
168 Snow 3 1025 69 8000 0.5 160 22:39 30.03.2020
169 Snow 3 1025 89 8000 1.5 100 22:21 30.03.2020
170 Snow 3 1025 89 8000 1.5 100 21:58 30.03.2020
171 Snow 2 1025 89 8000 1.5 100 21:39 30.03.2020
172 Clouds 3 1024 85 10000 0.5 0 21:21 30.03.2020
173 Clouds 3 1024 85 10000 0.5 0 20:59 30.03.2020
174 Clouds 3 1024 85 10000 0.5 0 20:39 30.03.2020
175 Clouds 3 1024 85 10000 0.5 0 20:20 30.03.2020
176 Clouds 3 1024 85 10000 0.5 0 19:57 30.03.2020
177 Clouds 4 1024 85 10000 1.5 290 19:39 30.03.2020
178 Clouds 4 1024 85 10000 1.5 290 19:39 30.03.2020
179 Clouds 4 1024 85 10000 1.5 270 19:20 30.03.2020
180 Rain 4 1025 85 10000 2.1 300 18:43 30.03.2020
181 Rain 4 1025 85 10000 2.1 300 18:25 30.03.2020
182 Rain 4 1025 69 9000 5.1 300 17:58 30.03.2020
183 Rain 4 1025 69 9000 5.1 300 17:39 30.03.2020
184 Rain 4 1025 69 9000 5.1 300 17:39 30.03.2020
185 Rain 4 1025 55 10000 5.1 300 17:21 30.03.2020
186 Rain 4 1025 55 10000 5.1 300 16:59 30.03.2020
187 Rain 4 1025 55 10000 5.1 300 16:40 30.03.2020
188 -273 0 0 0 0 0 16:20 30.03.2020
189 Clouds 4 1025 60 10000 4.6 310 16:20 30.03.2020
190 Clouds 4 1025 60 10000 4.6 310 16:20 30.03.2020
191 Clouds 4 1026 60 10000 4.1 290 15:56 30.03.2020
192 Clouds 4 1026 60 10000 4.1 290 15:38 30.03.2020
193 Rain 5 1026 64 10000 2.6 300 15:20 30.03.2020
194 Rain 5 1026 64 10000 2.6 300 14:56 30.03.2020
195 Snow 5 1027 80 10000 4.6 320 14:37 30.03.2020
196 Snow 4 1027 55 6000 4.6 300 14:18 30.03.2020
197 Clouds 5 1027 48 10000 4.1 310 13:55 30.03.2020
198 Snow 4 1027 55 6000 4.6 300 13:55 30.03.2020
199 Clouds 4 1027 48 10000 4.1 310 13:37 30.03.2020
200 Clouds 4 1027 40 10000 4.1 300 13:18 30.03.2020
201 Clouds 4 1028 40 10000 3.6 300 12:43 30.03.2020
202 Clear 3 1028 40 10000 3.1 290 12:20 30.03.2020
203 Clear 3 1028 40 10000 3.1 290 11:57 30.03.2020
204 Clear 3 1028 37 10000 3.1 290 11:39 30.03.2020
205 Clear 3 1029 43 10000 3.6 290 11:21 30.03.2020
206 Clear 2 1029 55 10000 2.6 280 10:41 30.03.2020
207 Clear 1 1029 55 10000 2.6 280 10:23 30.03.2020
208 Clear 0 1029 54 10000 2.1 300 09:59 30.03.2020
209 Clear -1 1029 58 10000 2.6 290 09:40 30.03.2020
210 Clear -2 1029 68 10000 0.5 0 09:19 30.03.2020
211 Clear -3 1029 73 10000 0.5 0 08:43 30.03.2020
212 Clear -4 1029 73 10000 0.5 0 08:23 30.03.2020
213 Clear -5 1029 79 10000 2.6 250 07:53 30.03.2020
214 Clear -6 1029 79 10000 2.6 250 07:34 30.03.2020
215 Clear -5 1030 73 10000 3.1 300 06:57 30.03.2020
216 Clear -5 1030 68 10000 0.5 350 06:33 30.03.2020
217 Clear -5 1030 68 10000 0.5 350 05:55 30.03.2020
218 Clear -5 1030 68 10000 0.5 350 05:33 30.03.2020
219 Clear -4 1031 50 9000 2.6 360 04:24 30.03.2020
220 Clear -4 1031 50 9000 2.6 360 03:44 30.03.2020
221 Clouds -3 1031 50 7000 2.6 360 02:42 30.03.2020
222 Clouds -3 1031 46 9000 2.6 360 01:48 30.03.2020
223 Clouds -2 1031 91 8000 3.1 20 00:55 30.03.2020
224 Clouds -1 1031 55 9000 3.1 30 00:24 30.03.2020
225 Clouds 0 1031 55 9000 3.1 30 23:43 29.03.2020
226 Clouds 0 1030 51 9000 5.1 20 23:24 29.03.2020
227 Clouds 1 1030 51 9000 5.1 20 22:59 29.03.2020
228 Clouds 1 1030 51 9000 5.1 20 22:39 29.03.2020
229 Clouds 1 1030 55 9000 5.7 20 22:19 29.03.2020
230 Clouds 1 1030 55 9000 5.7 20 21:58 29.03.2020
231 Clouds 2 1030 55 9000 5.7 20 21:37 29.03.2020
232 Clouds 2 1028 64 10000 5.1 20 21:18 29.03.2020
233 Clouds 2 1028 64 10000 5.1 20 20:55 29.03.2020
234 Clouds 2 1028 64 10000 5.1 20 20:37 29.03.2020
235 Clouds 2 1028 64 10000 5.1 20 20:18 29.03.2020
236 Clouds 2 1027 74 10000 5.1 10 19:42 29.03.2020
237 Clouds 2 1027 80 10000 5.7 10 19:24 29.03.2020
238 Clouds 2 1026 80 10000 6.2 20 18:58 29.03.2020
239 Clouds 3 1026 80 10000 6.2 20 18:40 29.03.2020
240 Clouds 3 1026 80 10000 5.7 20 18:21 29.03.2020
241 Rain 3 1026 74 10000 5.1 20 17:59 29.03.2020
242 Rain 3 1026 74 10000 5.1 20 17:41 29.03.2020
243 Rain 3 1025 74 9000 6.2 20 17:22 29.03.2020
244 Rain 3 1025 74 9000 6.2 20 16:58 29.03.2020
245 Clouds 3 1025 74 8000 5.7 10 16:39 29.03.2020
246 Clouds 4 1025 74 9000 8.2 30 16:21 29.03.2020
247 Clouds 4 1025 74 9000 8.2 30 15:58 29.03.2020
248 Rain 4 1024 74 9000 6.7 20 15:39 29.03.2020
249 Rain 4 1024 93 9000 7.7 10 15:19 29.03.2020
250 Rain 4 1024 93 9000 8.7 10 14:55 29.03.2020
251 Rain 4 1024 93 9000 8.7 10 14:36 29.03.2020
252 Rain 4 1024 93 9000 8.7 10 14:36 29.03.2020
253 Rain 4 1023 82 10000 9.3 10 14:18 29.03.2020
254 Clouds 5 1023 56 10000 8.2 350 13:42 29.03.2020
255 Clouds 4 1023 56 10000 7.7 340 13:22 29.03.2020
256 Clouds 4 1023 60 10000 6.7 10 12:58 29.03.2020
257 Clouds 4 1023 60 10000 6.7 10 12:39 29.03.2020
258 Clouds 5 1023 60 10000 7.2 360 12:19 29.03.2020
259 Clouds 5 1023 60 10000 7.2 360 11:59 29.03.2020
260 Clouds 4 1023 69 10000 7.7 360 11:38 29.03.2020
261 Snow 3 1023 74 10000 9.8 350 11:19 29.03.2020
262 Snow 3 1022 69 10000 7.2 350 10:39 29.03.2020
263 Snow 3 1022 69 10000 7.2 350 10:39 29.03.2020
264 Snow 3 1022 74 10000 6.2 340 10:20 29.03.2020
265 Snow 3 1022 74 10000 6.2 340 09:56 29.03.2020
266 Clouds 3 1022 74 10000 6.2 350 09:38 29.03.2020
267 Snow 3 1021 74 10000 6.2 330 09:18 29.03.2020
268 Rain 3 1021 69 10000 6.2 330 08:43 29.03.2020
269 Rain 3 1021 69 10000 6.2 330 08:25 29.03.2020
270 Clouds 3 1021 74 10000 6.7 320 07:47 29.03.2020
271 Snow 3 1021 69 6000 4.6 330 07:23 29.03.2020
272 Snow 4 1021 64 6000 3.1 320 06:34 29.03.2020
273 Clouds 3 1021 69 6000 2.6 290 04:56 29.03.2020
274 Clouds 3 1022 69 6000 2.6 330 03:41 29.03.2020
275 Clouds 3 1022 69 6000 4.1 320 03:20 29.03.2020
276 Clouds 3 1022 69 6000 4.1 320 01:40 29.03.2020
277 Clouds 4 1022 69 6000 3.6 350 01:21 29.03.2020
278 Clouds 3 1022 60 5000 3.1 350 00:40 29.03.2020
279 Clouds 4 1022 60 5000 3.1 350 00:18 29.03.2020
280 Clouds 4 1021 60 7000 6.2 360 23:40 28.03.2020
281 Clouds 4 1021 60 7000 6.2 360 23:40 28.03.2020
282 Clouds 5 1021 60 7000 6.2 360 23:22 28.03.2020
283 Clouds 5 1021 60 7000 6.2 360 22:43 28.03.2020
284 Clouds 5 1021 52 6000 7.2 360 22:22 28.03.2020
285 Clouds 6 1021 52 6000 7.2 360 21:57 28.03.2020
286 Clouds 5 1021 52 6000 7.2 360 21:39 28.03.2020
287 Clouds 6 1020 52 10000 7.2 330 21:19 28.03.2020
288 Clouds 6 1020 52 10000 7.2 330 20:56 28.03.2020
289 Clouds 6 1020 52 10000 7.2 330 20:37 28.03.2020
290 Clear 7 1020 52 10000 7.2 330 20:19 28.03.2020
291 Clear 8 1020 52 10000 7.2 330 19:55 28.03.2020
292 Clear 7 1020 52 10000 5.1 340 19:36 28.03.2020
293 Clear 9 1019 49 10000 6.7 330 19:18 28.03.2020
294 Clear 10 1019 67 10000 6.7 330 18:39 28.03.2020
295 Clear 11 1019 67 10000 5.7 350 18:20 28.03.2020
296 Clear 12 1019 43 10000 5.7 10 17:42 28.03.2020
297 Clear 13 1019 40 10000 6.2 10 17:22 28.03.2020
298 Clear 13 1019 40 10000 7.2 360 16:59 28.03.2020
299 Clear 13 1019 40 10000 7.2 360 16:38 28.03.2020
300 Clear 14 1019 34 10000 4.1 330 16:18 28.03.2020
301 Clear 14 1019 35 10000 4.6 10 15:40 28.03.2020
302 Clear 14 1019 32 10000 3.6 10 15:20 28.03.2020
303 Clear 14 1019 32 10000 3.1 0 14:58 28.03.2020
304 Clear 14 1019 32 10000 3.1 0 14:40 28.03.2020
305 Clear 13 1020 30 10000 3.6 340 14:21 28.03.2020
306 Clear 13 1020 32 10000 4.1 20 13:43 28.03.2020
307 Clear 14 1020 30 10000 6.2 10 13:23 28.03.2020
308 Clear 13 1020 32 10000 5.7 20 12:41 28.03.2020
309 Clear 13 1020 34 10000 6.7 30 12:22 28.03.2020
310 Clear 12 1020 37 10000 6.7 360 11:43 28.03.2020
311 Clear 11 1021 46 10000 4.1 350 11:24 28.03.2020
312 Clear 11 1021 53 10000 3.6 340 10:58 28.03.2020
313 Clear 11 1021 53 10000 3.6 340 10:38 28.03.2020
314 Clear 10 1021 53 10000 4.1 350 10:18 28.03.2020
315 Clear 8 1021 53 10000 3.1 340 09:43 28.03.2020
316 Clear 8 1021 70 10000 2.1 330 09:23 28.03.2020
317 Clear 7 1021 53 10000 3.1 340 08:56 28.03.2020
318 Clear 7 1021 54 10000 3.1 340 08:37 28.03.2020
319 Clear 4 1021 85 10000 2.1 330 08:18 28.03.2020
320 Clear 4 1020 85 10000 2.6 300 07:42 28.03.2020
321 Clear 2 1020 74 7000 3.1 320 06:58 28.03.2020
322 Clear 2 1020 74 7000 2.6 320 06:35 28.03.2020
323 Clear 3 1019 69 7000 2.6 320 05:42 28.03.2020
324 Clear 3 1019 69 7000 2.6 320 05:21 28.03.2020
325 Clear 3 1019 69 7000 2.6 320 04:40 28.03.2020
326 Clear 4 1019 86 7000 4.1 310 03:34 28.03.2020
327 Clear 5 1019 85 7000 3.6 310 01:53 28.03.2020
328 Clear 5 1019 85 9000 2.6 320 01:25 28.03.2020
329 Clear 6 1019 83 9000 2.6 320 00:57 28.03.2020
330 Clear 6 1019 83 9000 2.6 320 00:36 28.03.2020
331 Clear 7 1019 83 8000 2.6 10 23:55 27.03.2020
332 Clear 7 1019 83 8000 2.6 20 23:37 27.03.2020
333 Clear 7 1019 83 8000 2.6 20 23:37 27.03.2020
334 Clear 8 1019 78 8000 2.6 20 23:18 27.03.2020
335 Clear 8 1019 78 8000 2.6 20 22:55 27.03.2020
336 Clear 9 1019 78 7000 2.1 320 22:37 27.03.2020
337 Clear 9 1019 78 7000 2.1 320 22:18 27.03.2020
338 Clear 9 1019 78 7000 2.1 320 21:42 27.03.2020
339 Clear 9 1019 78 9000 1.5 350 21:24 27.03.2020
340 Clear 10 1019 53 10000 3.6 40 20:58 27.03.2020
341 Clear 10 1019 53 10000 3.6 40 20:58 27.03.2020
342 Clear 10 1019 53 10000 3.6 40 20:58 27.03.2020
343 Clear 10 1019 53 10000 3.6 40 20:39 27.03.2020
344 Clear 11 1019 53 10000 3.6 40 20:20 27.03.2020
345 Clear 12 1019 72 10000 3.1 20 19:56 27.03.2020
346 Clear 12 1019 72 10000 3.1 20 19:38 27.03.2020
347 Clear 12 1018 72 10000 3.6 50 19:20 27.03.2020
348 Clear 14 1018 72 10000 4.1 70 18:44 27.03.2020
349 Clear 13 1018 72 10000 4.1 70 18:44 27.03.2020
350 Clear 14 1018 72 10000 7.2 70 18:23 27.03.2020
351 Clear 15 1017 72 10000 6.7 70 17:57 27.03.2020
352 Clear 15 1017 72 10000 6.7 70 17:38 27.03.2020
353 Clear 16 1017 51 10000 6.7 60 17:19 27.03.2020
354 Clear 16 1017 51 10000 7.7 70 16:44 27.03.2020
355 Clear 16 1017 31 10000 6.7 70 16:25 27.03.2020
356 Clear 16 1017 31 10000 6.7 70 16:25 27.03.2020
357 Clear 16 1017 31 10000 6.7 70 16:25 27.03.2020
358 Clear 15 1017 51 9000 5.7 80 15:46 27.03.2020
359 Clear 17 1018 29 10000 5.7 70 15:27 27.03.2020
360 Clear 16 1018 51 10000 6.7 70 14:59 27.03.2020
361 Clear 16 1018 51 10000 5.7 80 14:40 27.03.2020
362 Clear 16 1018 31 10000 7.7 90 14:21 27.03.2020
363 Clear 16 1018 31 10000 7.7 90 13:54 27.03.2020
364 Clear 15 1018 33 10000 7.7 80 13:36 27.03.2020
365 Clear 14 1019 33 10000 8.7 90 13:18 27.03.2020
366 Clear 13 1019 37 10000 6.7 100 12:42 27.03.2020
367 Clear 12 1019 37 10000 6.7 80 12:19 27.03.2020
368 Clear 11 1020 40 10000 8.2 90 11:44 27.03.2020
369 Clear 11 1020 37 10000 7.2 90 11:25 27.03.2020
370 Clear 10 1020 39 10000 6.2 100 10:59 27.03.2020
371 Clear 10 1020 39 10000 6.2 100 10:41 27.03.2020
372 Clear 9 1020 42 10000 4.1 70 10:22 27.03.2020
373 Clear 9 1020 42 10000 4.1 70 09:58 27.03.2020
374 Clear 9 1020 42 10000 4.1 70 09:58 27.03.2020
375 Clear 8 1020 45 10000 3.6 70 09:39 27.03.2020
376 Clear 6 1020 52 10000 1.5 60 09:21 27.03.2020
377 Clear 6 1020 52 10000 1.5 60 08:58 27.03.2020
378 Clear 4 1020 60 10000 1.5 10 08:39 27.03.2020
379 Clear 2 1020 69 10000 2.1 20 08:21 27.03.2020
380 Clear 1 1020 69 10000 2.1 20 07:53 27.03.2020
381 Clear 1 1020 69 10000 2.1 20 07:28 27.03.2020
382 Clear 1 1022 83 0 1.81 55 06:59 27.03.2020
383 Clear 1 1022 83 0 1.81 55 06:37 27.03.2020
384 Clear 1 1022 83 0 1.81 55 05:38 27.03.2020
385 Clear 1 1021 86 0 1.98 66 02:51 27.03.2020
386 Clouds 2 1022 81 0 2.52 67 01:50 27.03.2020
387 Clouds 1 1022 82 0 2.44 60 00:55 27.03.2020
388 Clouds 1 1022 82 0 2.44 60 00:32 27.03.2020
389 Clouds 1 1022 82 0 2.44 60 23:45 26.03.2020
390 Clouds 1 1022 82 0 2.44 60 23:25 26.03.2020
391 Clouds 3 1023 75 0 3.16 75 22:59 26.03.2020
392 Clouds 3 1023 75 0 3.16 75 22:39 26.03.2020
393 Clouds 3 1023 75 0 3.16 75 22:20 26.03.2020
394 Clouds 3 1023 75 0 3.16 75 22:20 26.03.2020
395 Clouds 3 1023 75 0 3.16 75 21:58 26.03.2020
396 Clouds 3 1023 75 0 3.16 75 21:39 26.03.2020
397 Clouds 6 1022 52 10000 5.1 70 21:21 26.03.2020
398 Clouds 6 1022 52 10000 5.1 70 20:58 26.03.2020
399 Clouds 6 1022 52 10000 5.1 70 20:38 26.03.2020
400 Clouds 6 1022 52 10000 5.1 70 20:20 26.03.2020
401 Clouds 6 1022 52 10000 5.1 70 19:56 26.03.2020
402 Clouds 7 1022 48 10000 5.7 70 19:38 26.03.2020
403 Clouds 7 1022 48 10000 5.7 70 19:38 26.03.2020
404 Clouds 7 1021 48 10000 5.7 70 19:20 26.03.2020
405 Clouds 7 1021 48 10000 5.7 70 18:55 26.03.2020
406 Clouds 7 1021 48 10000 5.7 70 18:55 26.03.2020
407 Clouds 8 1021 42 10000 6.2 70 18:37 26.03.2020
408 Clouds 8 1021 42 10000 6.2 70 18:18 26.03.2020
409 Clouds 9 1021 39 10000 7.7 90 17:42 26.03.2020
410 Clouds 9 1021 39 10000 7.7 90 17:19 26.03.2020
411 Clouds 9 1022 39 10000 7.7 100 16:45 26.03.2020
412 Clouds 9 1021 39 10000 8.2 90 16:27 26.03.2020
413 Clouds 9 1021 39 10000 8.2 90 15:59 26.03.2020
414 Clouds 9 1022 39 10000 7.7 90 15:40 26.03.2020
415 Clouds 9 1022 39 10000 6.7 90 15:21 26.03.2020
416 Clouds 9 1022 39 10000 6.7 90 14:58 26.03.2020
417 Clouds 8 1022 39 10000 7.7 90 14:38 26.03.2020
418 Clouds 8 1022 39 10000 7.7 90 14:38 26.03.2020
419 Clear 8 1022 42 10000 8.2 70 14:19 26.03.2020
420 Clear 8 1022 39 10000 9.3 80 13:43 26.03.2020
421 Clear 8 1022 39 10000 9.3 80 13:23 26.03.2020
422 Clear 7 1022 39 10000 8.2 80 12:56 26.03.2020
423 Clear 7 1022 39 10000 7.7 70 12:37 26.03.2020
424 Clear 7 1022 39 10000 7.7 70 12:19 26.03.2020
425 Clear 6 1023 38 10000 7.2 80 11:44 26.03.2020
426 Clear 6 1023 38 10000 7.7 80 11:20 26.03.2020
427 Clear 6 1023 38 10000 7.7 80 10:56 26.03.2020
428 Clear 5 1023 41 10000 6.2 80 10:37 26.03.2020
429 Clear 4 1023 44 10000 7.2 90 10:18 26.03.2020
430 Clear 4 1024 44 10000 7.7 80 09:43 26.03.2020
431 Clear 3 1024 44 10000 5.1 60 09:19 26.03.2020
432 Clear 3 1024 44 10000 5.1 60 09:19 26.03.2020
433 Clear 1 1024 50 10000 4.6 50 08:54 26.03.2020
434 Clear 1 1024 50 10000 4.6 50 08:36 26.03.2020
435 Clear 0 1024 89 10000 3.1 40 08:18 26.03.2020
436 Clear -1 1024 58 10000 2.6 50 07:41 26.03.2020
437 Clear -2 1025 89 0 2.65 70 07:20 26.03.2020
438 Clear -2 1025 89 0 2.65 70 07:20 26.03.2020
439 Clear -2 1025 89 0 2.65 70 06:47 26.03.2020
440 Clear -2 1025 89 0 2.65 70 05:52 26.03.2020
441 Clear -3 1025 91 0 2.08 66 03:58 26.03.2020
442 Clear -3 1025 91 0 2.08 66 03:35 26.03.2020
443 Clear -3 1025 91 0 2.08 66 02:53 26.03.2020
444 Clear -2 1026 91 0 1.93 70 01:44 26.03.2020
445 Clear -2 1026 89 0 2.14 69 00:43 26.03.2020
446 Clear -2 1026 89 0 2.14 69 23:45 25.03.2020
447 Clear 0 1027 82 0 3.21 88 23:27 25.03.2020
448 Clear 0 1027 82 0 3.21 88 22:57 25.03.2020
449 Clear 0 1027 82 0 3.21 88 22:38 25.03.2020
450 Clear 0 1027 82 0 3.21 88 22:19 25.03.2020
451 Clear 0 1027 82 0 3.21 88 21:55 25.03.2020
452 Clear 0 1027 82 0 3.21 88 21:37 25.03.2020
453 Clear 4 1025 35 10000 4.6 80 21:18 25.03.2020
454 Clear 4 1025 35 10000 4.6 80 20:40 25.03.2020
455 Clear 4 1025 35 10000 4.6 80 20:20 25.03.2020
456 Clear 4 1025 35 10000 4.6 80 19:58 25.03.2020
457 Clouds 5 1025 30 10000 4.6 80 19:39 25.03.2020
458 Clouds 6 1025 26 10000 4.1 90 19:21 25.03.2020
459 Clear 6 1025 24 10000 6.2 90 18:54 25.03.2020
460 Clouds 6 1025 24 10000 6.2 90 18:36 25.03.2020
461 Clouds 8 1025 22 10000 6.7 70 18:18 25.03.2020
462 Clouds 8 1024 19 10000 7.2 70 17:41 25.03.2020
463 Clouds 9 1025 18 10000 6.7 70 17:23 25.03.2020
464 Clouds 9 1025 19 10000 7.2 80 16:59 25.03.2020
465 Clouds 9 1025 19 10000 7.2 80 16:41 25.03.2020
466 -273 0 0 0 0 0 16:21 25.03.2020
467 Clouds 10 1026 19 10000 5.7 60 15:44 25.03.2020
468 Clouds 9 1026 19 10000 6.2 80 15:21 25.03.2020
469 Clouds 9 1026 19 10000 6.2 80 14:59 25.03.2020
470 Clouds 9 1026 19 10000 6.2 80 14:59 25.03.2020
471 Clouds 9 1026 18 10000 6.7 80 14:40 25.03.2020
472 Clear 8 1026 20 10000 6.7 80 14:20 25.03.2020
473 Clear 8 1027 20 10000 6.2 90 13:46 25.03.2020
474 Clear 7 1027 26 10000 5.1 90 13:25 25.03.2020
475 Clear 6 1028 28 10000 5.1 70 12:54 25.03.2020
476 Clear 6 1028 28 10000 5.1 70 12:36 25.03.2020
477 Clear 6 1028 28 10000 3.1 80 12:18 25.03.2020
478 Clear 5 1029 30 10000 4.1 70 11:41 25.03.2020
479 Clear 5 1029 32 10000 4.6 100 11:21 25.03.2020
480 Clear 3 1029 34 10000 6.7 80 10:59 25.03.2020
481 Clear 3 1029 34 10000 6.7 80 10:59 25.03.2020
482 Clear 3 1029 34 10000 6.7 80 10:40 25.03.2020
483 Clear 3 1029 37 10000 4.6 80 10:19 25.03.2020
484 Clear 3 1029 37 10000 4.6 80 09:58 25.03.2020
485 Clear 2 1029 40 10000 4.1 100 09:39 25.03.2020
486 Clear 1 1029 43 10000 3.1 120 09:21 25.03.2020
487 Clear 0 1029 57 10000 3.6 120 08:43 25.03.2020
488 Clear 0 1029 87 10000 2.6 140 08:25 25.03.2020
489 Clear 0 1029 57 10000 3.6 120 08:25 25.03.2020
490 Clear 0 1029 87 10000 2.6 140 07:58 25.03.2020
491 Clear -2 1029 63 10000 2.6 130 07:38 25.03.2020
492 Clear -3 1031 87 0 1.61 77 07:18 25.03.2020
493 Clear -3 1031 87 0 1.61 77 06:43 25.03.2020
494 Clear -3 1031 87 0 1.61 77 06:25 25.03.2020
495 Clear -3 1031 87 0 1.61 77 05:47 25.03.2020
496 Clear -3 1031 89 0 1.45 101 04:46 25.03.2020
497 Clear -3 1031 89 0 1.45 101 03:58 25.03.2020
498 Clear -3 1031 89 0 1.45 101 03:34 25.03.2020
499 Clear -2 1032 88 0 1.69 98 01:41 25.03.2020
500 Clear -2 1032 88 0 1.69 98 01:41 25.03.2020
501 Clear -2 1032 88 0 1.69 98 01:41 25.03.2020
502 Clear -3 1033 87 0 1.47 94 00:51 25.03.2020
503 Clear -3 1033 87 0 1.47 94 00:32 25.03.2020
504 Clear -3 1033 87 0 1.47 94 23:59 24.03.2020
505 Clear -3 1033 87 0 1.47 94 23:40 24.03.2020
506 Clear -1 1033 85 0 2.94 99 23:20 24.03.2020
507 Clear -1 1033 85 0 2.94 99 22:55 24.03.2020
508 Clear -1 1033 85 0 2.94 99 22:36 24.03.2020
509 Clear -1 1033 85 0 2.94 99 22:18 24.03.2020
510 Clear -1 1033 85 0 2.94 99 21:42 24.03.2020
511 Clear 2 1031 40 10000 3.1 110 21:19 24.03.2020
512 Clear 2 1031 40 10000 3.1 110 20:59 24.03.2020
513 Clear 2 1031 40 10000 3.1 110 20:41 24.03.2020
514 Clear 2 1031 40 10000 3.1 110 20:22 24.03.2020
515 Clear 3 1031 37 10000 3.6 100 19:48 24.03.2020
516 Clear 3 1031 37 10000 3.6 100 19:48 24.03.2020
517 Clear 5 1031 30 10000 3.6 80 19:23 24.03.2020
518 Clear 6 1030 26 10000 5.1 90 18:59 24.03.2020
519 Clear 6 1030 26 10000 5.1 90 18:40 24.03.2020
520 Clear 6 1030 28 10000 5.7 80 18:20 24.03.2020
521 Clear 7 1030 24 10000 5.1 80 17:58 24.03.2020
522 Clear 7 1030 24 10000 5.1 80 17:40 24.03.2020
523 Clear 7 1030 22 10000 5.1 110 17:22 24.03.2020
524 Clear 8 1030 20 10000 5.7 120 16:57 24.03.2020
525 Clear 8 1030 20 10000 5.7 120 16:57 24.03.2020
526 Clear 8 1030 20 10000 5.7 120 16:38 24.03.2020
527 Clear 8 1031 22 10000 6.7 110 16:20 24.03.2020
528 Clear 8 1031 22 10000 6.7 110 15:43 24.03.2020
529 Clear 8 1031 22 10000 6.7 110 15:25 24.03.2020
530 Clear 8 1031 24 10000 6.2 100 14:57 24.03.2020
531 Clear 8 1032 24 10000 4.6 140 14:37 24.03.2020
532 Clear 7 1032 24 10000 4.1 120 14:18 24.03.2020
533 Clear 6 1033 26 10000 6.2 100 13:41 24.03.2020
534 Clear 6 1033 24 10000 5.7 110 13:22 24.03.2020
535 Clear 6 1033 22 10000 5.7 130 12:45 24.03.2020
536 Clear 5 1033 25 10000 5.1 120 12:27 24.03.2020
537 Clear 5 1034 27 10000 5.7 130 11:57 24.03.2020
538 Clear 5 1034 27 10000 5.7 130 11:38 24.03.2020
539 Clear 4 1034 29 10000 5.1 120 11:18 24.03.2020
540 Clear 4 1034 34 10000 6.7 120 10:42 24.03.2020
541 Clear 3 1034 34 10000 5.7 120 10:19 24.03.2020
542 Clear 3 1034 34 10000 5.7 120 10:19 24.03.2020
543 Clear 3 1035 37 10000 4.1 120 09:48 24.03.2020
544 Clear 2 1035 37 10000 4.1 120 09:27 24.03.2020
545 Clear 1 1034 43 10000 4.6 130 08:58 24.03.2020
546 Clear 1 1034 36 10000 3.6 120 08:38 24.03.2020
547 Clear -1 1034 54 10000 3.6 130 08:20 24.03.2020
548 Clear -2 1034 58 10000 2.1 130 07:45 24.03.2020
549 Clear -2 1034 62 10000 1.5 120 07:22 24.03.2020
550 Clouds -4 1034 85 10000 0.5 270 06:42 24.03.2020
551 Clear -3 1033 54 10000 3.6 120 06:21 24.03.2020
552 Clear -3 1034 79 10000 1 300 04:52 24.03.2020
553 Clear -3 1034 73 10000 1 350 03:41 24.03.2020
554 Clear -2 1034 79 10000 1.5 310 02:44 24.03.2020
555 Clear -1 1033 43 10000 4.1 120 00:57 24.03.2020
556 Clear -1 1033 43 10000 4.6 110 00:28 24.03.2020
557 Clear 0 1034 50 10000 1.5 0 23:59 23.03.2020
558 Clear 0 1033 43 10000 4.1 110 23:38 23.03.2020
559 Clear 0 1033 43 10000 4.1 120 23:19 23.03.2020
560 Clear 1 1035 40 10000 1.5 110 22:45 23.03.2020
561 Clear 1 1033 40 10000 4.1 100 22:23 23.03.2020
562 Clear 1 1033 40 10000 4.1 100 21:55 23.03.2020
563 Clear 1 1033 37 10000 4.1 100 21:37 23.03.2020
564 Clear 1 1035 40 10000 2.1 70 21:37 23.03.2020
565 Clear 1 1033 37 10000 4.1 100 21:19 23.03.2020
566 Clear 1 1034 40 10000 1 70 20:55 23.03.2020
567 Clear 2 1034 40 10000 1 70 20:36 23.03.2020
568 Clear 2 1034 47 10000 2.6 130 20:18 23.03.2020
569 Clear 2 1034 47 10000 2.6 130 20:18 23.03.2020
570 Clear 2 1034 43 10000 3.1 120 19:41 23.03.2020
571 Clear 3 1034 37 10000 3.6 110 19:22 23.03.2020
572 Clear 4 1033 32 10000 4.6 90 18:56 23.03.2020
573 Clear 4 1033 32 10000 4.6 90 18:38 23.03.2020
574 Clear 5 1033 30 10000 5.7 90 18:18 23.03.2020
575 Clear 6 1033 27 10000 5.7 90 17:41 23.03.2020
576 Clear 6 1033 27 10000 6.2 90 17:20 23.03.2020
577 Clear 7 1033 26 10000 6.2 80 16:55 23.03.2020
578 Clear 7 1033 26 10000 6.2 80 16:37 23.03.2020
579 Clear 7 1033 26 10000 4.1 80 16:18 23.03.2020
580 Clear 6 1034 28 10000 5.1 90 15:40 23.03.2020
581 Clear 6 1034 22 10000 5.7 120 15:19 23.03.2020
582 Clear 6 1034 25 10000 6.2 110 14:38 23.03.2020
583 Clear 6 1034 23 10000 6.2 120 14:19 23.03.2020
584 Clear 6 1034 23 10000 6.2 120 13:57 23.03.2020
585 Clear 6 1035 25 10000 6.7 110 13:38 23.03.2020
586 Clear 6 1035 25 10000 6.7 110 13:38 23.03.2020
587 Clear 6 1035 25 10000 7.2 110 13:20 23.03.2020
588 Clear 5 1035 29 10000 6.7 120 12:44 23.03.2020
589 Clear 4 1035 27 10000 7.7 110 12:25 23.03.2020
590 Clear 4 1036 32 10000 6.2 110 11:57 23.03.2020
591 Clear 4 1036 32 10000 6.7 130 11:38 23.03.2020
592 Clear 4 1036 32 10000 6.2 110 11:38 23.03.2020
593 Clear 3 1036 32 10000 6.7 130 11:19 23.03.2020
594 Clear 3 1036 31 10000 6.2 140 10:56 23.03.2020
595 Clear 2 1036 31 10000 6.2 140 10:36 23.03.2020
596 Clear 2 1036 34 10000 6.7 130 10:18 23.03.2020
597 Clear 2 1036 34 10000 7.7 120 09:42 23.03.2020
598 Clear 1 1036 32 10000 7.2 130 09:20 23.03.2020
599 Clear 0 1036 42 10000 4.6 120 08:38 23.03.2020
600 Clear -1 1036 50 10000 4.1 100 08:20 23.03.2020
601 Clear -2 1036 54 10000 3.1 90 07:54 23.03.2020
602 Clear -2 1036 54 10000 3.1 90 07:34 23.03.2020
603 Clear -3 1035 50 10000 5.1 120 06:58 23.03.2020
604 Clear -3 1036 79 10000 2.33 104 06:40 23.03.2020
605 Clear -3 1034 46 10000 5.7 120 05:45 23.03.2020
606 Clear -2 1036 58 10000 1.5 70 04:41 23.03.2020
607 Clear -2 1034 52 10000 6.2 120 03:23 23.03.2020
608 Clear -1 1036 58 10000 4.1 140 01:50 23.03.2020
609 Clear 0 1036 54 10000 3.6 120 00:50 23.03.2020
610 Clear 0 1034 47 10000 5.1 110 00:29 23.03.2020
611 Clear 0 1035 48 10000 4.6 110 23:44 22.03.2020
612 Clear 0 1034 43 10000 5.1 110 23:24 22.03.2020
613 Clear 1 1034 43 10000 5.1 110 22:42 22.03.2020
614 Clear 1 1034 50 10000 4.6 100 22:22 22.03.2020
615 Clear 1 1034 50 10000 4.6 100 21:54 22.03.2020
616 Clear 1 1034 50 10000 4.6 100 21:36 22.03.2020
617 Clear 1 1034 50 10000 5.1 100 21:18 22.03.2020
618 Clear 2 1034 50 10000 5.1 110 20:42 22.03.2020
619 Clear 2 1034 50 10000 5.1 110 20:24 22.03.2020
620 Clear 2 1034 50 10000 4.6 100 19:57 22.03.2020
621 Clear 3 1033 43 10000 5.7 100 19:39 22.03.2020
622 Clear 3 1033 40 10000 6.2 100 19:19 22.03.2020
623 Clear 3 1033 40 10000 6.2 100 18:58 22.03.2020
624 Clear 4 1033 41 10000 6.7 80 18:40 22.03.2020
625 Clear 4 1032 38 10000 7.2 90 18:21 22.03.2020
626 Clear 5 1032 38 10000 7.2 90 17:57 22.03.2020
627 Clear 5 1032 38 10000 7.2 90 17:38 22.03.2020
628 Clear 5 1032 35 10000 7.7 90 17:20 22.03.2020
629 Clear 5 1032 35 10000 7.7 90 16:57 22.03.2020
630 Clear 6 1032 35 10000 7.2 90 16:39 22.03.2020
631 Clear 6 1032 35 10000 8.2 90 16:20 22.03.2020
632 Clear 6 1032 35 10000 7.2 100 15:40 22.03.2020
633 Clear 6 1032 35 10000 7.7 90 15:20 22.03.2020
634 Clear 6 1032 38 10000 7.2 80 14:46 22.03.2020
635 Clear 6 1032 38 10000 7.2 80 14:46 22.03.2020
636 Clear 5 1032 41 10000 8.2 90 14:18 22.03.2020
637 Clear 5 1032 41 10000 8.2 90 13:43 22.03.2020
638 Clouds 5 1032 41 10000 7.7 90 13:20 22.03.2020
639 Clouds 5 1033 44 10000 8.7 100 12:57 22.03.2020
640 Clouds 4 1033 44 10000 8.7 100 12:38 22.03.2020
641 Clouds 4 1033 44 10000 8.7 100 12:18 22.03.2020
642 Clouds 4 1032 47 10000 9.3 90 11:43 22.03.2020
643 Clouds 3 1032 47 10000 8.7 80 11:25 22.03.2020
644 Clouds 3 1032 47 10000 8.7 80 10:58 22.03.2020
645 Clouds 3 1032 47 10000 8.2 90 10:39 22.03.2020
646 Clouds 3 1032 55 10000 7.7 100 10:21 22.03.2020
647 Clear 2 1032 59 10000 6.2 100 09:43 22.03.2020
648 Clear 2 1032 59 10000 6.2 100 09:43 22.03.2020
649 Clear 2 1032 59 10000 6.2 100 09:24 22.03.2020
650 Clear 1 1032 52 10000 4.6 100 08:48 22.03.2020
651 Clear 1 1032 52 10000 4.6 100 08:48 22.03.2020
652 Clear 1 1032 52 10000 4.6 100 08:48 22.03.2020
653 Clear 0 1032 52 10000 4.6 100 08:29 22.03.2020
654 Clear 0 1032 68 10000 2.6 70 07:53 22.03.2020
655 Clear -1 1032 68 10000 2.6 70 07:32 22.03.2020
656 Clear -1 1030 63 10000 5.1 100 06:40 22.03.2020
657 Clear -1 1031 71 10000 1.5 80 05:41 22.03.2020
658 Clear 0 1030 74 10000 4.1 90 04:34 22.03.2020
659 Clear 1 1030 51 10000 3.6 80 01:36 22.03.2020
660 Clear 1 1030 51 10000 3.1 80 00:49 22.03.2020
661 Clear 1 1029 64 10000 5.1 80 00:29 22.03.2020
662 Clear 1 1029 47 10000 4.1 70 23:45 21.03.2020
663 Clear 1 1029 64 10000 4.1 80 23:21 21.03.2020
664 Clear 2 1029 64 10000 4.1 80 22:58 21.03.2020
665 Clear 2 1029 51 10000 4.6 80 22:37 21.03.2020
666 Clouds 2 1029 64 10000 3.1 80 22:18 21.03.2020
667 Clouds 2 1029 64 10000 3.1 80 21:56 21.03.2020
668 Clear 2 1029 51 10000 5.1 80 21:37 21.03.2020
669 Clouds 2 1029 59 10000 3.6 80 21:18 21.03.2020
670 Clear 3 1029 48 10000 6.2 80 20:42 21.03.2020
671 Clouds 3 1029 55 10000 4.6 80 20:20 21.03.2020
672 Clouds 3 1028 51 10000 5.1 80 19:45 21.03.2020
673 Clouds 3 1028 55 10000 7.2 80 19:25 21.03.2020
674 Clouds 4 1028 55 10000 7.2 80 18:59 21.03.2020
675 Clouds 4 1028 51 10000 7.2 90 18:40 21.03.2020
676 Clouds 4 1028 51 10000 7.2 70 18:20 21.03.2020
677 Clouds 4 1028 51 10000 7.7 100 17:57 21.03.2020
678 Clouds 5 1028 51 10000 7.7 100 17:39 21.03.2020
679 Clouds 5 1028 51 10000 8.7 80 17:21 21.03.2020
680 Clouds 5 1027 48 10000 8.7 80 16:41 21.03.2020
681 Clouds 6 1027 45 10000 7.7 80 16:22 21.03.2020
682 Clouds 6 1027 45 10000 7.7 80 15:58 21.03.2020
683 Clouds 7 1027 45 10000 8.2 80 15:39 21.03.2020
684 Clouds 6 1027 45 10000 8.2 60 15:21 21.03.2020
685 Clouds 6 1027 45 10000 8.2 60 14:55 21.03.2020
686 Clouds 6 1027 52 10000 7.7 50 14:37 21.03.2020
687 Clouds 6 1027 48 10000 7.7 70 14:18 21.03.2020
688 Clouds 6 1027 48 10000 7.7 70 13:57 21.03.2020
689 Clouds 6 1027 48 10000 8.2 80 13:38 21.03.2020
690 Clouds 6 1027 52 10000 7.2 70 13:19 21.03.2020
691 Clouds 6 1028 52 10000 8.2 70 12:41 21.03.2020
692 Clouds 5 1027 60 10000 8.7 60 12:20 21.03.2020
693 Clouds 5 1028 56 10000 8.2 80 11:59 21.03.2020
694 Clouds 5 1028 56 10000 8.2 80 11:39 21.03.2020
695 Clouds 5 1027 60 10000 9.8 70 11:20 21.03.2020
696 Clouds 5 1027 60 10000 9.8 80 10:58 21.03.2020
697 Clouds 5 1027 60 10000 9.8 80 10:39 21.03.2020
698 Clouds 5 1027 64 10000 10.8 70 10:21 21.03.2020
699 Clouds 5 1027 64 10000 5.1 70 09:58 21.03.2020
700 Clouds 4 1027 64 10000 5.1 70 09:39 21.03.2020
701 Clouds 4 1027 71 10000 4.6 60 09:20 21.03.2020
702 Clouds 4 1027 71 10000 3.6 40 08:55 21.03.2020
703 Clouds 4 1027 71 10000 3.6 40 08:37 21.03.2020
704 Clouds 4 1027 92 10000 4.1 30 08:18 21.03.2020
705 Clouds 3 1027 92 10000 3.1 20 07:33 21.03.2020
706 Clouds 3 1026 92 10000 5.1 30 06:56 21.03.2020
707 Clouds 3 1026 92 10000 5.1 30 06:36 21.03.2020
708 Clouds 3 1026 86 10000 5.7 20 06:18 21.03.2020
709 Clouds 4 1027 92 10000 5.7 50 05:23 21.03.2020
710 Clouds 4 1025 75 10000 3.6 30 03:38 21.03.2020
711 Clouds 5 1026 75 10000 3.1 30 02:36 21.03.2020
712 Clouds 4 1026 75 10000 3.6 30 01:42 21.03.2020
713 Clouds 4 1027 80 10000 1 0 01:21 21.03.2020
714 Clouds 4 1027 80 10000 1.5 20 00:38 21.03.2020
715 Clouds 5 1027 80 10000 2.1 60 23:59 20.03.2020
716 Clouds 5 1027 80 10000 2.6 80 23:41 20.03.2020
717 Snow 5 1027 80 10000 2.6 60 23:20 20.03.2020
718 Snow 5 1026 80 10000 3.6 30 22:43 20.03.2020
719 Clouds 5 1027 80 10000 4.1 60 22:24 20.03.2020
720 Clouds 5 1027 80 10000 5.1 60 21:58 20.03.2020
721 Snow 5 1026 88 10000 4.6 40 21:39 20.03.2020
722 Rain 5 1027 80 10000 3.1 30 21:19 20.03.2020
723 Rain 5 1027 80 10000 3.1 30 20:57 20.03.2020
724 Snow 5 1026 75 10000 2.1 30 20:39 20.03.2020
725 Rain 5 1025 75 10000 4.6 30 20:18 20.03.2020
726 Rain 6 1025 75 10000 3.6 30 19:46 20.03.2020
727 Clouds 6 1025 75 10000 3.6 40 19:19 20.03.2020
728 Clouds 6 1025 75 10000 4.1 30 18:56 20.03.2020
729 Clouds 6 1025 75 10000 4.1 30 18:37 20.03.2020
730 Clouds 6 1025 80 10000 2.6 40 18:19 20.03.2020
731 Clouds 7 1024 80 10000 4.1 40 17:40 20.03.2020
732 Clouds 7 1024 86 10000 3.6 30 17:22 20.03.2020
733 Rain 7 1024 93 9000 3.1 10 16:59 20.03.2020
734 Rain 7 1024 93 9000 3.1 10 16:41 20.03.2020
735 Drizzle 7 1024 93 6000 3.6 10 16:20 20.03.2020
736 Drizzle 7 1024 93 6000 3.6 10 16:20 20.03.2020
737 Clouds 7 1024 93 10000 3.6 360 15:43 20.03.2020
738 Clouds 7 1024 87 10000 4.1 10 15:22 20.03.2020
739 Clouds 8 1024 87 10000 4.1 10 14:57 20.03.2020
740 Clouds 8 1024 87 10000 4.1 10 14:38 20.03.2020
741 Clouds 8 1024 87 10000 3.6 20 14:19 20.03.2020
742 Clouds 8 1024 87 10000 4.1 10 13:46 20.03.2020
743 Clouds 8 1024 87 10000 4.6 20 13:20 20.03.2020
744 Clouds 8 1024 87 10000 5.7 20 12:54 20.03.2020
745 Clouds 8 1024 87 10000 5.7 20 12:36 20.03.2020
746 Clouds 8 1024 87 10000 4.6 10 12:18 20.03.2020
747 Clouds 8 1024 87 10000 4.1 30 11:39 20.03.2020
748 Clouds 8 1024 93 10000 4.1 20 11:20 20.03.2020
749 Clouds 8 1024 93 7000 4.1 360 10:54 20.03.2020
750 Clouds 8 1024 93 7000 4.1 360 10:36 20.03.2020
751 Mist 8 1024 93 4500 4.1 350 10:18 20.03.2020
752 Clouds 8 1023 81 8000 3.1 30 09:43 20.03.2020
753 Mist 8 1023 93 3900 3.6 360 09:20 20.03.2020
754 Mist 8 1023 93 3700 3.1 360 08:43 20.03.2020
755 Mist 8 1023 93 3600 2.6 360 08:23 20.03.2020
756 Mist 8 1023 93 3600 2.6 360 07:57 20.03.2020
757 Mist 8 1023 100 3400 2.6 350 07:38 20.03.2020
758 Mist 8 1023 93 4000 1.5 290 07:19 20.03.2020
759 Mist 8 1023 100 3200 2.6 350 06:42 20.03.2020
760 Clouds 8 1023 87 8000 1.5 300 05:57 20.03.2020
761 Clouds 9 1023 87 9000 1 330 04:27 20.03.2020
762 Clouds 9 1023 81 10000 1.5 320 02:43 20.03.2020
763 Clouds 8 1023 81 10000 1.5 320 01:50 20.03.2020
764 Clouds 8 1024 87 10000 1.5 50 00:38 20.03.2020
765 Clouds 8 1024 81 9000 1.5 300 23:55 19.03.2020
766 Clouds 8 1024 87 10000 2.6 70 23:36 19.03.2020
767 Clouds 9 1024 87 10000 1.5 50 23:18 19.03.2020
768 Clouds 9 1024 76 8000 2.1 20 22:38 19.03.2020
769 Clouds 9 1024 76 8000 2.1 20 22:38 19.03.2020
770 Clouds 9 1024 81 10000 2.1 30 22:20 19.03.2020
771 Clouds 10 1024 81 10000 2.1 30 21:57 19.03.2020
772 Clouds 10 1024 81 10000 3.1 20 21:38 19.03.2020
773 Clouds 10 1024 81 10000 3.1 20 21:18 19.03.2020
774 Clouds 10 1024 76 10000 3.6 360 20:42 19.03.2020
775 Clouds 10 1024 76 10000 3.6 360 20:42 19.03.2020
776 Clouds 10 1024 76 10000 3.6 360 20:24 19.03.2020
777 Rain 11 1024 76 10000 3.1 360 19:57 19.03.2020
778 Rain 11 1024 62 10000 1 40 19:38 19.03.2020
779 Rain 12 1024 62 10000 1.5 40 19:20 19.03.2020
780 Rain 12 1024 62 10000 1.5 40 18:56 19.03.2020
781 Clouds 13 1024 58 10000 1 300 18:38 19.03.2020
782 Clouds 13 1024 58 10000 1 300 18:19 19.03.2020
783 Clouds 14 1024 58 10000 1 20 17:42 19.03.2020
784 Clouds 14 1024 47 10000 1.5 80 17:19 19.03.2020
785 Clouds 14 1024 47 10000 1.5 80 17:19 19.03.2020
786 Clouds 15 1024 47 10000 1 80 16:45 19.03.2020
787 Clouds 15 1024 47 10000 1 80 16:45 19.03.2020
788 Clouds 15 1024 47 10000 1 80 16:25 19.03.2020
789 Clouds 15 1024 50 10000 1 0 15:58 19.03.2020
790 Clouds 15 1024 54 10000 2.1 20 15:40 19.03.2020
791 Clouds 15 1024 50 10000 1.5 280 15:18 19.03.2020
792 Clouds 15 1024 47 10000 2.6 330 14:43 19.03.2020
793 Clouds 15 1025 54 10000 2.1 310 14:21 19.03.2020
794 Clouds 15 1025 54 10000 3.6 310 13:41 19.03.2020
795 Clouds 15 1025 50 10000 2.6 330 13:20 19.03.2020
796 Clouds 15 1025 54 10000 1 0 12:58 19.03.2020
797 Clouds 15 1025 54 10000 1 0 12:40 19.03.2020
798 Clouds 15 1026 58 10000 2.1 340 12:21 19.03.2020
799 Clouds 14 1026 66 10000 2.1 330 11:43 19.03.2020
800 Clouds 13 1026 66 10000 1.5 10 11:24 19.03.2020
801 Clouds 13 1026 66 10000 0.5 0 10:57 19.03.2020
802 Clouds 12 1026 66 10000 0.5 0 10:38 19.03.2020
803 Clouds 11 1025 71 10000 1.5 70 10:19 19.03.2020
804 Clouds 10 1025 81 10000 1 0 09:45 19.03.2020
805 Clouds 9 1025 81 10000 1 0 09:27 19.03.2020
806 Clouds 9 1025 81 10000 1 0 08:59 19.03.2020
807 Clear 8 1025 81 10000 0.5 0 08:41 19.03.2020
808 Clear 7 1025 87 10000 1 0 08:19 19.03.2020
809 Clouds 7 1025 93 10000 1 0 07:44 19.03.2020
810 Clouds 7 1025 81 10000 1 0 07:23 19.03.2020
811 Clouds 7 1024 70 10000 2.1 0 06:34 19.03.2020
812 Clouds 8 1024 70 10000 2.1 0 05:47 19.03.2020
813 Clear 6 1025 93 10000 0.5 300 04:53 19.03.2020
814 Clear 6 1024 81 10000 1.5 210 04:34 19.03.2020
815 Clear 7 1025 87 10000 1.38 195 02:37 19.03.2020
816 Clouds 7 1025 71 10000 4.6 190 00:58 19.03.2020
817 Clear 7 1025 66 10000 4.1 190 00:22 19.03.2020
818 Clear 7 1025 93 10000 1 310 23:48 18.03.2020
819 Clear 7 1025 66 10000 3.6 190 23:27 18.03.2020
820 Clear 8 1025 86 10000 1.44 235 22:44 18.03.2020
821 Clear 8 1025 76 10000 2.6 230 22:24 18.03.2020
822 Clear 8 1025 76 10000 2.6 230 21:59 18.03.2020
823 Clear 8 1025 76 10000 3.1 230 21:41 18.03.2020
824 Clear 9 1025 66 10000 3.6 280 21:21 18.03.2020
825 Clear 10 1025 66 10000 3.6 280 20:57 18.03.2020
826 Clear 10 1025 71 10000 2.6 240 20:38 18.03.2020
827 Clouds 10 1025 66 10000 3.1 220 20:19 18.03.2020
828 Clouds 11 1025 62 10000 3.1 220 19:55 18.03.2020
829 Clouds 12 1025 62 10000 3.1 220 19:36 18.03.2020
830 Clouds 12 1025 62 10000 3.6 230 19:18 18.03.2020
831 Clouds 13 1025 54 10000 4.6 220 18:41 18.03.2020
832 Clouds 14 1024 54 10000 5.1 220 18:20 18.03.2020
833 Clouds 15 1024 51 10000 4.6 230 17:57 18.03.2020
834 Clouds 15 1024 51 10000 4.6 230 17:39 18.03.2020
835 Clouds 16 1024 48 10000 5.1 230 17:20 18.03.2020
836 Clouds 16 1024 48 10000 4.6 240 16:54 18.03.2020
837 Clouds 16 1024 48 10000 4.6 240 16:36 18.03.2020
838 Clouds 16 1025 51 10000 5.7 230 16:18 18.03.2020
839 Clouds 17 1025 42 10000 4.6 240 15:44 18.03.2020
840 Clouds 16 1025 41 10000 4.6 250 15:20 18.03.2020
841 Clouds 16 1025 44 10000 4.6 260 14:44 18.03.2020
842 Clouds 16 1026 44 10000 5.7 210 14:21 18.03.2020
843 Clouds 16 1026 47 10000 4.1 220 13:42 18.03.2020
844 Clouds 16 1027 44 10000 4.1 240 13:20 18.03.2020
845 Clouds 15 1027 44 10000 4.1 220 12:59 18.03.2020
846 Clouds 15 1027 44 10000 4.1 220 12:41 18.03.2020
847 Clouds 15 1027 50 10000 3.6 220 12:19 18.03.2020
848 Clouds 14 1027 54 10000 4.6 220 11:39 18.03.2020
849 Clouds 13 1027 54 10000 4.6 210 11:20 18.03.2020
850 Clouds 13 1027 58 10000 4.1 230 10:58 18.03.2020
851 Clouds 12 1027 58 10000 4.1 230 10:38 18.03.2020
852 Clouds 12 1027 58 10000 4.6 230 10:20 18.03.2020
853 Clouds 10 1027 66 10000 2.6 140 09:43 18.03.2020
854 Clouds 10 1027 66 10000 2.6 140 09:25 18.03.2020
855 Clouds 8 1028 75 10000 1.5 130 08:56 18.03.2020
856 Clouds 7 1028 75 10000 1.5 130 08:38 18.03.2020
857 Clouds 6 1028 75 10000 0.5 0 08:20 18.03.2020
858 Clouds 5 1027 90 10000 1 180 07:44 18.03.2020
859 Clouds 5 1028 93 10000 1.5 130 07:26 18.03.2020
860 Clouds 4 1028 93 10000 1.5 130 06:44 18.03.2020
861 Clouds 5 1027 61 10000 4.6 200 06:20 18.03.2020
862 Clouds 5 1027 61 10000 4.6 200 05:34 18.03.2020
863 Clouds 5 1027 81 10000 5.1 200 04:24 18.03.2020
864 Clouds 5 1028 81 10000 1 310 02:43 18.03.2020
865 Clouds 5 1028 77 10000 4.6 190 01:48 18.03.2020
866 Clouds 5 1028 49 10000 4.6 190 01:26 18.03.2020
867 Clouds 6 1029 49 10000 4.1 190 00:24 18.03.2020
868 Clouds 6 1029 86 10000 0.5 270 23:47 17.03.2020
869 Clouds 6 1029 86 10000 0.5 270 23:27 17.03.2020
870 Clouds 7 1029 70 10000 1.5 180 22:55 17.03.2020
871 Clouds 7 1029 70 10000 1.5 180 22:37 17.03.2020
872 Clouds 7 1029 75 10000 1 260 22:18 17.03.2020
873 Clouds 7 1029 75 10000 1 0 21:39 17.03.2020
874 Clouds 8 1029 70 10000 1.5 280 21:21 17.03.2020
875 Clouds 8 1029 70 10000 1 0 20:40 17.03.2020
876 Clouds 9 1029 61 10000 1 0 20:21 17.03.2020
877 Clouds 10 1028 53 10000 1 0 19:58 17.03.2020
878 Clouds 10 1028 53 10000 1 0 19:39 17.03.2020
879 Clouds 10 1028 61 10000 2.6 340 19:18 17.03.2020
880 Clouds 11 1028 50 10000 2.6 350 18:55 17.03.2020
881 Clouds 11 1028 50 10000 2.6 350 18:37 17.03.2020
882 Clouds 12 1028 47 10000 3.1 340 18:19 17.03.2020
883 Clouds 13 1028 69 10000 2.6 310 17:40 17.03.2020
884 Clouds 14 1028 33 10000 2.1 310 17:21 17.03.2020
885 Clouds 15 1028 33 10000 3.1 320 16:45 17.03.2020
886 Clouds 15 1028 44 10000 1.5 80 16:20 17.03.2020
887 Clouds 14 1028 35 10000 4.1 320 15:58 17.03.2020
888 Clouds 14 1028 35 10000 4.1 320 15:39 17.03.2020
889 Clouds 14 1028 41 10000 2.6 350 15:18 17.03.2020
890 Clouds 14 1028 51 10000 2.6 320 14:41 17.03.2020
891 Clouds 14 1029 43 10000 2.1 0 14:21 17.03.2020
892 Clouds 14 1029 43 10000 2.1 0 14:21 17.03.2020
893 Clouds 13 1029 47 10000 2.6 0 13:43 17.03.2020
894 Clouds 13 1029 47 10000 2.6 0 13:25 17.03.2020
895 Clouds 13 1029 50 10000 2.6 0 12:58 17.03.2020
896 Clouds 12 1029 54 10000 3.1 310 12:39 17.03.2020
897 Clouds 12 1029 62 10000 4.1 320 12:21 17.03.2020
898 Clouds 11 1029 62 10000 3.6 310 11:45 17.03.2020
899 Clouds 11 1029 66 10000 3.6 300 11:27 17.03.2020
900 Clouds 10 1029 71 9000 5.1 300 10:57 17.03.2020
901 Clouds 10 1029 71 9000 5.1 300 10:37 17.03.2020
902 Clouds 10 1029 81 8000 4.6 310 10:19 17.03.2020
903 Clouds 9 1029 81 8000 5.7 310 09:55 17.03.2020
904 Clouds 9 1029 81 8000 5.7 310 09:36 17.03.2020
905 Clouds 9 1028 76 9000 4.1 310 09:18 17.03.2020
906 Clouds 8 1028 87 9000 3.6 300 08:42 17.03.2020
907 Clouds 8 1028 87 9000 2.6 290 08:20 17.03.2020
908 Clouds 7 1027 93 9000 2.1 310 07:49 17.03.2020
909 Clouds 7 1027 87 8000 2.6 290 07:21 17.03.2020
910 Clouds 7 1026 93 7000 0.5 0 06:52 17.03.2020
911 Clouds 7 1026 93 8000 0.5 0 06:25 17.03.2020
912 Clouds 7 1026 93 10000 2.1 240 05:34 17.03.2020
913 Clouds 7 1025 87 10000 2.1 310 03:36 17.03.2020
914 Rain 7 1025 81 10000 1.5 210 02:31 17.03.2020
915 Clouds 8 1025 81 10000 1 0 01:39 17.03.2020
916 Clouds 7 1024 81 10000 2.1 280 00:54 17.03.2020
917 Clouds 7 1024 87 10000 1 0 00:19 17.03.2020
918 Clouds 7 1024 87 10000 3.6 180 23:38 16.03.2020
919 Clouds 8 1024 87 10000 1.5 0 23:19 16.03.2020
920 Clouds 8 1024 76 10000 2.1 300 22:38 16.03.2020
921 Clouds 8 1024 81 10000 1.5 190 22:20 16.03.2020
922 Clouds 8 1024 81 10000 1.5 190 22:20 16.03.2020
923 Clouds 8 1023 66 10000 2.6 300 21:45 16.03.2020
924 Clouds 9 1023 71 10000 2.1 320 21:27 16.03.2020
925 Clouds 9 1023 71 10000 2.1 320 20:59 16.03.2020
926 Clouds 9 1023 66 10000 1 300 20:39 16.03.2020
927 Clouds 10 1023 66 10000 1 360 20:20 16.03.2020
928 Clouds 11 1022 71 10000 2.6 350 19:46 16.03.2020
929 Clouds 11 1022 71 10000 2.6 350 19:24 16.03.2020
930 Clouds 12 1022 66 10000 2.6 320 18:59 16.03.2020
931 Clouds 12 1021 62 10000 1.5 340 18:39 16.03.2020
932 Clouds 14 1021 62 10000 1.5 340 18:19 16.03.2020
933 Clouds 15 1020 62 10000 1 0 17:46 16.03.2020
934 Clouds 15 1020 51 10000 2.6 10 17:25 16.03.2020
935 Clouds 16 1020 44 10000 2.1 30 16:56 16.03.2020
936 Clouds 16 1020 44 10000 2.1 30 16:37 16.03.2020
937 Clouds 16 1020 45 10000 4.1 190 16:19 16.03.2020
938 Clouds 16 1020 47 10000 1.5 80 15:42 16.03.2020
939 Clouds 16 1020 47 10000 1.5 80 15:23 16.03.2020
940 Clouds 16 1020 47 10000 1.5 80 15:23 16.03.2020
941 Clouds 16 1019 47 10000 3.1 70 14:45 16.03.2020
942 Clouds 15 1019 47 10000 2.6 100 14:20 16.03.2020
943 Clouds 15 1019 47 10000 3.1 110 13:47 16.03.2020
944 Clouds 15 1019 47 10000 3.6 110 13:27 16.03.2020
945 Clouds 15 1019 47 10000 3.6 110 12:57 16.03.2020
946 Clouds 14 1019 54 10000 3.1 70 12:38 16.03.2020
947 Clouds 14 1019 50 10000 2.1 90 12:19 16.03.2020
948 Clouds 13 1019 57 10000 1.5 80 11:42 16.03.2020
949 Clouds 12 1019 53 10000 1 0 11:23 16.03.2020
950 Clouds 11 1019 53 10000 1.5 50 10:43 16.03.2020
951 Clouds 11 1018 61 10000 1.5 40 10:24 16.03.2020
952 Clouds 9 1018 61 10000 1 0 09:49 16.03.2020
953 Clouds 8 1018 65 10000 2.6 130 09:30 16.03.2020
954 Clouds 8 1018 65 10000 2.6 130 08:59 16.03.2020
955 Clouds 6 1017 70 10000 2.1 130 08:36 16.03.2020
956 Clouds 5 1017 86 10000 2.1 100 08:18 16.03.2020
957 Clouds 4 1016 86 10000 2.1 110 07:40 16.03.2020
958 Clouds 4 1015 57 10000 5.7 170 07:18 16.03.2020
959 Clouds 4 1015 57 10000 5.1 170 06:28 16.03.2020
960 Clouds 4 1016 86 10000 2.6 310 05:54 16.03.2020
961 Clouds 4 1013 92 10000 5.1 180 03:54 16.03.2020
962 Clouds 5 1015 90 10000 0.5 350 01:44 16.03.2020
963 Clouds 5 1015 87 10000 0.5 10 00:43 16.03.2020
964 Clouds 5 1015 87 10000 1 300 23:56 15.03.2020
965 Clouds 5 1015 87 10000 1 300 23:37 15.03.2020
966 Clouds 5 1014 85 10000 1.5 130 23:18 15.03.2020
967 Clouds 7 1014 85 10000 1.5 130 22:41 15.03.2020
968 Clouds 6 1014 85 10000 1.5 120 22:20 15.03.2020
969 Clouds 7 1014 85 10000 2.6 120 21:39 15.03.2020
970 Clouds 7 1014 85 10000 3.1 120 21:21 15.03.2020
971 Clouds 8 1014 85 10000 4.6 160 20:55 15.03.2020
972 Clouds 8 1014 85 10000 4.6 160 20:36 15.03.2020
973 Clouds 8 1014 77 10000 4.1 170 20:18 15.03.2020
974 Clouds 9 1014 75 10000 4.1 150 19:42 15.03.2020
975 Clouds 10 1013 53 10000 4.6 150 19:24 15.03.2020
976 Clouds 10 1013 53 10000 4.6 150 18:59 15.03.2020
977 Clouds 10 1013 50 10000 4.1 150 18:40 15.03.2020
978 Clouds 11 1013 75 10000 4.6 160 18:22 15.03.2020
979 Clouds 12 1013 46 10000 6.7 170 17:57 15.03.2020
980 Clouds 12 1013 46 10000 6.7 170 17:38 15.03.2020
981 Clouds 13 1014 56 10000 7.2 160 17:18 15.03.2020
982 Clouds 13 1014 56 10000 6.2 180 16:43 15.03.2020
983 Clouds 13 1014 46 10000 7.2 170 16:25 15.03.2020
984 Clouds 13 1014 46 10000 7.2 170 15:58 15.03.2020
985 Clouds 13 1014 46 10000 7.7 170 15:40 15.03.2020
986 Clouds 13 1014 43 10000 5.1 190 15:19 15.03.2020
987 Clouds 13 1015 46 10000 8.2 180 14:46 15.03.2020
988 Clouds 13 1015 43 10000 7.7 200 14:24 15.03.2020
989 Clouds 13 1015 43 10000 7.7 200 13:57 15.03.2020
990 Clouds 13 1016 46 10000 8.7 180 13:38 15.03.2020
991 Clouds 13 1016 46 10000 8.7 180 13:38 15.03.2020
992 Clouds 12 1016 50 10000 8.2 180 13:20 15.03.2020
993 Clouds 12 1016 50 10000 7.2 190 12:44 15.03.2020
994 Clouds 12 1017 50 10000 7.2 170 12:25 15.03.2020
995 Clouds 12 1017 57 10000 5.7 170 11:55 15.03.2020
996 Clouds 12 1017 57 10000 5.7 170 11:36 15.03.2020
997 Clouds 10 1017 57 10000 7.2 180 11:18 15.03.2020
998 Clouds 10 1018 57 10000 6.2 190 10:55 15.03.2020
999 Clouds 10 1018 57 10000 6.2 190 10:36 15.03.2020
1000 Clouds 9 1018 64 10000 7.2 170 10:18 15.03.2020
1001 Clouds 8 1018 65 10000 4.6 150 09:39 15.03.2020
1002 Clouds 7 1018 64 10000 4.1 140 09:20 15.03.2020
1003 Clouds 6 1018 64 10000 5.1 150 08:41 15.03.2020
1004 Clouds 4 1018 86 10000 4.6 150 08:20 15.03.2020
1005 Clouds 4 1018 86 10000 4.1 140 07:50 15.03.2020
1006 Clouds 4 1017 86 10000 5.1 170 07:23 15.03.2020
1007 Clouds 3 1019 86 10000 3.1 190 06:44 15.03.2020
1008 Clouds 3 1019 80 10000 3.1 170 05:49 15.03.2020
1009 Clouds 3 1017 65 10000 4.6 170 04:58 15.03.2020
1010 Clouds 3 1020 80 10000 3.1 160 04:40 15.03.2020
1011 Clouds 3 1018 86 10000 5.1 180 04:20 15.03.2020
1012 Clouds 3 1018 86 10000 5.7 180 03:24 15.03.2020
1013 Clouds 3 1019 86 10000 6.2 180 02:28 15.03.2020
1014 Clear 3 1019 87 10000 2.6 110 00:59 15.03.2020
1015 Clear 3 1019 60 10000 1.5 110 00:41 15.03.2020
1016 Clear 3 1019 60 10000 1 0 00:19 15.03.2020
1017 Clouds 4 1021 80 10000 1 0 23:40 14.03.2020
1018 Clear 4 1019 85 10000 3.1 160 23:20 14.03.2020
1019 Clouds 4 1021 75 10000 2.6 190 22:56 14.03.2020
1020 Clouds 4 1021 75 10000 2.6 190 22:38 14.03.2020
1021 Clear 5 1020 65 10000 5.1 170 22:19 14.03.2020
1022 Clear 5 1020 65 10000 5.1 170 21:55 14.03.2020
1023 Clear 5 1020 65 10000 5.1 170 21:55 14.03.2020
1024 Clear 5 1021 85 10000 5.1 140 21:36 14.03.2020
1025 Clear 5 1021 85 10000 5.1 140 21:36 14.03.2020
1026 Clear 5 1021 85 10000 5.1 140 21:18 14.03.2020
1027 Clear 5 1021 85 10000 5.1 140 21:18 14.03.2020
1028 Clear 5 1021 85 10000 5.1 140 20:56 14.03.2020
1029 Clear 5 1021 85 10000 5.1 140 20:56 14.03.2020
1030 Clear 6 1021 85 10000 4.6 140 20:38 14.03.2020
1031 Clouds 6 1021 82 10000 3.6 140 20:18 14.03.2020
1032 Clouds 6 1021 81 10000 3.1 150 19:41 14.03.2020
1033 Clouds 6 1021 81 10000 3.1 150 19:21 14.03.2020
1034 Clouds 7 1021 81 10000 3.1 150 18:41 14.03.2020
1035 Clouds 8 1021 81 10000 3.6 160 18:21 14.03.2020
1036 Clouds 9 1021 81 10000 4.1 140 17:43 14.03.2020
1037 Clouds 9 1021 60 10000 4.6 130 17:24 14.03.2020
1038 Clouds 9 1021 60 10000 4.6 130 16:59 14.03.2020
1039 Clouds 9 1021 60 10000 4.6 120 16:39 14.03.2020
1040 Clouds 9 1021 60 10000 4.1 110 16:20 14.03.2020
1041 Clouds 9 1021 60 10000 4.1 110 15:48 14.03.2020
1042 Clouds 9 1021 60 10000 4.1 110 15:25 14.03.2020
1043 Clouds 9 1021 60 10000 3.6 130 14:44 14.03.2020
1044 Clouds 9 1022 60 10000 3.6 140 14:22 14.03.2020
1045 Clouds 9 1022 57 10000 3.6 140 13:57 14.03.2020
1046 Clouds 8 1022 57 10000 3.6 140 13:39 14.03.2020
1047 Clouds 8 1022 56 10000 3.1 150 13:20 14.03.2020
1048 Clouds 8 1022 56 10000 3.1 140 12:44 14.03.2020
1049 Clouds 8 1022 65 10000 3.1 140 12:26 14.03.2020
1050 Clouds 7 1022 70 10000 3.6 130 11:46 14.03.2020
1051 Clouds 7 1022 75 10000 3.1 150 11:26 14.03.2020
1052 Clouds 6 1022 80 10000 1.5 140 10:57 14.03.2020
1053 Clouds 6 1022 80 10000 1.5 140 10:39 14.03.2020
1054 Clouds 5 1022 86 8000 1.5 130 10:20 14.03.2020
1055 Fog 4 1022 100 6000 2.1 140 09:41 14.03.2020
1056 Fog 4 1023 100 400 0.5 50 09:22 14.03.2020
1057 Fog 3 1022 100 100 2.6 120 08:47 14.03.2020
1058 Fog 2 1021 100 50 2.1 110 08:28 14.03.2020
1059 Fog 1 1021 94 50 1.5 160 07:51 14.03.2020
1060 Fog 1 1021 94 9000 1.5 140 07:23 14.03.2020
1061 Fog 1 1021 94 9000 1.5 140 06:59 14.03.2020
1062 Fog 1 1021 94 9000 1 100 06:39 14.03.2020
1063 Clouds 2 1021 93 10000 0.5 100 05:19 14.03.2020
1064 Clouds 2 1021 100 10000 1 140 03:42 14.03.2020
1065 Clouds 2 1021 93 10000 1 260 03:23 14.03.2020
1066 Clouds 3 1021 93 10000 1 140 02:20 14.03.2020
1067 Clouds 3 1021 86 10000 1.5 280 00:42 14.03.2020
1068 Clouds 4 1021 86 10000 0.5 0 23:45 13.03.2020
1069 Clouds 3 1020 86 10000 2.6 270 23:26 13.03.2020
1070 Clouds 4 1020 86 10000 1.5 260 22:47 13.03.2020
1071 Clouds 4 1020 86 10000 2.6 260 22:25 13.03.2020
1072 Clouds 4 1020 93 10000 0.5 210 21:43 13.03.2020
1073 Clouds 4 1019 93 10000 3.6 250 21:21 13.03.2020
1074 Clouds 4 1019 93 10000 3.6 250 20:57 13.03.2020
1075 Clouds 4 1019 93 10000 3.6 250 20:38 13.03.2020
1076 Clouds 4 1018 93 10000 4.1 250 20:19 13.03.2020
1077 Clouds 5 1018 86 10000 4.1 250 19:42 13.03.2020
1078 Clouds 5 1018 86 10000 4.1 250 19:42 13.03.2020
1079 Clouds 5 1018 86 10000 3.6 260 19:23 13.03.2020
1080 Clouds 5 1018 86 10000 3.6 260 19:23 13.03.2020
1081 Clouds 5 1018 86 10000 4.1 270 18:44 13.03.2020
1082 Rain 6 1017 86 10000 6.7 280 18:25 13.03.2020
1083 Rain 6 1017 93 8000 10.8 310 17:55 13.03.2020
1084 Rain 6 1017 93 8000 10.8 310 17:37 13.03.2020
1085 Rain 7 1016 75 10000 8.2 320 17:18 13.03.2020
1086 Clouds 6 1016 70 10000 9.3 330 16:40 13.03.2020
1087 Clouds 6 1016 70 10000 9.3 330 16:22 13.03.2020
1088 Clouds 7 1015 61 10000 9.3 290 15:55 13.03.2020
1089 Clouds 7 1015 61 10000 9.3 290 15:37 13.03.2020
1090 Rain 7 1015 61 10000 7.7 270 15:18 13.03.2020
1091 Rain 8 1014 61 10000 7.2 270 14:41 13.03.2020
1092 Clouds 8 1015 61 10000 9.3 270 14:22 13.03.2020
1093 Clouds 8 1015 61 10000 9.3 270 13:55 13.03.2020
1094 Clouds 8 1015 61 10000 9.3 270 13:55 13.03.2020
1095 Clouds 8 1015 65 10000 11.3 280 13:37 13.03.2020
1096 Clouds 8 1014 52 10000 10.3 270 13:18 13.03.2020
1097 Clouds 7 1014 52 10000 10.3 270 12:39 13.03.2020
1098 Clouds 7 1016 66 10000 10.8 240 12:21 13.03.2020
1099 Clouds 7 1013 65 10000 9.3 260 11:57 13.03.2020
1100 Clouds 7 1013 65 10000 9.3 260 11:37 13.03.2020
1101 Clouds 7 1013 65 10000 10.8 260 11:19 13.03.2020
1102 Clouds 6 1012 75 10000 8.7 260 10:47 13.03.2020
1103 Clouds 6 1012 75 10000 8.7 260 10:26 13.03.2020
1104 Clouds 6 1011 68 10000 8.7 240 09:56 13.03.2020
1105 Clouds 6 1011 68 10000 8.7 240 09:56 13.03.2020
1106 Clouds 5 1011 68 10000 7.7 230 09:38 13.03.2020
1107 Rain 5 1012 80 10000 5.1 260 09:19 13.03.2020
1108 Rain 5 1012 80 10000 5.1 260 09:19 13.03.2020
1109 Clouds 5 1013 68 10000 5.7 200 08:41 13.03.2020
1110 Rain 5 1010 80 9000 9.3 230 08:22 13.03.2020
1111 Clouds 5 1012 77 10000 4.6 180 07:45 13.03.2020
1112 Clouds 5 1010 75 10000 8.7 220 07:27 13.03.2020
1113 Clouds 5 1012 65 10000 4.6 180 06:46 13.03.2020
1114 Clouds 5 1011 77 10000 8.2 230 06:23 13.03.2020
1115 Clouds 5 1010 77 10000 8.2 240 05:46 13.03.2020
1116 Clouds 5 1012 60 10000 7.2 200 04:57 13.03.2020
1117 Clouds 5 1011 80 10000 7.2 240 04:26 13.03.2020
1118 Clouds 5 1011 80 10000 7.2 240 02:58 13.03.2020
1119 Clouds 6 1012 82 10000 7.2 220 01:39 13.03.2020
1120 Clouds 6 1010 70 10000 6.2 230 01:18 13.03.2020
1121 Rain 5 1012 80 8000 6.2 230 00:42 13.03.2020
1122 Clouds 5 1010 80 10000 6.7 240 00:20 13.03.2020
1123 Clouds 5 1010 75 10000 6.7 230 23:40 12.03.2020
1124 Rain 5 1010 79 10000 6.7 230 23:22 12.03.2020
1125 Clouds 5 1011 60 10000 3.1 210 22:47 12.03.2020
1126 Rain 5 1010 79 10000 5.1 240 22:29 12.03.2020
1127 Rain 5 1010 79 10000 5.1 240 21:59 12.03.2020
1128 Clouds 5 1011 80 10000 3.6 250 21:40 12.03.2020
1129 Clouds 5 1011 75 10000 4.6 260 21:21 12.03.2020
1130 Rain 5 1011 75 8000 7.7 280 20:42 12.03.2020
1131 Rain 5 1011 75 8000 7.7 280 20:42 12.03.2020
1132 Clear 6 1010 48 10000 5.7 240 20:20 12.03.2020
1133 Clouds 6 1010 48 10000 5.7 240 20:20 12.03.2020
1134 Clouds 6 1010 52 10000 4.1 240 19:56 12.03.2020
1135 Clouds 6 1010 52 10000 4.1 240 19:37 12.03.2020
1136 Clouds 7 1010 48 10000 4.6 250 19:18 12.03.2020
1137 Clouds 8 1010 39 10000 5.1 260 18:42 12.03.2020
1138 Clouds 9 1010 39 10000 7.7 260 18:22 12.03.2020
1139 Clouds 9 1010 36 10000 6.7 270 17:56 12.03.2020
1140 Clouds 9 1010 36 10000 6.7 270 17:37 12.03.2020
1141 Clear 10 1009 34 10000 7.7 260 17:18 12.03.2020
1142 Clear 10 1010 34 10000 6.7 260 16:41 12.03.2020
1143 Clear 10 1010 29 10000 8.2 260 16:23 12.03.2020
1144 Clear 11 1010 31 10000 8.2 290 15:49 12.03.2020
1145 Clouds 10 1010 31 10000 8.2 290 15:28 12.03.2020
1146 Clouds 10 1010 31 10000 8.2 290 14:58 12.03.2020
1147 Clouds 11 1010 31 10000 11.3 290 14:38 12.03.2020
1148 Clouds 11 1010 31 10000 11.3 290 14:38 12.03.2020
1149 Clouds 10 1010 34 10000 7.2 270 14:18 12.03.2020
1150 Clouds 10 1010 34 10000 10.3 290 13:40 12.03.2020
1151 Clouds 10 1010 45 10000 10.3 270 13:21 12.03.2020
1152 Clouds 10 1010 45 10000 10.3 270 12:55 12.03.2020
1153 Clouds 10 1009 49 10000 10.3 270 12:37 12.03.2020
1154 Clouds 10 1009 61 10000 10.3 280 12:18 12.03.2020
1155 Clouds 9 1009 61 10000 10.3 270 11:55 12.03.2020
1156 Clouds 10 1009 61 10000 10.3 270 11:36 12.03.2020
1157 Clouds 9 1008 70 10000 13.9 280 11:18 12.03.2020
1158 Rain 10 1007 81 9000 15.4 300 10:43 12.03.2020
1159 Rain 9 1007 81 9000 15.4 300 10:23 12.03.2020
1160 Clouds 10 1006 71 10000 9.8 260 09:55 12.03.2020
1161 Clouds 10 1006 71 10000 8.2 250 09:37 12.03.2020
1162 Rain 11 1006 76 10000 8.2 260 09:19 12.03.2020
1163 Clouds 11 1008 76 10000 10.3 240 08:38 12.03.2020
1164 Rain 11 1004 76 10000 9.3 220 08:18 12.03.2020
1165 Rain 11 1004 76 10000 9.8 230 07:47 12.03.2020
1166 Rain 11 1004 81 10000 11.8 230 07:21 12.03.2020
1167 Clouds 12 1004 81 10000 11.8 220 06:20 12.03.2020
1168 Clouds 12 1004 81 10000 12.9 210 05:34 12.03.2020
1169 Rain 12 1006 81 10000 10.3 220 03:34 12.03.2020
1170 Clouds 12 1009 81 10000 6.2 210 01:57 12.03.2020
1171 Clouds 12 1007 76 10000 11.8 230 01:21 12.03.2020
1172 Clouds 12 1010 87 10000 6.2 190 00:42 12.03.2020
1173 Drizzle 11 1010 87 10000 5.7 210 23:57 11.03.2020
1174 Drizzle 11 1010 87 8000 5.7 200 23:28 11.03.2020
1175 Drizzle 11 1010 87 8000 5.7 200 22:59 11.03.2020
1176 Drizzle 11 1010 87 8000 5.7 200 22:39 11.03.2020
1177 Rain 11 1009 87 10000 6.2 220 22:21 11.03.2020
1178 Rain 11 1009 87 10000 6.2 220 21:57 11.03.2020
1179 Clouds 11 1010 87 10000 6.2 230 21:39 11.03.2020
1180 Drizzle 11 1012 93 10000 3.6 200 21:21 11.03.2020
1181 Clouds 11 1010 81 10000 7.2 230 20:56 11.03.2020
1182 Clouds 11 1011 87 10000 3.1 210 20:36 11.03.2020
1183 Clouds 10 1011 87 10000 3.1 210 20:18 11.03.2020
1184 Clouds 11 1012 87 10000 2.6 190 19:42 11.03.2020
1185 Clouds 11 1012 87 10000 2.6 190 19:24 11.03.2020
1186 Clouds 11 1012 93 10000 2.1 180 18:56 11.03.2020
1187 Drizzle 11 1012 93 6000 2.1 240 18:37 11.03.2020
1188 Drizzle 11 1012 93 6000 2.1 240 18:18 11.03.2020
1189 Rain 11 1012 87 10000 4.1 250 17:40 11.03.2020
1190 Rain 11 1012 87 10000 2.1 230 17:21 11.03.2020
1191 Rain 11 1012 87 10000 2.1 230 16:56 11.03.2020
1192 Clouds 12 1012 87 10000 2.6 260 16:38 11.03.2020
1193 Clouds 11 1012 93 10000 2.6 280 16:19 11.03.2020
1194 Drizzle 11 1012 93 6000 5.1 300 15:42 11.03.2020
1195 Drizzle 11 1012 93 9000 5.1 300 15:23 11.03.2020
1196 Clouds 11 1012 81 10000 4.1 270 14:44 11.03.2020
1197 Clouds 11 1012 81 10000 2.6 250 14:24 11.03.2020
1198 Clouds 11 1012 81 10000 2.6 250 13:59 11.03.2020
1199 Clouds 10 1011 81 10000 3.6 240 13:40 11.03.2020
1200 Clouds 10 1011 81 10000 5.1 290 13:21 11.03.2020
1201 Clouds 10 1011 87 10000 3.6 290 12:41 11.03.2020
1202 Rain 9 1011 93 10000 0.5 0 12:21 11.03.2020
1203 Rain 9 1011 93 10000 0.5 0 11:57 11.03.2020
1204 Rain 9 1011 100 8000 1.5 150 11:39 11.03.2020
1205 Drizzle 9 1011 93 4000 1 100 11:19 11.03.2020
1206 Drizzle 8 1011 93 3000 1 80 10:46 11.03.2020
1207 Clouds 8 1010 93 6000 0.5 0 10:19 11.03.2020
1208 Rain 8 1010 93 9000 0.5 0 09:54 11.03.2020
1209 Rain 8 1010 93 9000 0.5 0 09:36 11.03.2020
1210 Clouds 7 1010 93 9000 2.1 300 09:18 11.03.2020
1211 Clouds 7 1010 87 10000 3.1 260 08:41 11.03.2020
1212 Drizzle 7 1010 93 9000 1.5 200 08:22 11.03.2020
1213 Clouds 7 1009 87 10000 4.1 260 07:45 11.03.2020
1214 Drizzle 7 1010 93 4500 0.5 0 07:20 11.03.2020
1215 Clouds 8 1010 87 10000 0.5 0 06:48 11.03.2020
1216 Clouds 8 1008 87 10000 5.1 240 05:43 11.03.2020
1217 Rain 8 1008 87 8000 5.1 310 04:52 11.03.2020
1218 Rain 10 1007 93 6000 4.1 280 02:30 11.03.2020
1219 Clouds 11 1006 76 10000 7.2 250 01:43 11.03.2020
1220 Rain 11 1006 76 10000 7.2 240 00:49 11.03.2020
1221 Rain 11 1005 81 10000 7.7 250 00:21 11.03.2020
1222 Rain 11 1006 76 10000 7.7 240 23:43 10.03.2020
1223 Rain 11 1004 93 9000 8.7 250 23:22 10.03.2020
1224 Rain 11 1005 87 10000 4.1 220 22:41 10.03.2020
1225 Rain 10 1004 93 5000 9.3 250 22:20 10.03.2020
1226 Rain 10 1004 93 5000 9.3 250 21:57 10.03.2020
1227 Drizzle 10 1005 93 10000 6.2 210 21:39 10.03.2020
1228 Rain 10 1004 93 6000 3.1 240 21:20 10.03.2020
1229 Rain 10 1004 93 6000 3.1 240 21:20 10.03.2020
1230 Rain 10 1004 93 6000 3.1 240 20:59 10.03.2020
1231 Rain 10 1004 93 8000 3.6 220 20:41 10.03.2020
1232 Rain 10 1004 93 5000 4.1 230 20:19 10.03.2020
1233 Rain 10 1004 93 5000 4.1 230 19:57 10.03.2020
1234 Rain 10 1004 93 7000 5.1 220 19:39 10.03.2020
1235 Rain 10 1004 87 10000 5.1 220 19:21 10.03.2020
1236 Rain 9 1003 87 10000 5.1 210 18:45 10.03.2020
1237 Rain 9 1003 87 10000 5.1 210 18:45 10.03.2020
1238 Rain 9 1003 93 10000 5.7 210 18:27 10.03.2020
1239 Clouds 9 1003 93 10000 6.7 210 17:58 10.03.2020
1240 Clouds 9 1003 93 10000 6.7 210 17:40 10.03.2020
1241 Drizzle 9 1005 93 5000 4.1 200 17:21 10.03.2020
1242 Drizzle 9 1005 93 5000 4.1 200 17:21 10.03.2020
1243 Drizzle 9 1005 93 5000 5.1 200 16:40 10.03.2020
1244 Clouds 9 1004 87 10000 4.1 220 16:20 10.03.2020
1245 Rain 9 1004 87 10000 5.1 210 15:57 10.03.2020
1246 Rain 9 1004 87 10000 5.1 210 15:39 10.03.2020
1247 Rain 8 1004 93 10000 4.6 200 15:19 10.03.2020
1248 Rain 8 1004 93 10000 4.6 200 14:54 10.03.2020
1249 Drizzle 8 1004 87 10000 5.7 200 14:36 10.03.2020
1250 Rain 8 1004 87 10000 6.2 200 14:18 10.03.2020
1251 Rain 7 1005 87 10000 6.7 200 13:42 10.03.2020
1252 Rain 7 1005 87 10000 7.7 210 13:24 10.03.2020
1253 Drizzle 7 1005 87 10000 8.2 210 12:42 10.03.2020
1254 Drizzle 7 1007 87 7000 5.1 210 12:21 10.03.2020
1255 Drizzle 7 1005 87 10000 8.7 210 11:59 10.03.2020
1256 Drizzle 6 1005 87 10000 8.7 210 11:41 10.03.2020
1257 Rain 6 1005 87 10000 8.2 210 11:22 10.03.2020
1258 Rain 6 1005 86 10000 7.2 210 10:43 10.03.2020
1259 Rain 6 1005 86 10000 7.7 200 10:23 10.03.2020
1260 Drizzle 5 1007 86 7000 8.2 220 09:59 10.03.2020
1261 Drizzle 5 1007 86 7000 8.2 220 09:41 10.03.2020
1262 Rain 5 1005 80 10000 7.2 200 09:19 10.03.2020
1263 Rain 5 1005 80 10000 7.2 200 09:19 10.03.2020
1264 Rain 5 1005 86 7000 7.7 190 08:51 10.03.2020
1265 Rain 5 1005 86 7000 7.7 190 08:32 10.03.2020
1266 Rain 5 1006 86 10000 7.7 190 07:51 10.03.2020
1267 Rain 5 1006 86 10000 7.7 190 07:32 10.03.2020
1268 Rain 5 1008 86 8000 9.3 200 06:47 10.03.2020
1269 Rain 5 1005 80 10000 9.3 180 06:28 10.03.2020
1270 Clouds 5 1006 80 10000 8.2 180 05:41 10.03.2020
1271 Rain 5 1010 80 10000 6.2 190 04:49 10.03.2020
1272 Clouds 5 1008 75 10000 7.7 200 03:55 10.03.2020
1273 Clouds 5 1010 75 10000 6.7 200 02:27 10.03.2020
1274 Clouds 5 1011 75 10000 6.7 190 01:25 10.03.2020
1275 Clouds 4 1014 75 10000 5.1 210 00:42 10.03.2020
1276 Clouds 4 1013 75 10000 5.1 190 00:23 10.03.2020
1277 Clouds 4 1013 75 10000 5.7 190 23:41 09.03.2020
1278 Clouds 4 1013 75 10000 5.1 180 23:21 09.03.2020
1279 Clouds 4 1015 88 10000 1.5 190 22:43 09.03.2020
1280 Clouds 4 1014 80 10000 4.1 210 22:22 09.03.2020
1281 Clouds 4 1014 80 10000 4.1 210 22:22 09.03.2020
1282 Clouds 4 1014 80 10000 4.1 210 21:59 09.03.2020
1283 Clouds 4 1015 88 10000 0.5 0 21:40 09.03.2020
1284 Rain 4 1014 86 10000 7.2 240 21:21 09.03.2020
1285 Rain 4 1014 86 10000 7.2 240 20:56 09.03.2020
1286 Clouds 4 1015 88 10000 1 220 20:56 09.03.2020
1287 Clear 4 1014 80 10000 2.1 230 20:38 09.03.2020
1288 Rain 4 1014 80 10000 2.1 230 20:20 09.03.2020
1289 Rain 5 1014 75 10000 2.6 230 19:44 09.03.2020
1290 Rain 5 1014 75 10000 3.6 260 19:25 09.03.2020
1291 Rain 6 1014 75 10000 3.6 260 18:58 09.03.2020
1292 Rain 6 1014 75 10000 3.6 260 18:58 09.03.2020
1293 Rain 6 1014 70 10000 3.6 270 18:38 09.03.2020
1294 Clouds 7 1014 70 10000 3.6 270 18:19 09.03.2020
1295 Clouds 7 1014 70 10000 3.6 270 17:57 09.03.2020
1296 Rain 8 1014 70 10000 6.2 290 17:38 09.03.2020
1297 Rain 8 1013 70 10000 5.1 300 17:20 09.03.2020
1298 Rain 9 1013 57 10000 5.1 290 16:58 09.03.2020
1299 Rain 9 1013 57 10000 5.1 290 16:39 09.03.2020
1300 Clouds 9 1012 70 10000 4.6 300 16:20 09.03.2020
1301 Clouds 9 1012 70 10000 4.6 300 15:58 09.03.2020
1302 Clouds 9 1012 66 10000 2.6 210 15:38 09.03.2020
1303 Clouds 9 1012 66 10000 2.6 210 15:19 09.03.2020
1304 Rain 9 1012 70 10000 2.1 260 14:54 09.03.2020
1305 Rain 9 1012 75 10000 6.2 290 14:36 09.03.2020
1306 Rain 9 1012 75 10000 6.2 290 14:36 09.03.2020
1307 Clouds 9 1012 61 10000 5.1 250 14:18 09.03.2020
1308 Rain 9 1012 70 10000 9.3 290 13:40 09.03.2020
1309 Rain 9 1012 61 10000 5.1 260 13:22 09.03.2020
1310 Rain 8 1011 66 10000 5.7 230 12:59 09.03.2020
1311 Rain 9 1011 66 10000 5.7 230 12:41 09.03.2020
1312 Clouds 9 1011 65 10000 5.7 240 12:20 09.03.2020
1313 Clouds 8 1011 71 10000 4.6 260 11:41 09.03.2020
1314 Clouds 8 1011 80 10000 4.6 260 11:21 09.03.2020
1315 Clouds 8 1011 70 10000 4.1 250 10:58 09.03.2020
1316 Clouds 8 1011 70 10000 4.1 250 10:58 09.03.2020
1317 Clouds 8 1011 70 10000 4.1 250 10:40 09.03.2020
1318 Clouds 8 1011 70 10000 4.1 250 10:40 09.03.2020
1319 Clouds 8 1011 70 10000 4.1 250 10:19 09.03.2020
1320 Clouds 8 1011 70 10000 4.1 250 10:19 09.03.2020
1321 Clouds 8 1011 81 10000 3.6 250 09:43 09.03.2020
1322 Rain 7 1010 87 10000 3.1 230 09:24 09.03.2020
1323 Rain 6 1010 93 10000 2.6 230 08:55 09.03.2020
1324 Rain 6 1010 93 10000 1.5 200 08:37 09.03.2020
1325 Rain 6 1010 93 10000 1.5 200 08:18 09.03.2020
1326 Rain 6 1009 81 10000 2.1 260 07:39 09.03.2020
1327 Rain 6 1009 87 10000 3.1 250 07:21 09.03.2020
1328 Clouds 6 1010 87 10000 2.6 230 06:43 09.03.2020
1329 Clouds 6 1009 87 10000 2.6 230 06:23 09.03.2020
1330 Clouds 6 1009 87 10000 2.1 210 05:46 09.03.2020
1331 Clouds 7 1009 81 10000 2.1 190 04:59 09.03.2020
1332 Clouds 7 1008 87 10000 4.6 220 04:40 09.03.2020
1333 Clouds 7 1008 87 10000 4.6 220 04:21 09.03.2020
1334 Rain 8 1008 93 10000 4.6 200 02:56 09.03.2020
1335 Clouds 8 1009 81 10000 6.2 200 00:46 09.03.2020
1336 Clouds 8 1008 81 10000 6.2 210 00:27 09.03.2020
1337 Clouds 8 1009 81 10000 5.7 190 23:59 08.03.2020
1338 Clouds 8 1009 81 10000 3.6 170 23:39 08.03.2020
1339 Clouds 8 1009 81 10000 3.6 170 23:20 08.03.2020
1340 Clouds 8 1009 81 10000 4.1 170 22:42 08.03.2020
1341 Clouds 8 1010 75 10000 4.1 170 22:22 08.03.2020
1342 Clouds 8 1010 75 10000 4.6 190 21:59 08.03.2020
1343 Clouds 8 1010 75 10000 4.6 190 21:41 08.03.2020
1344 Clouds 9 1010 75 10000 5.1 180 21:20 08.03.2020
1345 Clouds 9 1010 70 10000 5.7 180 20:58 08.03.2020
1346 Clouds 9 1011 66 10000 5.7 200 20:38 08.03.2020
1347 Clouds 9 1011 66 10000 5.7 200 20:19 08.03.2020
1348 Clouds 9 1011 66 10000 5.1 200 19:40 08.03.2020
1349 Clouds 9 1011 70 10000 4.6 180 19:19 08.03.2020
1350 Clouds 9 1011 66 10000 6.2 180 18:56 08.03.2020
1351 Clouds 9 1012 70 10000 4.6 200 18:38 08.03.2020
1352 Clouds 9 1011 66 10000 6.7 180 18:19 08.03.2020
1353 Clouds 9 1011 66 10000 6.2 180 17:40 08.03.2020
1354 Clouds 10 1011 66 10000 6.2 180 17:22 08.03.2020
1355 Clouds 10 1011 66 10000 6.2 180 16:58 08.03.2020
1356 Clouds 10 1011 66 10000 6.2 180 16:40 08.03.2020
1357 Clouds 10 1011 66 10000 6.2 180 16:22 08.03.2020
1358 Clouds 10 1012 66 10000 7.2 190 15:41 08.03.2020
1359 Clouds 11 1012 61 10000 6.2 200 15:22 08.03.2020
1360 Clouds 11 1012 61 10000 6.2 200 14:59 08.03.2020
1361 Clouds 10 1013 61 10000 8.2 200 14:38 08.03.2020
1362 Clouds 10 1012 61 10000 7.7 190 14:19 08.03.2020
1363 Clouds 10 1013 66 10000 6.2 190 13:42 08.03.2020
1364 Clouds 9 1013 70 10000 6.2 220 13:21 08.03.2020
1365 Clouds 9 1014 75 10000 5.7 180 12:56 08.03.2020
1366 Clouds 9 1014 75 10000 5.7 180 12:36 08.03.2020
1367 Clouds 9 1014 70 10000 4.6 170 12:18 08.03.2020
1368 Clouds 8 1015 70 10000 5.7 190 11:41 08.03.2020
1369 Clouds 7 1015 75 10000 5.7 200 11:21 08.03.2020
1370 Clouds 7 1015 75 10000 5.7 200 11:21 08.03.2020
1371 Clouds 7 1016 70 10000 6.2 200 10:42 08.03.2020
1372 Clouds 7 1016 70 10000 6.2 200 10:42 08.03.2020
1373 Clouds 7 1016 70 10000 6.2 200 10:24 08.03.2020
1374 Clouds 7 1015 75 10000 6.2 220 09:59 08.03.2020
1375 Clouds 7 1015 75 10000 6.2 220 09:38 08.03.2020
1376 Clouds 6 1015 75 10000 6.7 210 09:20 08.03.2020
1377 Clouds 6 1016 80 10000 7.2 200 08:42 08.03.2020
1378 Clouds 5 1016 75 10000 6.2 190 08:21 08.03.2020
1379 Clouds 5 1016 80 10000 3.6 160 07:45 08.03.2020
1380 Clouds 5 1014 70 10000 6.7 190 07:26 08.03.2020
1381 Clouds 4 1017 75 10000 1.5 150 06:43 08.03.2020
1382 Clouds 4 1014 70 10000 5.1 180 06:24 08.03.2020
1383 Clouds 4 1017 94 10000 3.1 170 05:43 08.03.2020
1384 Clouds 4 1016 75 10000 6.2 190 03:52 08.03.2020
1385 Clouds 3 1017 70 10000 6.2 190 02:38 08.03.2020
1386 Clouds 3 1017 88 10000 5.7 200 01:35 08.03.2020
1387 Clouds 2 1019 74 10000 4.1 170 00:58 08.03.2020
1388 Clouds 2 1019 74 10000 4.1 170 00:28 08.03.2020
1389 Clouds 2 1020 80 10000 2.1 200 23:48 07.03.2020
1390 Clouds 2 1019 65 10000 5.7 190 23:26 07.03.2020
1391 Clouds 1 1019 65 10000 5.7 190 22:56 07.03.2020
1392 Clouds 2 1019 86 10000 4.6 180 22:37 07.03.2020
1393 Clouds 2 1019 86 10000 4.6 180 22:19 07.03.2020
1394 Clouds 2 1020 74 10000 0.5 0 21:43 07.03.2020
1395 Clouds 2 1019 86 10000 4.6 190 21:19 07.03.2020
1396 Clouds 3 1019 74 10000 2.1 210 20:40 07.03.2020
1397 Clouds 3 1019 74 10000 2.1 210 20:20 07.03.2020
1398 Clouds 4 1019 69 10000 2.1 210 19:41 07.03.2020
1399 Clouds 4 1019 84 10000 1.5 220 19:22 07.03.2020
1400 Clouds 5 1019 84 10000 2.6 230 18:58 07.03.2020
1401 Clouds 5 1019 84 10000 2.6 230 18:39 07.03.2020
1402 Clouds 6 1018 84 10000 3.1 250 18:20 07.03.2020
1403 Clouds 6 1018 84 10000 3.1 300 17:41 07.03.2020
1404 Clouds 7 1018 60 10000 3.6 290 17:19 07.03.2020
1405 Clouds 6 1018 67 10000 5.1 300 16:56 07.03.2020
1406 Clouds 7 1018 67 10000 5.1 300 16:38 07.03.2020
1407 Clouds 7 1017 60 10000 6.7 290 16:19 07.03.2020
1408 Clouds 7 1017 60 10000 5.1 310 15:42 07.03.2020
1409 Clouds 7 1017 60 10000 6.2 320 15:22 07.03.2020
1410 Clouds 7 1017 67 10000 5.1 300 14:59 07.03.2020
1411 Clouds 6 1017 67 10000 5.1 300 14:41 07.03.2020
1412 Clouds 6 1017 75 10000 3.1 300 14:23 07.03.2020
1413 Clouds 7 1017 75 10000 3.6 300 13:42 07.03.2020
1414 Clouds 6 1017 80 10000 4.6 300 13:21 07.03.2020
1415 Clouds 6 1016 80 10000 5.7 300 12:58 07.03.2020
1416 Clouds 5 1016 80 10000 5.1 300 12:38 07.03.2020
1417 Clouds 5 1016 80 10000 5.1 300 12:18 07.03.2020
1418 Clouds 5 1016 86 10000 6.2 300 11:42 07.03.2020
1419 Clouds 4 1015 80 10000 4.6 290 11:24 07.03.2020
1420 Clouds 4 1015 86 10000 4.6 290 10:57 07.03.2020
1421 Clouds 4 1015 86 10000 4.1 300 10:38 07.03.2020
1422 Clouds 4 1015 86 10000 4.1 300 10:18 07.03.2020
1423 Clouds 4 1014 86 10000 5.7 300 09:40 07.03.2020
1424 Clouds 4 1014 86 10000 5.7 300 09:20 07.03.2020
1425 Clouds 4 1013 86 10000 6.7 300 08:57 07.03.2020
1426 Drizzle 4 1012 13 10000 7.2 310 08:39 07.03.2020
1427 Drizzle 4 1012 13 10000 7.2 310 08:20 07.03.2020
1428 Rain 3 1012 86 8000 7.7 300 07:46 07.03.2020
1429 Rain 3 1011 93 8000 7.2 290 07:21 07.03.2020
1430 Rain 3 993 88 0 3.58 270 06:43 07.03.2020
1431 Rain 4 993 89 0 2.68 270 06:25 07.03.2020
1432 Rain 4 1010 86 10000 4.6 310 05:40 07.03.2020
1433 Rain 4 1008 80 10000 4.6 310 03:47 07.03.2020
1434 Drizzle 4 1008 93 7000 4.1 290 02:44 07.03.2020
1435 Clouds 4 1007 80 10000 4.6 300 01:56 07.03.2020
1436 Clouds 4 1005 80 10000 5.7 300 00:58 07.03.2020
1437 Rain 4 1005 93 7000 4.6 290 00:23 07.03.2020
1438 Clouds 3 1004 80 10000 6.2 300 23:58 06.03.2020
1439 Rain 4 1003 93 10000 8.2 300 23:39 06.03.2020
1440 Rain 4 1003 93 10000 8.2 300 23:21 06.03.2020
1441 Rain 4 1002 93 10000 8.2 300 22:44 06.03.2020
1442 Rain 4 1002 93 10000 8.2 300 22:44 06.03.2020
1443 Drizzle 4 1002 93 10000 8.2 300 22:20 06.03.2020
1444 Drizzle 3 1001 93 10000 8.7 300 21:47 06.03.2020
1445 Drizzle 3 1001 93 10000 9.3 300 21:20 06.03.2020
1446 Drizzle 3 1000 93 10000 9.8 300 20:44 06.03.2020
1447 Rain 3 999 93 10000 7.7 300 20:22 06.03.2020
1448 Rain 3 999 93 10000 7.7 300 19:57 06.03.2020
1449 Rain 3 998 93 10000 7.7 300 19:39 06.03.2020
1450 Rain 3 998 93 10000 7.7 300 19:20 06.03.2020
1451 Rain 3 998 93 10000 7.2 300 18:42 06.03.2020
1452 Rain 3 997 93 10000 6.2 300 18:20 06.03.2020
1453 Rain 3 998 86 10000 3.1 300 17:56 06.03.2020
1454 Rain 3 996 93 10000 6.2 300 17:38 06.03.2020
1455 Rain 3 996 93 10000 6.2 290 17:20 06.03.2020
1456 Drizzle 3 995 93 8000 6.2 290 16:43 06.03.2020
1457 Drizzle 3 995 93 8000 6.2 290 16:22 06.03.2020
1458 Rain 4 994 93 10000 7.2 300 15:59 06.03.2020
1459 Drizzle 4 994 86 10000 7.7 290 15:40 06.03.2020
1460 Drizzle 4 994 86 10000 7.7 290 15:21 06.03.2020
1461 Snow 4 993 86 10000 7.7 290 14:40 06.03.2020
1462 Rain 5 992 86 10000 8.2 280 14:21 06.03.2020
1463 Rain 5 992 80 10000 8.7 290 13:44 06.03.2020
1464 Clouds 5 991 86 10000 7.2 290 13:23 06.03.2020
1465 Clouds 5 991 86 10000 7.2 290 13:23 06.03.2020
1466 Rain 6 990 86 10000 7.2 290 12:59 06.03.2020
1467 Rain 6 991 87 8000 5.1 300 12:39 06.03.2020
1468 Rain 6 991 87 8000 5.1 300 12:20 06.03.2020
1469 Rain 6 990 87 9000 1.5 310 11:59 06.03.2020
1470 Rain 6 990 87 8000 1.5 230 11:40 06.03.2020
1471 Rain 6 990 87 8000 1.5 230 11:20 06.03.2020
1472 Rain 6 988 93 9000 1.5 160 10:40 06.03.2020
1473 Rain 6 988 93 9000 1.5 160 10:21 06.03.2020
1474 Rain 6 988 93 9000 3.6 210 09:56 06.03.2020
1475 Clouds 5 987 93 10000 2.1 180 09:38 06.03.2020
1476 Clouds 5 987 93 10000 2.1 180 09:19 06.03.2020
1477 Rain 5 987 93 10000 2.1 180 08:46 06.03.2020
1478 Rain 5 987 93 10000 3.1 190 08:27 06.03.2020
1479 Rain 5 987 87 10000 2.1 200 07:58 06.03.2020
1480 Rain 5 986 93 10000 4.1 170 07:39 06.03.2020
1481 Rain 5 986 87 10000 4.1 200 06:59 06.03.2020
1482 Rain 5 986 87 10000 4.1 200 06:59 06.03.2020
1483 Drizzle 5 985 93 6000 1 230 06:41 06.03.2020
1484 Rain 6 986 87 10000 5.7 200 05:47 06.03.2020
1485 Rain 5 986 93 10000 1 0 05:28 06.03.2020
1486 Rain 5 985 93 8000 1.85 96 04:58 06.03.2020
1487 Drizzle 5 986 100 3000 2.1 80 02:56 06.03.2020
1488 Clouds 4 986 93 10000 4.1 120 01:41 06.03.2020
1489 Drizzle 4 987 93 8000 0.5 50 01:23 06.03.2020
1490 Rain 4 987 86 8000 4.6 120 00:37 06.03.2020
1491 Rain 4 987 86 8000 4.6 120 00:18 06.03.2020
1492 Rain 4 988 93 10000 3.1 120 23:42 05.03.2020
1493 Drizzle 4 988 93 10000 1 0 23:19 05.03.2020
1494 Rain 4 988 86 10000 4.6 100 22:40 05.03.2020
1495 Drizzle 5 989 86 10000 2.1 110 22:22 05.03.2020
1496 Drizzle 5 989 86 10000 2.1 110 22:22 05.03.2020
1497 Rain 5 989 86 10000 4.1 110 21:57 05.03.2020
1498 Rain 5 990 86 9000 4.1 110 21:38 05.03.2020
1499 Rain 5 990 86 9000 4.1 110 21:20 05.03.2020
1500 Rain 5 990 86 10000 4.1 110 20:58 05.03.2020
1501 Rain 5 990 86 10000 4.1 110 20:58 05.03.2020
1502 Rain 6 991 81 10000 6.7 120 20:39 05.03.2020
1503 Rain 6 991 81 10000 6.7 120 20:20 05.03.2020
1504 Rain 6 991 89 10000 4.6 120 19:58 05.03.2020
1505 Rain 6 991 75 10000 5.1 120 19:39 05.03.2020
1506 Rain 6 991 75 10000 5.1 120 19:18 05.03.2020
1507 Rain 6 991 75 10000 6.2 120 18:55 05.03.2020
1508 Rain 7 991 75 10000 5.7 120 18:36 05.03.2020
1509 Rain 7 991 75 10000 5.7 120 18:18 05.03.2020
1510 Drizzle 7 992 70 10000 7.2 110 17:42 05.03.2020
1511 Clouds 7 992 70 10000 6.2 110 17:22 05.03.2020
1512 Clouds 8 993 70 10000 5.7 120 16:57 05.03.2020
1513 Clouds 8 994 65 10000 6.2 120 16:38 05.03.2020
1514 Clouds 8 994 65 10000 6.2 120 16:19 05.03.2020
1515 Clouds 8 994 70 10000 5.7 110 15:45 05.03.2020
1516 Clouds 8 995 70 10000 5.1 120 15:23 05.03.2020
1517 Clouds 8 996 70 10000 4.6 120 14:59 05.03.2020
1518 Clouds 8 996 70 10000 4.6 120 14:40 05.03.2020
1519 Clouds 7 996 70 10000 5.1 130 14:21 05.03.2020
1520 Clouds 7 997 65 10000 5.7 140 13:56 05.03.2020
1521 Clouds 7 997 65 10000 5.7 140 13:37 05.03.2020
1522 Clouds 6 997 70 10000 6.2 140 13:19 05.03.2020
1523 Clouds 6 998 75 10000 5.7 140 12:41 05.03.2020
1524 Clouds 6 999 75 10000 5.7 130 12:20 05.03.2020
1525 Clouds 6 999 75 10000 4.6 130 11:57 05.03.2020
1526 Clouds 6 1000 80 10000 4.6 120 11:37 05.03.2020
1527 Clouds 5 1000 80 10000 4.6 120 11:19 05.03.2020
1528 Clouds 5 1000 80 10000 4.6 120 11:19 05.03.2020
1529 Rain 4 1000 86 10000 4.1 130 10:57 05.03.2020
1530 Rain 4 1000 86 10000 4.1 130 10:39 05.03.2020
1531 Drizzle 4 1001 86 10000 4.6 130 10:20 05.03.2020
1532 Rain 4 1001 93 10000 0.5 0 09:45 05.03.2020
1533 Clouds 3 1002 93 10000 4.1 120 09:27 05.03.2020
1534 Clouds 3 1003 93 10000 3.6 110 08:48 05.03.2020
1535 Clouds 2 1003 81 10000 3.6 130 08:30 05.03.2020
1536 Clouds 2 1003 92 10000 3.1 130 07:50 05.03.2020
1537 Clouds 1 1003 86 10000 3.6 130 07:23 05.03.2020
1538 Clouds 1 1004 92 10000 0.5 300 06:59 05.03.2020
1539 Clouds 1 1004 92 10000 0.5 300 06:41 05.03.2020
1540 Clouds 1 1003 86 10000 3.1 120 06:19 05.03.2020
1541 Clouds 1 1004 92 10000 4.1 120 05:32 05.03.2020
1542 Clouds 1 1005 94 10000 3.6 130 04:23 05.03.2020
1543 Clouds 0 1006 94 10000 2.1 100 03:58 05.03.2020
1544 Clouds 1 1007 94 10000 3.1 160 02:25 05.03.2020
1545 Clouds 1 1009 86 10000 1.5 0 01:24 05.03.2020
1546 Clouds 2 1009 86 10000 1.5 0 00:43 05.03.2020
1547 Clouds 2 1009 94 10000 1.5 200 23:56 04.03.2020
1548 Clouds 2 1008 94 10000 4.1 190 23:38 04.03.2020
1549 Clouds 2 1008 90 10000 4.1 190 23:19 04.03.2020
1550 Clouds 2 1009 90 10000 4.1 190 22:40 04.03.2020
1551 Clouds 3 1009 90 10000 4.6 190 22:19 04.03.2020
1552 Clouds 2 1010 75 10000 3.6 180 21:59 04.03.2020
1553 Clouds 2 1009 90 10000 4.1 190 21:41 04.03.2020
1554 Clouds 2 1009 90 10000 4.1 180 21:20 04.03.2020
1555 Clouds 3 1010 90 10000 5.1 250 20:56 04.03.2020
1556 Clouds 3 1009 90 10000 2.6 230 20:37 04.03.2020
1557 Clouds 3 1009 83 10000 2.6 230 20:19 04.03.2020
1558 Clouds 3 1009 74 10000 1.5 250 19:42 04.03.2020
1559 Clouds 4 1009 80 10000 1.5 220 19:23 04.03.2020
1560 Clouds 4 1009 86 10000 0.5 0 18:57 04.03.2020
1561 Clouds 5 1009 80 10000 2.1 120 18:37 04.03.2020
1562 Clouds 5 1009 80 10000 2.1 120 18:18 04.03.2020
1563 Clouds 5 1009 81 10000 1 130 17:55 04.03.2020
1564 Clouds 5 1009 81 10000 1 0 17:37 04.03.2020
1565 Clouds 6 1009 81 10000 1 0 17:19 04.03.2020
1566 Clouds 7 1009 81 10000 4.1 330 16:44 04.03.2020
1567 Rain 7 1010 65 10000 4.1 260 16:25 04.03.2020
1568 Clouds 7 1010 65 10000 4.6 260 15:59 04.03.2020
1569 Clouds 7 1010 65 10000 4.6 260 15:40 04.03.2020
1570 Clouds 6 1010 75 10000 4.1 250 15:21 04.03.2020
1571 Drizzle 6 1010 86 10000 2.6 290 14:55 04.03.2020
1572 Rain 6 1010 75 10000 4.1 240 14:36 04.03.2020
1573 Rain 6 1010 75 10000 4.1 240 14:18 04.03.2020
1574 Clouds 6 1011 75 10000 3.1 270 13:55 04.03.2020
1575 Clouds 5 1010 80 10000 5.1 230 13:36 04.03.2020
1576 Clouds 5 1010 80 10000 5.1 230 13:18 04.03.2020
1577 Clouds 5 1011 80 10000 3.6 230 12:42 04.03.2020
1578 Clouds 4 1010 86 10000 4.6 230 12:23 04.03.2020
1579 Clouds 4 1010 74 10000 4.6 220 11:55 04.03.2020
1580 Clouds 4 1010 74 10000 4.6 220 11:37 04.03.2020
1581 Clouds 3 1010 86 10000 2.1 0 11:19 04.03.2020
1582 Clouds 3 1010 93 10000 2.6 170 10:44 04.03.2020
1583 Clouds 3 1010 93 10000 3.1 200 10:25 04.03.2020
1584 Clouds 3 1010 93 10000 4.1 190 09:56 04.03.2020
1585 Clouds 3 1010 93 10000 2.6 200 09:38 04.03.2020
1586 Clouds 2 1010 93 10000 2.6 200 09:19 04.03.2020
1587 Clouds 2 1010 93 10000 2.1 170 08:41 04.03.2020
1588 Clouds 2 1011 90 10000 3.1 190 08:23 04.03.2020
1589 Clouds 1 1009 94 10000 3.6 210 07:48 04.03.2020
1590 Clouds 1 1009 94 10000 4.1 190 07:29 04.03.2020
1591 Clouds 1 1010 92 10000 1 170 06:53 04.03.2020
1592 Clouds 0 1009 92 10000 1.5 130 06:26 04.03.2020
1593 Clouds 0 1009 92 10000 1.5 130 06:26 04.03.2020
1594 Clouds 0 1009 92 10000 1.5 130 05:58 04.03.2020
1595 Clouds 0 1009 92 10000 2.6 210 05:21 04.03.2020
1596 Clear 0 1009 86 10000 0.5 0 03:54 04.03.2020
1597 Clear 0 1008 80 10000 5.1 200 03:35 04.03.2020
1598 Clouds 0 1009 92 10000 2.6 230 02:58 04.03.2020
1599 Clouds 0 1009 92 10000 0.5 290 02:27 04.03.2020
1600 Clouds 0 1009 92 10000 0.5 290 01:56 04.03.2020
1601 Clouds 0 1007 88 10000 4.1 200 01:33 04.03.2020
1602 Clouds 0 1008 92 10000 1 280 00:41 04.03.2020
1603 Clouds 0 1008 92 10000 2.46 230 00:22 04.03.2020
1604 Clouds 0 1007 87 10000 3.1 240 23:43 03.03.2020
1605 Clouds 0 1007 86 10000 4.6 220 23:23 03.03.2020
1606 Rain 0 1007 83 10000 0.5 330 22:56 03.03.2020
1607 Rain 0 1007 86 10000 3.6 230 22:37 03.03.2020
1608 Rain 1 1007 80 10000 2.1 270 22:18 03.03.2020
1609 Rain 1 1007 86 10000 2.53 225 21:43 03.03.2020
1610 Clouds 1 1006 80 10000 4.1 230 21:22 03.03.2020
1611 Rain 1 1006 86 10000 1 0 20:58 03.03.2020
1612 Clouds 2 1005 74 10000 2.6 230 20:39 03.03.2020
1613 Clouds 2 1005 74 10000 2.6 230 20:19 03.03.2020
1614 Clouds 2 1005 74 10000 2.6 230 19:56 03.03.2020
1615 Clouds 3 1004 74 10000 2.1 230 19:37 03.03.2020
1616 Clouds 3 1004 74 10000 2.1 230 19:37 03.03.2020
1617 Clouds 3 1004 74 10000 2.1 230 19:18 03.03.2020
1618 Clouds 3 1004 78 10000 1.5 230 18:56 03.03.2020
1619 Rain 4 1003 69 10000 1.5 200 18:38 03.03.2020
1620 Rain 4 1003 69 10000 1.5 200 18:19 03.03.2020
1621 Clouds 5 1003 65 10000 1.5 260 17:54 03.03.2020
1622 Clouds 6 1003 65 10000 1 0 17:36 03.03.2020
1623 Clouds 6 1003 65 10000 1 0 17:18 03.03.2020
1624 Clouds 7 1002 75 10000 4.6 310 16:39 03.03.2020
1625 Clouds 6 1002 75 10000 4.6 310 16:21 03.03.2020
1626 Clouds 7 1002 60 10000 9.8 310 15:59 03.03.2020
1627 Clouds 7 1002 60 10000 9.8 310 15:59 03.03.2020
1628 Clouds 7 1002 60 10000 9.8 310 15:41 03.03.2020
1629 Clouds 7 1001 56 10000 2.1 330 15:20 03.03.2020
1630 Rain 6 1001 60 10000 9.3 310 14:43 03.03.2020
1631 Rain 7 1001 60 10000 5.1 270 14:21 03.03.2020
1632 Clouds 7 1002 52 10000 4.1 280 13:59 03.03.2020
1633 Clouds 7 1002 52 10000 4.1 280 13:41 03.03.2020
1634 Clouds 7 1001 60 10000 6.7 300 13:23 03.03.2020
1635 Clouds 7 1001 63 10000 6.2 280 12:49 03.03.2020
1636 Clouds 7 1001 75 10000 6.2 270 12:27 03.03.2020
1637 Clouds 7 1001 75 10000 4.6 270 11:59 03.03.2020
1638 Clouds 6 1000 75 10000 4.6 280 11:38 03.03.2020
1639 Clouds 6 1000 75 10000 4.6 280 11:19 03.03.2020
1640 Clouds 6 1000 80 10000 4.6 290 10:56 03.03.2020
1641 Clouds 5 1000 80 10000 4.6 280 10:38 03.03.2020
1642 Clouds 5 1000 80 10000 4.6 280 10:19 03.03.2020
1643 Clouds 4 1000 86 10000 4.1 270 09:45 03.03.2020
1644 Clouds 4 1000 86 10000 4.6 270 09:23 03.03.2020
1645 Clouds 4 999 86 10000 5.1 270 08:59 03.03.2020
1646 Clouds 4 999 86 10000 5.1 270 08:39 03.03.2020
1647 Clouds 4 999 86 10000 5.7 280 08:39 03.03.2020
1648 Clouds 4 999 86 10000 5.7 280 08:21 03.03.2020
1649 Rain 4 998 86 10000 7.2 280 07:44 03.03.2020
1650 Clouds 4 999 93 10000 3.1 260 07:23 03.03.2020
1651 Clouds 4 998 80 10000 3.6 310 06:53 03.03.2020
1652 Clouds 4 998 93 10000 4.6 270 06:25 03.03.2020
1653 Rain 5 997 93 10000 1 0 05:48 03.03.2020
1654 Rain 4 997 93 10000 1 0 05:29 03.03.2020
1655 Rain 5 995 93 7000 4.1 260 04:37 03.03.2020
1656 Rain 5 993 93 10000 3.1 240 01:40 03.03.2020
1657 Clouds 5 993 87 10000 1 300 00:49 03.03.2020
1658 Rain 5 992 87 10000 2.1 320 00:27 03.03.2020
1659 Clouds 5 992 87 10000 2.6 290 23:59 02.03.2020
1660 Clouds 5 992 87 10000 2.6 290 23:41 02.03.2020
1661 Rain 6 992 87 10000 2.1 170 23:22 02.03.2020
1662 Clouds 6 992 87 10000 2.6 320 22:55 02.03.2020
1663 Clouds 6 991 81 10000 2.1 190 22:37 02.03.2020
1664 Clouds 6 991 81 10000 2.1 190 22:19 02.03.2020
1665 Clouds 6 991 75 10000 3.1 190 21:42 02.03.2020
1666 Rain 6 991 75 10000 1 190 21:24 02.03.2020
1667 Clouds 7 991 75 10000 1 310 20:59 02.03.2020
1668 Clouds 7 991 70 10000 2.1 120 20:41 02.03.2020
1669 Clouds 7 991 70 10000 2.1 120 20:21 02.03.2020
1670 Clouds 7 991 75 10000 1.5 120 19:57 02.03.2020
1671 Clouds 7 991 75 10000 1.5 120 19:39 02.03.2020
1672 Clouds 7 990 70 10000 2.1 110 19:20 02.03.2020
1673 Clouds 7 990 65 10000 2.6 120 18:55 02.03.2020
1674 Clouds 7 990 65 10000 2.6 120 18:55 02.03.2020
1675 Clouds 7 990 65 10000 3.6 120 18:37 02.03.2020
1676 Clouds 8 990 65 10000 3.6 120 18:18 02.03.2020
1677 Clouds 8 990 61 10000 4.1 110 17:55 02.03.2020
1678 Clouds 8 989 65 10000 5.7 120 17:37 02.03.2020
1679 Clouds 9 989 65 10000 5.7 120 17:18 02.03.2020
1680 Clouds 10 990 61 10000 4.6 150 16:41 02.03.2020
1681 Clouds 10 990 61 10000 4.6 150 16:22 02.03.2020
1682 Clouds 10 990 53 10000 4.6 140 15:45 02.03.2020
1683 Clouds 9 990 57 10000 3.1 150 15:22 02.03.2020
1684 Clouds 10 990 57 10000 3.6 120 14:58 02.03.2020
1685 Clouds 9 990 65 10000 4.1 120 14:37 02.03.2020
1686 Clouds 9 990 65 10000 4.1 120 14:19 02.03.2020
1687 Clouds 9 990 65 10000 4.1 120 13:44 02.03.2020
1688 Clouds 8 991 70 10000 5.1 140 13:20 02.03.2020
1689 Clouds 8 992 70 10000 5.1 130 12:59 02.03.2020
1690 Clouds 8 992 75 10000 4.1 140 12:40 02.03.2020
1691 Clouds 8 992 75 10000 4.1 140 12:18 02.03.2020
1692 Clouds 7 994 80 10000 4.1 150 11:38 02.03.2020
1693 Clouds 7 994 80 10000 4.1 150 11:19 02.03.2020
1694 Clouds 6 994 86 10000 5.1 150 10:55 02.03.2020
1695 Clouds 6 994 80 10000 5.1 170 10:37 02.03.2020
1696 Clouds 5 994 80 10000 5.1 170 10:18 02.03.2020
1697 Clouds 5 994 80 10000 4.1 200 09:47 02.03.2020
1698 Clouds 4 995 80 10000 3.1 200 09:28 02.03.2020
1699 Clouds 4 994 86 10000 3.1 170 08:48 02.03.2020
1700 Clouds 3 994 93 10000 2.6 150 08:22 02.03.2020
1701 Clouds 2 993 89 10000 3.1 160 07:50 02.03.2020
1702 Clouds 3 993 80 10000 4.6 180 07:31 02.03.2020
1703 Clouds 3 994 86 10000 3.6 230 06:50 02.03.2020
1704 Clouds 3 993 86 10000 4.1 200 06:20 02.03.2020
1705 Clouds 3 993 86 10000 4.6 230 05:24 02.03.2020
1706 Rain 4 992 86 8000 7.2 290 03:27 02.03.2020
1707 Rain 4 992 86 8000 7.2 290 02:55 02.03.2020
1708 Rain 5 992 86 6000 8.7 270 02:29 02.03.2020
1709 Rain 6 991 93 10000 1.5 290 01:33 02.03.2020
1710 Clouds 6 990 81 10000 4.6 170 00:48 02.03.2020
1711 Rain 6 991 93 7000 2.1 300 00:22 02.03.2020
1712 Rain 6 991 81 10000 2.1 190 23:41 01.03.2020
1713 Rain 6 991 93 6000 2.1 160 23:21 01.03.2020
1714 Rain 6 991 81 10000 2.1 180 22:44 01.03.2020
1715 Rain 6 992 75 10000 1.5 110 22:21 01.03.2020
1716 Rain 6 992 75 10000 1.5 110 21:57 01.03.2020
1717 Rain 6 992 75 10000 1.5 110 21:39 01.03.2020
1718 Rain 6 992 70 10000 2.6 140 21:20 01.03.2020
1719 Rain 6 993 94 10000 3.6 140 20:45 01.03.2020
1720 Clouds 6 993 80 10000 3.1 130 20:26 01.03.2020
1721 Clouds 6 993 80 10000 3.1 150 19:59 01.03.2020
1722 Clouds 6 993 80 10000 3.1 150 19:40 01.03.2020
1723 Clouds 6 994 80 10000 3.6 170 19:21 01.03.2020
1724 Clouds 7 994 56 10000 4.6 180 18:54 01.03.2020
1725 Clouds 7 994 52 10000 4.1 200 18:36 01.03.2020
1726 Clouds 7 994 52 10000 4.1 200 18:18 01.03.2020
1727 Clouds 7 994 52 10000 3.6 210 17:54 01.03.2020
1728 Clouds 8 994 80 10000 4.6 220 17:36 01.03.2020
1729 Clouds 8 994 57 10000 4.6 220 17:18 01.03.2020
1730 Clouds 9 994 49 10000 6.7 230 16:39 01.03.2020
1731 Clouds 9 994 52 10000 7.7 230 16:39 01.03.2020
1732 Clouds 9 994 52 10000 7.7 230 16:19 01.03.2020
1733 Clouds 9 994 57 10000 8.7 220 15:58 01.03.2020
1734 Clouds 9 994 57 10000 8.7 220 15:40 01.03.2020
1735 Clouds 9 994 57 10000 6.2 230 15:21 01.03.2020
1736 Clouds 9 994 57 10000 8.7 240 14:58 01.03.2020
1737 Clouds 9 994 57 10000 8.7 240 14:39 01.03.2020
1738 Clouds 9 995 61 10000 6.7 230 14:21 01.03.2020
1739 Clouds 9 995 61 10000 9.8 230 13:57 01.03.2020
1740 Clouds 8 995 61 10000 9.8 230 13:38 01.03.2020
1741 Clouds 8 995 61 10000 9.8 230 13:38 01.03.2020
1742 Clouds 8 994 60 10000 9.3 230 13:19 01.03.2020
1743 Clouds 8 994 60 10000 9.3 230 13:19 01.03.2020
1744 Clouds 8 995 70 10000 8.2 230 12:44 01.03.2020
1745 Clouds 7 994 65 10000 8.2 230 12:23 01.03.2020
1746 Clouds 7 994 65 10000 8.2 230 12:23 01.03.2020
1747 Clouds 7 994 70 10000 8.7 230 11:58 01.03.2020
1748 Clouds 7 994 70 10000 8.7 230 11:39 01.03.2020
1749 Clouds 6 994 75 10000 8.7 230 11:19 01.03.2020
1750 Clouds 7 994 81 10000 8.2 220 10:56 01.03.2020
1751 Rain 6 994 80 10000 7.7 210 10:37 01.03.2020
1752 Rain 6 994 80 10000 7.7 210 10:18 01.03.2020
1753 Clouds 6 995 80 10000 6.7 200 09:42 01.03.2020
1754 Clouds 6 995 80 10000 6.7 200 09:42 01.03.2020
1755 Clouds 6 995 80 10000 6.7 200 09:23 01.03.2020
1756 Drizzle 6 995 75 10000 7.7 200 08:46 01.03.2020
1757 Clouds 6 995 70 10000 6.7 200 08:28 01.03.2020
1758 Clouds 5 995 82 10000 6.7 200 07:56 01.03.2020
1759 Clouds 5 994 82 10000 8.2 210 07:38 01.03.2020
1760 Clouds 5 994 82 10000 8.2 210 07:19 01.03.2020
1761 Clouds 5 994 82 10000 7.7 210 06:41 01.03.2020
1762 Clouds 5 995 69 10000 6.7 200 05:35 01.03.2020
1763 Clouds 5 997 75 10000 5.1 200 02:59 01.03.2020
1764 Clouds 5 995 86 10000 5.7 200 02:18 01.03.2020
1765 Rain 5 995 86 8000 10.3 210 01:36 01.03.2020
1766 Clouds 5 996 80 10000 7.2 190 00:49 01.03.2020
1767 Clouds 5 994 69 10000 8.7 210 00:25 01.03.2020
1768 Clouds 4 997 80 10000 5.7 190 23:58 29.02.2020
1769 Clouds 4 994 80 10000 8.2 200 23:40 29.02.2020
1770 Clouds 5 994 79 10000 7.7 200 23:21 29.02.2020
1771 Clouds 6 994 79 10000 7.7 200 22:37 29.02.2020
1772 Clouds 6 994 79 10000 7.7 200 22:19 29.02.2020
1773 Clouds 6 994 70 10000 8.7 230 21:39 29.02.2020
1774 Clouds 6 994 70 10000 8.7 230 21:19 29.02.2020
1775 Clouds 7 995 75 10000 3.6 220 20:41 29.02.2020
1776 Clouds 7 993 75 10000 5.7 240 20:20 29.02.2020
1777 Clouds 7 992 75 10000 6.2 260 19:55 29.02.2020
1778 Clouds 8 992 81 10000 6.2 270 19:36 29.02.2020
1779 Clouds 8 992 81 10000 6.2 270 19:18 29.02.2020
1780 Rain 8 991 81 10000 11.3 260 18:42 29.02.2020
1781 Rain 9 991 76 4000 5.7 240 18:22 29.02.2020
1782 Rain 10 989 81 10000 6.2 210 17:56 29.02.2020
1783 Rain 11 989 76 10000 8.2 190 17:37 29.02.2020
1784 Rain 11 989 76 10000 8.2 190 17:19 29.02.2020
1785 Rain 12 989 62 10000 9.3 180 16:44 29.02.2020
1786 Clouds 12 989 62 10000 8.7 180 16:19 29.02.2020
1787 Clouds 12 990 66 10000 7.7 180 15:56 29.02.2020
1788 Clouds 12 991 62 10000 10.3 190 15:36 29.02.2020
1789 Clouds 12 991 62 10000 10.3 190 15:18 29.02.2020
1790 Clouds 12 991 58 10000 7.7 190 14:39 29.02.2020
1791 Clouds 12 992 62 10000 9.3 190 14:21 29.02.2020
1792 Clouds 12 993 62 10000 10.3 190 13:45 29.02.2020
1793 Clouds 12 993 62 10000 10.3 190 13:45 29.02.2020
1794 Clouds 12 993 66 10000 9.3 180 13:27 29.02.2020
1795 Clouds 11 994 71 10000 7.7 180 12:57 29.02.2020
1796 Clouds 11 994 76 10000 7.7 190 12:38 29.02.2020
1797 Clouds 11 994 76 10000 7.7 190 12:20 29.02.2020
1798 Clouds 11 995 76 10000 6.7 180 11:45 29.02.2020
1799 Clouds 10 996 76 10000 6.7 190 11:26 29.02.2020
1800 Clouds 9 996 75 10000 7.7 200 10:51 29.02.2020
1801 Clouds 8 997 81 10000 7.2 210 10:31 29.02.2020
1802 Clouds 8 997 81 10000 7.2 210 10:31 29.02.2020
1803 Clouds 8 997 81 10000 7.2 200 09:56 29.02.2020
1804 Clouds 8 997 81 10000 7.2 200 09:56 29.02.2020
1805 Clouds 7 998 87 10000 6.7 200 09:37 29.02.2020
1806 Clouds 7 998 87 10000 6.7 200 09:18 29.02.2020
1807 Clouds 6 998 86 10000 5.1 170 08:40 29.02.2020
1808 Clouds 6 998 86 10000 5.1 170 08:20 29.02.2020
1809 Clouds 5 999 93 10000 5.1 160 07:51 29.02.2020
1810 Clouds 5 999 93 10000 4.6 170 07:22 29.02.2020
1811 Clouds 5 999 93 10000 4.6 170 06:54 29.02.2020
1812 Clouds 5 1000 93 10000 3.1 170 06:29 29.02.2020
1813 Clouds 5 1001 80 10000 5.7 200 05:50 29.02.2020
1814 Clouds 4 999 81 10000 8.2 190 05:31 29.02.2020
1815 Clouds 4 1003 86 10000 2.1 190 03:55 29.02.2020
1816 Clouds 3 1000 87 10000 10.3 200 03:24 29.02.2020
1817 Drizzle 3 1004 93 10000 3.1 170 02:52 29.02.2020
1818 Drizzle 3 1006 86 8000 3.6 160 01:55 29.02.2020
1819 Drizzle 2 1007 93 10000 3.6 160 00:49 29.02.2020
1820 Rain 2 1003 80 10000 7.7 180 00:27 29.02.2020
1821 Clouds 2 1004 80 10000 9.8 180 23:40 28.02.2020
1822 Rain 2 1009 93 10000 5.7 180 23:22 28.02.2020
1823 Rain 3 1005 87 10000 9.3 170 22:42 28.02.2020
1824 Rain 3 1010 87 10000 7.2 200 22:22 28.02.2020
1825 Rain 3 1010 69 10000 3.6 190 21:42 28.02.2020
1826 Snow 4 1010 74 10000 8.2 180 21:22 28.02.2020
1827 Snow 4 1010 74 10000 8.2 180 21:22 28.02.2020
1828 Snow 3 1010 74 10000 8.2 180 20:57 28.02.2020
1829 Snow 3 1010 74 10000 8.2 180 20:38 28.02.2020
1830 Clouds 3 1011 74 10000 6.7 170 20:20 28.02.2020
1831 Clouds 4 1011 74 10000 4.6 140 19:56 28.02.2020
1832 Clouds 3 1012 74 10000 6.7 170 19:38 28.02.2020
1833 Clouds 3 1012 74 10000 6.7 170 19:19 28.02.2020
1834 Clouds 3 1013 74 10000 5.7 180 18:46 28.02.2020
1835 Clouds 4 1013 64 10000 5.1 190 18:24 28.02.2020
1836 Clouds 4 1013 64 10000 5.1 200 17:42 28.02.2020
1837 Clouds 4 1014 64 10000 5.7 210 17:23 28.02.2020
1838 Clouds 5 1014 64 10000 5.7 220 16:57 28.02.2020
1839 Clouds 5 1015 65 10000 5.7 210 16:38 28.02.2020
1840 Clouds 5 1015 65 10000 5.7 210 16:38 28.02.2020
1841 Clouds 5 1015 65 10000 5.7 210 16:19 28.02.2020
1842 Clouds 5 1015 65 10000 6.2 230 15:55 28.02.2020
1843 Clouds 5 1015 65 10000 6.2 220 15:37 28.02.2020
1844 Clouds 5 1015 65 10000 6.2 220 15:18 28.02.2020
1845 Clouds 6 1015 65 10000 6.7 220 14:42 28.02.2020
1846 Clouds 6 1015 65 10000 4.6 230 14:19 28.02.2020
1847 Clouds 5 1016 65 10000 5.7 240 13:58 28.02.2020
1848 Clouds 5 1016 65 10000 5.7 240 13:40 28.02.2020
1849 Clouds 5 1016 68 10000 4.6 240 13:19 28.02.2020
1850 Clouds 5 1018 69 10000 4.6 240 12:43 28.02.2020
1851 Clouds 5 1018 69 10000 4.6 240 12:25 28.02.2020
1852 Clouds 4 1016 68 10000 4.1 240 11:55 28.02.2020
1853 Clouds 4 1016 68 10000 5.7 250 11:37 28.02.2020
1854 Clouds 4 1016 78 10000 5.7 250 11:18 28.02.2020
1855 Clouds 3 1015 78 10000 4.6 250 10:43 28.02.2020
1856 Clouds 3 1015 78 10000 4.6 250 10:23 28.02.2020
1857 Clouds 3 1015 78 10000 3.1 270 09:47 28.02.2020
1858 Clouds 2 1015 78 10000 4.1 260 09:22 28.02.2020
1859 Clouds 2 1015 78 10000 2.1 240 08:57 28.02.2020
1860 Clouds 1 1014 86 10000 3.1 270 08:39 28.02.2020
1861 Clouds 1 1014 86 10000 3.1 270 08:20 28.02.2020
1862 Clouds 1 1014 86 10000 3.1 270 08:20 28.02.2020
1863 Clouds 1 1013 90 10000 5.7 300 07:41 28.02.2020
1864 Clouds 1 1013 90 10000 5.7 300 07:22 28.02.2020
1865 Clouds 1 1014 90 10000 1 290 06:45 28.02.2020
1866 Clouds 1 1013 80 10000 5.7 250 06:26 28.02.2020
1867 Clouds 1 1011 86 10000 2.1 250 04:47 28.02.2020
1868 Clouds 1 1011 87 9000 4.1 280 04:19 28.02.2020
1869 Clouds 1 1009 87 10000 2.1 300 02:46 28.02.2020
1870 Clouds 1 1009 100 8000 4.1 260 02:27 28.02.2020
1871 Snow 1 1007 98 4300 4.1 280 01:23 28.02.2020
1872 Snow 1 1005 98 3700 3.6 270 00:28 28.02.2020
1873 Snow 1 1004 98 8000 2.6 280 23:42 27.02.2020
1874 Snow 1 1004 96 2200 2.1 260 23:21 27.02.2020
1875 Snow 1 1001 96 4000 3.1 310 22:46 27.02.2020
1876 Snow 1 1001 96 4000 3.1 310 22:26 27.02.2020
1877 Snow 1 1000 96 4200 2.6 320 21:59 27.02.2020
1878 Snow 1 1000 96 4200 2.6 320 21:39 27.02.2020
1879 Snow 1 999 96 3400 3.1 330 21:19 27.02.2020
1880 Snow 1 998 96 5000 3.1 340 20:57 27.02.2020
1881 Snow 1 998 96 5000 3.1 340 20:38 27.02.2020
1882 Snow 1 998 98 6000 1.5 360 20:20 27.02.2020
1883 Snow 1 998 98 6000 1.5 360 20:20 27.02.2020
1884 Snow 1 997 98 7000 2.1 30 19:55 27.02.2020
1885 Snow 1 996 98 10000 2.1 20 19:37 27.02.2020
1886 Snow 1 996 98 10000 2.1 20 19:18 27.02.2020
1887 Snow 1 995 98 10000 0.5 0 18:40 27.02.2020
1888 Snow 1 995 98 7000 2.1 100 18:22 27.02.2020
1889 Snow 1 995 98 4600 3.1 120 17:58 27.02.2020
1890 Clouds 2 995 98 6000 3.1 70 17:39 27.02.2020
1891 Clouds 2 995 79 6000 3.1 70 17:19 27.02.2020
1892 Rain 2 995 80 8000 2.1 130 16:56 27.02.2020
1893 Rain 3 995 79 9000 2.6 150 16:37 27.02.2020
1894 Rain 3 995 79 9000 2.6 150 16:18 27.02.2020
1895 Rain 3 995 79 10000 4.1 140 15:56 27.02.2020
1896 Rain 3 996 74 10000 4.1 150 15:36 27.02.2020
1897 Rain 4 996 74 10000 4.1 150 15:18 27.02.2020
1898 Rain 4 996 74 10000 4.1 150 15:18 27.02.2020
1899 Clouds 4 997 79 10000 4.1 140 14:41 27.02.2020
1900 Clouds 4 997 74 10000 4.1 160 14:23 27.02.2020
1901 Clouds 4 998 74 10000 5.1 180 13:57 27.02.2020
1902 Clouds 4 999 74 10000 4.1 180 13:38 27.02.2020
1903 Clouds 4 999 73 10000 4.1 180 13:20 27.02.2020
1904 Clouds 4 1000 74 10000 5.1 170 12:45 27.02.2020
1905 Clouds 4 1000 74 10000 5.7 180 12:22 27.02.2020
1906 Clouds 4 1001 74 10000 5.7 200 11:56 27.02.2020
1907 Clouds 4 1002 74 10000 4.6 210 11:37 27.02.2020
1908 Clouds 4 1002 74 10000 4.6 210 11:18 27.02.2020
1909 Clouds 3 1002 76 10000 5.1 200 10:41 27.02.2020
1910 Clouds 3 1002 76 10000 5.7 220 10:20 27.02.2020
1911 Clouds 3 1003 76 10000 5.7 220 09:45 27.02.2020
1912 Clouds 2 1003 76 10000 4.6 220 09:26 27.02.2020
1913 Clouds 2 1003 76 10000 3.6 220 08:55 27.02.2020
1914 Clouds 2 1003 76 10000 3.1 230 08:37 27.02.2020
1915 Clouds 2 1003 89 10000 3.1 230 08:18 27.02.2020
1916 Clouds 1 1003 86 10000 3.1 220 07:42 27.02.2020
1917 Clouds 1 1003 86 10000 4.1 230 07:24 27.02.2020
1918 Clouds 1 1004 89 10000 4.6 240 06:23 27.02.2020
1919 Clouds 2 1004 87 10000 4.1 240 05:19 27.02.2020
1920 Clouds 2 1005 80 10000 4.1 220 02:58 27.02.2020
1921 Clouds 2 1004 91 10000 5.1 250 01:32 27.02.2020
1922 Clouds 2 1005 91 10000 1.5 210 00:41 27.02.2020
1923 Clouds 2 1005 74 10000 3.6 250 23:42 26.02.2020
1924 Clouds 2 1004 93 10000 5.1 260 23:23 26.02.2020
1925 Clouds 2 1004 92 10000 3.1 210 22:59 26.02.2020
1926 Rain 2 1003 93 10000 4.1 260 22:41 26.02.2020
1927 Rain 2 1003 93 10000 4.1 260 22:22 26.02.2020
1928 Clouds 2 1004 74 10000 4.1 280 21:59 26.02.2020
1929 Clouds 2 1002 93 8000 4.6 280 21:39 26.02.2020
1930 Clouds 2 1002 93 8000 4.6 280 21:19 26.02.2020
1931 Clouds 2 1002 93 8000 4.6 280 20:56 26.02.2020
1932 Clouds 2 1002 93 8000 4.6 280 20:38 26.02.2020
1933 Rain 2 1002 87 10000 6.7 290 20:19 26.02.2020
1934 Rain 2 1001 87 10000 6.7 280 19:55 26.02.2020
1935 Rain 2 1001 87 10000 5.7 270 19:36 26.02.2020
1936 Rain 2 1001 87 10000 5.7 270 19:18 26.02.2020
1937 Clouds 2 1000 87 9000 3.6 280 18:54 26.02.2020
1938 Rain 3 1000 87 10000 7.2 270 18:36 26.02.2020
1939 Rain 3 1000 87 10000 7.2 270 18:18 26.02.2020
1940 Clouds 3 999 87 10000 5.1 270 17:40 26.02.2020
1941 Clouds 3 999 77 10000 5.1 270 17:19 26.02.2020
1942 Clouds 3 999 77 10000 5.1 270 16:56 26.02.2020
1943 Clouds 4 998 77 10000 5.7 290 16:37 26.02.2020
1944 Clouds 3 998 77 10000 5.7 290 16:18 26.02.2020
1945 Rain 3 999 77 10000 3.6 280 15:43 26.02.2020
1946 Clouds 3 997 77 10000 8.2 300 15:25 26.02.2020
1947 Rain 3 998 77 10000 5.7 290 14:43 26.02.2020
1948 Clouds 2 997 93 10000 7.2 290 14:23 26.02.2020
1949 Clouds 3 996 84 10000 7.2 300 13:44 26.02.2020
1950 Rain 2 997 81 10000 6.2 300 13:23 26.02.2020
1951 Clouds 2 995 81 10000 7.2 300 12:59 26.02.2020
1952 Clouds 2 995 81 10000 7.2 300 12:38 26.02.2020
1953 Clouds 2 995 81 10000 7.7 300 12:18 26.02.2020
1954 Clouds 2 994 81 10000 7.7 290 11:43 26.02.2020
1955 Rain 2 993 96 9000 5.1 280 11:23 26.02.2020
1956 Rain 2 994 96 8000 4.6 240 10:59 26.02.2020
1957 Rain 2 994 96 10000 6.2 240 10:39 26.02.2020
1958 Rain 2 994 96 10000 6.2 240 10:21 26.02.2020
1959 Mist 1 992 96 4000 5.1 290 09:43 26.02.2020
1960 Snow 1 991 96 5000 5.1 210 09:23 26.02.2020
1961 Snow 1 991 86 5000 6.2 200 08:56 26.02.2020
1962 Snow 1 992 96 8000 6.2 200 08:36 26.02.2020
1963 Snow 2 992 85 8000 6.2 200 08:18 26.02.2020
1964 Rain 2 991 80 10000 4.6 210 07:42 26.02.2020
1965 Snow 2 990 82 10000 7.7 220 07:23 26.02.2020
1966 Clouds 2 992 82 10000 5.1 230 06:50 26.02.2020
1967 Snow 2 991 82 10000 6.2 220 06:31 26.02.2020
1968 Clouds 2 992 82 10000 5.1 210 05:49 26.02.2020
1969 Clouds 2 991 96 10000 4.6 220 05:20 26.02.2020
1970 Rain 3 993 86 10000 5.7 220 03:57 26.02.2020
1971 Clouds 3 992 86 10000 5.1 210 02:21 26.02.2020
1972 Clouds 2 994 80 10000 3.6 200 01:40 26.02.2020
1973 Clouds 3 994 91 10000 2.6 230 00:48 26.02.2020
1974 Clouds 3 993 86 10000 3.1 220 00:22 26.02.2020
1975 Clouds 3 995 80 10000 5.1 240 23:45 25.02.2020
1976 Clouds 3 995 80 10000 4.6 240 23:26 25.02.2020
1977 Clouds 3 995 86 10000 2.6 240 22:59 25.02.2020
1978 Clouds 3 995 86 10000 2.6 260 22:41 25.02.2020
1979 Clouds 3 995 86 10000 2.6 260 22:19 25.02.2020
1980 Clouds 4 994 75 10000 6.2 230 21:39 25.02.2020
1981 Clouds 4 994 75 10000 6.2 230 21:20 25.02.2020
1982 Clouds 5 995 86 10000 6.2 230 20:58 25.02.2020
1983 Rain 5 995 56 10000 5.1 230 20:39 25.02.2020
1984 Clouds 5 995 56 10000 5.1 230 20:20 25.02.2020
1985 Clouds 5 996 56 10000 3.6 230 19:59 25.02.2020
1986 Clouds 6 996 56 10000 5.1 240 19:40 25.02.2020
1987 Clouds 6 996 56 10000 5.1 240 19:19 25.02.2020
1988 Clouds 6 996 56 10000 5.1 230 18:42 25.02.2020
1989 Clouds 6 996 52 10000 7.7 250 18:21 25.02.2020
1990 Clouds 7 996 52 10000 5.1 270 17:58 25.02.2020
1991 Clouds 7 997 45 10000 6.2 260 17:37 25.02.2020
1992 Clouds 8 997 45 10000 6.2 260 17:19 25.02.2020
1993 Clouds 8 997 52 10000 7.7 270 16:58 25.02.2020
1994 Clouds 8 997 52 10000 7.7 270 16:39 25.02.2020
1995 -273 0 0 0 0 0 16:21 25.02.2020
1996 Rain 9 997 45 10000 6.7 270 15:56 25.02.2020
1997 Rain 9 997 49 10000 9.3 260 15:37 25.02.2020
1998 Rain 9 997 49 10000 9.3 260 15:18 25.02.2020
1999 Rain 9 997 49 10000 9.3 270 14:54 25.02.2020
2000 Rain 9 998 49 10000 6.2 270 14:36 25.02.2020
2001 Rain 9 998 49 10000 6.2 270 14:18 25.02.2020
2002 Rain 9 998 63 10000 8.2 280 13:54 25.02.2020
2003 Clouds 9 998 63 10000 9.8 250 13:36 25.02.2020
2004 Clouds 9 998 63 10000 9.8 250 13:18 25.02.2020
2005 Clouds 8 998 61 10000 9.3 250 12:39 25.02.2020
2006 Clouds 8 998 61 10000 9.3 250 12:20 25.02.2020
2007 Clouds 8 998 57 10000 9.3 250 11:56 25.02.2020
2008 Clouds 8 998 61 10000 8.2 260 11:38 25.02.2020
2009 Clouds 8 998 61 10000 8.2 260 11:18 25.02.2020
2010 Clouds 7 999 70 10000 6.7 250 10:56 25.02.2020
2011 Clouds 8 999 66 10000 6.2 250 10:38 25.02.2020
2012 Clouds 8 999 66 10000 6.2 250 10:19 25.02.2020
2013 Clouds 8 999 75 10000 4.6 240 09:40 25.02.2020
2014 Clouds 8 999 75 10000 3.6 260 09:19 25.02.2020
2015 Clouds 8 1000 75 10000 4.6 260 08:43 25.02.2020
2016 Rain 8 1000 75 10000 3.6 250 08:24 25.02.2020
2017 Rain 8 1000 75 10000 3.1 240 07:50 25.02.2020
2018 Clouds 8 999 75 10000 7.7 250 07:25 25.02.2020
2019 Clouds 8 1001 81 10000 4.6 210 06:57 25.02.2020
2020 Clouds 8 1000 81 10000 6.7 250 06:25 25.02.2020
2021 Clouds 9 1000 76 10000 8.2 250 05:23 25.02.2020
2022 Rain 9 1001 81 10000 8.2 250 02:38 25.02.2020
2023 Clouds 9 1004 81 10000 5.1 210 00:59 25.02.2020
2024 Clouds 9 1002 81 10000 8.2 240 00:33 25.02.2020
2025 Clouds 9 1004 87 10000 5.7 220 23:56 24.02.2020
2026 Rain 9 1003 81 10000 8.2 240 23:37 24.02.2020
2027 Rain 9 1003 81 10000 8.2 240 23:18 24.02.2020
2028 Rain 9 1003 87 10000 7.2 230 22:37 24.02.2020
2029 Rain 9 1003 87 10000 7.2 230 22:19 24.02.2020
2030 Rain 9 1003 87 10000 7.2 230 21:55 24.02.2020
2031 Rain 9 1004 81 10000 6.7 230 21:37 24.02.2020
2032 Rain 9 1004 81 10000 6.7 230 21:18 24.02.2020
2033 Rain 9 1004 87 10000 6.7 220 20:54 24.02.2020
2034 Clouds 8 1005 87 10000 6.2 200 20:36 24.02.2020
2035 Clouds 8 1005 87 10000 6.2 200 20:18 24.02.2020
2036 Rain 8 1004 87 10000 8.2 210 19:55 24.02.2020
2037 Clouds 8 1004 87 10000 8.2 210 19:36 24.02.2020
2038 Clouds 7 1004 87 10000 8.2 210 19:18 24.02.2020
2039 Clouds 7 1005 93 10000 7.7 210 18:41 24.02.2020
2040 Rain 7 1006 93 8000 6.7 200 18:22 24.02.2020
2041 Drizzle 7 1007 93 5000 7.7 210 17:55 24.02.2020
2042 Rain 6 1007 93 9000 7.7 200 17:36 24.02.2020
2043 Rain 5 1007 93 9000 7.7 200 17:18 24.02.2020
2044 Drizzle 5 1008 93 4500 8.7 200 16:54 24.02.2020
2045 Drizzle 5 1009 93 4000 7.2 190 16:36 24.02.2020
2046 Drizzle 5 1009 93 4000 7.2 190 16:36 24.02.2020
2047 Drizzle 5 1009 93 4000 7.2 190 16:18 24.02.2020
2048 Clouds 5 1011 93 10000 7.2 170 15:54 24.02.2020
2049 Clouds 5 1012 86 10000 5.7 160 15:36 24.02.2020
2050 Clouds 5 1012 86 10000 5.7 160 15:18 24.02.2020
2051 Drizzle 5 1014 86 4500 5.1 160 14:40 24.02.2020
2052 Drizzle 5 1014 86 4500 5.1 160 14:21 24.02.2020
2053 Drizzle 5 1014 86 4500 5.1 160 14:21 24.02.2020
2054 Rain 5 1015 80 9000 6.7 180 13:58 24.02.2020
2055 Rain 5 1015 80 9000 6.7 180 13:39 24.02.2020
2056 Rain 5 1016 80 10000 5.7 160 13:39 24.02.2020
2057 Rain 5 1016 80 10000 6.2 170 13:20 24.02.2020
2058 Clouds 5 1017 80 10000 6.2 180 12:57 24.02.2020
2059 Clouds 5 1018 89 10000 3.6 170 12:38 24.02.2020
2060 Clouds 5 1018 89 10000 3.6 170 12:20 24.02.2020
2061 Clouds 5 1019 89 10000 4.1 160 11:46 24.02.2020
2062 Clouds 5 1019 89 10000 4.6 170 11:28 24.02.2020
2063 Clouds 5 1020 82 10000 4.1 170 10:47 24.02.2020
2064 Clouds 4 1020 82 10000 4.1 170 10:29 24.02.2020
2065 Clouds 4 1021 82 10000 4.1 170 09:54 24.02.2020
2066 Clouds 4 1021 82 10000 4.1 180 09:36 24.02.2020
2067 Clouds 3 1021 82 10000 2.6 210 09:18 24.02.2020
2068 Clouds 3 1021 82 10000 2.6 210 08:46 24.02.2020
2069 Clouds 3 1022 83 10000 2.1 200 08:27 24.02.2020
2070 Clouds 3 1022 90 10000 2.6 250 07:46 24.02.2020
2071 Clouds 3 1022 90 10000 3.6 250 07:27 24.02.2020
2072 Clouds 3 1022 90 10000 4.6 230 06:37 24.02.2020
2073 Clouds 3 1022 90 10000 4.6 230 06:18 24.02.2020
2074 Clouds 3 1022 90 10000 4.6 250 05:30 24.02.2020
2075 Clouds 4 1022 87 10000 4.6 260 04:25 24.02.2020
2076 Clouds 4 1022 69 10000 2.1 290 02:55 24.02.2020
2077 Clouds 4 1022 69 10000 2.6 290 01:46 24.02.2020
2078 Clouds 5 1021 65 10000 5.7 290 00:59 24.02.2020
2079 Clouds 5 1020 80 10000 4.6 270 00:28 24.02.2020
2080 Clouds 5 1020 60 10000 6.7 300 23:59 23.02.2020
2081 Clouds 5 1019 80 10000 7.2 280 23:41 23.02.2020
2082 Clouds 5 1019 80 10000 7.2 280 23:19 23.02.2020
2083 Clouds 5 1018 80 10000 7.7 310 22:56 23.02.2020
2084 Clouds 6 1018 75 10000 5.7 280 22:37 23.02.2020
2085 Clouds 6 1018 75 10000 5.7 280 22:18 23.02.2020
2086 Clouds 5 1016 80 10000 9.3 310 21:45 23.02.2020
2087 Clouds 7 1016 81 10000 5.1 280 21:20 23.02.2020
2088 Clouds 7 1014 65 10000 9.8 310 20:57 23.02.2020
2089 Clouds 7 1012 75 10000 13.9 310 20:38 23.02.2020
2090 Clouds 7 1012 75 10000 13.9 310 20:20 23.02.2020
2091 Clouds 8 1011 70 10000 13.9 300 19:57 23.02.2020
2092 Clouds 8 1011 70 10000 13.9 300 19:38 23.02.2020
2093 Rain 9 1009 81 10000 15.9 310 19:18 23.02.2020
2094 Rain 9 1009 87 10000 10.3 300 18:55 23.02.2020
2095 Rain 10 1007 87 7000 17 290 18:36 23.02.2020
2096 Rain 9 1007 87 7000 17 290 18:36 23.02.2020
2097 Rain 10 1007 87 7000 17 290 18:18 23.02.2020
2098 Rain 10 1006 87 10000 9.3 270 17:56 23.02.2020
2099 Rain 11 1006 81 10000 11.8 270 17:37 23.02.2020
2100 Rain 11 1006 81 10000 11.8 270 17:18 23.02.2020
2101 Rain 11 1005 81 10000 11.3 260 16:45 23.02.2020
2102 Rain 11 1005 81 10000 11.3 260 16:26 23.02.2020
2103 Rain 11 1005 81 10000 10.8 260 15:58 23.02.2020
2104 Rain 11 1005 81 10000 10.8 260 15:38 23.02.2020
2105 Rain 11 1005 81 10000 8.7 250 15:20 23.02.2020
2106 Rain 11 1005 81 10000 8.7 250 15:20 23.02.2020
2107 Rain 11 1006 87 10000 8.7 250 14:56 23.02.2020
2108 Rain 11 1006 87 10000 8.7 250 14:38 23.02.2020
2109 Rain 11 1005 87 10000 8.7 250 14:20 23.02.2020
2110 Rain 11 1005 87 8000 9.8 240 13:57 23.02.2020
2111 Rain 11 1005 87 8000 9.8 240 13:38 23.02.2020
2112 Rain 11 1006 87 8000 9.3 240 13:20 23.02.2020
2113 Rain 10 1006 81 8000 9.8 240 12:42 23.02.2020
2114 Rain 10 1006 87 8000 9.3 230 12:21 23.02.2020
2115 Rain 9 1007 93 8000 9.3 220 11:54 23.02.2020
2116 Rain 9 1008 87 9000 6.2 200 11:36 23.02.2020
2117 Rain 9 1008 87 9000 6.2 200 11:18 23.02.2020
2118 Rain 8 1010 93 8000 4.6 190 10:41 23.02.2020
2119 Clouds 7 1011 87 9000 4.6 190 10:23 23.02.2020
2120 Clouds 7 1012 87 9000 4.6 210 09:56 23.02.2020
2121 Rain 7 1013 87 10000 6.2 220 09:38 23.02.2020
2122 Rain 7 1013 87 10000 6.2 220 09:20 23.02.2020
2123 Rain 7 1014 87 10000 4.1 220 08:50 23.02.2020
2124 Rain 7 1015 100 10000 2.1 180 08:29 23.02.2020
2125 Rain 7 1015 93 8000 3.1 260 07:48 23.02.2020
2126 Rain 7 1015 87 10000 6.7 250 07:30 23.02.2020
2127 Rain 7 1017 87 10000 7.2 250 06:27 23.02.2020
2128 Rain 7 1017 87 10000 6.2 240 05:39 23.02.2020
2129 Rain 7 1018 87 7000 7.2 250 04:24 23.02.2020
2130 Clouds 8 1020 87 10000 3.6 230 02:58 23.02.2020
2131 Drizzle 8 1020 87 10000 2.6 280 01:48 23.02.2020
2132 Clouds 8 1019 81 10000 7.7 250 01:22 23.02.2020
2133 Clouds 8 1019 81 10000 8.7 250 00:45 23.02.2020
2134 Clouds 8 1018 81 10000 9.3 250 00:23 23.02.2020
2135 Drizzle 8 1019 87 10000 4.6 210 23:44 22.02.2020
2136 Rain 8 1019 81 10000 7.7 250 23:25 22.02.2020
2137 Drizzle 8 1020 87 10000 5.7 220 22:46 22.02.2020
2138 Rain 8 1019 87 9000 7.7 250 22:22 22.02.2020
2139 Drizzle 8 1020 87 10000 6.2 220 21:59 22.02.2020
2140 Drizzle 8 1020 87 10000 6.2 220 21:59 22.02.2020
2141 Drizzle 8 1020 87 10000 6.2 220 21:39 22.02.2020
2142 Rain 9 1019 87 10000 7.2 250 21:21 22.02.2020
2143 Clouds 9 1018 81 10000 7.2 250 20:41 22.02.2020
2144 Clouds 9 1018 81 10000 7.2 250 20:23 22.02.2020
2145 Drizzle 9 1020 76 10000 5.7 230 19:43 22.02.2020
2146 Drizzle 9 1018 81 10000 4.6 220 19:24 22.02.2020
2147 Clouds 9 1018 75 10000 6.2 220 18:58 22.02.2020
2148 Clouds 9 1018 75 10000 6.2 220 18:38 22.02.2020
2149 Clouds 9 1018 75 10000 7.7 230 18:20 22.02.2020
2150 Clouds 9 1017 75 10000 8.2 230 17:54 22.02.2020
2151 Clouds 9 1017 75 10000 8.2 230 17:36 22.02.2020
2152 Clouds 9 1017 75 10000 8.2 230 17:18 22.02.2020
2153 Clouds 10 1017 66 10000 7.7 240 16:40 22.02.2020
2154 Clouds 10 1017 66 10000 7.7 240 16:20 22.02.2020
2155 Clouds 10 1018 61 10000 9.3 250 15:57 22.02.2020
2156 Clouds 10 1017 53 10000 7.2 250 15:39 22.02.2020
2157 Clouds 9 1017 53 10000 7.2 250 15:21 22.02.2020
2158 Clouds 10 1016 66 10000 8.2 230 14:42 22.02.2020
2159 Clouds 10 1016 46 10000 9.3 220 14:22 22.02.2020
2160 Clouds 10 1016 49 10000 8.7 210 13:44 22.02.2020
2161 Clouds 9 1016 49 10000 8.7 210 13:21 22.02.2020
2162 Clouds 9 1017 52 10000 6.7 200 12:59 22.02.2020
2163 Clouds 9 1017 52 10000 7.7 200 12:41 22.02.2020
2164 Clouds 9 1017 52 10000 7.7 200 12:22 22.02.2020
2165 Clouds 9 1017 52 10000 7.2 190 11:44 22.02.2020
2166 Clouds 9 1018 52 10000 8.2 210 11:26 22.02.2020
2167 Clouds 8 1018 52 10000 8.2 210 10:56 22.02.2020
2168 Clouds 8 1018 49 10000 6.7 200 10:38 22.02.2020
2169 Clouds 7 1018 49 10000 6.7 200 10:19 22.02.2020
2170 Clouds 7 1019 56 10000 5.7 190 09:56 22.02.2020
2171 Clouds 6 1019 56 10000 5.7 190 09:37 22.02.2020
2172 Clouds 6 1019 60 10000 6.2 200 09:37 22.02.2020
2173 Clouds 6 1019 60 10000 6.2 200 09:18 22.02.2020
2174 Clouds 5 1019 60 10000 6.7 210 08:44 22.02.2020
2175 Clouds 5 1019 64 10000 7.2 210 08:26 22.02.2020
2176 Clouds 5 1019 64 10000 7.2 210 08:26 22.02.2020
2177 Clouds 4 1018 69 10000 7.2 210 07:43 22.02.2020
2178 Clouds 4 1017 45 10000 7.2 210 07:19 22.02.2020
2179 Clouds 4 1021 70 10000 3.6 220 06:46 22.02.2020
2180 Clouds 4 1022 70 10000 4.1 220 05:44 22.02.2020
2181 Clouds 5 1020 70 10000 7.7 220 04:29 22.02.2020
2182 Clouds 5 1022 70 10000 7.7 230 02:43 22.02.2020
2183 Clouds 6 1024 81 10000 6.2 200 01:53 22.02.2020
2184 Clouds 6 1022 70 10000 9.3 230 01:30 22.02.2020
2185 Clouds 6 1025 80 10000 5.1 200 00:58 22.02.2020
2186 Clouds 6 1023 70 10000 8.2 220 00:36 22.02.2020
2187 Clouds 6 1023 70 10000 8.2 220 00:18 22.02.2020
2188 Clouds 6 1024 65 10000 9.8 220 23:37 21.02.2020
2189 Clouds 6 1025 76 10000 6.7 220 23:18 21.02.2020
2190 Clouds 6 1024 65 10000 9.8 220 23:18 21.02.2020
2191 Clouds 6 1025 76 10000 6.7 220 22:42 21.02.2020
2192 Clouds 6 1024 65 10000 8.7 220 22:24 21.02.2020
2193 Clouds 6 1026 76 10000 4.6 210 21:56 21.02.2020
2194 Clouds 6 1026 76 10000 4.6 210 21:56 21.02.2020
2195 Clouds 6 1025 76 10000 5.1 210 21:37 21.02.2020
2196 Clouds 6 1025 76 10000 5.1 210 21:19 21.02.2020
2197 Clouds 6 1025 76 10000 5.1 210 20:41 21.02.2020
2198 Clouds 6 1024 76 10000 4.1 200 20:23 21.02.2020
2199 Clouds 6 1024 76 10000 3.6 180 19:40 21.02.2020
2200 Clouds 6 1024 76 10000 4.1 210 19:20 21.02.2020
2201 Clouds 6 1024 76 10000 4.1 220 18:43 21.02.2020
2202 Clouds 6 1024 76 10000 5.1 220 18:24 21.02.2020
2203 Clouds 6 1024 76 10000 5.7 240 17:57 21.02.2020
2204 Clouds 6 1024 76 10000 6.2 240 17:37 21.02.2020
2205 Clouds 7 1024 68 10000 6.2 240 17:19 21.02.2020
2206 Clouds 7 1024 68 10000 5.7 240 16:44 21.02.2020
2207 Clouds 7 1024 68 10000 6.2 240 16:24 21.02.2020
2208 Clouds 7 1024 68 10000 6.2 240 15:59 21.02.2020
2209 Clouds 7 1024 68 10000 6.2 240 15:39 21.02.2020
2210 Clouds 8 1024 68 10000 7.2 240 15:19 21.02.2020
2211 Clouds 7 1024 68 10000 8.2 240 14:42 21.02.2020
2212 Clouds 7 1025 68 10000 6.7 250 14:22 21.02.2020
2213 Clouds 7 1025 60 10000 8.7 250 13:59 21.02.2020
2214 Clouds 7 1025 60 10000 8.2 270 13:39 21.02.2020
2215 Clouds 7 1025 60 10000 8.2 270 13:39 21.02.2020
2216 Clouds 7 1025 60 10000 8.2 270 13:20 21.02.2020
2217 Clouds 6 1025 60 10000 8.2 260 12:43 21.02.2020
2218 Clouds 6 1025 65 10000 6.7 260 12:24 21.02.2020
2219 Clouds 6 1025 65 10000 7.7 260 11:56 21.02.2020
2220 Clouds 5 1024 65 10000 6.2 270 11:37 21.02.2020
2221 Clouds 5 1024 65 10000 6.2 270 11:19 21.02.2020
2222 Clouds 5 1024 77 10000 5.7 260 10:42 21.02.2020
2223 Clouds 5 1024 77 10000 5.7 260 10:42 21.02.2020
2224 Clouds 5 1024 77 10000 5.7 260 10:42 21.02.2020
2225 Clouds 5 1024 69 10000 5.7 260 10:20 21.02.2020
2226 Clouds 5 1023 69 10000 5.7 260 09:58 21.02.2020
2227 Clouds 4 1023 69 10000 5.7 260 09:39 21.02.2020
2228 Clouds 4 1023 69 10000 5.1 270 09:20 21.02.2020
2229 Clouds 4 1022 69 10000 6.2 280 08:54 21.02.2020
2230 Clouds 4 1022 69 10000 6.2 280 08:36 21.02.2020
2231 Clouds 4 1022 69 10000 6.2 280 08:18 21.02.2020
2232 Clouds 4 1021 74 10000 6.7 280 07:41 21.02.2020
2233 Clouds 4 1022 82 10000 6.7 250 07:20 21.02.2020
2234 Clouds 4 1022 64 10000 5.7 270 06:55 21.02.2020
2235 Clouds 4 1020 82 10000 6.7 260 06:31 21.02.2020
2236 Clouds 3 1021 64 10000 6.2 280 05:55 21.02.2020
2237 Clouds 4 1020 64 10000 5.7 280 04:50 21.02.2020
2238 Clouds 3 1018 80 10000 5.7 260 04:25 21.02.2020
2239 Clouds 3 1018 69 10000 6.2 290 03:46 21.02.2020
2240 Clouds 4 1017 80 10000 7.2 290 02:58 21.02.2020
2241 Rain 5 1013 93 2500 6.7 290 01:29 21.02.2020
2242 Rain 5 1013 75 10000 6.2 280 00:46 21.02.2020
2243 Rain 5 1012 75 10000 5.7 290 00:24 21.02.2020
2244 Rain 6 1011 81 8000 9.8 240 23:57 20.02.2020
2245 Rain 6 1011 86 10000 5.1 270 23:39 20.02.2020
2246 Drizzle 6 1010 87 10000 6.2 210 23:20 20.02.2020
2247 Drizzle 7 1010 75 10000 6.2 210 22:39 20.02.2020
2248 Drizzle 7 1010 75 10000 6.2 210 22:21 20.02.2020
2249 Drizzle 7 1010 75 10000 6.2 210 22:21 20.02.2020
2250 Drizzle 7 1010 75 10000 6.2 210 22:21 20.02.2020
2251 Drizzle 7 1010 75 10000 6.2 210 21:57 20.02.2020
2252 Rain 7 1008 75 10000 9.8 220 21:37 20.02.2020
2253 Clouds 7 1009 75 10000 7.7 200 21:19 20.02.2020
2254 Clouds 7 1011 75 10000 7.7 210 20:56 20.02.2020
2255 Clouds 7 1011 75 10000 7.7 210 20:56 20.02.2020
2256 Clouds 7 1010 75 10000 6.7 170 20:37 20.02.2020
2257 Clouds 7 1010 75 10000 6.7 170 20:19 20.02.2020
2258 Clouds 7 1011 75 10000 7.2 200 19:58 20.02.2020
2259 Drizzle 7 1011 75 10000 7.2 200 19:40 20.02.2020
2260 Drizzle 7 1011 75 10000 7.2 200 19:21 20.02.2020
2261 Clouds 7 1012 70 10000 5.1 220 18:40 20.02.2020
2262 Clouds 8 1012 70 10000 5.1 220 18:20 20.02.2020
2263 Clouds 8 1013 70 10000 6.7 230 17:56 20.02.2020
2264 Clouds 8 1013 70 10000 6.7 230 17:38 20.02.2020
2265 Clouds 8 1013 70 10000 6.7 230 17:18 20.02.2020
2266 Clouds 8 1013 70 10000 7.2 200 16:55 20.02.2020
2267 Clouds 8 1013 36 10000 6.2 200 16:37 20.02.2020
2268 Clouds 8 1013 36 10000 6.2 200 16:18 20.02.2020
2269 Drizzle 8 1014 81 10000 5.7 200 15:42 20.02.2020
2270 Clouds 8 1014 75 10000 6.2 200 15:21 20.02.2020
2271 Clouds 8 1014 75 10000 6.7 200 14:57 20.02.2020
2272 Clouds 8 1014 75 10000 6.7 200 14:39 20.02.2020
2273 Clouds 8 1015 81 10000 6.2 200 14:20 20.02.2020
2274 Clouds 8 1015 81 10000 5.7 180 13:46 20.02.2020
2275 Clouds 7 1016 87 10000 6.2 180 13:20 20.02.2020
2276 Clouds 7 1016 87 10000 5.1 190 12:59 20.02.2020
2277 Clouds 7 1016 81 10000 7.2 180 12:40 20.02.2020
2278 Clouds 7 1016 81 10000 7.2 180 12:19 20.02.2020
2279 Clouds 7 1017 86 10000 7.2 180 11:56 20.02.2020
2280 Clouds 6 1017 86 10000 6.2 190 11:37 20.02.2020
2281 Clouds 6 1017 86 10000 6.2 190 11:19 20.02.2020
2282 Clouds 6 1017 86 10000 7.7 200 10:42 20.02.2020
2283 Clouds 5 1017 86 10000 6.7 200 10:22 20.02.2020
2284 Clouds 5 1018 86 10000 5.1 190 09:55 20.02.2020
2285 Clouds 5 1017 86 10000 5.1 200 09:36 20.02.2020
2286 Clouds 4 1017 86 10000 5.1 200 09:18 20.02.2020
2287 Drizzle 4 1017 86 10000 5.1 210 08:40 20.02.2020
2288 Drizzle 4 1018 86 10000 5.7 200 08:22 20.02.2020
2289 Clouds 4 1017 86 10000 2.6 190 07:46 20.02.2020
2290 Clouds 4 1018 80 10000 3.1 200 07:26 20.02.2020
2291 Clouds 4 1019 80 10000 2.1 170 06:55 20.02.2020
2292 Rain 4 1017 80 10000 8.2 190 06:27 20.02.2020
2293 Clouds 4 1019 80 10000 2.6 180 05:47 20.02.2020
2294 Clouds 4 1017 80 10000 6.7 190 05:18 20.02.2020
2295 Rain 3 1017 86 10000 7.7 190 04:28 20.02.2020
2296 Rain 3 1018 80 10000 6.2 210 03:35 20.02.2020
2297 Rain 3 1019 93 10000 6.2 200 02:37 20.02.2020
2298 Rain 2 1019 69 10000 6.2 200 01:21 20.02.2020
2299 Clouds 2 1020 74 10000 3.1 200 00:34 20.02.2020
2300 Clouds 2 1020 74 10000 3.1 200 23:52 19.02.2020
2301 Clouds 2 1020 74 10000 3.6 190 23:23 19.02.2020
2302 Clouds 2 1020 69 10000 4.1 190 22:55 19.02.2020
2303 Clouds 2 1021 74 10000 3.1 210 22:37 19.02.2020
2304 Clouds 2 1021 74 10000 3.1 210 22:18 19.02.2020
2305 Clouds 3 1021 74 10000 3.1 200 21:55 19.02.2020
2306 Clouds 3 1021 74 10000 2.6 220 21:36 19.02.2020
2307 Clouds 3 1021 74 10000 2.6 220 21:18 19.02.2020
2308 Clouds 4 1021 69 10000 3.6 240 20:55 19.02.2020
2309 Clouds 4 1020 74 10000 4.1 260 20:36 19.02.2020
2310 Clouds 4 1020 74 10000 4.1 260 20:18 19.02.2020
2311 Clouds 4 1020 74 10000 4.6 250 19:54 19.02.2020
2312 Clouds 4 1020 69 10000 4.1 270 19:36 19.02.2020
2313 Clouds 4 1020 69 10000 4.1 270 19:18 19.02.2020
2314 Clouds 4 1020 69 10000 5.1 250 18:55 19.02.2020
2315 Clouds 4 1020 69 10000 5.1 250 18:37 19.02.2020
2316 Clouds 5 1019 60 10000 5.7 270 18:19 19.02.2020
2317 Clouds 6 1019 65 10000 7.7 280 17:42 19.02.2020
2318 Clouds 6 1019 65 10000 7.7 280 17:42 19.02.2020
2319 Clouds 6 1019 65 10000 7.7 280 17:19 19.02.2020
2320 Clouds 6 1018 65 10000 6.7 280 16:43 19.02.2020
2321 Clouds 6 1018 65 10000 7.7 290 16:19 19.02.2020
2322 Clouds 6 1018 65 10000 9.3 290 15:58 19.02.2020
2323 Clouds 6 1017 70 10000 6.2 280 15:38 19.02.2020
2324 Clouds 6 1017 70 10000 6.2 280 15:20 19.02.2020
2325 Clouds 6 1017 70 10000 7.2 290 14:41 19.02.2020
2326 Clouds 5 1017 70 10000 8.7 280 14:23 19.02.2020
2327 Clouds 5 1016 69 10000 7.7 290 13:56 19.02.2020
2328 Clouds 5 1016 69 10000 7.7 290 13:37 19.02.2020
2329 Clouds 5 1016 69 10000 6.7 300 13:18 19.02.2020
2330 Clouds 5 1016 80 10000 7.7 300 12:39 19.02.2020
2331 Clouds 5 1016 80 10000 7.7 300 12:19 19.02.2020
2332 Clouds 4 1015 69 10000 9.3 290 11:55 19.02.2020
2333 Clouds 4 1015 80 10000 5.7 280 11:37 19.02.2020
2334 Clouds 4 1015 80 10000 5.7 280 11:18 19.02.2020
2335 Clouds 4 1014 86 10000 7.2 290 10:56 19.02.2020
2336 Clouds 4 1014 93 10000 6.2 290 10:36 19.02.2020
2337 Clouds 3 1014 93 10000 6.2 290 10:18 19.02.2020
2338 Clouds 3 1014 93 10000 4.6 290 09:41 19.02.2020
2339 Rain 3 1013 93 7000 6.2 290 09:20 19.02.2020
2340 Clouds 3 1012 86 10000 5.1 290 08:56 19.02.2020
2341 Rain 3 1012 86 10000 5.7 280 08:37 19.02.2020
2342 Rain 4 1012 86 10000 5.7 280 08:18 19.02.2020
2343 Clouds 4 1011 93 10000 6.2 270 07:41 19.02.2020
2344 Clouds 4 1012 80 10000 4.6 240 07:20 19.02.2020
2345 Rain 5 1012 86 10000 5.1 230 06:46 19.02.2020
2346 Rain 5 1010 80 10000 10.3 220 05:35 19.02.2020
2347 Clouds 5 1012 80 10000 6.2 200 03:56 19.02.2020
2348 Rain 5 1015 80 10000 8.2 210 02:45 19.02.2020
2349 Clouds 5 1016 80 10000 7.7 210 01:53 19.02.2020
2350 Clouds 5 1014 75 10000 8.2 200 01:23 19.02.2020
2351 Clouds 5 1017 80 10000 5.7 210 00:41 19.02.2020
2352 Clouds 5 1016 70 10000 8.7 210 00:22 19.02.2020
2353 Clouds 5 1017 75 10000 8.2 210 23:40 18.02.2020
2354 Clouds 5 1017 75 10000 8.2 210 23:20 18.02.2020
2355 Clouds 5 1019 75 10000 4.6 200 22:55 18.02.2020
2356 Clouds 5 1018 75 10000 8.2 200 22:37 18.02.2020
2357 Clouds 5 1018 75 10000 8.2 200 22:19 18.02.2020
2358 Clouds 5 1018 75 10000 8.2 200 22:19 18.02.2020
2359 Clouds 5 1020 75 10000 5.1 210 21:55 18.02.2020
2360 Clouds 5 1019 80 10000 6.2 220 21:36 18.02.2020
2361 Clouds 5 1019 80 10000 6.2 220 21:18 18.02.2020
2362 Clouds 5 1019 80 10000 6.7 220 20:54 18.02.2020
2363 Clouds 5 1019 80 10000 5.7 220 20:36 18.02.2020
2364 Clouds 5 1019 80 10000 5.7 220 20:18 18.02.2020
2365 Clouds 5 1020 80 10000 5.1 220 19:42 18.02.2020
2366 Clouds 5 1020 86 10000 4.6 230 19:19 18.02.2020
2367 Clouds 5 1020 86 10000 6.2 210 18:57 18.02.2020
2368 Clouds 5 1020 86 10000 6.7 210 18:39 18.02.2020
2369 Clouds 5 1020 86 10000 6.7 210 18:18 18.02.2020
2370 Clouds 5 1020 86 10000 6.7 210 18:18 18.02.2020
2371 Rain 6 1020 80 10000 4.6 230 17:41 18.02.2020
2372 Rain 6 1019 75 10000 5.7 240 17:19 18.02.2020
2373 Rain 7 1019 75 10000 8.7 230 16:40 18.02.2020
2374 Rain 7 1020 86 10000 5.1 310 16:22 18.02.2020
2375 Rain 7 1021 70 10000 8.2 240 15:58 18.02.2020
2376 Rain 7 1020 75 10000 7.7 230 15:37 18.02.2020
2377 Rain 7 1020 75 10000 7.7 230 15:18 18.02.2020
2378 Clouds 7 1020 70 10000 8.2 250 14:56 18.02.2020
2379 Clouds 7 1020 70 10000 8.2 250 14:56 18.02.2020
2380 Clouds 7 1020 65 10000 7.2 240 14:37 18.02.2020
2381 Clouds 7 1020 65 10000 7.2 240 14:19 18.02.2020
2382 Clouds 7 1021 65 10000 6.7 250 13:41 18.02.2020
2383 Rain 7 1021 75 10000 8.2 250 13:21 18.02.2020
2384 Clouds 7 1021 70 10000 6.2 260 12:54 18.02.2020
2385 Clouds 7 1021 65 10000 8.7 250 12:36 18.02.2020
2386 Clouds 7 1021 65 10000 8.7 250 12:18 18.02.2020
2387 Rain 7 1021 70 10000 6.2 230 11:42 18.02.2020
2388 Clouds 7 1021 70 10000 7.2 230 11:23 18.02.2020
2389 Clouds 6 1021 69 10000 6.2 240 10:46 18.02.2020
2390 Clouds 6 1021 69 10000 6.2 250 10:25 18.02.2020
2391 Clouds 6 1020 69 10000 7.7 250 09:58 18.02.2020
2392 Clouds 6 1020 69 10000 7.7 250 09:58 18.02.2020
2393 Clouds 6 1020 69 10000 6.2 250 09:39 18.02.2020
2394 Clouds 5 1020 69 10000 6.2 250 09:20 18.02.2020
2395 Clouds 5 1020 69 10000 4.6 250 08:59 18.02.2020
2396 Clouds 5 1020 69 10000 4.6 250 08:40 18.02.2020
2397 Clouds 5 1019 83 10000 5.7 250 08:20 18.02.2020
2398 Clouds 5 1018 75 10000 5.7 240 07:55 18.02.2020
2399 Clouds 5 1018 75 10000 5.7 240 07:55 18.02.2020
2400 Rain 5 1020 80 10000 5.7 240 07:29 18.02.2020
2401 Rain 5 1020 80 10000 5.7 240 06:55 18.02.2020
2402 Clouds 6 1017 75 10000 9.8 240 06:32 18.02.2020
2403 Rain 6 1019 81 10000 6.2 210 05:56 18.02.2020
2404 Clouds 6 1019 81 10000 5.1 210 05:23 18.02.2020
2405 Rain 6 1018 81 10000 4.6 230 03:57 18.02.2020
2406 Clouds 6 1018 87 10000 6.7 210 02:58 18.02.2020
2407 Rain 6 1017 81 10000 6.2 220 01:58 18.02.2020
2408 Rain 6 1016 81 10000 5.7 220 00:44 18.02.2020
2409 Clouds 6 1014 81 10000 8.7 230 00:19 18.02.2020
2410 Clouds 6 1016 81 10000 6.7 210 23:44 17.02.2020
2411 Rain 6 1014 81 10000 7.7 230 23:24 17.02.2020
2412 Clouds 6 1016 86 10000 5.1 210 22:59 17.02.2020
2413 Rain 5 1014 86 10000 5.1 230 22:40 17.02.2020
2414 Rain 5 1014 86 10000 5.1 230 22:20 17.02.2020
2415 Clouds 5 1014 81 10000 7.2 250 21:39 17.02.2020
2416 Clouds 5 1013 75 10000 7.7 230 21:19 17.02.2020
2417 Clouds 5 1015 86 10000 4.1 170 20:57 17.02.2020
2418 Clouds 6 1014 70 10000 6.2 240 20:38 17.02.2020
2419 Clouds 6 1014 70 10000 6.2 240 20:20 17.02.2020
2420 Clouds 6 1013 75 10000 7.7 240 19:54 17.02.2020
2421 Rain 6 1014 86 10000 7.2 280 19:36 17.02.2020
2422 Rain 6 1014 86 10000 7.2 280 19:18 17.02.2020
2423 Clouds 6 1012 61 10000 6.2 200 18:37 17.02.2020
2424 Clouds 7 1012 61 10000 6.2 200 18:19 17.02.2020
2425 Clouds 7 1012 61 10000 6.2 220 17:54 17.02.2020
2426 Clouds 8 1012 57 10000 7.2 220 17:36 17.02.2020
2427 Clouds 9 1012 57 10000 7.2 220 17:18 17.02.2020
2428 Clouds 9 1012 65 10000 6.2 220 16:43 17.02.2020
2429 Clouds 9 1012 57 10000 7.2 230 16:22 17.02.2020
2430 Clouds 9 1012 61 10000 7.2 230 15:58 17.02.2020
2431 Clouds 9 1012 57 10000 7.7 220 15:40 17.02.2020
2432 Clouds 9 1012 57 10000 7.7 220 15:21 17.02.2020
2433 Clouds 9 1012 57 10000 8.7 220 14:44 17.02.2020
2434 Clouds 9 1012 65 10000 8.7 220 14:26 17.02.2020
2435 Clouds 9 1013 65 10000 8.7 230 13:58 17.02.2020
2436 Clouds 9 1013 65 10000 8.7 230 13:39 17.02.2020
2437 Clouds 9 1013 70 10000 8.2 220 13:19 17.02.2020
2438 Clouds 9 1013 65 10000 7.7 220 12:47 17.02.2020
2439 Clouds 9 1013 70 10000 7.7 210 12:26 17.02.2020
2440 Clouds 8 1013 70 10000 6.2 220 11:59 17.02.2020
2441 Clouds 8 1014 70 10000 5.1 220 11:40 17.02.2020
2442 Clouds 8 1014 70 10000 5.1 220 11:21 17.02.2020
2443 Clouds 8 1013 70 10000 5.1 200 10:55 17.02.2020
2444 Clouds 8 1014 70 10000 3.6 200 10:37 17.02.2020
2445 Clouds 8 1013 70 10000 5.7 220 10:18 17.02.2020
2446 Clouds 8 1013 70 10000 5.7 220 10:18 17.02.2020
2447 Clouds 7 1013 70 10000 5.7 220 09:41 17.02.2020
2448 Clouds 7 1013 70 10000 5.1 220 09:21 17.02.2020
2449 Clouds 7 1013 75 10000 5.1 230 08:58 17.02.2020
2450 Clouds 7 1013 65 10000 5.7 240 08:40 17.02.2020
2451 Clouds 7 1013 65 10000 5.7 240 08:20 17.02.2020
2452 Clouds 7 1013 65 10000 6.2 240 07:45 17.02.2020
2453 Clouds 7 1012 65 10000 7.7 240 07:24 17.02.2020
2454 Clouds 8 1013 75 10000 4.6 220 06:52 17.02.2020
2455 Clouds 8 1011 65 10000 8.2 250 06:32 17.02.2020
2456 Clouds 8 1013 70 10000 5.7 220 05:58 17.02.2020
2457 Clouds 8 1010 75 10000 9.3 230 05:38 17.02.2020
2458 Clouds 8 1009 75 10000 9.8 240 03:22 17.02.2020
2459 Drizzle 8 1009 76 10000 5.1 240 01:58 17.02.2020
2460 Clouds 9 1009 76 10000 7.2 260 00:48 17.02.2020
2461 Rain 9 1007 87 6000 8.2 240 00:21 17.02.2020
2462 Drizzle 10 1007 71 10000 10.3 270 23:53 16.02.2020
2463 Rain 11 1006 93 9000 7.2 240 23:32 16.02.2020
2464 Clouds 11 1003 51 10000 12.3 220 22:58 16.02.2020
2465 Rain 11 1006 93 6000 6.2 260 22:39 16.02.2020
2466 Clouds 13 1001 54 10000 10.3 220 22:21 16.02.2020
2467 Clouds 14 1001 54 10000 10.3 220 21:57 16.02.2020
2468 Clouds 14 1001 54 10000 10.3 220 21:57 16.02.2020
2469 Clouds 14 1001 54 10000 10.3 220 21:57 16.02.2020
2470 Clouds 15 1001 50 10000 11.3 210 21:39 16.02.2020
2471 Clouds 15 1001 50 10000 11.3 210 21:21 16.02.2020
2472 Clouds 15 1002 47 10000 14.4 220 20:57 16.02.2020
2473 Clouds 15 1002 47 10000 10.3 210 20:39 16.02.2020
2474 Clouds 15 1002 47 10000 10.3 210 20:20 16.02.2020
2475 Clouds 15 1002 47 10000 10.3 200 19:58 16.02.2020
2476 Clouds 15 1004 47 10000 11.8 210 19:38 16.02.2020
2477 Clouds 15 1004 47 10000 11.8 210 19:18 16.02.2020
2478 Clouds 15 1002 50 10000 9.8 200 18:43 16.02.2020
2479 Clouds 15 1002 50 10000 10.3 190 18:23 16.02.2020
2480 Clouds 15 1002 50 10000 11.3 200 17:55 16.02.2020
2481 Clouds 15 1003 50 10000 8.7 200 17:36 16.02.2020
2482 Clouds 15 1003 50 10000 8.7 200 17:18 16.02.2020
2483 Clouds 15 1003 50 10000 8.7 200 17:18 16.02.2020
2484 Clouds 15 1003 54 10000 10.3 200 16:54 16.02.2020
2485 Clouds 15 1004 54 10000 9.8 200 16:36 16.02.2020
2486 Clouds 15 1004 54 10000 9.8 200 16:18 16.02.2020
2487 Clouds 15 1004 54 10000 8.7 200 15:41 16.02.2020
2488 Clouds 15 1004 54 10000 9.8 190 15:21 16.02.2020
2489 Clouds 15 1004 54 10000 11.3 200 14:44 16.02.2020
2490 Clouds 15 1004 58 10000 12.3 200 14:23 16.02.2020
2491 Clouds 14 1004 62 10000 11.8 200 13:57 16.02.2020
2492 Clouds 14 1006 62 10000 11.8 200 13:38 16.02.2020
2493 Clouds 14 1006 62 10000 11.8 200 13:20 16.02.2020
2494 Clouds 13 1006 66 10000 10.3 200 12:39 16.02.2020
2495 Clouds 13 1006 66 10000 10.3 200 12:39 16.02.2020
2496 Clouds 13 1006 66 10000 11.3 200 12:19 16.02.2020
2497 Clouds 13 1006 66 10000 11.3 200 12:19 16.02.2020
2498 Clouds 12 1007 66 10000 11.8 200 11:40 16.02.2020
2499 Clouds 12 1007 66 10000 8.7 200 11:20 16.02.2020
2500 Clouds 12 1008 71 10000 9.8 210 10:58 16.02.2020
2501 Clouds 12 1008 71 10000 9.8 210 10:58 16.02.2020
2502 Clouds 11 1008 71 10000 9.8 210 10:40 16.02.2020
2503 Clouds 11 1007 71 10000 10.8 210 10:21 16.02.2020
2504 Clouds 11 1007 66 10000 10.8 200 09:59 16.02.2020
2505 Clouds 11 1007 71 10000 9.8 200 09:38 16.02.2020
2506 Clouds 11 1007 66 10000 10.8 200 09:38 16.02.2020
2507 Clouds 11 1007 71 10000 9.8 200 09:38 16.02.2020
2508 Clouds 10 1007 71 10000 9.8 200 09:20 16.02.2020
2509 Clouds 10 1008 71 10000 8.7 200 08:56 16.02.2020
2510 Clouds 10 1008 71 10000 8.7 200 08:38 16.02.2020
2511 Rain 10 1008 71 10000 9.8 200 08:18 16.02.2020
2512 Rain 11 1008 71 10000 9.8 200 07:41 16.02.2020
2513 Clouds 11 1010 66 10000 9.8 210 06:54 16.02.2020
2514 Clouds 11 1007 62 10000 9.8 200 06:29 16.02.2020
2515 Clouds 10 1009 62 10000 8.2 210 04:37 16.02.2020
2516 Clouds 10 1009 62 10000 8.2 210 03:20 16.02.2020
2517 Clouds 9 1012 66 10000 7.7 190 01:58 16.02.2020
2518 Clouds 9 1012 66 10000 7.7 190 01:58 16.02.2020
2519 Clouds 9 1012 61 10000 7.2 190 01:38 16.02.2020
2520 Clouds 9 1012 61 10000 7.2 190 01:19 16.02.2020
2521 Clouds 9 1011 53 10000 10.3 190 00:42 16.02.2020
2522 Clouds 8 1011 53 10000 10.3 190 00:22 16.02.2020
2523 Clouds 8 1014 66 10000 8.7 200 23:43 15.02.2020
2524 Clouds 8 1011 50 10000 9.8 180 23:25 15.02.2020
2525 Clouds 8 1015 66 10000 9.3 200 22:57 15.02.2020
2526 Clouds 8 1012 50 10000 8.2 180 22:39 15.02.2020
2527 Clouds 8 1013 57 10000 7.7 190 22:19 15.02.2020
2528 Clouds 8 1015 66 10000 10.3 200 21:55 15.02.2020
2529 Clouds 8 1014 57 10000 7.2 180 21:37 15.02.2020
2530 Clouds 7 1014 57 10000 7.2 180 21:19 15.02.2020
2531 Clouds 7 1015 75 10000 4.6 170 20:38 15.02.2020
2532 Clouds 7 1015 75 10000 4.6 170 20:20 15.02.2020
2533 Clouds 8 1016 70 10000 6.2 170 19:43 15.02.2020
2534 Clouds 8 1016 70 10000 5.7 170 19:22 15.02.2020
2535 Clouds 8 1016 70 10000 5.7 180 18:43 15.02.2020
2536 Clouds 8 1017 70 10000 5.7 180 18:22 15.02.2020
2537 Clouds 8 1017 70 10000 5.7 180 17:57 15.02.2020
2538 Clouds 8 1017 70 10000 5.7 180 17:57 15.02.2020
2539 Clouds 8 1017 70 10000 5.7 180 17:37 15.02.2020
2540 Clouds 9 1017 75 10000 5.7 180 17:19 15.02.2020
2541 Clouds 10 1017 66 10000 7.2 190 16:42 15.02.2020
2542 Clouds 10 1018 66 10000 6.7 190 16:24 15.02.2020
2543 Clouds 10 1018 66 10000 6.7 190 15:57 15.02.2020
2544 Clouds 11 1018 66 10000 6.7 190 15:39 15.02.2020
2545 Clouds 10 1017 66 10000 6.7 200 15:20 15.02.2020
2546 Clouds 10 1018 66 10000 5.1 190 14:43 15.02.2020
2547 Clouds 10 1018 70 10000 5.7 190 14:19 15.02.2020
2548 Clouds 10 1019 70 10000 7.2 190 13:43 15.02.2020
2549 Clouds 9 1019 75 10000 6.7 190 13:25 15.02.2020
2550 Clouds 9 1020 52 10000 6.2 190 12:59 15.02.2020
2551 Clouds 9 1020 75 10000 5.7 180 12:41 15.02.2020
2552 Clouds 9 1020 75 10000 5.7 180 12:22 15.02.2020
2553 Clouds 8 1021 75 10000 6.2 180 11:48 15.02.2020
2554 Clouds 8 1021 81 10000 6.7 170 11:29 15.02.2020
2555 Clouds 7 1021 81 10000 7.2 180 10:51 15.02.2020
2556 Clouds 6 1022 81 10000 5.1 200 10:30 15.02.2020
2557 Clouds 6 1022 86 10000 4.1 180 09:58 15.02.2020
2558 Clouds 6 1022 86 10000 4.1 180 09:39 15.02.2020
2559 Clouds 5 1022 93 10000 2.1 130 09:21 15.02.2020
2560 Clouds 4 1021 93 10000 2.6 130 08:43 15.02.2020
2561 Clouds 4 1021 80 10000 2.6 0 08:24 15.02.2020
2562 Clouds 4 1021 86 10000 1 0 07:51 15.02.2020
2563 Clouds 4 1021 93 10000 2.1 150 07:31 15.02.2020
2564 Clouds 3 1021 93 10000 3.6 130 06:51 15.02.2020
2565 Clouds 3 1022 93 10000 2.6 100 06:31 15.02.2020
2566 Clouds 4 1022 93 10000 2.6 170 05:41 15.02.2020
2567 Clouds 3 1023 86 10000 2.1 170 04:45 15.02.2020
2568 Clouds 3 1022 80 10000 5.1 140 03:24 15.02.2020
2569 Clouds 3 1024 86 10000 2.1 150 02:50 15.02.2020
2570 Clouds 4 1024 80 10000 2.1 150 02:21 15.02.2020
2571 Clouds 4 1023 80 10000 4.6 150 01:39 15.02.2020
2572 Clouds 4 1023 80 10000 4.6 160 00:41 15.02.2020
2573 Clouds 4 1024 86 10000 2.1 180 00:19 15.02.2020
2574 Clouds 4 1024 86 10000 2.1 180 23:39 14.02.2020
2575 Clouds 5 1024 80 10000 1 0 23:19 14.02.2020
2576 Clouds 5 1025 80 10000 2.1 180 22:44 14.02.2020
2577 Clouds 5 1024 75 10000 4.1 180 22:23 14.02.2020
2578 Clouds 5 1025 80 10000 1 220 21:52 14.02.2020
2579 Clouds 5 1024 75 10000 2.6 200 21:34 14.02.2020
2580 Clouds 5 1024 75 10000 2.6 200 20:59 14.02.2020
2581 Clouds 5 1024 80 10000 1.5 230 20:40 14.02.2020
2582 Clouds 5 1024 80 10000 1.5 230 20:19 14.02.2020
2583 Clouds 5 1024 80 10000 1.5 230 20:19 14.02.2020
2584 Clouds 5 1023 80 10000 2.1 250 19:43 14.02.2020
2585 Clouds 5 1023 80 10000 1.5 240 19:25 14.02.2020
2586 Clouds 5 1022 80 10000 1.5 240 18:59 14.02.2020
2587 Clouds 5 1022 80 10000 1.5 240 18:41 14.02.2020
2588 Clouds 6 1022 75 10000 3.1 260 18:22 14.02.2020
2589 Clouds 6 1022 75 10000 3.1 270 17:59 14.02.2020
2590 Clouds 6 1021 75 10000 4.1 270 17:40 14.02.2020
2591 Clouds 6 1021 75 10000 4.1 270 17:18 14.02.2020
2592 Clouds 6 1021 70 10000 4.6 270 16:42 14.02.2020
2593 Clouds 6 1021 70 10000 4.6 270 16:42 14.02.2020
2594 Clouds 6 1021 70 10000 4.6 270 16:42 14.02.2020
2595 Clouds 7 1020 75 10000 6.2 290 16:24 14.02.2020
2596 Clouds 7 1020 81 10000 4.1 300 15:58 14.02.2020
2597 Clouds 6 1020 81 10000 4.1 300 15:39 14.02.2020
2598 Clouds 7 1020 81 10000 3.6 290 15:21 14.02.2020
2599 Clouds 6 1020 75 10000 5.7 290 14:59 14.02.2020
2600 Clouds 7 1020 75 10000 5.7 290 14:41 14.02.2020
2601 Clouds 6 1019 81 10000 3.6 290 14:22 14.02.2020
2602 Drizzle 6 1019 86 10000 4.1 260 13:56 14.02.2020
2603 Clouds 6 1019 86 10000 4.6 280 13:38 14.02.2020
2604 Clouds 6 1019 86 10000 4.6 280 13:19 14.02.2020
2605 Clouds 6 1019 86 10000 5.1 260 12:56 14.02.2020
2606 Drizzle 6 1018 86 10000 4.1 270 12:38 14.02.2020
2607 Drizzle 6 1018 86 10000 4.1 270 12:19 14.02.2020
2608 Clouds 6 1017 86 10000 4.6 250 11:55 14.02.2020
2609 Clouds 6 1017 86 10000 4.1 250 11:36 14.02.2020
2610 Clouds 6 1017 86 10000 4.1 250 11:18 14.02.2020
2611 Clouds 5 1016 86 10000 2.6 250 10:41 14.02.2020
2612 Clouds 5 1016 86 10000 2.6 250 10:22 14.02.2020
2613 Clouds 5 1015 93 10000 2.1 240 09:45 14.02.2020
2614 Drizzle 5 1015 93 10000 3.1 240 09:24 14.02.2020
2615 Rain 5 1014 93 10000 3.1 250 08:57 14.02.2020
2616 Clouds 5 1013 86 10000 2.6 270 08:39 14.02.2020
2617 Clouds 4 1013 86 10000 2.6 270 08:20 14.02.2020
2618 Clouds 4 1012 86 10000 4.6 290 07:49 14.02.2020
2619 Rain 4 1012 93 9000 3.6 260 07:29 14.02.2020
2620 Drizzle 4 1011 93 10000 3.6 260 06:39 14.02.2020
2621 Clouds 4 1011 93 8000 3.1 270 06:18 14.02.2020
2622 Clouds 4 1010 93 10000 3.8 279 05:29 14.02.2020
2623 Clouds 4 1008 100 10000 1 0 03:48 14.02.2020
2624 Clouds 4 1007 100 10000 2.6 210 02:56 14.02.2020
2625 Clouds 4 1005 93 10000 1 140 01:57 14.02.2020
2626 Clouds 4 1004 93 10000 2.6 210 00:45 14.02.2020
2627 Clouds 4 1002 86 10000 5.7 190 00:27 14.02.2020
2628 Clouds 4 1003 93 10000 1.5 180 23:57 13.02.2020
2629 Clouds 4 1001 86 10000 5.7 180 23:38 13.02.2020
2630 Rain 4 1002 93 10000 0.5 320 23:18 13.02.2020
2631 Rain 4 1001 86 10000 1 0 22:40 13.02.2020
2632 Rain 4 1001 86 10000 1 0 22:19 13.02.2020
2633 Clouds 4 1002 93 10000 3.6 190 21:57 13.02.2020
2634 Clouds 4 1001 86 10000 3.1 170 21:37 13.02.2020
2635 Clouds 3 999 86 10000 4.1 170 21:19 13.02.2020
2636 Clouds 3 1001 86 10000 3.1 160 20:42 13.02.2020
2637 Clouds 4 1001 93 10000 3.1 170 20:22 13.02.2020
2638 Clouds 4 999 86 10000 6.7 190 19:57 13.02.2020
2639 Clouds 4 999 86 10000 6.7 190 19:38 13.02.2020
2640 Clouds 4 1001 86 10000 2.6 170 19:38 13.02.2020
2641 Clouds 4 1001 86 10000 2.6 170 19:20 13.02.2020
2642 Rain 4 999 86 10000 4.1 180 18:57 13.02.2020
2643 Rain 3 999 86 10000 5.1 170 18:39 13.02.2020
2644 Rain 3 999 86 10000 5.1 170 18:20 13.02.2020
2645 Rain 4 999 86 10000 5.1 180 17:57 13.02.2020
2646 Rain 4 999 86 10000 5.1 150 17:37 13.02.2020
2647 Rain 3 999 86 10000 5.1 150 17:18 13.02.2020
2648 Rain 3 1000 93 10000 6.7 160 16:42 13.02.2020
2649 Rain 3 1000 93 10000 6.2 160 16:21 13.02.2020
2650 Rain 3 1000 86 10000 5.7 160 15:57 13.02.2020
2651 Rain 3 1001 93 10000 7.7 160 15:39 13.02.2020
2652 Rain 3 1002 86 8000 6.7 160 15:19 13.02.2020
2653 Rain 3 1002 86 8000 6.7 160 14:58 13.02.2020
2654 Rain 4 1002 86 8000 6.7 160 14:39 13.02.2020
2655 Rain 4 1003 75 10000 7.2 190 14:21 13.02.2020
2656 Rain 4 1003 80 10000 6.2 150 13:48 13.02.2020
2657 Rain 4 1004 86 9000 7.2 140 13:19 13.02.2020
2658 Clouds 4 1005 86 10000 7.2 140 12:57 13.02.2020
2659 Rain 4 1006 86 10000 6.2 140 12:38 13.02.2020
2660 Rain 4 1006 86 10000 6.2 140 12:20 13.02.2020
2661 Clouds 4 1008 71 10000 4.6 160 11:47 13.02.2020
2662 Clouds 3 1009 86 10000 1 210 11:21 13.02.2020
2663 Clouds 3 1009 86 10000 1 210 10:57 13.02.2020
2664 Clouds 3 1009 83 10000 4.6 140 10:39 13.02.2020
2665 Clouds 3 1009 83 10000 4.6 140 10:20 13.02.2020
2666 Clouds 2 1010 83 10000 5.1 150 09:42 13.02.2020
2667 Clouds 2 1011 83 10000 6.2 150 09:23 13.02.2020
2668 Clouds 2 1012 83 10000 4.1 170 08:46 13.02.2020
2669 Clouds 1 1012 93 10000 2.6 140 08:19 13.02.2020
2670 Clouds 1 1012 94 10000 2.6 140 08:19 13.02.2020
2671 Clouds 1 1012 93 10000 2.6 140 08:19 13.02.2020
2672 Clouds 1 1012 93 10000 2.1 130 07:43 13.02.2020
2673 Clouds 1 1011 74 10000 5.7 170 07:23 13.02.2020
2674 Clouds 1 1014 86 10000 5.1 200 06:53 13.02.2020
2675 Clouds 1 1012 74 10000 5.1 180 06:33 13.02.2020
2676 Clouds 1 1015 93 10000 2.6 130 05:50 13.02.2020
2677 Clouds 1 1015 88 10000 1 50 04:45 13.02.2020
2678 Clouds 1 1014 80 10000 5.7 200 04:18 13.02.2020
2679 Clouds 2 1014 74 10000 4.6 190 03:30 13.02.2020
2680 Clouds 2 1017 86 10000 3.6 230 02:56 13.02.2020
2681 Clouds 2 1015 80 10000 5.1 230 02:20 13.02.2020
2682 Clouds 2 1015 74 10000 5.1 230 01:41 13.02.2020
2683 Clouds 2 1017 86 10000 4.6 220 00:57 13.02.2020
2684 Clouds 2 1015 80 10000 5.7 230 00:27 13.02.2020
2685 Clouds 2 1015 80 10000 6.2 230 23:43 12.02.2020
2686 Clear 2 1015 80 10000 5.1 230 23:23 12.02.2020
2687 Clouds 2 1016 86 10000 5.7 200 22:59 12.02.2020
2688 Clouds 2 1015 74 10000 5.7 230 22:41 12.02.2020
2689 Clear 2 1015 69 10000 5.7 250 22:22 12.02.2020
2690 Clouds 3 1016 74 10000 3.6 260 21:55 12.02.2020
2691 Clouds 3 1015 69 10000 5.7 250 21:37 12.02.2020
2692 Clouds 3 1015 69 10000 5.7 250 21:18 12.02.2020
2693 Clouds 3 1016 64 10000 4.1 270 20:43 12.02.2020
2694 Clouds 3 1014 80 10000 7.2 260 20:25 12.02.2020
2695 Clouds 3 1014 74 9000 7.2 270 19:57 12.02.2020
2696 Clouds 3 1014 74 9000 7.2 270 19:39 12.02.2020
2697 Clouds 3 1014 74 10000 7.7 250 19:21 12.02.2020
2698 Clouds 3 1013 69 10000 5.7 260 18:50 12.02.2020
2699 Clouds 4 1012 69 10000 6.2 270 18:20 12.02.2020
2700 Clouds 4 1012 69 10000 6.2 270 17:58 12.02.2020
2701 Clouds 4 1011 64 10000 7.7 260 17:39 12.02.2020
2702 Clouds 5 1011 64 10000 7.7 260 17:19 12.02.2020
2703 Clouds 5 1012 64 10000 9.8 280 16:55 12.02.2020
2704 Clouds 5 1011 56 10000 10.8 270 16:36 12.02.2020
2705 Clouds 5 1011 56 10000 10.8 270 16:18 12.02.2020
2706 Rain 5 1011 52 10000 10.3 280 15:37 12.02.2020
2707 Rain 5 1011 52 10000 10.3 280 15:18 12.02.2020
2708 Clouds 5 1011 56 10000 9.3 280 14:42 12.02.2020
2709 Clouds 5 1011 56 10000 10.3 280 14:21 12.02.2020
2710 Clouds 6 1011 56 10000 10.3 270 13:59 12.02.2020
2711 Clouds 5 1011 56 10000 10.3 270 13:40 12.02.2020
2712 Clouds 5 1011 56 10000 10.3 270 13:21 12.02.2020
2713 Clouds 5 1011 60 10000 9.8 260 12:58 12.02.2020
2714 Clouds 5 1010 56 10000 9.3 280 12:39 12.02.2020
2715 Clouds 5 1010 56 10000 9.3 280 12:39 12.02.2020
2716 Clouds 4 1010 56 10000 9.3 280 12:19 12.02.2020
2717 Clouds 5 1010 60 10000 9.3 270 11:58 12.02.2020
2718 Clouds 5 1010 60 10000 9.3 270 11:58 12.02.2020
2719 Clouds 4 1010 60 10000 9.3 270 11:40 12.02.2020
2720 Drizzle 4 1010 60 10000 6.7 280 11:20 12.02.2020
2721 Clouds 3 1010 69 10000 7.2 270 10:56 12.02.2020
2722 Clouds 3 1010 69 10000 7.7 270 10:38 12.02.2020
2723 Clouds 3 1010 69 10000 7.7 270 10:20 12.02.2020
2724 Snow 3 1009 69 9000 5.7 260 09:42 12.02.2020
2725 Clouds 2 1009 74 10000 7.7 250 09:24 12.02.2020
2726 Clouds 2 1009 74 10000 6.2 250 08:58 12.02.2020
2727 Clouds 2 1008 74 10000 6.2 240 08:38 12.02.2020
2728 Clouds 2 1008 74 10000 6.2 240 08:20 12.02.2020
2729 Clouds 2 1008 74 10000 6.2 240 08:20 12.02.2020
2730 Clouds 2 1008 74 10000 6.2 240 08:20 12.02.2020
2731 Clouds 2 1008 74 10000 10.3 240 07:45 12.02.2020
2732 Snow 2 1009 86 10000 7.2 250 07:45 12.02.2020
2733 Clouds 2 1008 74 10000 10.3 240 07:24 12.02.2020
2734 Rain 2 1010 80 10000 6.7 240 06:59 12.02.2020
2735 Rain 2 1010 80 10000 6.7 240 06:59 12.02.2020
2736 Clouds 2 1008 69 10000 9.3 250 06:24 12.02.2020
2737 Clouds 2 1010 86 10000 5.7 220 05:44 12.02.2020
2738 Rain 2 1008 80 10000 5.7 250 05:21 12.02.2020
2739 Clouds 2 1008 80 10000 9.8 250 04:41 12.02.2020
2740 Clouds 2 1007 69 10000 8.2 250 03:43 12.02.2020
2741 Clouds 3 1007 69 10000 8.2 250 03:24 12.02.2020
2742 Rain 2 1007 80 10000 10.3 250 02:31 12.02.2020
2743 Clouds 2 1009 69 10000 7.2 250 01:59 12.02.2020
2744 Snow 2 1009 78 10000 7.7 270 00:58 12.02.2020
2745 Snow 2 1009 78 10000 7.7 270 00:58 12.02.2020
2746 Clouds 2 1007 74 10000 6.7 270 00:39 12.02.2020
2747 Clouds 2 1007 74 10000 6.7 270 00:21 12.02.2020
2748 Clouds 2 1006 69 10000 8.2 250 23:42 11.02.2020
2749 Rain 2 1006 74 10000 7.2 250 23:24 11.02.2020
2750 Snow 2 1008 74 10000 5.1 260 22:56 11.02.2020
2751 Clouds 2 1007 74 10000 4.1 250 22:38 11.02.2020
2752 Clouds 2 1007 74 10000 4.1 250 22:19 11.02.2020
2753 Clouds 2 1007 80 10000 4.6 280 21:56 11.02.2020
2754 Clouds 2 1007 80 10000 4.6 280 21:56 11.02.2020
2755 Clouds 2 1007 80 10000 6.2 280 21:37 11.02.2020
2756 Clouds 2 1007 80 10000 6.2 280 21:18 11.02.2020
2757 Clouds 2 1007 80 10000 6.2 280 21:18 11.02.2020
2758 Clouds 2 1007 80 10000 6.2 280 21:18 11.02.2020
2759 Clouds 2 1005 64 10000 8.2 270 20:55 11.02.2020
2760 Clouds 2 1005 69 10000 8.7 260 20:37 11.02.2020
2761 Clouds 2 1005 69 10000 8.7 260 20:18 11.02.2020
2762 Clouds 2 1006 72 10000 5.7 260 19:42 11.02.2020
2763 Clouds 3 1006 72 10000 5.7 260 19:24 11.02.2020
2764 Snow 3 1006 72 10000 6.2 250 18:57 11.02.2020
2765 Snow 3 1006 72 10000 6.2 250 18:57 11.02.2020
2766 Rain 3 1003 64 10000 7.7 280 18:39 11.02.2020
2767 Rain 3 1003 64 10000 7.7 280 18:20 11.02.2020
2768 Rain 3 1003 55 10000 8.7 280 17:55 11.02.2020
2769 Clouds 3 1002 55 10000 7.7 270 17:36 11.02.2020
2770 Clouds 3 1002 55 10000 7.7 270 17:18 11.02.2020
2771 Rain 4 1002 64 10000 11.3 280 16:56 11.02.2020
2772 Rain 4 1002 56 10000 7.2 270 16:37 11.02.2020
2773 Rain 4 1002 56 10000 7.2 270 16:19 11.02.2020
2774 Rain 4 1002 64 10000 9.8 270 15:44 11.02.2020
2775 Clouds 4 1001 63 10000 9.3 260 15:26 11.02.2020
2776 Clouds 4 1001 63 3600 10.8 270 14:57 11.02.2020
2777 Rain 5 1001 56 10000 10.3 260 14:38 11.02.2020
2778 Rain 5 1001 56 10000 10.3 260 14:18 11.02.2020
2779 Rain 4 1001 52 10000 11.3 270 13:42 11.02.2020
2780 Rain 5 1001 52 10000 11.3 270 13:21 11.02.2020
2781 Rain 5 1001 52 10000 11.3 270 13:21 11.02.2020
2782 -273 0 0 0 0 0 13:21 11.02.2020
2783 Clouds 5 1003 52 10000 9.3 260 12:58 11.02.2020
2784 Clouds 4 1001 60 10000 10.3 260 12:40 11.02.2020
2785 Clouds 4 1000 60 10000 10.8 260 12:20 11.02.2020
2786 Clouds 4 1000 56 10000 10.8 260 11:55 11.02.2020
2787 Clouds 4 1000 60 10000 11.3 270 11:36 11.02.2020
2788 Clouds 4 1000 60 10000 11.3 270 11:18 11.02.2020
2789 Clouds 4 999 55 10000 11.8 270 10:39 11.02.2020
2790 Clouds 4 999 55 10000 11.8 270 10:20 11.02.2020
2791 Clouds 4 999 55 10000 9.8 270 09:56 11.02.2020
2792 Clouds 4 999 60 10000 9.8 270 09:38 11.02.2020
2793 Clouds 4 999 60 10000 9.8 270 09:20 11.02.2020
2794 Clouds 4 1001 55 10000 10.3 260 08:46 11.02.2020
2795 Clouds 3 999 64 10000 10.8 260 08:24 11.02.2020
2796 Clouds 3 999 64 10000 9.3 270 07:48 11.02.2020
2797 Clouds 3 998 64 10000 8.7 270 07:27 11.02.2020
2798 Clouds 3 998 69 10000 8.2 260 06:45 11.02.2020
2799 Rain 3 998 74 10000 9.8 240 06:23 11.02.2020
2800 Clouds 3 1000 64 10000 10.8 250 05:58 11.02.2020
2801 Clouds 3 1000 64 10000 9.8 250 05:26 11.02.2020
2802 Clouds 3 999 64 10000 8.2 250 04:52 11.02.2020
2803 Thunderstorm 3 996 76 5000 9.8 260 03:26 11.02.2020
2804 Rain 4 995 80 10000 8.2 250 02:33 11.02.2020
2805 Clouds 4 995 86 10000 9.3 270 01:39 11.02.2020
2806 Clouds 4 994 80 10000 7.7 270 00:43 11.02.2020
2807 Clouds 5 994 80 10000 7.7 270 00:22 11.02.2020
2808 Rain 5 992 80 10000 10.3 240 23:39 10.02.2020
2809 Rain 5 992 80 10000 10.3 240 23:20 10.02.2020
2810 Rain 5 994 86 10000 6.7 210 22:42 10.02.2020
2811 Rain 5 995 80 7000 8.7 220 22:21 10.02.2020
2812 Clouds 5 994 80 10000 10.3 210 21:57 10.02.2020
2813 Clouds 5 994 80 10000 10.3 210 21:57 10.02.2020
2814 Clouds 5 993 75 10000 9.3 210 21:39 10.02.2020
2815 Clouds 5 992 75 10000 11.8 220 21:39 10.02.2020
2816 Clouds 5 993 75 10000 9.3 210 21:20 10.02.2020
2817 Clouds 5 996 86 10000 8.7 210 20:54 10.02.2020
2818 Rain 5 996 75 10000 7.2 210 20:36 10.02.2020
2819 Rain 5 996 75 10000 7.2 210 20:18 10.02.2020
2820 Rain 5 997 80 10000 7.2 240 19:54 10.02.2020
2821 Clouds 5 997 79 10000 11.8 230 19:36 10.02.2020
2822 Clouds 5 997 79 10000 11.8 230 19:36 10.02.2020
2823 Clouds 5 997 79 10000 11.8 230 19:36 10.02.2020
2824 Clouds 5 997 79 10000 11.8 230 19:18 10.02.2020
2825 Clouds 5 999 79 10000 7.2 230 18:41 10.02.2020
2826 Clouds 5 999 79 10000 7.2 230 18:22 10.02.2020
2827 Clouds 5 999 79 10000 5.7 240 17:59 10.02.2020
2828 Clouds 5 999 79 10000 7.7 260 17:39 10.02.2020
2829 Clouds 5 999 63 10000 7.7 260 17:21 10.02.2020
2830 Rain 6 999 63 10000 11.3 260 16:59 10.02.2020
2831 Rain 5 999 75 10000 10.8 300 16:40 10.02.2020
2832 Rain 5 999 75 10000 10.8 300 16:20 10.02.2020
2833 Rain 6 998 56 10000 11.3 260 15:56 10.02.2020
2834 Rain 6 998 56 10000 14.4 260 15:38 10.02.2020
2835 Rain 6 998 56 10000 14.4 260 15:20 10.02.2020
2836 Rain 6 998 63 10000 13.9 260 14:56 10.02.2020
2837 Rain 6 998 70 10000 9.3 270 14:38 10.02.2020
2838 Rain 6 998 70 10000 9.3 270 14:18 10.02.2020
2839 Clouds 6 997 75 10000 10.3 260 13:43 10.02.2020
2840 Clouds 6 997 75 10000 10.3 260 13:24 10.02.2020
2841 Clouds 6 997 75 10000 12.3 260 12:56 10.02.2020
2842 Thunderstorm 6 999 80 3000 9.3 270 12:37 10.02.2020
2843 Thunderstorm 5 999 80 3000 9.3 270 12:19 10.02.2020
2844 Rain 6 999 80 6000 8.2 290 11:45 10.02.2020
2845 Rain 6 995 70 10000 10.3 280 11:20 10.02.2020
2846 Clouds 6 994 80 10000 10.3 280 10:48 10.02.2020
2847 Rain 5 993 86 8000 14.4 300 10:29 10.02.2020
2848 Rain 6 991 86 6000 13.4 250 09:48 10.02.2020
2849 Clouds 6 994 65 10000 14.4 260 09:27 10.02.2020
2850 Rain 6 991 87 4400 10.3 280 08:59 10.02.2020
2851 Rain 7 990 75 10000 10.8 260 08:38 10.02.2020
2852 Rain 7 990 75 10000 10.8 260 08:20 10.02.2020
2853 Clouds 8 989 65 10000 10.3 260 07:52 10.02.2020
2854 Clouds 8 989 70 10000 8.2 260 07:32 10.02.2020
2855 Clouds 8 989 70 10000 9.3 260 06:44 10.02.2020
2856 Clouds 8 990 70 10000 6.7 250 04:51 10.02.2020
2857 Rain 8 990 70 10000 10.3 250 03:53 10.02.2020
2858 Rain 9 991 81 8000 9.8 250 02:57 10.02.2020
2859 Rain 9 990 87 3500 12.3 250 02:36 10.02.2020
2860 Clouds 12 990 71 10000 17 200 00:56 10.02.2020
2861 Rain 11 987 71 10000 15.9 200 00:37 10.02.2020
2862 Rain 11 992 76 10000 12.9 210 23:59 09.02.2020
2863 Rain 11 989 71 10000 15.9 210 23:41 09.02.2020
2864 Rain 11 989 71 10000 15.9 210 23:23 09.02.2020
2865 Rain 11 995 81 10000 10.8 200 22:43 09.02.2020
2866 Rain 11 993 76 10000 12.3 200 22:22 09.02.2020
2867 Rain 11 995 81 10000 12.9 210 21:54 09.02.2020
2868 Rain 11 995 71 10000 11.8 210 21:36 09.02.2020
2869 Rain 11 995 71 10000 11.8 210 21:18 09.02.2020
2870 Rain 11 995 62 10000 15.4 210 20:43 09.02.2020
2871 Clouds 11 995 62 10000 17 210 20:20 09.02.2020
2872 Clouds 12 995 62 10000 13.9 210 19:54 09.02.2020
2873 Clouds 11 996 62 10000 12.9 200 19:36 09.02.2020
2874 Clouds 11 996 62 10000 12.9 200 19:18 09.02.2020
2875 Clouds 11 999 61 10000 10.8 200 18:41 09.02.2020
2876 Clouds 11 999 61 10000 10.8 200 18:23 09.02.2020
2877 Clouds 11 999 61 10000 12.9 200 17:43 09.02.2020
2878 Clouds 11 1001 61 10000 11.3 210 17:23 09.02.2020
2879 Clouds 11 1001 57 10000 12.9 200 16:57 09.02.2020
2880 Clouds 11 1002 57 10000 11.3 200 16:39 09.02.2020
2881 Clouds 11 1002 57 10000 11.3 200 16:20 09.02.2020
2882 Clouds 11 1004 61 10000 9.3 190 15:57 09.02.2020
2883 Clouds 11 1005 66 10000 10.8 190 15:39 09.02.2020
2884 Clouds 11 1005 66 10000 10.8 190 15:20 09.02.2020
2885 Clouds 10 1005 70 10000 10.3 200 14:42 09.02.2020
2886 Clouds 10 1006 66 10000 10.8 190 14:23 09.02.2020
2887 Clouds 10 1008 70 10000 8.2 190 13:55 09.02.2020
2888 Clouds 10 1008 70 10000 10.8 190 13:37 09.02.2020
2889 Clouds 10 1008 70 10000 10.8 190 13:18 09.02.2020
2890 Clouds 10 1010 70 10000 13.4 210 12:42 09.02.2020
2891 Clouds 10 1012 70 10000 10.3 210 12:20 09.02.2020
2892 Clouds 9 1011 75 10000 10.8 200 11:57 09.02.2020
2893 Clouds 9 1012 70 10000 10.3 200 11:38 09.02.2020
2894 Clouds 9 1012 70 10000 10.3 200 11:18 09.02.2020
2895 Clouds 9 1012 70 10000 10.3 200 11:18 09.02.2020
2896 Clouds 9 1012 70 10000 9.8 200 10:42 09.02.2020
2897 Clouds 9 1012 70 10000 9.8 200 10:42 09.02.2020
2898 Clouds 8 1013 75 10000 8.2 200 10:23 09.02.2020
2899 Clouds 8 1013 75 10000 8.2 200 10:23 09.02.2020
2900 Clouds 7 1013 81 10000 7.7 180 09:56 09.02.2020
2901 Clouds 7 1015 75 10000 9.8 210 09:37 09.02.2020
2902 Clouds 6 1014 80 10000 6.7 160 09:18 09.02.2020
2903 Clouds 5 1015 80 10000 6.7 160 08:39 09.02.2020
2904 Clouds 5 1015 86 10000 2.6 150 08:20 09.02.2020
2905 Clouds 5 1016 80 10000 3.6 170 07:49 09.02.2020
2906 Clouds 5 1018 75 10000 7.2 200 06:59 09.02.2020
2907 Clouds 5 1016 75 10000 6.7 180 06:36 09.02.2020
2908 Clouds 5 1016 70 10000 5.7 190 05:52 09.02.2020
2909 Clouds 5 1017 75 10000 4.1 190 05:32 09.02.2020
2910 Clouds 5 1017 75 10000 3.1 170 04:23 09.02.2020
2911 Clouds 4 1020 80 10000 0.5 120 02:49 09.02.2020
2912 Clouds 5 1018 70 10000 5.7 200 02:30 09.02.2020
2913 Clouds 5 1019 70 10000 6.7 210 01:36 09.02.2020
2914 Clouds 6 1021 75 10000 2.1 110 00:55 09.02.2020
2915 Clouds 6 1020 70 10000 5.1 230 00:29 09.02.2020
2916 Clouds 6 1021 70 10000 2.1 80 23:48 08.02.2020
2917 Clouds 6 1020 66 10000 5.1 220 23:24 08.02.2020
2918 Clouds 6 1022 75 10000 2.6 120 22:56 08.02.2020
2919 Clouds 6 1020 66 10000 5.7 200 22:38 08.02.2020
2920 Clouds 6 1020 66 10000 5.7 200 22:20 08.02.2020
2921 Clouds 6 1022 70 10000 2.1 190 21:44 08.02.2020
2922 Clouds 6 1020 66 10000 4.6 220 21:25 08.02.2020
2923 Clouds 5 1022 75 10000 2.1 90 20:59 08.02.2020
2924 Clouds 5 1021 70 10000 1 0 20:39 08.02.2020
2925 Clouds 6 1021 70 10000 1 0 20:19 08.02.2020
2926 Clouds 6 1021 75 10000 2.6 190 19:56 08.02.2020
2927 Clouds 6 1021 75 10000 2.6 190 19:38 08.02.2020
2928 Clouds 6 1021 75 10000 3.6 190 19:19 08.02.2020
2929 Clouds 6 1021 75 10000 2.6 190 18:44 08.02.2020
2930 Clouds 6 1021 75 10000 3.6 200 18:26 08.02.2020
2931 Clouds 6 1021 80 10000 1 0 17:59 08.02.2020
2932 Clouds 6 1021 80 10000 1 0 17:41 08.02.2020
2933 Clouds 7 1021 75 10000 1 0 17:19 08.02.2020
2934 Rain 7 1021 86 10000 1.5 160 16:41 08.02.2020
2935 Rain 7 1021 86 10000 1.5 160 16:22 08.02.2020
2936 Rain 7 1021 80 10000 2.6 160 15:57 08.02.2020
2937 Rain 7 1021 75 10000 4.1 210 15:39 08.02.2020
2938 Rain 7 1021 75 10000 4.1 210 15:18 08.02.2020
2939 Clouds 7 1021 75 10000 3.6 170 14:44 08.02.2020
2940 Clouds 6 1021 72 10000 4.1 130 14:20 08.02.2020
2941 Clouds 7 1021 65 10000 3.6 130 13:56 08.02.2020
2942 Clouds 6 1021 65 10000 3.6 130 13:37 08.02.2020
2943 Clouds 6 1022 65 10000 4.1 130 13:19 08.02.2020
2944 Clouds 6 1022 69 10000 4.1 150 12:39 08.02.2020
2945 Clouds 5 1022 69 10000 3.6 140 12:20 08.02.2020
2946 Clouds 5 1022 69 10000 3.1 160 11:48 08.02.2020
2947 Clouds 4 1022 69 10000 1 0 11:22 08.02.2020
2948 Clouds 3 1022 69 10000 2.1 160 10:59 08.02.2020
2949 Clouds 3 1022 74 10000 2.6 140 10:40 08.02.2020
2950 Clouds 2 1022 74 10000 2.6 140 10:20 08.02.2020
2951 Clouds 2 1022 74 10000 1.5 120 09:51 08.02.2020
2952 Clouds 1 1022 74 10000 2.6 120 09:26 08.02.2020
2953 Clouds 0 1022 74 10000 2.6 60 08:48 08.02.2020
2954 Clouds 0 1022 69 10000 1.5 30 08:29 08.02.2020
2955 Clear -1 1022 86 10000 1 0 07:54 08.02.2020
2956 Clear -2 1020 69 10000 5.7 130 07:35 08.02.2020
2957 Clouds -1 1023 86 10000 2.1 130 06:55 08.02.2020
2958 Clear -1 1020 74 10000 7.7 120 06:23 08.02.2020
2959 Clear -1 1022 82 10000 1 0 05:37 08.02.2020
2960 Clear 0 1022 84 10000 1 0 05:18 08.02.2020
2961 Clear -1 1021 69 10000 4.1 110 04:26 08.02.2020
2962 Clear 0 1021 69 10000 3.6 150 03:39 08.02.2020
2963 Clear 0 1024 92 10000 1.5 100 02:43 08.02.2020
2964 Clear 0 1022 64 10000 2.1 150 01:35 08.02.2020
2965 Clear 0 1025 92 10000 0.5 120 00:57 08.02.2020
2966 Clear 0 1022 74 10000 7.7 130 00:25 08.02.2020
2967 Clear 0 1025 100 10000 1 290 23:59 07.02.2020
2968 Clear 1 1023 74 10000 4.6 120 23:39 07.02.2020
2969 Clear 1 1023 74 10000 4.6 120 23:20 07.02.2020
2970 Clear 1 1025 92 10000 2.43 147 22:55 07.02.2020
2971 Clear 1 1023 69 10000 4.6 120 22:37 07.02.2020
2972 Clear 1 1023 69 10000 4.6 120 22:18 07.02.2020
2973 Clear 2 1026 89 10000 1 110 21:41 07.02.2020
2974 Clear 2 1025 74 10000 4.6 140 21:21 07.02.2020
2975 Clear 2 1025 74 10000 4.6 140 20:40 07.02.2020
2976 Clear 2 1025 74 10000 3.6 150 20:21 07.02.2020
2977 Clear 2 1025 80 10000 4.6 140 19:56 07.02.2020
2978 Clear 3 1025 80 10000 4.6 140 19:37 07.02.2020
2979 Clear 3 1025 80 10000 4.6 140 19:37 07.02.2020
2980 Clear 3 1025 74 10000 4.6 130 19:18 07.02.2020
2981 Clear 3 1026 74 10000 4.1 130 18:45 07.02.2020
2982 Clear 4 1026 74 10000 4.6 120 18:25 07.02.2020
2983 Clear 4 1026 69 10000 4.1 120 17:55 07.02.2020
2984 Clear 4 1026 91 10000 3.6 150 17:37 07.02.2020
2985 Clear 5 1026 73 10000 3.6 150 17:19 07.02.2020
2986 Clear 5 1026 73 10000 1.5 190 16:46 07.02.2020
2987 Clear 5 1026 60 10000 4.6 150 16:23 07.02.2020
2988 Clouds 6 1026 60 10000 4.6 150 15:55 07.02.2020
2989 Clouds 6 1026 60 10000 4.6 150 15:29 07.02.2020
2990 Clouds 6 1027 73 10000 4.6 140 14:57 07.02.2020
2991 Clouds 6 1027 73 10000 4.6 150 14:38 07.02.2020
2992 Clouds 6 1027 68 10000 4.6 150 14:19 07.02.2020
2993 Clouds 6 1027 65 10000 5.7 160 13:57 07.02.2020
2994 Clouds 6 1028 65 10000 6.2 160 13:38 07.02.2020
2995 Clouds 6 1028 65 10000 6.2 160 13:19 07.02.2020
2996 Clouds 6 1028 69 10000 4.6 150 12:42 07.02.2020
2997 Clouds 6 1028 65 10000 5.1 150 12:42 07.02.2020
2998 Clouds 5 1028 65 10000 5.1 150 12:23 07.02.2020
2999 Clouds 5 1028 65 10000 5.1 150 12:23 07.02.2020
3000 Clouds 5 1029 69 10000 5.1 160 11:45 07.02.2020
3001 Clouds 4 1029 69 10000 4.6 150 11:24 07.02.2020
3002 Clouds 4 1029 69 10000 4.1 140 10:58 07.02.2020
3003 Clouds 4 1029 81 10000 3.6 140 10:39 07.02.2020
3004 Clouds 4 1029 81 10000 3.6 140 10:20 07.02.2020
3005 Clouds 3 1029 81 10000 2.1 140 09:45 07.02.2020
3006 Clouds 3 1029 81 10000 2.1 140 09:25 07.02.2020
3007 Clouds 3 1029 81 10000 1.5 130 08:57 07.02.2020
3008 Clouds 2 1029 81 10000 2.1 120 08:36 07.02.2020
3009 Clouds 2 1029 92 10000 2.1 120 08:18 07.02.2020
3010 Clouds 2 1029 92 10000 1 110 07:40 07.02.2020
3011 Clouds 2 1029 92 10000 1.5 80 07:19 07.02.2020
3012 Clouds 2 1029 92 10000 1.5 120 06:42 07.02.2020
3013 Clouds 2 1029 92 10000 1.5 130 06:22 07.02.2020
3014 Clouds 2 1030 92 10000 0.5 0 05:43 07.02.2020
3015 Clouds 3 1030 91 10000 0.5 190 03:55 07.02.2020
3016 Clouds 3 1030 91 10000 1 0 02:24 07.02.2020
3017 Clouds 3 1030 86 10000 1 0 01:22 07.02.2020
3018 Clouds 3 1030 88 10000 0.5 0 00:37 07.02.2020
3019 Clouds 3 1030 88 10000 0.5 0 23:39 06.02.2020
3020 Clouds 3 1030 88 10000 0.5 0 23:39 06.02.2020
3021 Clouds 3 1030 88 10000 1.5 260 23:20 06.02.2020
3022 Clouds 3 1031 86 10000 1.5 100 22:57 06.02.2020
3023 Clouds 3 1030 88 10000 3.1 300 22:39 06.02.2020
3024 Clouds 3 1030 88 10000 3.1 300 22:20 06.02.2020
3025 Clouds 3 1030 88 10000 3.6 300 21:37 06.02.2020
3026 Clouds 3 1030 88 10000 3.6 300 21:19 06.02.2020
3027 Clouds 3 1030 88 10000 3.1 300 20:56 06.02.2020
3028 Clouds 4 1030 88 10000 2.6 310 20:37 06.02.2020
3029 Clouds 4 1030 87 10000 2.6 310 20:18 06.02.2020
3030 Clouds 3 1030 86 10000 2.6 300 19:57 06.02.2020
3031 Clouds 3 1030 86 10000 3.6 320 19:37 06.02.2020
3032 Clouds 3 1030 86 10000 3.6 320 19:19 06.02.2020
3033 Clouds 3 1030 86 10000 3.1 320 18:44 06.02.2020
3034 Clouds 4 1030 80 10000 2.6 320 18:26 06.02.2020
3035 Clouds 4 1030 87 10000 3.6 300 17:59 06.02.2020
3036 Clouds 4 1030 87 10000 3.6 300 17:59 06.02.2020
3037 Clouds 4 1030 87 10000 3.6 300 17:41 06.02.2020
3038 Clouds 4 1030 89 10000 4.1 290 17:20 06.02.2020
3039 Clouds 4 1030 89 10000 4.1 290 17:20 06.02.2020
3040 Clouds 4 1029 89 10000 4.6 290 16:43 06.02.2020
3041 Clouds 5 1030 89 10000 3.1 270 16:25 06.02.2020
3042 Clouds 5 1030 80 10000 2.6 280 15:58 06.02.2020
3043 Clouds 5 1030 80 10000 3.1 280 15:40 06.02.2020
3044 Clouds 5 1030 80 10000 3.1 280 15:20 06.02.2020
3045 Clouds 4 1030 80 10000 2.1 280 14:46 06.02.2020
3046 Clouds 4 1030 86 10000 1 0 14:25 06.02.2020
3047 Clouds 4 1031 80 10000 1 0 13:46 06.02.2020
3048 Clouds 4 1031 80 10000 1.5 320 13:27 06.02.2020
3049 Clouds 4 1031 80 10000 2.1 290 12:46 06.02.2020
3050 Clouds 4 1031 80 10000 2.1 310 12:20 06.02.2020
3051 Clouds 4 1031 80 10000 2.6 310 11:59 06.02.2020
3052 Clouds 4 1031 80 10000 2.6 310 11:41 06.02.2020
3053 Clouds 3 1031 86 10000 2.6 310 11:22 06.02.2020
3054 Clouds 3 1031 86 10000 3.1 290 10:59 06.02.2020
3055 Clouds 3 1030 88 10000 2.6 280 10:41 06.02.2020
3056 Clouds 3 1030 88 10000 2.6 280 10:21 06.02.2020
3057 Clouds 3 1031 88 10000 2.6 300 09:59 06.02.2020
3058 Clouds 2 1031 88 10000 2.6 300 09:40 06.02.2020
3059 Clouds 2 1031 88 10000 2.1 280 09:20 06.02.2020
3060 Clouds 2 1030 88 10000 2.1 250 08:43 06.02.2020
3061 Clouds 2 1030 87 10000 1.5 240 08:23 06.02.2020
3062 Clouds 2 1030 96 10000 2.6 260 07:55 06.02.2020
3063 Clouds 1 1031 80 10000 2.6 260 07:29 06.02.2020
3064 Clouds 1 1030 96 10000 2.1 260 06:47 06.02.2020
3065 Clouds 1 1031 96 10000 3.1 250 06:19 06.02.2020
3066 Clouds 1 1032 96 10000 3.1 240 05:32 06.02.2020
3067 Clouds 1 1033 93 10000 1 350 03:47 06.02.2020
3068 Clouds 1 1033 93 10000 2.1 220 02:58 06.02.2020
3069 Clouds 1 1033 92 10000 2.23 249 01:55 06.02.2020
3070 Clouds 1 1033 89 10000 3.6 240 01:24 06.02.2020
3071 Clouds 1 1034 89 10000 3.6 230 00:29 06.02.2020
3072 Clouds 1 1034 92 10000 1 270 23:56 05.02.2020
3073 Clouds 0 1034 89 10000 5.1 220 23:38 05.02.2020
3074 Clouds 1 1034 76 10000 5.1 220 23:19 05.02.2020
3075 Clouds 1 1035 76 10000 2.1 300 22:41 05.02.2020
3076 Clouds 1 1034 76 10000 3.6 230 22:41 05.02.2020
3077 Clouds 1 1035 76 10000 2.1 300 22:23 05.02.2020
3078 Clouds 0 1035 76 10000 2.1 300 21:57 05.02.2020
3079 Clouds 0 1034 76 10000 3.6 220 21:39 05.02.2020
3080 Clouds 0 1034 76 10000 3.6 220 21:20 05.02.2020
3081 Clouds 0 1034 86 10000 1 0 20:39 05.02.2020
3082 Clouds 0 1034 86 10000 1 0 20:20 05.02.2020
3083 Clouds 0 1034 85 10000 1.5 220 19:59 05.02.2020
3084 Clouds 0 1034 85 10000 1.5 200 19:40 05.02.2020
3085 Clouds 0 1034 85 10000 1.5 200 19:19 05.02.2020
3086 Clouds 0 1034 80 10000 1.5 200 18:56 05.02.2020
3087 Clouds 1 1034 74 10000 1 0 18:38 05.02.2020
3088 Clouds 1 1034 74 10000 1 0 18:19 05.02.2020
3089 Clouds 2 1034 74 10000 2.6 330 17:38 05.02.2020
3090 Clear 3 1034 74 10000 2.6 330 17:20 05.02.2020
3091 Clear 4 1034 69 10000 3.6 320 16:57 05.02.2020
3092 Clear 5 1034 64 10000 3.6 320 16:39 05.02.2020
3093 Clear 5 1034 64 10000 3.6 320 16:20 05.02.2020
3094 Clear 5 1034 69 10000 4.1 320 15:46 05.02.2020
3095 Clouds 5 1034 69 10000 4.1 310 15:20 05.02.2020
3096 Clouds 5 1034 64 10000 5.7 310 14:59 05.02.2020
3097 Clouds 5 1034 64 10000 5.7 310 14:59 05.02.2020
3098 Clear 5 1034 69 10000 5.1 320 14:40 05.02.2020
3099 Clear 4 1034 69 10000 5.1 320 14:21 05.02.2020
3100 Clear 4 1034 69 10000 3.1 330 13:43 05.02.2020
3101 Clouds 4 1034 74 10000 4.6 330 13:23 05.02.2020
3102 Clouds 4 1034 74 10000 4.1 330 12:58 05.02.2020
3103 Clouds 4 1034 80 10000 4.6 340 12:36 05.02.2020
3104 Clouds 3 1034 80 10000 4.6 340 12:18 05.02.2020
3105 Clouds 3 1033 80 10000 4.6 340 11:41 05.02.2020
3106 Clouds 2 1033 80 10000 4.6 340 11:23 05.02.2020
3107 Clouds 2 1033 80 10000 4.6 320 10:57 05.02.2020
3108 Clouds 2 1033 80 10000 3.1 340 10:39 05.02.2020
3109 Clouds 2 1033 80 10000 3.1 340 10:18 05.02.2020
3110 Clouds 1 1032 82 10000 3.1 340 09:40 05.02.2020
3111 Clouds 1 1032 82 10000 2.1 320 09:21 05.02.2020
3112 Clouds 0 1031 86 10000 3.1 350 08:55 05.02.2020
3113 Clouds 0 1031 82 10000 5.7 350 08:37 05.02.2020
3114 Clouds 1 1031 92 10000 5.7 350 08:18 05.02.2020
3115 Clouds 1 1030 92 10000 4.1 350 07:42 05.02.2020
3116 Clouds 1 1031 92 10000 1.5 290 07:18 05.02.2020
3117 Clouds 1 1030 93 10000 3.1 290 06:39 05.02.2020
3118 Clouds 1 1030 93 10000 3.1 290 06:20 05.02.2020
3119 Clouds 2 1029 93 10000 3.1 280 05:20 05.02.2020
3120 Clouds 3 1026 69 10000 6.7 320 04:58 05.02.2020
3121 Clouds 3 1027 93 10000 4.1 280 04:22 05.02.2020
3122 Clouds 3 1026 93 10000 4.1 280 02:42 05.02.2020
3123 Clouds 4 1025 93 10000 4.1 280 02:20 05.02.2020
3124 Clouds 4 1023 80 10000 4.6 320 01:28 05.02.2020
3125 Clouds 4 1022 80 10000 2.6 320 00:22 05.02.2020
3126 Clouds 4 1023 93 10000 4.1 270 23:40 04.02.2020
3127 Clouds 4 1021 80 10000 3.6 310 23:20 04.02.2020
3128 Clouds 4 1021 80 10000 3.6 310 22:57 04.02.2020
3129 Clouds 4 1021 93 10000 3.6 280 22:39 04.02.2020
3130 Clouds 4 1021 93 10000 3.6 280 22:20 04.02.2020
3131 Clouds 4 1020 80 10000 3.6 310 21:55 04.02.2020
3132 Clouds 4 1020 80 10000 3.6 310 21:55 04.02.2020
3133 Clouds 3 1018 93 10000 6.7 300 21:37 04.02.2020
3134 Clouds 3 1018 93 10000 6.7 300 21:18 04.02.2020
3135 Clouds 3 1018 93 10000 6.7 300 20:44 04.02.2020
3136 Clouds 3 1018 93 10000 6.7 300 20:44 04.02.2020
3137 Clouds 3 1017 93 10000 6.2 300 20:22 04.02.2020
3138 Clouds 3 1017 93 10000 4.6 290 19:59 04.02.2020
3139 Clouds 3 1017 93 10000 4.6 290 19:41 04.02.2020
3140 Clouds 3 1017 86 10000 1.5 310 19:22 04.02.2020
3141 Clouds 3 1015 93 10000 7.2 300 18:59 04.02.2020
3142 Clouds 3 1015 93 10000 7.2 300 18:38 04.02.2020
3143 Rain 3 1015 93 10000 8.7 300 18:19 04.02.2020
3144 Clouds 3 1014 86 10000 6.2 290 17:54 04.02.2020
3145 Clouds 3 1013 86 10000 3.6 280 17:36 04.02.2020
3146 Clouds 3 1013 86 10000 3.6 280 17:18 04.02.2020
3147 Clouds 4 1012 75 10000 6.2 300 16:38 04.02.2020
3148 Clouds 4 1012 75 10000 6.2 300 16:38 04.02.2020
3149 Clouds 4 1012 75 10000 6.2 300 16:20 04.02.2020
3150 Clouds 4 1012 86 10000 7.2 300 15:56 04.02.2020
3151 Clouds 4 1012 86 10000 7.7 310 15:38 04.02.2020
3152 Clouds 4 1012 86 10000 7.7 310 15:19 04.02.2020
3153 Clouds 4 1011 86 10000 7.2 300 14:45 04.02.2020
3154 Rain 4 1011 86 10000 7.2 290 14:23 04.02.2020
3155 Rain 4 1012 86 6000 5.1 320 13:59 04.02.2020
3156 Clouds 4 1011 86 9000 6.7 300 13:40 04.02.2020
3157 Rain 4 1011 86 8000 6.2 300 13:21 04.02.2020
3158 Rain 4 1010 86 8000 7.7 300 12:45 04.02.2020
3159 Clouds 4 1010 78 10000 6.2 280 12:26 04.02.2020
3160 Rain 4 1011 86 10000 1.5 0 11:59 04.02.2020
3161 Clouds 4 1010 80 10000 6.2 280 11:39 04.02.2020
3162 Clouds 4 1010 80 10000 6.2 280 11:21 04.02.2020
3163 Clouds 4 1009 83 10000 6.2 280 10:59 04.02.2020
3164 Clouds 4 1011 80 10000 1 290 10:40 04.02.2020
3165 Clouds 3 1011 80 10000 1 290 10:22 04.02.2020
3166 Clouds 3 1009 86 10000 7.2 290 09:41 04.02.2020
3167 Clouds 3 1008 86 10000 6.2 290 09:23 04.02.2020
3168 Clouds 3 1010 86 3000 3.1 270 08:56 04.02.2020
3169 Clouds 3 1008 86 10000 6.2 290 08:38 04.02.2020
3170 Clouds 3 1008 86 10000 6.2 290 08:38 04.02.2020
3171 Rain 3 1009 86 10000 2.1 260 08:20 04.02.2020
3172 Clouds 3 1007 86 10000 6.7 290 07:43 04.02.2020
3173 Clouds 3 1007 86 10000 4.6 270 07:22 04.02.2020
3174 Rain 3 1007 86 10000 6.2 280 06:43 04.02.2020
3175 Clouds 3 1005 86 10000 1.5 0 05:58 04.02.2020
3176 Clouds 4 1005 93 10000 5.1 270 05:28 04.02.2020
3177 Rain 4 1003 86 10000 4.1 310 03:51 04.02.2020
3178 Rain 4 1002 86 8000 3.6 300 03:31 04.02.2020
3179 Rain 4 1002 86 8000 3.6 300 02:53 04.02.2020
3180 Rain 4 1002 86 5000 3.6 320 02:31 04.02.2020
3181 Rain 5 1002 93 4000 1 340 01:52 04.02.2020
3182 Rain 5 1004 93 10000 2.6 260 01:33 04.02.2020
3183 Rain 6 1004 93 8000 1.5 190 00:41 04.02.2020
3184 Rain 6 1004 93 8000 1.5 190 00:20 04.02.2020
3185 Rain 6 1005 87 10000 4.1 240 23:39 03.02.2020
3186 Rain 6 1005 93 7000 2.6 250 23:19 03.02.2020
3187 Rain 7 1006 93 7000 3.1 240 22:39 03.02.2020
3188 Rain 7 1006 93 10000 4.1 240 22:20 03.02.2020
3189 Rain 7 1008 87 10000 4.6 220 21:54 03.02.2020
3190 Rain 7 1008 87 10000 5.1 240 21:36 03.02.2020
3191 Rain 8 1008 87 10000 5.1 240 21:18 03.02.2020
3192 Clouds 8 1010 75 10000 3.6 270 20:41 03.02.2020
3193 Clouds 8 1010 75 10000 3.6 270 20:19 03.02.2020
3194 Clouds 8 1010 75 10000 4.1 250 19:56 03.02.2020
3195 Clouds 8 1010 75 10000 4.6 250 19:38 03.02.2020
3196 Clouds 8 1010 75 10000 4.6 250 19:19 03.02.2020
3197 Clouds 8 1010 75 10000 4.6 250 19:19 03.02.2020
3198 Clouds 8 1010 75 10000 4.6 250 19:19 03.02.2020
3199 Clouds 8 1010 75 10000 5.7 260 18:43 03.02.2020
3200 Clouds 8 1010 70 10000 5.7 270 18:24 03.02.2020
3201 Clouds 8 1010 70 10000 6.2 270 17:59 03.02.2020
3202 Clouds 8 1011 70 10000 6.2 270 17:39 03.02.2020
3203 Clouds 9 1011 70 10000 6.2 270 17:20 03.02.2020
3204 Clouds 9 1011 70 10000 7.2 270 16:54 03.02.2020
3205 Clouds 9 1011 76 10000 7.7 270 16:36 03.02.2020
3206 Clouds 9 1011 76 10000 7.7 270 16:18 03.02.2020
3207 Clouds 9 1011 70 10000 9.8 270 15:54 03.02.2020
3208 Clouds 9 1011 66 10000 9.8 280 15:36 03.02.2020
3209 Clouds 10 1011 71 10000 8.7 280 15:18 03.02.2020
3210 Clouds 10 1011 71 10000 8.7 280 14:39 03.02.2020
3211 Clouds 10 1011 71 10000 9.3 280 14:21 03.02.2020
3212 Clouds 10 1011 76 10000 8.7 280 13:54 03.02.2020
3213 Clouds 10 1011 76 10000 8.7 280 13:54 03.02.2020
3214 Clouds 10 1011 87 10000 7.2 280 13:36 03.02.2020
3215 Clouds 9 1011 87 10000 7.2 280 13:18 03.02.2020
3216 Rain 9 1011 81 8000 9.3 290 12:40 03.02.2020
3217 Rain 9 1011 81 8000 8.2 300 12:21 03.02.2020
3218 Rain 10 1011 71 10000 8.2 270 11:57 03.02.2020
3219 Clouds 10 1010 76 10000 5.7 270 11:37 03.02.2020
3220 Clouds 10 1010 76 10000 5.7 270 11:18 03.02.2020
3221 Clouds 9 1010 75 10000 8.7 290 10:41 03.02.2020
3222 Clouds 9 1010 75 10000 8.7 290 10:23 03.02.2020
3223 Clouds 9 1010 75 10000 8.7 290 10:23 03.02.2020
3224 Rain 9 1010 70 10000 8.7 280 09:48 03.02.2020
3225 Clouds 9 1009 70 10000 5.1 270 09:25 03.02.2020
3226 Clouds 9 1009 70 10000 4.6 270 08:57 03.02.2020
3227 Clouds 8 1009 70 10000 4.6 270 08:39 03.02.2020
3228 Clouds 8 1009 70 10000 4.6 270 08:39 03.02.2020
3229 Clouds 9 1009 70 10000 4.6 270 08:21 03.02.2020
3230 Clouds 9 1009 70 10000 6.2 270 07:41 03.02.2020
3231 Rain 9 1009 70 10000 5.7 280 07:21 03.02.2020
3232 Rain 9 1009 70 10000 5.7 280 07:21 03.02.2020
3233 Clouds 9 1010 70 10000 6.2 240 06:51 03.02.2020
3234 Clouds 9 1009 81 10000 8.2 250 06:30 03.02.2020
3235 Clouds 9 1008 76 10000 7.7 250 05:37 03.02.2020
3236 Clouds 9 1008 76 10000 7.7 250 05:18 03.02.2020
3237 Rain 9 1008 76 10000 7.7 250 04:30 03.02.2020
3238 Clouds 9 1008 76 10000 7.2 250 02:37 03.02.2020
3239 Clouds 9 1008 76 10000 7.2 250 02:18 03.02.2020
3240 Clouds 9 1008 76 10000 7.2 250 00:48 03.02.2020
3241 Clouds 10 1008 76 10000 6.7 250 00:25 03.02.2020
3242 Clouds 9 1008 76 10000 6.7 250 23:39 02.02.2020
3243 Clouds 9 1008 76 10000 6.7 250 23:21 02.02.2020
3244 Clouds 10 1009 66 10000 4.1 270 22:58 02.02.2020
3245 Clouds 10 1008 76 10000 6.7 260 22:39 02.02.2020
3246 Clouds 10 1008 76 10000 6.7 260 22:39 02.02.2020
3247 Clouds 10 1007 71 10000 9.8 290 22:21 02.02.2020
3248 Clouds 10 1007 71 10000 9.8 290 21:56 02.02.2020
3249 Clouds 10 1007 71 10000 9.8 290 21:38 02.02.2020
3250 Clouds 10 1007 66 10000 10.3 280 21:20 02.02.2020
3251 Clouds 10 1007 81 10000 8.2 300 20:56 02.02.2020
3252 Clouds 10 1006 81 10000 6.7 300 20:37 02.02.2020
3253 Clouds 10 1006 81 10000 6.7 300 20:19 02.02.2020
3254 Clouds 10 1006 81 10000 6.7 300 20:19 02.02.2020
3255 Clouds 10 1005 76 10000 7.7 290 19:55 02.02.2020
3256 Clouds 10 1005 76 10000 5.7 280 19:37 02.02.2020
3257 Clouds 10 1005 76 10000 5.7 280 19:18 02.02.2020
3258 Clouds 9 1005 87 10000 4.1 300 18:39 02.02.2020
3259 Clouds 9 1005 87 10000 4.1 300 18:21 02.02.2020
3260 Clouds 9 1005 87 10000 4.1 300 18:21 02.02.2020
3261 Clouds 9 1004 93 10000 3.6 300 17:58 02.02.2020
3262 Clouds 9 1004 93 10000 3.6 300 17:38 02.02.2020
3263 Clouds 8 1004 93 10000 3.6 270 17:19 02.02.2020
3264 Drizzle 8 1003 93 8000 1 0 16:58 02.02.2020
3265 Clouds 7 1003 100 9000 2.6 240 16:39 02.02.2020
3266 Clouds 7 1003 100 9000 2.6 240 16:19 02.02.2020
3267 Drizzle 7 1003 100 6000 2.1 170 15:59 02.02.2020
3268 Drizzle 7 1004 93 5000 2.1 200 15:39 02.02.2020
3269 Drizzle 7 1004 93 5000 2.1 200 15:20 02.02.2020
3270 Rain 6 1004 100 2900 3.6 160 14:57 02.02.2020
3271 Rain 6 1004 100 3200 3.1 150 14:39 02.02.2020
3272 Rain 6 1004 100 3200 3.1 150 14:18 02.02.2020
3273 Rain 6 1005 93 3500 4.1 170 13:55 02.02.2020
3274 Rain 6 1006 93 4200 3.1 160 13:36 02.02.2020
3275 Rain 6 1006 93 4200 3.1 160 13:18 02.02.2020
3276 Rain 6 1006 93 7000 4.1 160 12:42 02.02.2020
3277 Rain 6 1007 93 7000 4.1 170 12:22 02.02.2020
3278 Rain 6 1008 87 9000 2.6 180 11:56 02.02.2020
3279 Rain 6 1008 87 9000 3.6 200 11:38 02.02.2020
3280 Rain 6 1008 87 9000 3.6 200 11:18 02.02.2020
3281 Drizzle 7 1008 75 10000 3.6 200 10:55 02.02.2020
3282 Clouds 7 1009 75 10000 4.1 220 10:36 02.02.2020
3283 Clouds 7 1009 75 10000 4.1 220 10:18 02.02.2020
3284 Clouds 7 1009 75 10000 5.1 220 09:41 02.02.2020
3285 Clouds 7 1009 75 10000 5.7 230 09:21 02.02.2020
3286 Clouds 7 1009 75 10000 5.1 220 08:57 02.02.2020
3287 Clouds 7 1009 75 10000 5.1 220 08:39 02.02.2020
3288 Clouds 7 1009 75 10000 4.6 240 08:20 02.02.2020
3289 Clouds 7 1009 75 10000 4.6 240 07:44 02.02.2020
3290 Clouds 7 1009 75 10000 5.7 240 07:26 02.02.2020
3291 Clouds 7 1009 70 10000 6.7 240 06:39 02.02.2020
3292 Clouds 7 1009 70 10000 7.7 240 06:21 02.02.2020
3293 Clouds 8 1009 70 10000 6.7 250 05:36 02.02.2020
3294 Clouds 8 1009 75 10000 8.2 250 04:34 02.02.2020
3295 Rain 7 1009 75 10000 6.7 250 03:24 02.02.2020
3296 Clouds 8 1008 70 10000 8.2 250 02:24 02.02.2020
3297 Clouds 8 1009 65 10000 5.1 250 01:52 02.02.2020
3298 Rain 8 1008 75 10000 8.2 250 01:19 02.02.2020
3299 Rain 8 1007 70 10000 7.7 250 00:41 02.02.2020
3300 Clouds 8 1007 75 10000 7.7 250 00:19 02.02.2020
3301 Clouds 8 1008 75 10000 5.1 240 23:45 01.02.2020
3302 Clouds 8 1007 81 10000 5.1 260 23:21 01.02.2020
3303 Clouds 8 1007 70 10000 5.1 250 22:45 01.02.2020
3304 Rain 8 1006 87 10000 5.7 260 22:19 01.02.2020
3305 Clouds 8 1006 76 10000 5.7 240 21:44 01.02.2020
3306 Clouds 8 1005 93 10000 4.6 250 21:20 01.02.2020
3307 Clouds 8 1005 93 10000 4.6 250 21:20 01.02.2020
3308 Clouds 8 1006 76 10000 4.1 250 20:57 01.02.2020
3309 Clouds 8 1004 87 10000 3.1 270 20:39 01.02.2020
3310 Clouds 9 1004 87 10000 3.1 270 20:20 01.02.2020
3311 Rain 9 1004 81 10000 6.2 270 19:56 01.02.2020
3312 Rain 9 1004 81 10000 6.2 270 19:37 01.02.2020
3313 Rain 9 1004 76 10000 5.7 250 19:19 01.02.2020
3314 Clouds 10 1003 76 10000 4.6 260 18:56 01.02.2020
3315 Clouds 10 1003 71 10000 6.2 270 18:37 01.02.2020
3316 Clouds 10 1003 71 10000 6.2 270 18:19 01.02.2020
3317 Clouds 10 1003 76 10000 7.2 270 17:55 01.02.2020
3318 Clouds 10 1002 81 10000 5.7 260 17:37 01.02.2020
3319 Clouds 10 1002 81 10000 5.7 260 17:18 01.02.2020
3320 Clouds 10 1002 81 10000 5.1 270 16:41 01.02.2020
3321 Clouds 11 1002 81 10000 4.1 270 16:22 01.02.2020
3322 Clouds 11 1002 87 10000 4.1 280 15:55 01.02.2020
3323 Clouds 11 1002 87 10000 5.1 280 15:37 01.02.2020
3324 Clouds 11 1002 87 10000 5.1 280 15:18 01.02.2020
3325 Rain 11 1001 87 8000 8.2 240 14:40 01.02.2020
3326 Rain 11 1001 93 8000 4.1 220 14:20 01.02.2020
3327 Rain 11 1001 87 8000 4.6 210 13:45 01.02.2020
3328 Rain 11 1002 93 8000 4.6 220 13:24 01.02.2020
3329 Rain 11 1002 93 10000 5.1 210 12:56 01.02.2020
3330 Rain 11 1002 93 9000 5.7 200 12:38 01.02.2020
3331 Rain 11 1002 93 9000 5.7 200 12:20 01.02.2020
3332 Rain 11 1002 93 9000 5.7 200 12:20 01.02.2020
3333 Rain 10 1002 93 10000 5.7 190 11:39 01.02.2020
3334 Rain 10 1002 93 10000 5.7 190 11:21 01.02.2020
3335 Rain 10 1003 87 10000 4.6 200 10:58 01.02.2020
3336 Rain 10 1003 87 10000 5.7 190 10:39 01.02.2020
3337 Rain 10 1003 87 10000 5.7 190 10:21 01.02.2020
3338 Rain 10 1004 93 4000 7.2 200 09:58 01.02.2020
3339 Rain 10 1004 87 10000 6.2 190 09:39 01.02.2020
3340 Rain 10 1004 87 10000 5.7 200 09:20 01.02.2020
3341 Rain 10 1004 87 10000 6.2 200 08:46 01.02.2020
3342 Clouds 11 1004 76 10000 7.2 200 07:50 01.02.2020
3343 Clouds 11 1004 76 10000 7.2 210 07:27 01.02.2020
3344 Clouds 11 1006 81 10000 5.7 220 06:58 01.02.2020
3345 Clouds 11 1005 76 10000 6.2 220 06:38 01.02.2020
3346 Clouds 11 1005 76 10000 6.2 220 05:52 01.02.2020
3347 Clouds 11 1005 76 10000 6.2 220 05:52 01.02.2020
3348 Clouds 11 1005 76 10000 5.1 230 04:20 01.02.2020
3349 Clouds 11 1006 81 10000 4.6 230 03:22 01.02.2020
3350 Clouds 11 1008 81 10000 6.2 230 02:46 01.02.2020
3351 Clouds 11 1008 81 10000 3.1 230 02:28 01.02.2020
3352 Clouds 11 1008 81 10000 3.1 230 01:55 01.02.2020
3353 Clouds 11 1009 76 10000 1.5 0 01:33 01.02.2020
3354 Clouds 11 1007 81 10000 6.2 220 00:30 01.02.2020
3355 Clouds 11 1009 76 10000 3.1 230 23:59 31.01.2020
3356 Clouds 11 1007 76 10000 6.7 210 23:37 31.01.2020
3357 Clouds 11 1007 76 10000 6.7 210 23:18 31.01.2020
3358 Clouds 11 1008 76 10000 5.7 220 22:41 31.01.2020
3359 Clouds 11 1008 76 10000 5.7 220 22:41 31.01.2020
3360 Clouds 11 1008 76 10000 6.2 220 22:22 31.01.2020
3361 Clouds 11 1010 76 10000 2.6 230 21:59 31.01.2020
3362 Clouds 11 1009 71 10000 4.1 210 21:39 31.01.2020
3363 Clouds 11 1009 71 10000 4.1 210 21:20 31.01.2020
3364 Clouds 11 1009 71 10000 4.1 210 20:56 31.01.2020
3365 Clouds 11 1009 71 10000 4.1 210 20:56 31.01.2020
3366 Clouds 12 1010 71 10000 5.7 240 20:38 31.01.2020
3367 Clouds 12 1009 71 10000 4.1 210 20:38 31.01.2020
3368 Clouds 12 1010 71 10000 5.7 240 20:20 31.01.2020
3369 Clouds 12 1009 71 10000 4.1 230 19:56 31.01.2020
3370 Clouds 12 1009 71 10000 4.6 230 19:37 31.01.2020
3371 Clouds 12 1009 71 10000 4.6 230 19:19 31.01.2020
3372 Clouds 12 1009 76 10000 5.1 230 18:42 31.01.2020
3373 Clouds 12 1009 71 10000 6.2 240 18:23 31.01.2020
3374 Clouds 12 1009 71 10000 6.2 240 17:55 31.01.2020
3375 Clouds 12 1009 71 10000 4.6 230 17:36 31.01.2020
3376 Clouds 12 1009 71 10000 4.6 230 17:18 31.01.2020
3377 Clouds 12 1009 71 10000 4.1 230 16:55 31.01.2020
3378 Clouds 12 1009 66 10000 5.1 220 16:37 31.01.2020
3379 Clouds 12 1009 66 10000 5.1 220 16:18 31.01.2020
3380 Clouds 12 1009 66 10000 5.1 220 16:18 31.01.2020
3381 Clouds 12 1008 66 10000 5.7 230 15:41 31.01.2020
3382 Clouds 12 1008 66 10000 5.7 230 15:21 31.01.2020
3383 Clouds 12 1009 66 10000 4.1 230 14:58 31.01.2020
3384 Clouds 12 1009 66 10000 4.1 230 14:39 31.01.2020
3385 Clouds 12 1009 71 10000 4.1 240 14:20 31.01.2020
3386 -273 0 0 0 0 0 13:43 31.01.2020
3387 Clouds 12 1009 66 10000 5.1 270 13:25 31.01.2020
3388 Clouds 12 1009 66 10000 5.1 260 12:45 31.01.2020
3389 Clouds 11 1009 66 10000 5.1 260 12:26 31.01.2020
3390 Clouds 11 1009 71 10000 5.1 270 11:56 31.01.2020
3391 Clouds 11 1009 71 10000 6.2 270 11:38 31.01.2020
3392 Clouds 11 1009 71 10000 6.2 270 11:20 31.01.2020
3393 Clouds 11 1008 71 10000 6.2 270 10:55 31.01.2020
3394 Clouds 11 1008 71 10000 7.7 270 10:37 31.01.2020
3395 Clouds 11 1008 71 10000 7.7 270 10:18 31.01.2020
3396 Clouds 11 1007 71 10000 6.7 270 09:42 31.01.2020
3397 Clouds 10 1008 76 10000 6.2 270 09:42 31.01.2020
3398 Clouds 10 1007 71 10000 6.7 270 09:22 31.01.2020
3399 Clouds 10 1007 76 10000 6.7 280 08:56 31.01.2020
3400 Clouds 10 1006 76 10000 7.7 280 08:38 31.01.2020
3401 Clouds 10 1006 76 10000 7.7 280 08:20 31.01.2020
3402 Clouds 10 1006 76 10000 7.7 280 07:47 31.01.2020
3403 Clouds 10 1005 76 10000 8.2 290 07:19 31.01.2020
3404 Clouds 10 1005 76 10000 8.2 290 07:19 31.01.2020
3405 Clouds 11 1004 81 10000 6.2 260 06:34 31.01.2020
3406 Clouds 11 1005 81 8000 6.2 250 05:55 31.01.2020
3407 Drizzle 11 1003 87 8000 6.2 220 05:20 31.01.2020
3408 Rain 10 1003 93 10000 6.7 270 04:20 31.01.2020
3409 Clouds 10 1003 87 10000 4.6 210 02:49 31.01.2020
3410 Clouds 9 1000 87 10000 9.8 240 01:30 31.01.2020
3411 Rain 8 1000 87 10000 10.3 230 00:39 31.01.2020
3412 Rain 8 1000 87 10000 10.3 230 00:20 31.01.2020
3413 Rain 7 1001 87 10000 8.2 220 23:40 30.01.2020
3414 Drizzle 7 1003 93 10000 6.2 220 23:40 30.01.2020
3415 Rain 7 1001 87 10000 8.2 220 23:40 30.01.2020
3416 Clouds 7 1003 87 10000 6.2 220 23:21 30.01.2020
3417 Rain 7 1003 81 10000 5.1 200 22:38 30.01.2020
3418 Rain 7 1003 81 10000 5.1 200 22:20 30.01.2020
3419 Rain 7 1003 81 10000 5.1 200 21:58 30.01.2020
3420 Rain 7 1003 81 10000 5.1 200 21:40 30.01.2020
3421 Drizzle 7 1003 81 10000 4.6 200 21:18 30.01.2020
3422 Rain 7 1003 81 10000 5.7 200 20:56 30.01.2020
3423 Rain 7 1003 87 10000 7.7 190 20:37 30.01.2020
3424 Rain 6 1003 87 10000 7.7 190 20:19 30.01.2020
3425 Clouds 6 1004 86 10000 5.1 160 19:42 30.01.2020
3426 Clouds 6 1004 86 10000 5.1 160 19:19 30.01.2020
3427 Clouds 6 1005 86 10000 4.6 160 18:43 30.01.2020
3428 Clouds 6 1005 86 10000 4.6 160 18:24 30.01.2020
3429 Clouds 6 1006 81 10000 5.1 160 17:59 30.01.2020
3430 Clouds 7 1006 81 10000 3.6 180 17:40 30.01.2020
3431 Clouds 7 1006 81 10000 3.6 180 17:19 30.01.2020
3432 Clouds 7 1007 75 10000 5.7 190 16:58 30.01.2020
3433 Clouds 7 1007 75 10000 5.7 190 16:39 30.01.2020
3434 Clouds 7 1007 70 10000 5.7 190 16:21 30.01.2020
3435 Clouds 8 1008 70 10000 5.1 220 15:44 30.01.2020
3436 Clouds 8 1008 70 10000 6.7 230 15:21 30.01.2020
3437 Clouds 8 1008 70 10000 6.7 230 15:21 30.01.2020
3438 Clouds 8 1008 70 10000 6.7 220 14:57 30.01.2020
3439 Clouds 8 1008 70 10000 6.7 220 14:37 30.01.2020
3440 Clouds 8 1008 70 10000 6.7 220 14:19 30.01.2020
3441 Clouds 8 1009 70 10000 6.7 220 13:41 30.01.2020
3442 Clouds 8 1009 70 10000 6.7 220 13:22 30.01.2020
3443 Clouds 7 1010 75 10000 6.7 220 12:55 30.01.2020
3444 Clouds 7 1010 75 10000 5.7 220 12:36 30.01.2020
3445 Clouds 7 1010 75 10000 5.7 220 12:18 30.01.2020
3446 Clouds 7 1010 75 10000 6.7 220 11:40 30.01.2020
3447 -273 0 0 0 0 0 11:22 30.01.2020
3448 Clouds 6 1010 80 10000 6.7 220 10:58 30.01.2020
3449 Clouds 6 1010 80 10000 6.2 230 10:38 30.01.2020
3450 Clouds 6 1010 80 10000 6.2 230 10:19 30.01.2020
3451 Clouds 6 1010 80 10000 6.2 230 09:44 30.01.2020
3452 Rain 5 1010 80 10000 6.7 220 09:24 30.01.2020
3453 Rain 5 1010 86 10000 7.2 220 08:42 30.01.2020
3454 Rain 5 1010 86 10000 6.7 220 08:22 30.01.2020
3455 Rain 5 1010 80 10000 7.2 220 07:57 30.01.2020
3456 Clouds 5 1010 81 10000 7.7 240 07:39 30.01.2020
3457 Clouds 5 1012 80 10000 6.7 210 06:57 30.01.2020
3458 Clouds 5 1010 80 10000 7.2 240 06:36 30.01.2020
3459 Clouds 5 1012 80 10000 6.2 220 05:59 30.01.2020
3460 Clouds 4 1010 80 10000 7.2 240 05:28 30.01.2020
3461 Clouds 4 1012 80 10000 6.2 220 04:49 30.01.2020
3462 Clouds 4 1012 80 10000 6.7 220 03:47 30.01.2020
3463 Clouds 4 1013 80 10000 4.1 230 02:56 30.01.2020
3464 Clouds 3 1011 80 10000 6.7 230 01:23 30.01.2020
3465 Clouds 3 1011 86 10000 5.7 230 00:30 30.01.2020
3466 Clouds 3 1013 86 10000 4.1 240 23:56 29.01.2020
3467 Clouds 3 1011 86 10000 6.2 230 23:38 29.01.2020
3468 Clouds 3 1011 87 10000 5.7 230 23:20 29.01.2020
3469 Clouds 3 1012 87 10000 3.6 220 22:55 29.01.2020
3470 Clouds 4 1011 80 10000 6.2 240 22:37 29.01.2020
3471 Clouds 4 1011 80 10000 6.2 240 22:18 29.01.2020
3472 Clouds 3 1012 87 10000 3.1 170 21:54 29.01.2020
3473 Clouds 3 1012 87 10000 4.1 160 21:36 29.01.2020
3474 Clouds 3 1012 87 10000 4.1 160 21:18 29.01.2020
3475 Clouds 3 1012 87 10000 4.1 160 21:18 29.01.2020
3476 Clouds 4 1010 87 10000 5.1 260 20:40 29.01.2020
3477 Clouds 3 1010 92 10000 5.1 260 20:21 29.01.2020
3478 Clouds 3 1010 92 10000 5.1 260 20:21 29.01.2020
3479 Clouds 4 1009 92 10000 5.7 280 19:58 29.01.2020
3480 Clouds 3 1009 74 10000 6.7 280 19:38 29.01.2020
3481 Clouds 3 1009 74 10000 6.7 280 19:20 29.01.2020
3482 Clouds 4 1008 69 10000 6.2 270 18:56 29.01.2020
3483 Clouds 4 1008 69 10000 7.2 270 18:37 29.01.2020
3484 Clouds 4 1008 69 10000 7.2 270 18:18 29.01.2020
3485 Clouds 4 1007 69 10000 6.2 270 17:40 29.01.2020
3486 Clouds 4 1007 92 10000 6.7 280 17:22 29.01.2020
3487 Clouds 4 1006 80 10000 4.6 270 16:43 29.01.2020
3488 Clouds 4 1006 80 10000 4.6 270 16:23 29.01.2020
3489 Clouds 4 1005 80 10000 5.7 270 15:59 29.01.2020
3490 Rain 4 1005 86 9000 6.2 270 15:38 29.01.2020
3491 Rain 4 1005 86 9000 6.2 270 15:20 29.01.2020
3492 Clouds 3 1005 86 9000 4.6 240 14:45 29.01.2020
3493 Clouds 4 1005 86 9000 4.6 240 14:22 29.01.2020
3494 Rain 4 1005 71 8000 6.2 240 13:57 29.01.2020
3495 Clouds 4 1004 69 10000 6.2 230 13:38 29.01.2020
3496 Clouds 4 1004 69 10000 6.2 230 13:20 29.01.2020
3497 Clouds 4 1004 64 10000 5.7 230 12:56 29.01.2020
3498 Clouds 4 1004 64 10000 5.7 250 12:37 29.01.2020
3499 Clouds 4 1004 64 10000 5.7 250 12:19 29.01.2020
3500 Clouds 4 1004 64 10000 5.7 260 11:45 29.01.2020
3501 Clouds 4 1004 64 10000 7.7 270 11:22 29.01.2020
3502 Clouds 4 1004 64 10000 8.2 260 10:47 29.01.2020
3503 Clouds 4 1004 80 10000 5.1 260 10:27 29.01.2020
3504 Clouds 3 1003 80 10000 3.6 220 09:59 29.01.2020
3505 Clouds 3 1003 80 10000 3.6 220 09:40 29.01.2020
3506 Clouds 3 1003 80 10000 3.6 220 09:20 29.01.2020
3507 Clouds 3 1003 80 10000 4.1 220 08:56 29.01.2020
3508 Clouds 3 1003 80 10000 4.1 220 08:38 29.01.2020
3509 Clouds 3 1002 80 10000 5.1 240 08:38 29.01.2020
3510 Clouds 3 1002 88 10000 5.1 240 08:18 29.01.2020
3511 Clouds 3 1002 74 10000 4.1 230 07:43 29.01.2020
3512 Clouds 3 1001 74 10000 3.6 240 07:23 29.01.2020
3513 Rain 3 1001 88 10000 7.2 250 06:38 29.01.2020
3514 Rain 3 1001 88 10000 7.2 250 06:20 29.01.2020
3515 Clouds 3 1002 88 10000 5.1 200 05:52 29.01.2020
3516 Clouds 3 1002 88 10000 5.1 200 05:52 29.01.2020
3517 Clouds 3 1000 88 10000 6.2 250 05:34 29.01.2020
3518 Clouds 3 1000 82 10000 6.2 240 04:39 29.01.2020
3519 Clouds 3 1001 82 10000 3.6 210 03:59 29.01.2020
3520 Clouds 3 1000 80 10000 4.6 200 02:39 29.01.2020
3521 Clouds 3 998 84 10000 6.2 230 01:27 29.01.2020
3522 Clouds 3 998 84 10000 5.1 230 00:39 29.01.2020
3523 Clouds 3 998 84 10000 5.1 230 00:21 29.01.2020
3524 Clouds 3 1000 80 10000 4.6 210 23:40 28.01.2020
3525 Clouds 3 998 96 10000 6.2 240 23:20 28.01.2020
3526 Clouds 3 998 96 10000 6.2 240 23:20 28.01.2020
3527 Clouds 3 1000 74 10000 6.7 220 22:56 28.01.2020
3528 Clouds 3 1000 80 10000 4.6 230 22:36 28.01.2020
3529 Clouds 3 1000 80 10000 4.6 230 22:18 28.01.2020
3530 Clouds 3 998 96 10000 8.2 230 21:39 28.01.2020
3531 Rain 3 998 96 10000 7.7 240 21:20 28.01.2020
3532 Clouds 3 998 64 10000 8.7 270 20:46 28.01.2020
3533 Clouds 3 998 64 10000 8.7 270 20:27 28.01.2020
3534 Clouds 3 997 69 10000 6.2 260 19:57 28.01.2020
3535 Clouds 3 997 80 10000 5.7 260 19:38 28.01.2020
3536 Clouds 3 997 80 10000 5.7 260 19:19 28.01.2020
3537 Clouds 3 997 80 10000 5.7 270 18:54 28.01.2020
3538 Clouds 3 996 69 10000 7.2 260 18:36 28.01.2020
3539 Clouds 3 996 69 10000 7.2 260 18:18 28.01.2020
3540 Clouds 3 995 69 10000 9.8 260 17:54 28.01.2020
3541 Clouds 4 995 64 10000 6.7 260 17:36 28.01.2020
3542 Clouds 4 995 64 10000 6.7 260 17:18 28.01.2020
3543 Rain 4 995 64 10000 7.7 260 16:44 28.01.2020
3544 Rain 4 994 69 10000 7.7 260 16:25 28.01.2020
3545 Rain 4 994 68 10000 8.7 260 15:57 28.01.2020
3546 Rain 5 993 68 10000 8.7 260 15:38 28.01.2020
3547 Rain 5 993 68 10000 8.7 260 15:18 28.01.2020
3548 Clouds 5 992 68 10000 9.8 250 14:44 28.01.2020
3549 Clouds 5 992 72 10000 9.8 250 14:20 28.01.2020
3550 Clouds 5 992 80 10000 6.7 250 13:42 28.01.2020
3551 Clouds 5 991 80 10000 7.2 240 13:24 28.01.2020
3552 Clouds 4 991 80 10000 5.7 230 12:45 28.01.2020
3553 Rain 4 993 80 10000 5.1 230 12:25 28.01.2020
3554 Rain 4 990 80 7000 6.2 220 11:59 28.01.2020
3555 Rain 4 990 80 7000 6.2 220 11:41 28.01.2020
3556 Rain 4 992 80 10000 6.7 230 11:21 28.01.2020
3557 Clouds 5 990 80 10000 6.7 190 10:44 28.01.2020
3558 Clouds 5 991 93 10000 5.7 190 10:26 28.01.2020
3559 Clouds 5 991 86 10000 5.1 170 09:59 28.01.2020
3560 Clouds 5 991 86 10000 5.1 170 09:59 28.01.2020
3561 Clouds 5 991 86 10000 5.1 170 09:39 28.01.2020
3562 Clouds 5 992 86 10000 4.6 170 09:20 28.01.2020
3563 Clouds 5 992 93 10000 3.1 160 08:44 28.01.2020
3564 Clouds 5 993 93 10000 3.6 170 08:25 28.01.2020
3565 Clouds 5 993 93 10000 3.1 170 07:44 28.01.2020
3566 Clouds 5 993 86 10000 6.7 210 07:26 28.01.2020
3567 Clouds 5 993 80 10000 7.2 220 06:47 28.01.2020
3568 Clouds 5 993 86 10000 9.3 220 06:24 28.01.2020
3569 Clouds 6 993 81 10000 8.2 210 05:37 28.01.2020
3570 Clouds 6 993 81 10000 8.2 210 05:19 28.01.2020
3571 Clouds 5 996 87 10000 7.7 200 03:46 28.01.2020
3572 Rain 5 996 87 10000 6.7 190 02:44 28.01.2020
3573 Rain 5 996 87 10000 6.7 190 02:44 28.01.2020
3574 Clouds 5 994 81 10000 7.7 180 02:24 28.01.2020
3575 Rain 5 998 87 10000 7.2 200 01:52 28.01.2020
3576 Clouds 5 996 81 10000 7.7 170 01:20 28.01.2020
3577 Rain 5 997 75 10000 7.2 180 00:41 28.01.2020
3578 Clouds 5 997 75 10000 5.1 170 00:19 28.01.2020
3579 Clouds 5 1000 87 10000 7.2 190 23:42 27.01.2020
3580 Rain 5 998 75 10000 5.1 170 23:19 27.01.2020
3581 Rain 5 1001 87 10000 6.7 200 22:45 27.01.2020
3582 Rain 5 1000 81 10000 4.6 160 22:20 27.01.2020
3583 Rain 5 1000 81 10000 4.6 160 22:20 27.01.2020
3584 Rain 5 1000 81 10000 4.6 160 22:20 27.01.2020
3585 Rain 5 1002 87 10000 5.7 200 21:57 27.01.2020
3586 Clouds 5 1003 87 10000 5.7 210 21:39 27.01.2020
3587 Clouds 5 1003 87 10000 5.7 210 21:19 27.01.2020
3588 Clouds 5 1003 87 10000 5.7 210 21:19 27.01.2020
3589 Clouds 5 1003 93 10000 3.6 170 20:56 27.01.2020
3590 Drizzle 5 1003 93 10000 3.1 160 20:37 27.01.2020
3591 Drizzle 5 1003 93 10000 3.1 160 20:19 27.01.2020
3592 Rain 5 1003 93 10000 4.6 190 19:42 27.01.2020
3593 Rain 5 1004 93 10000 5.1 200 19:23 27.01.2020
3594 Rain 5 1004 93 10000 5.1 190 19:00 27.01.2020
3595 Rain 5 1004 86 9000 5.7 190 18:39 27.01.2020
3596 Rain 5 1004 86 9000 5.7 190 18:21 27.01.2020
3597 Rain 6 1005 86 8000 6.2 200 17:57 27.01.2020
3598 Clouds 6 1006 87 10000 5.1 180 17:37 27.01.2020
3599 Clouds 6 1006 87 10000 5.1 180 17:18 27.01.2020
3600 Clouds 6 1006 87 10000 5.1 180 16:42 27.01.2020
3601 Clouds 6 1006 87 9000 5.7 180 16:24 27.01.2020
3602 Clouds 7 1006 81 10000 5.7 180 15:56 27.01.2020
3603 Clouds 7 1006 81 10000 5.7 180 15:56 27.01.2020
3604 Clouds 7 1007 87 10000 5.1 180 15:38 27.01.2020
3605 Clouds 7 1007 87 10000 5.1 180 15:19 27.01.2020
3606 Clouds 7 1007 87 10000 5.1 180 15:19 27.01.2020
3607 Clouds 7 1007 87 10000 6.7 190 14:55 27.01.2020
3608 Clouds 7 1007 81 10000 6.7 190 14:36 27.01.2020
3609 Clouds 7 1007 81 10000 6.7 190 14:18 27.01.2020
3610 Clouds 7 1008 81 10000 6.2 190 13:42 27.01.2020
3611 Clouds 7 1008 81 10000 5.7 190 13:21 27.01.2020
3612 Clouds 7 1008 81 10000 5.7 190 13:21 27.01.2020
3613 Clouds 7 1009 81 10000 5.7 190 12:56 27.01.2020
3614 Clouds 7 1009 81 10000 5.7 190 12:37 27.01.2020
3615 Clouds 7 1009 81 10000 5.7 190 12:19 27.01.2020
3616 Clouds 6 1010 87 10000 5.1 190 11:41 27.01.2020
3617 Clouds 6 1009 87 10000 7.2 200 11:21 27.01.2020
3618 Clouds 6 1010 87 9000 6.2 200 10:43 27.01.2020
3619 Rain 5 1010 86 9000 6.2 190 10:25 27.01.2020
3620 Rain 5 1010 86 8000 7.2 200 09:58 27.01.2020
3621 Rain 5 1010 86 8000 7.2 200 09:39 27.01.2020
3622 Clouds 5 1010 86 8000 6.2 200 09:18 27.01.2020
3623 Clouds 5 1010 86 8000 6.2 200 09:18 27.01.2020
3624 Clouds 5 1011 86 8000 6.2 200 08:43 27.01.2020
3625 Clouds 5 1011 93 6000 4.6 190 08:22 27.01.2020
3626 Clouds 4 1011 100 5000 5.1 190 07:54 27.01.2020
3627 Mist 4 1011 93 4900 3.1 0 07:35 27.01.2020
3628 Clouds 4 1013 93 7000 2.6 210 06:53 27.01.2020
3629 Clouds 4 1013 93 7000 4.1 200 06:27 27.01.2020
3630 Clouds 3 1011 75 10000 5.1 170 05:28 27.01.2020
3631 Clouds 3 1014 93 6000 3.1 190 03:58 27.01.2020
3632 Clouds 3 1015 93 6000 2.6 190 02:42 27.01.2020
3633 Rain 2 1016 93 6000 2.6 220 01:31 27.01.2020
3634 Rain 2 1016 93 6000 2.6 220 00:58 27.01.2020
3635 Clouds 2 1016 93 6000 3.1 180 00:37 27.01.2020
3636 Clouds 2 1016 93 6000 3.1 180 00:18 27.01.2020
3637 Clouds 2 1016 93 6000 3.6 190 23:41 26.01.2020
3638 Clouds 2 1016 93 6000 3.6 190 23:41 26.01.2020
3639 Clouds 2 1016 93 6000 3.6 190 23:19 26.01.2020
3640 Clouds 2 1016 93 6000 3.6 190 22:55 26.01.2020
3641 Rain 2 1017 100 6000 3.6 180 22:36 26.01.2020
3642 Rain 2 1017 100 6000 3.6 180 22:18 26.01.2020
3643 Rain 2 1017 100 6000 3.6 180 22:18 26.01.2020
3644 Rain 3 1017 100 6000 3.6 180 21:55 26.01.2020
3645 Clouds 3 1014 75 10000 6.7 180 21:37 26.01.2020
3646 Clouds 3 1014 75 10000 6.7 180 21:18 26.01.2020
3647 Mist 3 1017 93 5000 3.1 180 20:55 26.01.2020
3648 Mist 2 1016 100 4500 2.1 0 20:36 26.01.2020
3649 Mist 3 1016 100 4500 2.1 0 20:18 26.01.2020
3650 Mist 2 1016 100 4500 4.1 180 19:42 26.01.2020
3651 Clouds 2 1016 93 7000 2.1 0 19:21 26.01.2020
3652 Mist 2 1016 93 4500 3.1 180 18:59 26.01.2020
3653 Mist 2 1016 93 4500 3.1 180 18:40 26.01.2020
3654 Mist 2 1016 100 4000 2.6 150 18:22 26.01.2020
3655 Mist 2 1016 100 4000 3.1 180 17:58 26.01.2020
3656 Mist 2 1016 100 4000 3.1 180 17:38 26.01.2020
3657 Mist 3 1016 93 4500 2.6 190 17:19 26.01.2020
3658 Mist 3 1016 93 4500 3.1 150 16:58 26.01.2020
3659 Mist 3 1016 93 4500 3.1 150 16:39 26.01.2020
3660 Clouds 3 1016 93 6000 4.1 140 16:20 26.01.2020
3661 Clouds 3 1018 93 0 1.34 172 15:55 26.01.2020
3662 Clouds 3 999 85 0 1.34 158 15:37 26.01.2020
3663 Clouds 3 1019 92 0 2.54 177 15:18 26.01.2020
3664 Clouds 3 999 86 0 2.54 177 14:40 26.01.2020
3665 Clouds 3 999 86 0 2.88 183 14:19 26.01.2020
3666 Clouds 3 1019 92 0 0.89 171 13:43 26.01.2020
3667 Clouds 3 1019 92 0 0.89 169 13:20 26.01.2020
3668 Clouds 3 1000 86 0 3.09 183 12:58 26.01.2020
3669 Clouds 2 1020 94 0 3.09 183 12:39 26.01.2020
3670 Clouds 2 1020 93 0 1.34 162 12:21 26.01.2020
3671 Clouds 2 1000 88 0 0.89 180 12:21 26.01.2020
3672 Clouds 2 1000 89 0 3.09 183 11:57 26.01.2020
3673 Clouds 2 1000 89 0 3.09 183 11:57 26.01.2020
3674 Clouds 2 1001 89 0 3.09 183 11:38 26.01.2020
3675 Clouds 1 1018 100 400 2.6 140 11:18 26.01.2020
3676 Clouds 1 1018 100 400 2.6 140 10:58 26.01.2020
3677 Clouds 0 1018 100 400 2.6 140 10:38 26.01.2020
3678 Clouds 0 1018 100 400 2.6 140 10:38 26.01.2020
3679 Clouds 0 1018 100 400 2.6 140 10:38 26.01.2020
3680 Clouds 0 1018 100 400 2.6 140 10:38 26.01.2020
3681 Clouds 0 1018 100 400 2.6 140 10:20 26.01.2020
3682 Clouds 0 1018 100 400 2.6 140 10:20 26.01.2020
3683 Fog 0 1018 100 300 3.1 140 09:56 26.01.2020
3684 Fog 0 1018 100 300 4.1 140 09:38 26.01.2020
3685 Fog 0 1018 100 300 4.1 140 09:20 26.01.2020
3686 Fog 0 1018 100 300 3.6 140 08:42 26.01.2020
3687 Fog 0 1018 100 500 2.6 140 08:22 26.01.2020
3688 Clouds 0 1018 100 600 3.1 140 07:54 26.01.2020
3689 Fog 0 1018 100 600 3.1 140 07:36 26.01.2020
3690 Fog 0 1018 100 600 3.1 140 07:18 26.01.2020
3691 Mist 0 1019 100 3500 3.6 180 06:26 26.01.2020
3692 Mist 0 1020 100 4000 2.6 190 05:29 26.01.2020
3693 Mist 0 1020 100 4000 2.1 210 04:43 26.01.2020
3694 Clouds 0 1018 92 7000 1 0 02:38 26.01.2020
3695 Mist 0 1020 82 3000 2.6 190 01:45 26.01.2020
3696 Mist 0 1019 100 4100 1 70 01:23 26.01.2020
3697 Mist 0 1021 89 3000 3.1 190 00:43 26.01.2020
3698 Mist 0 1019 100 1700 2.1 60 00:25 26.01.2020
3699 Clouds 0 1002 91 0 2.32 174 23:40 25.01.2020
3700 Clear 0 1022 94 0 0.89 147 23:21 25.01.2020
3701 Clear 0 1002 91 0 1.88 180 22:56 25.01.2020
3702 Clear 0 1002 91 0 1.88 180 22:56 25.01.2020
3703 Clear 0 1003 90 0 1.88 180 22:37 25.01.2020
3704 Clear 0 1003 90 0 0.89 202 22:18 25.01.2020
3705 Clear 0 1003 90 0 1.88 180 21:55 25.01.2020
3706 Clear 0 1003 90 0 1.88 180 21:55 25.01.2020
3707 Clear 0 1003 90 0 1.88 180 21:55 25.01.2020
3708 Clear 0 1003 90 0 1.88 180 21:36 25.01.2020
3709 Clear -2 1022 80 0 1.88 180 21:18 25.01.2020
3710 Clear 0 1003 89 0 0.89 202 20:43 25.01.2020
3711 Clear 0 1003 89 0 1.88 180 20:24 25.01.2020
3712 Clouds 0 1022 91 0 0.45 159 19:48 25.01.2020
3713 Clouds 0 1003 88 0 2.16 176 19:20 25.01.2020
3714 Clear 0 1003 88 0 2.13 177 18:59 25.01.2020
3715 Clear 0 1022 90 0 0.45 188 18:41 25.01.2020
3716 Clouds 0 1003 88 0 2.16 176 18:20 25.01.2020
3717 Clouds 0 1003 88 0 2.16 176 17:54 25.01.2020
3718 Clear 0 1022 89 0 0.45 157 17:36 25.01.2020
3719 Clear 0 1003 88 0 0.45 180 17:18 25.01.2020
3720 Clear 0 1022 89 0 0.89 154 16:42 25.01.2020
3721 Clear 0 1003 87 0 1.79 270 16:22 25.01.2020
3722 Clear 0 1003 87 0 1.25 159 15:56 25.01.2020
3723 Clear 0 1022 89 0 0.89 148 15:37 25.01.2020
3724 Clear 0 1022 88 0 0.45 154 15:19 25.01.2020
3725 Clear 0 1023 89 0 0.89 119 14:41 25.01.2020
3726 Clear 0 1004 87 0 0.89 180 14:19 25.01.2020
3727 Clear 0 1023 89 0 0.45 157 13:44 25.01.2020
3728 Clear 0 1004 85 0 1.34 158 13:25 25.01.2020
3729 Mist 0 1022 92 4700 2.1 200 12:50 25.01.2020
3730 Mist -1 1022 92 4700 2.1 200 12:30 25.01.2020
3731 Mist -1 1022 92 4700 2.1 200 11:55 25.01.2020
3732 Mist -1 1022 92 5000 2.1 220 11:36 25.01.2020
3733 Mist -1 1022 92 5000 2.1 220 11:18 25.01.2020
3734 Clouds -1 1022 92 6000 1.5 250 10:42 25.01.2020
3735 Mist -1 1022 92 5000 2.6 210 10:21 25.01.2020
3736 Mist -1 1022 92 5000 1.5 130 09:57 25.01.2020
3737 Mist -1 1022 92 5000 1.5 0 09:37 25.01.2020
3738 Mist -1 1022 92 5000 1.5 0 09:18 25.01.2020
3739 Mist -1 1022 92 5000 1 0 08:42 25.01.2020
3740 Mist -1 1022 92 5000 1 0 08:42 25.01.2020
3741 Mist -1 1021 92 5000 0.5 0 07:54 25.01.2020
3742 Mist -2 1021 92 5000 2.1 240 07:21 25.01.2020
3743 Mist -1 1021 92 3800 2.1 220 06:31 25.01.2020
3744 Mist -1 1022 86 5000 2.1 200 05:51 25.01.2020
3745 Mist -1 1021 100 3100 2.1 220 05:32 25.01.2020
3746 Mist -1 1022 86 5000 3.1 210 03:56 25.01.2020
3747 Mist -1 1022 100 4000 2.1 200 03:37 25.01.2020
3748 Mist -1 1022 100 5000 1.5 200 02:35 25.01.2020
3749 Mist -1 1022 86 5000 2.6 210 01:56 25.01.2020
3750 Clouds -1 1022 86 6000 2.1 210 00:59 25.01.2020
3751 Clouds -1 1022 92 6000 1 0 00:37 25.01.2020
3752 Clouds -1 1022 92 6000 1 0 00:18 25.01.2020
3753 Clouds -1 1022 92 6000 1 0 00:18 25.01.2020
3754 Clouds -1 1022 92 6000 1.5 260 23:41 24.01.2020
3755 Clouds -1 1022 92 6000 1 0 23:41 24.01.2020
3756 Clouds -1 1022 92 6000 1.5 260 23:23 24.01.2020
3757 Clouds -1 1022 92 6000 1.5 260 23:23 24.01.2020
3758 Mist -1 1023 86 5000 2.6 200 22:46 24.01.2020
3759 Clouds -1 1023 92 6000 2.1 230 22:26 24.01.2020
3760 Mist -1 1023 86 5000 3.6 210 21:57 24.01.2020
3761 Mist -1 1023 86 5000 4.1 210 21:39 24.01.2020
3762 Mist -1 1023 86 5000 4.1 210 21:18 24.01.2020
3763 Clouds -1 1022 92 5000 3.1 240 20:43 24.01.2020
3764 Clouds -1 1022 92 5000 3.6 250 20:21 24.01.2020
3765 Clouds -1 1022 92 6000 1 0 19:58 24.01.2020
3766 Clouds -1 1021 92 6000 2.6 160 19:39 24.01.2020
3767 Clouds -1 1021 92 6000 2.6 160 19:21 24.01.2020
3768 Clouds -1 1021 92 6000 3.1 170 18:44 24.01.2020
3769 Clouds -1 1022 86 6000 2.1 210 18:25 24.01.2020
3770 Clouds -1 1021 92 6000 2.6 170 17:59 24.01.2020
3771 Clouds -1 1021 92 6000 2.6 170 17:41 24.01.2020
3772 Clouds -1 1022 92 6000 2.1 200 17:20 24.01.2020
3773 Clouds 0 1022 86 7000 1 0 16:40 24.01.2020
3774 Clouds 0 1022 92 7000 4.1 170 16:21 24.01.2020
3775 Clouds 0 1021 92 7000 4.1 200 15:56 24.01.2020
3776 Clouds 0 1022 92 8000 3.6 230 15:38 24.01.2020
3777 Clouds 0 1022 92 8000 3.6 230 15:19 24.01.2020
3778 Clouds 0 1022 72 7000 1.5 150 14:41 24.01.2020
3779 Clouds 0 1022 64 7000 1.5 150 14:22 24.01.2020
3780 Clouds 0 1022 64 6000 2.1 150 13:45 24.01.2020
3781 Clouds 0 1023 92 6000 4.1 230 13:24 24.01.2020
3782 Mist 0 1023 92 5000 2.6 170 12:45 24.01.2020
3783 Mist 0 1023 92 5000 2.6 170 12:45 24.01.2020
3784 Mist 0 1023 66 5000 4.6 170 12:24 24.01.2020
3785 Mist 0 1023 92 5000 4.1 170 11:59 24.01.2020
3786 Mist 0 1023 92 5000 2.1 160 11:40 24.01.2020
3787 Mist -1 1023 92 5000 3.1 170 11:18 24.01.2020
3788 Mist -1 1023 92 5000 3.1 170 10:43 24.01.2020
3789 Clouds -1 1023 92 6000 2.1 190 10:21 24.01.2020
3790 Clouds -1 1023 92 6000 2.1 180 09:56 24.01.2020
3791 Clouds -1 1023 100 6000 1 190 09:37 24.01.2020
3792 Clouds -1 1023 100 6000 1 190 09:18 24.01.2020
3793 Mist -1 1023 92 4500 1 240 08:40 24.01.2020
3794 Mist -2 1023 100 5000 1 0 08:19 24.01.2020
3795 Clouds -1 1024 87 6000 4.1 210 07:49 24.01.2020
3796 Clouds -2 1023 100 6000 2.1 170 07:28 24.01.2020
3797 Clouds -1 1024 87 8000 3.1 210 06:46 24.01.2020
3798 Clouds -1 1024 87 8000 4.1 210 06:28 24.01.2020
3799 Clouds -1 1024 87 7000 4.1 220 05:43 24.01.2020
3800 Mist -2 1025 92 5000 3.1 200 03:55 24.01.2020
3801 Mist -3 1025 92 5000 1.5 190 02:43 24.01.2020
3802 Mist -3 1026 92 5000 3.1 180 02:23 24.01.2020
3803 Mist -3 1026 100 5000 1.5 170 01:39 24.01.2020
3804 Mist -3 1026 100 5000 1.5 170 01:19 24.01.2020
3805 Clear -3 1025 92 10000 3.1 160 00:19 24.01.2020
3806 Fog -3 1027 100 6000 1 320 23:45 23.01.2020
3807 Clear -3 1026 92 10000 3.1 160 23:27 23.01.2020
3808 Fog -3 1027 92 9000 1 300 22:59 23.01.2020
3809 Clear -2 1027 100 10000 1.5 210 22:37 23.01.2020
3810 Clear -2 1027 100 10000 1.5 210 22:19 23.01.2020
3811 Clear -2 1027 100 10000 1.5 210 21:56 23.01.2020
3812 Clear -2 1027 100 10000 1.5 200 21:38 23.01.2020
3813 Clear -2 1027 100 10000 1.5 200 21:19 23.01.2020
3814 Clear -1 1027 92 10000 1 0 20:56 23.01.2020
3815 Clouds -1 1027 92 10000 0.5 0 20:37 23.01.2020
3816 Clouds -1 1027 92 10000 0.5 0 20:19 23.01.2020
3817 Clouds -1 1027 90 10000 2.1 190 19:44 23.01.2020
3818 Clouds -1 1028 90 10000 2.1 170 19:24 23.01.2020
3819 Clouds -1 1028 86 10000 2.6 160 18:59 23.01.2020
3820 Clouds 0 1028 86 10000 2.6 160 18:39 23.01.2020
3821 Clouds 0 1028 86 10000 2.6 140 18:20 23.01.2020
3822 Clouds 0 1028 86 10000 1.5 160 17:57 23.01.2020
3823 Clouds 1 1029 74 10000 1 0 17:39 23.01.2020
3824 Clouds 1 1029 74 10000 1 0 17:19 23.01.2020
3825 Clouds 2 1029 80 10000 2.1 150 16:39 23.01.2020
3826 Clouds 2 1029 80 10000 2.1 150 16:20 23.01.2020
3827 Clouds 2 1030 80 10000 3.1 160 15:58 23.01.2020
3828 Clouds 3 1030 80 10000 3.1 160 15:40 23.01.2020
3829 Clouds 3 1030 80 10000 3.1 160 15:19 23.01.2020
3830 Clouds 3 1030 80 10000 3.1 160 15:19 23.01.2020
3831 Clouds 3 1030 80 10000 2.6 160 14:59 23.01.2020
3832 Clouds 3 1030 80 10000 2.6 160 14:41 23.01.2020
3833 Clouds 3 1031 80 10000 2.6 140 14:23 23.01.2020
3834 Clouds 3 1031 74 10000 2.6 140 13:59 23.01.2020
3835 Clouds 3 1031 74 10000 2.6 140 13:38 23.01.2020
3836 Clouds 3 1032 80 10000 2.6 110 13:19 23.01.2020
3837 Clouds 3 1032 72 10000 2.6 130 12:46 23.01.2020
3838 Clouds 3 1032 100 9000 1.5 130 12:25 23.01.2020
3839 Fog 3 1033 100 6000 1 0 11:57 23.01.2020
3840 Clouds 2 1033 100 1300 2.1 130 11:38 23.01.2020
3841 Clouds 2 1033 100 1300 2.1 130 11:19 23.01.2020
3842 Mist 2 1034 100 3000 0.5 250 10:44 23.01.2020
3843 Fog 2 1033 100 3000 3.1 170 10:22 23.01.2020
3844 Fog 2 1033 100 1500 2.1 150 09:57 23.01.2020
3845 Mist 1 1034 89 1400 0.81 137 09:36 23.01.2020
3846 Mist 1 1034 89 1400 0.81 137 09:18 23.01.2020
3847 Fog 1 1034 89 800 0.5 290 08:40 23.01.2020
3848 Fog 1 1033 89 800 0.5 0 08:22 23.01.2020
3849 Clouds 1 1034 96 900 1 0 07:45 23.01.2020
3850 Fog 1 1034 96 800 0.5 10 07:26 23.01.2020
3851 Fog 1 1034 96 500 0.5 10 06:52 23.01.2020
3852 Fog 1 1034 96 500 0.64 90 06:22 23.01.2020
3853 Fog 1 1034 96 500 0.64 90 05:57 23.01.2020
3854 Mist 1 1035 93 1100 1 0 04:24 23.01.2020
3855 Mist 1 1036 95 2000 0.5 250 02:34 23.01.2020
3856 Fog 1 1036 100 650 1 0 01:33 23.01.2020
3857 Fog 1 1036 100 350 1 230 00:27 23.01.2020
3858 Mist 1 1036 96 2000 0.25 330 23:48 22.01.2020
3859 Fog 1 1036 100 350 1.5 240 23:30 22.01.2020
3860 Mist 1 1036 95 2000 1 140 22:59 22.01.2020
3861 Mist 1 1036 95 2000 1 140 22:40 22.01.2020
3862 Fog 1 1035 100 350 1.5 220 22:22 22.01.2020
3863 Fog 1 1035 100 300 1.5 200 21:40 22.01.2020
3864 Fog 1 1035 95 900 0.5 0 21:22 22.01.2020
3865 Fog 1 1035 95 900 0.5 0 20:57 22.01.2020
3866 Fog 1 1035 95 900 0.5 0 20:57 22.01.2020
3867 Mist 1 1035 95 1400 1 200 20:38 22.01.2020
3868 Fog 1 1035 95 900 0.5 0 20:38 22.01.2020
3869 Mist 1 1035 96 1400 1 200 20:20 22.01.2020
3870 Drizzle 1 1035 96 1200 1.5 200 19:56 22.01.2020
3871 Fog 1 1034 96 600 1 0 19:38 22.01.2020
3872 Fog 1 1034 96 600 1 0 19:18 22.01.2020
3873 Fog 1 1034 96 400 2.1 100 18:56 22.01.2020
3874 Fog 1 1034 96 750 0.5 0 18:38 22.01.2020
3875 Fog 1 1034 96 750 0.5 0 18:19 22.01.2020
3876 Fog 1 1034 96 900 1 0 17:40 22.01.2020
3877 Drizzle 1 1034 92 4000 0.88 276 17:21 22.01.2020
3878 Drizzle 1 1034 92 750 1 0 16:58 22.01.2020
3879 Fog 1 1034 92 800 2.1 80 16:40 22.01.2020
3880 Fog 1 1034 92 800 2.1 80 16:21 22.01.2020
3881 Mist 1 1033 92 1700 1 0 15:56 22.01.2020
3882 Mist 1 1034 92 1900 1 0 15:38 22.01.2020
3883 Mist 1 1034 92 1900 1 0 15:19 22.01.2020
3884 Mist 1 1034 92 1200 1 0 14:40 22.01.2020
3885 Mist 1 1034 92 1200 1 0 14:40 22.01.2020
3886 Mist 1 1034 92 1200 1 0 14:40 22.01.2020
3887 Mist 1 1034 85 1200 1 0 14:21 22.01.2020
3888 Mist 1 1034 100 2000 1.5 110 13:59 22.01.2020
3889 Clouds 1 1035 100 6000 0.5 0 13:38 22.01.2020
3890 Clouds 1 1035 100 6000 0.5 0 13:19 22.01.2020
3891 Mist 1 1034 100 1800 1.5 120 12:57 22.01.2020
3892 Mist 1 1034 100 1800 1.5 120 12:39 22.01.2020
3893 Mist 1 1035 100 1900 1 140 12:20 22.01.2020
3894 Mist 1 1035 100 1100 1 110 11:58 22.01.2020
3895 Mist 1 1035 100 1100 1 110 11:40 22.01.2020
3896 Mist 0 1035 100 1100 1 130 11:19 22.01.2020
3897 Mist 0 1035 100 1100 1 130 11:19 22.01.2020
3898 Mist -1 1035 100 1100 1 140 10:54 22.01.2020
3899 Mist -1 1035 100 2200 1.5 100 10:36 22.01.2020
3900 Mist -1 1035 100 2200 1.5 100 10:18 22.01.2020
3901 Mist -1 1035 92 4400 1 190 09:41 22.01.2020
3902 Fog -1 1036 92 1500 1.58 234 09:23 22.01.2020
3903 Clouds -2 1035 100 6000 2.1 350 08:57 22.01.2020
3904 Clouds -2 1034 100 8000 1 0 08:38 22.01.2020
3905 Clouds -2 1034 100 8000 1 0 08:20 22.01.2020
3906 Clouds -2 1034 92 9000 1.5 190 07:46 22.01.2020
3907 Clouds -2 1035 92 10000 1.5 280 07:27 22.01.2020
3908 Clouds -3 1035 86 10000 3.1 230 06:38 22.01.2020
3909 Clouds -3 1035 86 10000 3.1 230 06:20 22.01.2020
3910 Clouds -3 1035 86 10000 3.1 230 06:20 22.01.2020
3911 Fog -4 1036 92 100 0.5 360 04:27 22.01.2020
3912 Clear -3 1036 86 10000 3.6 210 03:29 22.01.2020
3913 Fog -4 1037 92 100 1 320 02:49 22.01.2020
3914 Fog -4 1037 92 200 1 0 01:35 22.01.2020
3915 Clouds -4 1037 92 10000 1 350 00:42 22.01.2020
3916 Clear -4 1037 79 10000 1 0 00:23 22.01.2020
3917 Clear -3 1037 80 10000 3.1 0 23:37 21.01.2020
3918 Clear -3 1037 80 10000 3.1 0 23:37 21.01.2020
3919 Clear -3 1037 80 10000 3.1 0 23:19 21.01.2020
3920 Clear -3 1037 80 10000 1 200 22:42 21.01.2020
3921 Clear -3 1038 92 10000 0.5 0 22:24 21.01.2020
3922 Clear -3 1038 92 10000 0.5 0 22:24 21.01.2020
3923 Fog -3 1038 92 4500 0.5 120 21:59 21.01.2020
3924 Clear -2 1038 74 10000 1.5 0 21:40 21.01.2020
3925 Fog -2 1039 92 600 1.7 206 21:21 21.01.2020
3926 Fog -3 1039 92 600 1.7 206 20:59 21.01.2020
3927 Clear -2 1038 100 9000 1 0 20:39 21.01.2020
3928 Clouds -2 1038 100 9000 1 0 20:20 21.01.2020
3929 Clouds -2 1039 92 8000 1 200 19:58 21.01.2020
3930 Clouds -2 1039 100 8000 1 190 19:39 21.01.2020
3931 Clouds -2 1039 100 8000 1 190 19:21 21.01.2020
3932 Clouds -2 1039 92 9000 1.5 20 18:57 21.01.2020
3933 Clouds -2 1039 92 9000 1.5 20 18:39 21.01.2020
3934 Clouds -2 1039 92 9000 1.5 20 18:39 21.01.2020
3935 Clouds -1 1038 100 9000 0.5 0 18:20 21.01.2020
3936 Clouds 0 1038 76 9000 1 0 17:56 21.01.2020
3937 Clouds 0 1038 76 9000 1 0 17:38 21.01.2020
3938 Fog 0 1039 92 150 0.5 0 17:18 21.01.2020
3939 Clear 1 1039 86 9000 0.5 120 16:38 21.01.2020
3940 Clear 2 1039 86 9000 0.5 120 16:19 21.01.2020
3941 Clear 2 1039 86 9000 0.5 120 16:19 21.01.2020
3942 Clear 2 1040 68 9000 0.5 0 15:59 21.01.2020
3943 Clear 3 1040 68 9000 0.5 0 15:38 21.01.2020
3944 Clear 3 1040 86 8000 1.5 60 15:19 21.01.2020
3945 Clear 3 1040 68 8000 1.5 40 14:39 21.01.2020
3946 Clouds 3 1040 86 10000 1.5 70 14:39 21.01.2020
3947 Clouds 3 1040 86 10000 1.5 70 14:21 21.01.2020
3948 Clouds 2 1041 60 10000 1.5 90 13:43 21.01.2020
3949 Fog 2 1041 60 10000 2.1 130 13:20 21.01.2020
3950 Fog 1 1041 92 8000 2.1 130 12:58 21.01.2020
3951 Fog 2 1041 92 8000 2.1 130 12:39 21.01.2020
3952 Fog 0 1043 92 400 0.5 290 12:21 21.01.2020
3953 Fog 0 1042 92 9000 1.5 140 11:55 21.01.2020
3954 Clouds -1 1042 92 10000 1.5 110 11:36 21.01.2020
3955 Clouds -1 1042 92 10000 1.5 110 11:18 21.01.2020
3956 Clouds -2 1042 92 10000 1 90 10:42 21.01.2020
3957 Clouds -2 1042 92 10000 1 90 10:22 21.01.2020
3958 Clouds -3 1041 100 10000 2.1 120 09:43 21.01.2020
3959 Clouds -4 1041 92 10000 1 100 09:24 21.01.2020
3960 Clouds -4 1042 100 10000 1.29 194 08:58 21.01.2020
3961 Clouds -4 1042 100 10000 1.29 194 08:40 21.01.2020
3962 Clouds -4 1042 100 10000 0.5 0 08:19 21.01.2020
3963 Mist -4 1042 92 3000 1 110 07:42 21.01.2020
3964 Mist -4 1042 92 3000 1 110 07:42 21.01.2020
3965 Clear -4 1042 92 10000 1.5 0 07:23 21.01.2020
3966 Clear -4 1042 92 10000 1.5 0 07:23 21.01.2020
3967 Fog -4 1043 92 200 1.5 310 06:56 21.01.2020
3968 Clear -3 1042 86 10000 1 0 06:37 21.01.2020
3969 Fog -3 1043 92 200 1 300 05:50 21.01.2020
3970 Fog -3 1043 92 800 0.5 330 04:41 21.01.2020
3971 Fog -2 1044 92 800 0.5 290 03:40 21.01.2020
3972 Fog -3 1044 100 800 1.03 194 02:26 21.01.2020
3973 Clear -2 1044 92 10000 2.1 0 01:31 21.01.2020
3974 Clear -2 1044 92 10000 3.6 170 00:41 21.01.2020
3975 Clear -2 1044 92 10000 3.6 170 00:21 21.01.2020
3976 Clear -2 1045 92 10000 3.6 170 23:41 20.01.2020
3977 Clear -2 1045 92 10000 3.6 170 23:19 20.01.2020
3978 Clear -2 1046 92 10000 2.1 310 22:58 20.01.2020
3979 Clear -2 1045 92 10000 2.1 0 22:38 20.01.2020
3980 Clear -2 1045 92 10000 2.1 0 22:38 20.01.2020
3981 Clear -1 1045 93 10000 4.1 170 22:20 20.01.2020
3982 Clear -1 1045 93 10000 4.1 170 22:20 20.01.2020
3983 Clear -1 1046 92 10000 0.5 0 21:58 20.01.2020
3984 Clear -1 1045 100 10000 1 0 21:37 20.01.2020
3985 Clear -1 1045 100 10000 1.5 0 21:19 20.01.2020
3986 Clear -1 1046 92 10000 0.5 280 20:57 20.01.2020
3987 Clouds -1 1045 93 10000 2.1 190 20:38 20.01.2020
3988 Clouds -1 1045 92 10000 2.1 190 20:18 20.01.2020
3989 Clouds 0 1045 92 10000 2.1 190 19:56 20.01.2020
3990 Clouds 0 1045 92 10000 2.1 190 19:38 20.01.2020
3991 Clouds 0 1045 92 10000 2.1 210 19:18 20.01.2020
3992 Clouds 0 1045 92 10000 1.5 230 18:44 20.01.2020
3993 Clouds 1 1045 86 10000 1 220 18:23 20.01.2020
3994 Clouds 2 1045 92 10000 1.5 220 17:58 20.01.2020
3995 Clouds 2 1046 64 10000 1 180 17:36 20.01.2020
3996 Clouds 2 1046 64 10000 1 180 17:36 20.01.2020
3997 Clouds 3 1046 64 10000 1 180 17:18 20.01.2020
3998 Clouds 4 1045 80 10000 1 180 16:43 20.01.2020
3999 Clouds 5 1045 80 10000 1 170 16:25 20.01.2020
4000 Clouds 5 1045 70 10000 0.5 0 15:57 20.01.2020
4001 Clouds 5 1046 75 10000 0.5 0 15:39 20.01.2020
4002 Clouds 5 1046 75 10000 0.5 0 15:20 20.01.2020
4003 Clouds 5 1046 75 10000 0.5 0 14:41 20.01.2020
4004 Clouds 5 1046 75 10000 0.5 0 14:23 20.01.2020
4005 Clouds 5 1046 86 10000 0.5 0 13:59 20.01.2020
4006 Clouds 5 1046 86 10000 0.5 0 13:40 20.01.2020
4007 Clouds 5 1047 86 10000 1 0 13:22 20.01.2020
4008 Clouds 4 1047 86 10000 0.5 0 12:47 20.01.2020
4009 Clouds 4 1047 93 10000 1 0 12:28 20.01.2020
4010 Clouds 4 1047 93 10000 1 0 11:59 20.01.2020
4011 Clouds 4 1047 93 10000 1 0 11:39 20.01.2020
4012 Clouds 3 1047 93 10000 1 0 11:21 20.01.2020
4013 Clouds 3 1046 86 10000 0.5 0 10:48 20.01.2020
4014 Clouds 2 1046 93 10000 1 0 10:22 20.01.2020
4015 Clouds 2 1046 93 10000 1 0 10:22 20.01.2020
4016 Clouds 2 1047 93 10000 2.1 300 09:57 20.01.2020
4017 Clouds 2 1046 100 8000 1.5 310 09:38 20.01.2020
4018 Clouds 2 1046 100 8000 1.5 310 09:19 20.01.2020
4019 Clouds 1 1045 93 10000 1.5 260 08:43 20.01.2020
4020 Clouds 1 1045 100 10000 1.5 300 08:25 20.01.2020
4021 Clouds 1 1045 100 7000 1.5 180 07:43 20.01.2020
4022 Mist 1 1045 100 5000 2.1 240 07:24 20.01.2020
4023 Clouds 1 1045 93 10000 1.5 310 06:46 20.01.2020
4024 Clouds 1 1045 93 4600 1.5 220 06:26 20.01.2020
4025 Clouds 1 1045 93 5000 2.1 200 05:42 20.01.2020
4026 Clouds 1 1045 100 7000 0.5 0 05:21 20.01.2020
4027 Clouds 1 1045 100 7000 0.5 0 04:41 20.01.2020
4028 Clouds 1 1044 92 10000 1.5 300 02:57 20.01.2020
4029 Clouds 1 1044 97 10000 1.5 320 01:52 20.01.2020
4030 Clouds 1 1044 100 10000 1.5 280 01:26 20.01.2020
4031 Clouds 1 1044 96 10000 1 290 00:44 20.01.2020
4032 Clouds 1 1044 93 10000 1.5 260 00:22 20.01.2020
4033 Clouds 1 1043 93 10000 1.5 280 23:39 19.01.2020
4034 Clouds 1 1043 93 10000 1.5 280 23:20 19.01.2020
4035 Clouds 1 1043 93 10000 1.5 280 23:20 19.01.2020
4036 Clouds 1 1043 93 10000 3.6 310 22:56 19.01.2020
4037 Clouds 1 1043 93 10000 3.6 310 22:56 19.01.2020
4038 Clouds 2 1042 100 10000 2.1 320 22:38 19.01.2020
4039 Clouds 2 1042 100 10000 2.1 320 22:20 19.01.2020
4040 Clouds 2 1041 94 10000 2.6 300 21:56 19.01.2020
4041 Clouds 3 1041 59 10000 3.1 320 21:38 19.01.2020
4042 Clouds 3 1041 59 10000 3.1 320 21:20 19.01.2020
4043 Clouds 3 1041 80 10000 4.1 330 20:57 19.01.2020
4044 Clouds 3 1040 86 10000 4.6 300 20:38 19.01.2020
4045 Clouds 3 1040 86 10000 4.6 300 20:20 19.01.2020
4046 Clouds 3 1040 93 10000 5.7 300 19:56 19.01.2020
4047 Rain 3 1040 93 9000 3.1 300 19:38 19.01.2020
4048 Rain 3 1040 93 9000 3.1 300 19:19 19.01.2020
4049 Rain 3 1040 93 8000 2.6 320 18:55 19.01.2020
4050 Clouds 3 1040 80 10000 2.6 340 18:37 19.01.2020
4051 Clouds 3 1040 80 10000 2.6 340 18:19 19.01.2020
4052 Rain 3 1039 93 7000 4.6 300 17:58 19.01.2020
4053 Rain 3 1039 93 7000 4.6 300 17:39 19.01.2020
4054 Drizzle 3 1039 80 10000 3.1 330 17:20 19.01.2020
4055 Rain 3 1038 93 8000 4.1 300 16:57 19.01.2020
4056 Clouds 3 1037 93 8000 4.1 300 16:38 19.01.2020
4057 Clouds 3 1037 93 8000 4.1 300 16:19 19.01.2020
4058 Clouds 4 1037 93 9000 3.6 300 15:58 19.01.2020
4059 Clouds 4 1037 80 10000 3.6 320 15:37 19.01.2020
4060 Clouds 4 1037 80 10000 3.6 320 15:19 19.01.2020
4061 Clouds 4 1037 80 10000 2.1 340 14:57 19.01.2020
4062 Clouds 4 1036 93 10000 3.1 310 14:38 19.01.2020
4063 Clouds 4 1036 93 10000 3.1 310 14:18 19.01.2020
4064 Clouds 4 1036 93 10000 3.1 310 14:18 19.01.2020
4065 Drizzle 4 1036 93 8000 3.6 320 13:56 19.01.2020
4066 Drizzle 4 1036 93 8000 3.6 330 13:37 19.01.2020
4067 Drizzle 4 1036 93 8000 3.6 330 13:19 19.01.2020
4068 Drizzle 3 1035 100 8000 4.1 320 12:54 19.01.2020
4069 Clouds 3 1035 100 8000 3.6 320 12:36 19.01.2020
4070 Clouds 3 1035 100 8000 3.6 320 12:18 19.01.2020
4071 Clouds 3 1035 93 9000 4.1 310 11:39 19.01.2020
4072 Clouds 3 1035 93 9000 4.1 310 11:20 19.01.2020
4073 Clouds 2 1034 93 9000 2.6 300 10:56 19.01.2020
4074 Clouds 2 1034 93 9000 2.6 300 10:56 19.01.2020
4075 Clouds 2 1033 100 8000 3.6 300 10:37 19.01.2020
4076 Clouds 2 1033 100 8000 3.6 300 10:19 19.01.2020
4077 Clouds 2 1033 100 9000 1.5 310 09:45 19.01.2020
4078 Clouds 2 1033 100 9000 1.5 310 09:45 19.01.2020
4079 Clouds 2 1032 94 7000 1.5 310 09:27 19.01.2020
4080 Rain 2 1032 100 7000 3.1 300 08:58 19.01.2020
4081 Rain 2 1032 100 7000 3.1 300 08:39 19.01.2020
4082 Clouds 1 1031 100 9000 2.1 310 08:21 19.01.2020
4083 Rain 1 1031 100 8000 3.1 300 07:42 19.01.2020
4084 Clouds 1 1031 93 8000 3.1 270 07:22 19.01.2020
4085 Clouds 1 1031 95 10000 2.09 303 06:51 19.01.2020
4086 Clouds 1 1030 95 10000 1.5 300 05:41 19.01.2020
4087 Rain 1 1029 97 10000 1 270 02:44 19.01.2020
4088 Rain 1 1028 100 10000 2.1 270 02:21 19.01.2020
4089 Clouds 1 1028 92 10000 0.5 360 01:25 19.01.2020
4090 Clouds 1 1028 92 10000 0.5 0 00:45 19.01.2020
4091 Clouds 1 1027 100 10000 1.5 290 00:27 19.01.2020
4092 Clouds 1 1027 100 10000 1.5 290 23:56 18.01.2020
4093 Clouds 1 1027 86 10000 3.6 270 23:38 18.01.2020
4094 Clouds 1 1027 86 10000 3.6 270 23:18 18.01.2020
4095 Clouds 2 1027 86 10000 2.1 150 22:55 18.01.2020
4096 Clouds 3 1026 86 10000 3.1 250 22:36 18.01.2020
4097 Clouds 1 1026 86 10000 3.1 250 22:18 18.01.2020
4098 Clouds 1 1026 86 10000 3.1 250 22:18 18.01.2020
4099 Clouds 1 1027 92 10000 1.5 0 21:56 18.01.2020
4100 Clouds 2 1026 93 10000 3.1 200 21:36 18.01.2020
4101 Clouds 2 1026 93 10000 3.1 200 21:18 18.01.2020
4102 Clouds 2 1026 86 10000 2.1 300 20:42 18.01.2020
4103 Clouds 2 1025 86 10000 2.6 250 20:20 18.01.2020
4104 Clouds 2 1025 93 10000 2.1 240 19:55 18.01.2020
4105 Clouds 2 1025 93 10000 1.5 240 19:36 18.01.2020
4106 Clouds 2 1025 93 10000 1.5 240 19:36 18.01.2020
4107 Clouds 3 1025 93 10000 1.5 240 19:18 18.01.2020
4108 Rain 3 1024 93 10000 2.6 280 18:41 18.01.2020
4109 Rain 3 1024 93 10000 2.6 280 18:21 18.01.2020
4110 Clouds 3 1024 93 10000 2.1 260 17:41 18.01.2020
4111 Clouds 4 1024 86 10000 4.1 250 17:21 18.01.2020
4112 Clouds 4 1023 77 10000 3.6 230 16:59 18.01.2020
4113 Clouds 4 1023 75 10000 3.1 240 16:41 18.01.2020
4114 Clouds 4 1023 75 10000 3.1 240 16:22 18.01.2020
4115 Clouds 4 1023 75 10000 3.1 240 16:22 18.01.2020
4116 Clouds 4 1023 80 10000 3.1 250 15:58 18.01.2020
4117 Clouds 4 1023 80 10000 3.1 250 15:40 18.01.2020
4118 Clouds 4 1023 80 10000 4.1 270 15:21 18.01.2020
4119 Rain 5 1023 86 10000 2.6 280 14:44 18.01.2020
4120 Clouds 5 1023 80 10000 4.1 250 14:21 18.01.2020
4121 Clouds 5 1023 75 10000 5.7 240 13:59 18.01.2020
4122 Clouds 5 1023 75 10000 5.7 240 13:39 18.01.2020
4123 Clouds 5 1023 75 10000 6.2 240 13:20 18.01.2020
4124 Clouds 5 1023 75 10000 6.7 230 12:54 18.01.2020
4125 Clouds 5 1023 75 10000 6.7 230 12:54 18.01.2020
4126 Clouds 5 1023 75 10000 5.7 230 12:36 18.01.2020
4127 Clouds 5 1023 75 10000 5.7 230 12:18 18.01.2020
4128 Clouds 5 1023 80 10000 6.7 220 11:43 18.01.2020
4129 Clouds 5 1023 75 10000 5.7 220 11:21 18.01.2020
4130 Clouds 4 1023 86 10000 2.1 150 10:43 18.01.2020
4131 Clouds 4 1023 80 10000 3.6 200 10:22 18.01.2020
4132 Clouds 4 1022 86 10000 3.6 210 09:59 18.01.2020
4133 Clouds 4 1022 86 10000 3.6 210 09:41 18.01.2020
4134 Clouds 3 1022 80 10000 4.6 190 09:19 18.01.2020
4135 Clouds 3 1022 86 10000 3.1 210 08:42 18.01.2020
4136 Clouds 4 1022 80 10000 4.1 210 08:20 18.01.2020
4137 Clouds 4 1022 91 10000 4.1 210 07:59 18.01.2020
4138 Clouds 4 1022 91 10000 4.1 210 07:39 18.01.2020
4139 Clouds 3 1021 80 10000 2.6 210 06:52 18.01.2020
4140 Clouds 3 1021 80 10000 5.1 220 06:33 18.01.2020
4141 Clouds 3 1022 91 10000 0.5 120 05:52 18.01.2020
4142 Clouds 3 1020 84 10000 4.6 230 04:25 18.01.2020
4143 Clouds 5 1020 70 10000 5.1 250 02:38 18.01.2020
4144 Clouds 5 1019 70 10000 4.6 250 01:40 18.01.2020
4145 Clouds 6 1018 70 10000 6.2 250 00:39 18.01.2020
4146 Clouds 6 1018 70 10000 6.2 250 00:20 18.01.2020
4147 Clouds 6 1018 93 10000 3.6 200 23:58 17.01.2020
4148 Clouds 6 1018 75 10000 5.7 250 23:39 17.01.2020
4149 Clouds 6 1017 75 10000 4.6 250 23:18 17.01.2020
4150 Rain 7 1017 70 10000 4.1 250 22:41 17.01.2020
4151 Rain 7 1017 75 10000 4.1 240 22:20 17.01.2020
4152 Clouds 7 1017 93 10000 1.5 190 21:56 17.01.2020
4153 Rain 7 1016 87 10000 3.1 230 21:37 17.01.2020
4154 Rain 7 1016 87 10000 3.1 230 21:19 17.01.2020
4155 Rain 7 1016 87 10000 3.6 210 20:41 17.01.2020
4156 Rain 7 1016 87 10000 3.6 210 20:21 17.01.2020
4157 Drizzle 7 1015 87 9000 3.1 190 19:58 17.01.2020
4158 Rain 7 1015 87 10000 3.1 200 19:38 17.01.2020
4159 Rain 7 1015 87 10000 3.1 200 19:20 17.01.2020
4160 Rain 8 1015 75 10000 4.1 210 18:58 17.01.2020
4161 Rain 8 1015 75 10000 4.1 210 18:39 17.01.2020
4162 Clouds 8 1015 75 10000 4.6 200 18:21 17.01.2020
4163 Clouds 8 1015 75 10000 5.1 200 17:40 17.01.2020
4164 Clouds 8 1015 75 10000 5.1 200 17:22 17.01.2020
4165 Clouds 8 1015 75 10000 5.1 210 16:57 17.01.2020
4166 Clouds 8 1015 75 10000 4.1 210 16:38 17.01.2020
4167 Clouds 8 1015 75 10000 4.1 210 16:19 17.01.2020
4168 Clouds 8 1015 75 10000 2.6 190 15:45 17.01.2020
4169 Clouds 9 1015 70 10000 3.6 180 15:26 17.01.2020
4170 Clouds 9 1015 70 10000 2.6 190 14:45 17.01.2020
4171 Clouds 9 1015 70 10000 3.6 180 14:27 17.01.2020
4172 Clouds 9 1015 70 10000 4.6 240 13:58 17.01.2020
4173 Clear 8 1015 70 10000 1.5 0 13:37 17.01.2020
4174 Clear 9 1015 70 10000 1.5 0 13:19 17.01.2020
4175 Clear 8 1016 70 10000 5.1 200 12:44 17.01.2020
4176 Clouds 8 1017 81 10000 2.6 120 12:21 17.01.2020
4177 Clear 7 1018 75 10000 2.6 200 11:38 17.01.2020
4178 Clear 6 1018 75 10000 2.6 200 11:18 17.01.2020
4179 Clear 5 1017 75 10000 5.7 150 10:43 17.01.2020
4180 Clear 5 1018 75 10000 5.1 140 10:23 17.01.2020
4181 Clear 5 1018 80 10000 6.7 150 09:58 17.01.2020
4182 Clear 5 1018 80 10000 6.7 150 09:39 17.01.2020
4183 Clear 5 1018 80 10000 6.7 150 09:39 17.01.2020
4184 Clear 4 1018 80 10000 6.7 150 09:19 17.01.2020
4185 Fog 3 1019 100 100 0.5 230 08:43 17.01.2020
4186 Fog 3 1019 100 10000 1 280 08:24 17.01.2020
4187 Clear 3 1019 93 10000 4.1 150 07:54 17.01.2020
4188 Clear 3 1019 93 10000 5.1 130 07:31 17.01.2020
4189 Clear 3 1020 80 10000 4.6 140 06:57 17.01.2020
4190 Clear 3 1018 75 10000 1.5 150 06:38 17.01.2020
4191 Fog 3 1020 92 10000 1 340 05:38 17.01.2020
4192 Clear 4 1023 85 0 0.89 190 03:39 17.01.2020
4193 Clear 4 1023 85 0 0.89 171 02:47 17.01.2020
4194 Clear 5 1023 86 0 0.89 177 01:47 17.01.2020
4195 Clear 5 1023 86 0 0.89 169 01:28 17.01.2020
4196 Clear 5 1024 86 0 1.34 164 00:46 17.01.2020
4197 Clear 5 1022 71 10000 6.2 160 00:21 17.01.2020
4198 Clear 5 1022 71 10000 6.2 160 23:43 16.01.2020
4199 Clear 5 1022 71 10000 6.2 160 23:25 16.01.2020
4200 Clear 5 1024 93 10000 1 60 22:55 16.01.2020
4201 Clear 5 1024 81 10000 3.1 130 22:37 16.01.2020
4202 Clear 5 1024 81 10000 3.1 130 22:18 16.01.2020
4203 Clear 5 1024 81 10000 3.1 130 21:54 16.01.2020
4204 Clear 5 1024 81 10000 4.1 160 21:36 16.01.2020
4205 Clear 5 1024 81 10000 4.1 160 21:18 16.01.2020
4206 Clear 5 1025 81 10000 4.1 170 20:40 16.01.2020
4207 Clear 5 1025 87 10000 5.1 170 20:20 16.01.2020
4208 Clear 5 1025 87 10000 3.6 160 19:57 16.01.2020
4209 Clear 5 1025 100 10000 3.1 130 19:39 16.01.2020
4210 Clear 5 1025 100 10000 3.1 130 19:20 16.01.2020
4211 Clear 5 1025 93 10000 1.5 130 18:56 16.01.2020
4212 Clouds 6 1025 93 10000 2.6 130 18:37 16.01.2020
4213 Clouds 6 1025 93 10000 2.6 130 18:18 16.01.2020
4214 Clouds 6 1025 93 10000 1.5 120 17:56 16.01.2020
4215 Fog 6 1025 93 10000 0.5 320 17:38 16.01.2020
4216 Fog 7 1025 93 10000 0.5 320 17:20 16.01.2020
4217 Clouds 8 1025 87 10000 2.1 120 16:40 16.01.2020
4218 Clouds 9 1025 87 10000 3.1 140 16:21 16.01.2020
4219 Clouds 9 1026 87 10000 2.1 120 15:56 16.01.2020
4220 Clouds 9 1026 87 10000 3.1 90 15:38 16.01.2020
4221 Clouds 10 1026 87 10000 3.1 90 15:19 16.01.2020
4222 Clouds 10 1026 87 10000 2.1 180 14:42 16.01.2020
4223 Clouds 10 1026 81 10000 3.1 170 14:23 16.01.2020
4224 Clouds 10 1026 87 10000 4.1 150 13:47 16.01.2020
4225 Clouds 10 1027 87 10000 0.5 20 13:29 16.01.2020
4226 Clouds 9 1027 87 10000 3.1 150 12:59 16.01.2020
4227 Fog 8 1027 100 9000 1.5 90 12:40 16.01.2020
4228 Fog 8 1027 100 9000 1.5 90 12:20 16.01.2020
4229 Fog 6 1028 100 10000 2.1 130 11:42 16.01.2020
4230 Fog 6 1028 100 10000 2.1 130 11:42 16.01.2020
4231 Fog 6 1028 100 200 1.5 180 11:24 16.01.2020
4232 Fog 5 1028 100 5000 1.5 300 10:56 16.01.2020
4233 Fog 5 1027 100 100 2.1 120 10:37 16.01.2020
4234 Fog 4 1027 100 100 2.1 120 10:19 16.01.2020
4235 Fog 4 1027 100 10000 1.5 180 09:43 16.01.2020
4236 Fog 3 1027 89 200 0.5 0 09:24 16.01.2020
4237 Fog 3 1027 93 6000 2.1 210 08:58 16.01.2020
4238 Fog 3 1027 100 7000 1.5 190 08:40 16.01.2020
4239 Fog 3 1027 100 7000 1.5 190 08:20 16.01.2020
4240 Clouds 3 1026 100 10000 1 230 07:42 16.01.2020
4241 Clouds 4 1026 86 10000 4.6 170 07:24 16.01.2020
4242 Fog 4 1026 100 10000 0.5 270 06:54 16.01.2020
4243 Clouds 4 1025 80 10000 3.6 180 06:34 16.01.2020
4244 Clouds 4 1026 93 10000 2.1 250 05:51 16.01.2020
4245 Clouds 5 1025 100 10000 1.5 220 04:51 16.01.2020
4246 Clouds 6 1024 86 10000 4.6 230 04:21 16.01.2020
4247 Clouds 7 1024 86 10000 3.6 240 03:27 16.01.2020
4248 Rain 8 1023 87 10000 4.1 240 02:21 16.01.2020
4249 Clouds 10 1021 81 10000 3.1 280 00:43 16.01.2020
4250 Clouds 10 1021 81 10000 4.6 270 00:23 16.01.2020
4251 Clouds 10 1020 71 10000 6.2 250 23:45 15.01.2020
4252 Rain 10 1019 81 10000 5.7 250 23:22 15.01.2020
4253 Clouds 10 1019 71 10000 4.1 210 22:57 15.01.2020
4254 Rain 10 1018 81 10000 7.2 240 22:38 15.01.2020
4255 Rain 10 1018 81 10000 7.2 240 22:18 15.01.2020
4256 Clouds 10 1018 66 10000 5.1 200 21:56 15.01.2020
4257 Clouds 10 1018 66 10000 5.1 200 21:56 15.01.2020
4258 Rain 11 1016 62 10000 6.7 210 21:37 15.01.2020
4259 Rain 10 1016 62 10000 6.7 210 21:18 15.01.2020
4260 Rain 11 1016 62 10000 6.7 210 20:55 15.01.2020
4261 Rain 10 1016 62 10000 6.7 210 20:37 15.01.2020
4262 Clouds 11 1016 62 10000 6.7 210 20:18 15.01.2020
4263 Clouds 10 1016 66 10000 5.1 200 19:54 15.01.2020
4264 Clouds 10 1015 66 10000 6.7 190 19:36 15.01.2020
4265 Clouds 10 1015 66 10000 6.7 190 19:18 15.01.2020
4266 Clouds 10 1015 66 10000 6.2 200 18:55 15.01.2020
4267 Clouds 10 1015 66 10000 6.2 200 18:55 15.01.2020
4268 Clouds 10 1015 66 10000 6.2 200 18:55 15.01.2020
4269 Clouds 10 1014 66 10000 7.2 200 18:37 15.01.2020
4270 Clouds 10 1014 66 10000 7.2 200 18:19 15.01.2020
4271 Clouds 10 1014 61 10000 7.7 210 17:41 15.01.2020
4272 Clouds 10 1015 70 10000 5.7 200 17:23 15.01.2020
4273 Clouds 10 1014 66 10000 5.1 170 16:59 15.01.2020
4274 Clouds 10 1014 61 10000 3.6 160 16:39 15.01.2020
4275 Clouds 11 1014 61 10000 3.6 160 16:21 15.01.2020
4276 Clouds 11 1014 57 10000 3.1 170 15:43 15.01.2020
4277 Clouds 11 1013 57 10000 4.1 190 15:21 15.01.2020
4278 Clouds 11 1013 57 10000 4.1 190 15:21 15.01.2020
4279 Clouds 11 1013 57 10000 3.1 190 14:58 15.01.2020
4280 Clouds 11 1013 57 10000 3.1 190 14:39 15.01.2020
4281 Clear 12 1013 54 10000 5.1 210 14:18 15.01.2020
4282 Clear 12 1013 54 10000 5.1 210 14:18 15.01.2020
4283 Clear 11 1013 54 10000 6.2 180 13:44 15.01.2020
4284 Clouds 11 1014 57 10000 6.2 200 13:24 15.01.2020
4285 Clouds 11 1014 57 10000 7.2 190 12:57 15.01.2020
4286 Clouds 11 1014 57 10000 7.2 190 12:39 15.01.2020
4287 Clouds 11 1014 57 10000 6.7 200 12:19 15.01.2020
4288 Clouds 11 1014 61 10000 8.2 190 11:55 15.01.2020
4289 Clouds 11 1014 61 10000 5.7 190 11:36 15.01.2020
4290 Clouds 11 1014 61 10000 5.7 190 11:36 15.01.2020
4291 Clouds 10 1014 61 10000 5.7 190 11:18 15.01.2020
4292 Clouds 10 1014 61 10000 5.7 190 11:18 15.01.2020
4293 Clouds 10 1014 66 10000 6.2 180 10:41 15.01.2020
4294 Clouds 10 1014 66 10000 5.1 180 10:21 15.01.2020
4295 Clouds 9 1014 70 10000 5.1 180 09:42 15.01.2020
4296 Clouds 9 1013 66 10000 5.1 170 09:22 15.01.2020
4297 Clouds 9 1013 70 10000 5.1 170 08:46 15.01.2020
4298 Clouds 9 1013 70 10000 5.7 170 08:28 15.01.2020
4299 Clouds 9 1013 75 10000 5.1 170 07:59 15.01.2020
4300 Clouds 9 1013 75 10000 5.1 170 07:40 15.01.2020
4301 Clouds 9 1011 66 10000 9.3 200 07:21 15.01.2020
4302 Clouds 10 1013 75 10000 5.7 200 06:43 15.01.2020
4303 Clouds 10 1013 70 10000 7.7 210 05:52 15.01.2020
4304 Clouds 10 1013 61 10000 8.7 220 03:44 15.01.2020
4305 Clouds 10 1012 66 10000 8.2 220 01:50 15.01.2020
4306 Clouds 10 1010 66 10000 9.8 200 01:22 15.01.2020
4307 Clouds 10 1012 70 10000 6.2 210 00:44 15.01.2020
4308 Clouds 10 1009 66 10000 8.2 200 00:25 15.01.2020
4309 Clouds 10 1012 66 10000 7.2 220 23:47 14.01.2020
4310 Clouds 10 1009 71 10000 10.8 200 23:29 14.01.2020
4311 Clouds 10 1011 70 10000 8.2 210 22:58 14.01.2020
4312 Clouds 10 1009 71 10000 10.3 200 22:40 14.01.2020
4313 Clouds 10 1009 66 10000 8.2 210 22:19 14.01.2020
4314 Clouds 10 1010 66 10000 10.8 210 21:58 14.01.2020
4315 Clouds 10 1009 66 10000 8.2 210 21:39 14.01.2020
4316 Clouds 10 1009 66 10000 8.2 210 21:19 14.01.2020
4317 Clouds 9 1011 66 10000 8.2 210 20:56 14.01.2020
4318 Clouds 9 1009 61 10000 7.7 190 20:38 14.01.2020
4319 Clouds 9 1009 61 10000 7.7 190 20:18 14.01.2020
4320 Clouds 9 1009 61 10000 7.7 190 19:55 14.01.2020
4321 Clouds 9 1009 61 10000 8.7 190 19:37 14.01.2020
4322 Clouds 9 1009 61 10000 8.7 190 19:18 14.01.2020
4323 Clouds 9 1009 61 10000 8.7 190 19:18 14.01.2020
4324 Clouds 9 1009 61 10000 8.7 190 19:18 14.01.2020
4325 Clouds 9 1009 61 10000 8.7 180 18:41 14.01.2020
4326 Clouds 9 1009 70 10000 6.7 180 18:20 14.01.2020
4327 Clouds 9 1009 70 10000 6.7 180 17:58 14.01.2020
4328 Clouds 9 1009 70 10000 7.2 170 17:37 14.01.2020
4329 Clouds 9 1009 70 10000 7.2 170 17:18 14.01.2020
4330 Clouds 9 1009 66 10000 7.2 180 16:43 14.01.2020
4331 Clouds 10 1010 66 10000 5.7 180 16:23 14.01.2020
4332 Clouds 10 1010 66 10000 5.7 180 16:23 14.01.2020
4333 Clouds 10 1009 66 10000 7.2 180 15:58 14.01.2020
4334 Clouds 10 1009 66 10000 7.2 180 15:40 14.01.2020
4335 Clouds 10 1009 66 10000 6.7 190 15:19 14.01.2020
4336 Clouds 10 1009 66 10000 6.2 200 14:44 14.01.2020
4337 Clouds 10 1009 66 10000 7.2 200 14:21 14.01.2020
4338 Clouds 10 1009 66 10000 7.7 200 13:57 14.01.2020
4339 Clouds 9 1009 70 10000 6.7 200 13:38 14.01.2020
4340 Clouds 9 1009 70 10000 6.7 200 13:18 14.01.2020
4341 Clouds 9 1009 70 10000 6.7 200 13:18 14.01.2020
4342 Clouds 9 1009 70 10000 6.7 210 12:41 14.01.2020
4343 Clouds 9 1009 70 10000 7.7 210 12:21 14.01.2020
4344 Clouds 9 1009 70 10000 7.2 210 11:55 14.01.2020
4345 Clouds 9 1009 70 10000 7.7 200 11:36 14.01.2020
4346 Clouds 9 1009 70 10000 7.7 200 11:18 14.01.2020
4347 Clouds 9 1008 70 10000 9.3 200 10:40 14.01.2020
4348 Clouds 9 1008 70 10000 9.3 200 10:20 14.01.2020
4349 Clouds 8 1008 75 10000 7.2 170 09:58 14.01.2020
4350 Clouds 8 1008 75 10000 8.7 190 09:40 14.01.2020
4351 Clouds 8 1008 75 10000 8.7 190 09:21 14.01.2020
4352 Clouds 8 1008 75 10000 8.2 190 08:48 14.01.2020
4353 Clouds 8 1008 75 10000 7.7 180 08:26 14.01.2020
4354 Clouds 8 1008 75 10000 8.7 170 07:56 14.01.2020
4355 Clouds 8 1006 71 10000 8.7 190 07:34 14.01.2020
4356 Clouds 8 1006 71 10000 8.7 190 07:34 14.01.2020
4357 Clouds 8 1010 75 10000 8.2 200 06:57 14.01.2020
4358 Clouds 8 1006 71 10000 9.3 190 06:39 14.01.2020
4359 Clouds 8 1007 76 10000 8.7 180 05:28 14.01.2020
4360 Clouds 7 1011 81 10000 7.7 210 03:57 14.01.2020
4361 Clouds 7 1011 81 10000 8.2 190 03:35 14.01.2020
4362 Clouds 6 1012 81 10000 4.6 160 01:58 14.01.2020
4363 Clouds 6 1013 81 10000 5.7 180 00:53 14.01.2020
4364 Clouds 6 1010 75 10000 8.2 170 00:35 14.01.2020
4365 Clouds 6 1014 81 10000 5.1 190 23:56 13.01.2020
4366 Clouds 6 1011 75 10000 7.2 180 23:37 13.01.2020
4367 Clouds 6 1011 75 10000 7.2 180 23:18 13.01.2020
4368 Clouds 6 1011 75 10000 7.2 180 23:18 13.01.2020
4369 Clouds 6 1011 75 10000 8.7 180 22:43 13.01.2020
4370 Clouds 5 1015 86 10000 4.6 190 22:22 13.01.2020
4371 Clouds 5 1015 86 10000 4.6 190 21:57 13.01.2020
4372 Clouds 5 1012 75 10000 6.7 160 21:38 13.01.2020
4373 Clouds 5 1012 75 10000 6.7 160 21:19 13.01.2020
4374 Clouds 5 1016 86 10000 3.6 190 20:59 13.01.2020
4375 Clouds 5 1016 86 10000 3.6 190 20:59 13.01.2020
4376 Clouds 5 1016 86 10000 3.6 190 20:59 13.01.2020
4377 Clouds 5 1016 86 10000 3.6 190 20:41 13.01.2020
4378 Clouds 5 1014 86 10000 5.1 160 20:22 13.01.2020
4379 -273 0 0 0 0 0 20:22 13.01.2020
4380 Clouds 5 1015 86 10000 5.7 180 19:59 13.01.2020
4381 Clouds 5 1015 86 10000 5.7 180 19:40 13.01.2020
4382 Clouds 5 1016 86 10000 5.1 180 19:20 13.01.2020
4383 Clouds 5 1016 86 10000 5.1 180 19:20 13.01.2020
4384 Clouds 6 1016 93 10000 5.1 190 18:56 13.01.2020
4385 Clouds 6 1016 81 10000 6.7 190 18:37 13.01.2020
4386 Clouds 6 1016 81 10000 6.7 190 18:19 13.01.2020
4387 Clouds 6 1016 86 10000 6.2 200 17:43 13.01.2020
4388 Clouds 6 1017 87 10000 2.1 210 17:25 13.01.2020
4389 Clouds 6 1016 86 10000 5.1 190 16:57 13.01.2020
4390 Clouds 6 1018 86 0 0.89 140 16:38 13.01.2020
4391 Clouds 6 1018 86 0 1.34 152 16:20 13.01.2020
4392 Clouds 6 1018 86 0 0.89 149 15:44 13.01.2020
4393 Clouds 7 1018 86 0 0.89 156 15:24 13.01.2020
4394 Clouds 7 1000 79 0 2.24 180 14:59 13.01.2020
4395 Clouds 7 999 78 0 1.34 81 14:39 13.01.2020
4396 Clouds 7 999 78 0 1.34 81 14:39 13.01.2020
4397 Clouds 7 999 78 0 1.34 81 14:39 13.01.2020
4398 Clouds 8 1020 84 0 0.89 129 14:20 13.01.2020
4399 Clouds 7 1000 75 0 1.79 180 13:55 13.01.2020
4400 Clouds 7 1020 89 0 0.45 142 13:37 13.01.2020
4401 Clouds 7 1020 89 0 0.45 170 13:19 13.01.2020
4402 Clouds 7 1020 81 10000 6.7 190 12:43 13.01.2020
4403 Clouds 7 1020 81 10000 6.7 190 12:23 13.01.2020
4404 Clouds 6 1020 81 10000 6.7 190 11:58 13.01.2020
4405 Clouds 6 1020 86 10000 5.1 200 11:38 13.01.2020
4406 Clouds 6 1020 86 10000 5.1 200 11:19 13.01.2020
4407 Clouds 6 1020 86 10000 5.1 180 10:56 13.01.2020
4408 Clouds 5 1020 86 10000 5.1 190 10:38 13.01.2020
4409 Clouds 5 1020 86 10000 5.1 190 10:19 13.01.2020
4410 Clouds 5 1020 93 10000 5.1 190 09:44 13.01.2020
4411 Clouds 5 1020 93 10000 4.6 190 09:24 13.01.2020
4412 Clouds 5 1020 93 10000 5.1 200 08:57 13.01.2020
4413 Clouds 5 1020 93 10000 4.6 190 08:37 13.01.2020
4414 Clouds 5 1020 93 10000 4.6 190 08:18 13.01.2020
4415 Clouds 5 1020 86 10000 4.6 190 07:44 13.01.2020
4416 Clouds 5 1021 86 10000 4.1 210 07:26 13.01.2020
4417 Clouds 5 1020 87 10000 4.1 200 06:37 13.01.2020
4418 Clouds 5 1020 87 10000 4.6 200 05:42 13.01.2020
4419 Clouds 5 1021 87 10000 4.1 200 05:18 13.01.2020
4420 Clouds 5 1021 93 10000 4.6 230 03:41 13.01.2020
4421 Clouds 5 1023 93 10000 4.1 210 02:50 13.01.2020
4422 Clouds 5 1021 87 10000 5.7 230 02:30 13.01.2020
4423 Clouds 6 1021 87 10000 5.7 230 01:33 13.01.2020
4424 Clouds 6 1023 93 10000 1 160 00:46 13.01.2020
4425 Rain 6 1021 87 10000 6.7 230 00:26 13.01.2020
4426 Drizzle 6 1023 86 10000 4.6 210 23:58 12.01.2020
4427 Rain 6 1021 87 10000 7.2 240 23:40 12.01.2020
4428 Rain 5 1021 87 10000 7.2 230 23:21 12.01.2020
4429 Drizzle 5 1022 93 10000 5.7 210 22:56 12.01.2020
4430 Clouds 5 1021 86 10000 6.7 210 22:37 12.01.2020
4431 Clouds 5 1021 86 10000 6.7 210 22:18 12.01.2020
4432 Clouds 5 1021 86 10000 6.2 200 21:42 12.01.2020
4433 Clouds 5 1021 86 10000 6.2 200 21:20 12.01.2020
4434 Clouds 5 1020 86 10000 7.2 190 20:59 12.01.2020
4435 Clouds 5 1020 86 10000 7.7 200 20:40 12.01.2020
4436 Clouds 5 1020 86 10000 7.7 200 20:21 12.01.2020
4437 Clouds 5 1021 86 10000 6.2 180 19:57 12.01.2020
4438 Drizzle 4 1021 86 10000 7.2 190 19:38 12.01.2020
4439 Drizzle 4 1021 86 10000 7.2 190 19:19 12.01.2020
4440 Drizzle 4 1021 86 10000 7.2 190 19:19 12.01.2020
4441 Drizzle 4 1021 86 10000 6.2 200 18:58 12.01.2020
4442 Clouds 4 1021 86 10000 5.1 210 18:40 12.01.2020
4443 Clouds 4 1021 86 10000 5.1 210 18:22 12.01.2020
4444 Clouds 4 1021 86 10000 4.1 190 17:59 12.01.2020
4445 Clouds 4 1021 86 10000 4.1 190 17:41 12.01.2020
4446 Rain 4 1020 80 10000 6.7 190 17:19 12.01.2020
4447 Rain 4 1020 80 10000 6.7 200 16:56 12.01.2020
4448 Rain 4 1020 80 10000 6.7 200 16:56 12.01.2020
4449 Clouds 4 1020 80 10000 6.2 190 16:37 12.01.2020
4450 Clouds 4 1020 80 10000 6.2 190 16:19 12.01.2020
4451 Clouds 4 1020 82 10000 5.7 190 15:43 12.01.2020
4452 Clouds 4 1019 82 10000 6.7 200 15:24 12.01.2020
4453 Clouds 4 1020 82 10000 7.2 190 14:57 12.01.2020
4454 Clouds 4 1021 82 10000 5.7 200 14:38 12.01.2020
4455 Clouds 4 1021 79 10000 5.7 200 14:20 12.01.2020
4456 Clouds 4 1021 79 10000 6.7 190 13:54 12.01.2020
4457 Clouds 4 1021 77 10000 7.2 210 13:36 12.01.2020
4458 Clouds 4 1021 77 10000 7.2 210 13:18 12.01.2020
4459 Clouds 4 1021 74 10000 6.7 200 12:42 12.01.2020
4460 Clouds 3 1022 80 10000 6.7 200 12:20 12.01.2020
4461 Clouds 3 1022 80 10000 5.1 210 11:59 12.01.2020
4462 Clouds 3 1022 80 10000 5.1 210 11:59 12.01.2020
4463 Clouds 3 1023 80 10000 4.1 200 11:39 12.01.2020
4464 Clouds 3 1023 80 10000 4.1 200 11:20 12.01.2020
4465 Clouds 2 1023 80 10000 3.6 200 10:42 12.01.2020
4466 Clouds 2 1023 86 10000 5.1 210 10:22 12.01.2020
4467 Clouds 2 1022 86 10000 5.7 210 09:57 12.01.2020
4468 Clouds 2 1023 86 10000 3.6 210 09:39 12.01.2020
4469 Clouds 1 1023 86 10000 3.6 210 09:20 12.01.2020
4470 Clouds 1 1023 86 10000 4.1 200 08:45 12.01.2020
4471 Clouds 1 1023 94 10000 2.1 0 08:21 12.01.2020
4472 Clouds 1 1023 94 10000 1.5 140 07:42 12.01.2020
4473 Clouds 1 1023 94 10000 6.7 200 07:24 12.01.2020
4474 Clouds 1 1025 80 10000 5.1 200 06:49 12.01.2020
4475 Clouds 1 1025 86 10000 3.6 210 06:30 12.01.2020
4476 Clouds 1 1023 94 10000 4.1 190 05:37 12.01.2020
4477 Clouds 1 1026 86 10000 4.1 180 04:51 12.01.2020
4478 Clouds 1 1024 93 10000 5.1 180 03:27 12.01.2020
4479 Clouds 2 1025 93 10000 5.1 200 02:34 12.01.2020
4480 Clouds 2 1027 86 10000 4.6 160 01:55 12.01.2020
4481 Clouds 2 1025 91 10000 6.7 190 01:29 12.01.2020
4482 Clouds 2 1028 80 10000 3.6 170 00:42 12.01.2020
4483 Clouds 2 1026 91 10000 5.7 190 00:20 12.01.2020
4484 Clouds 2 1026 91 10000 6.2 190 23:42 11.01.2020
4485 Clouds 2 1028 80 10000 4.1 170 23:42 11.01.2020
4486 Clouds 2 1028 80 10000 4.1 170 23:42 11.01.2020
4487 Clouds 2 1026 90 10000 6.2 190 23:20 11.01.2020
4488 Clouds 2 1029 80 10000 4.6 190 22:59 11.01.2020
4489 Clouds 2 1027 90 10000 5.7 190 22:41 11.01.2020
4490 Clouds 3 1027 90 10000 5.7 190 22:20 11.01.2020
4491 Clouds 2 1029 80 10000 2.6 180 21:58 11.01.2020
4492 Clouds 2 1027 90 10000 6.2 190 21:40 11.01.2020
4493 Clouds 3 1027 90 10000 6.2 190 21:18 11.01.2020
4494 Clouds 3 1030 74 10000 2.6 190 20:42 11.01.2020
4495 Clouds 3 1029 74 10000 4.1 170 20:22 11.01.2020
4496 Clouds 3 1029 74 10000 4.1 170 19:59 11.01.2020
4497 Clouds 3 1029 74 10000 4.1 170 19:39 11.01.2020
4498 Clouds 3 1029 74 10000 4.1 170 19:39 11.01.2020
4499 Clouds 3 1029 74 10000 4.1 180 19:21 11.01.2020
4500 Clouds 3 1030 89 10000 3.1 190 18:59 11.01.2020
4501 Clouds 3 1029 74 10000 3.6 180 18:39 11.01.2020
4502 Clouds 3 1029 74 10000 4.6 190 18:20 11.01.2020
4503 Clouds 3 1029 74 10000 4.1 200 17:58 11.01.2020
4504 Clouds 3 1029 74 10000 4.1 200 17:58 11.01.2020
4505 Clouds 3 1029 74 10000 4.1 200 17:39 11.01.2020
4506 Clouds 4 1029 86 10000 4.6 210 17:19 11.01.2020
4507 Clouds 4 1029 86 10000 4.1 200 16:46 11.01.2020
4508 Clouds 4 1029 86 10000 5.7 210 16:27 11.01.2020
4509 Clouds 5 1029 86 10000 5.7 190 15:59 11.01.2020
4510 Clouds 5 1029 86 10000 5.7 190 15:41 11.01.2020
4511 Clouds 5 1029 86 10000 5.7 190 15:22 11.01.2020
4512 Clouds 5 1029 86 10000 5.7 190 15:22 11.01.2020
4513 Clouds 5 1030 86 10000 5.7 210 14:57 11.01.2020
4514 Clouds 6 1030 75 10000 4.6 190 14:38 11.01.2020
4515 Clouds 6 1030 75 10000 4.6 190 14:20 11.01.2020
4516 Clouds 6 1031 75 10000 4.6 190 13:41 11.01.2020
4517 Clouds 6 1031 79 10000 5.1 210 13:20 11.01.2020
4518 Clouds 5 1031 79 10000 3.6 220 12:59 11.01.2020
4519 Clouds 6 1031 79 10000 3.6 220 12:40 11.01.2020
4520 Clouds 5 1031 79 10000 3.6 220 12:21 11.01.2020
4521 Clouds 5 1032 80 10000 5.1 230 11:48 11.01.2020
4522 Clouds 5 1032 79 10000 3.6 210 11:26 11.01.2020
4523 Clouds 4 1032 89 10000 4.1 230 10:51 11.01.2020
4524 Clouds 3 1032 89 10000 2.6 200 10:30 11.01.2020
4525 Clouds 3 1032 74 10000 1.5 200 09:58 11.01.2020
4526 Clouds 3 1031 89 10000 2.1 170 09:38 11.01.2020
4527 Clouds 3 1031 89 10000 2.1 170 09:20 11.01.2020
4528 Clouds 2 1031 89 10000 2.1 220 08:42 11.01.2020
4529 Clouds 3 1031 86 10000 1.5 230 08:22 11.01.2020
4530 Clouds 2 1031 86 10000 3.1 260 07:44 11.01.2020
4531 Clouds 2 1031 93 10000 1.5 270 07:25 11.01.2020
4532 Clouds 2 1031 93 10000 1 0 06:51 11.01.2020
4533 Clouds 2 1032 95 10000 1.2 228 05:48 11.01.2020
4534 Clouds 3 1031 96 10000 2.1 220 04:47 11.01.2020
4535 Clouds 3 1030 96 10000 3.1 240 04:28 11.01.2020
4536 Clouds 4 1030 75 10000 2.1 280 02:49 11.01.2020
4537 Clouds 4 1030 100 10000 2.6 250 02:27 11.01.2020
4538 Clouds 4 1030 75 10000 1 300 01:43 11.01.2020
4539 Clouds 4 1029 93 10000 3.6 250 01:19 11.01.2020
4540 Clouds 4 1029 93 10000 4.6 250 00:40 11.01.2020
4541 Clouds 4 1028 80 10000 2.1 300 23:59 10.01.2020
4542 Clouds 4 1028 93 10000 3.1 260 23:40 10.01.2020
4543 Clouds 4 1028 93 10000 3.1 260 23:22 10.01.2020
4544 Clouds 4 1027 80 10000 1 0 22:58 10.01.2020
4545 Clouds 5 1026 93 10000 3.1 280 22:40 10.01.2020
4546 Clouds 5 1026 93 10000 3.1 280 22:20 10.01.2020
4547 Clouds 5 1026 75 10000 4.6 310 21:57 10.01.2020
4548 Clouds 5 1026 86 10000 3.1 290 21:37 10.01.2020
4549 Clouds 5 1026 86 10000 3.1 290 21:19 10.01.2020
4550 Clouds 5 1023 86 10000 7.7 320 20:43 10.01.2020
4551 Clouds 5 1023 86 10000 7.7 320 20:24 10.01.2020
4552 Clouds 5 1023 86 10000 6.2 320 19:58 10.01.2020
4553 Clouds 6 1022 93 10000 7.2 320 19:38 10.01.2020
4554 Clouds 6 1022 93 10000 7.2 320 19:19 10.01.2020
4555 Rain 6 1023 81 10000 3.6 320 18:43 10.01.2020
4556 Clouds 7 1020 93 10000 6.7 300 18:19 10.01.2020
4557 Clouds 7 1020 93 10000 6.7 290 17:57 10.01.2020
4558 Clouds 7 1020 93 10000 6.7 290 17:57 10.01.2020
4559 Clouds 7 1019 87 10000 5.1 290 17:39 10.01.2020
4560 Clouds 7 1019 87 10000 5.1 290 17:20 10.01.2020
4561 Rain 7 1018 87 10000 6.7 290 16:57 10.01.2020
4562 Clouds 7 1017 93 10000 4.1 280 16:38 10.01.2020
4563 Clouds 7 1017 93 10000 4.1 280 16:19 10.01.2020
4564 Rain 8 1017 93 6000 4.6 300 15:56 10.01.2020
4565 Rain 8 1016 93 10000 5.1 280 15:37 10.01.2020
4566 Rain 8 1016 93 10000 5.1 280 15:18 10.01.2020
4567 Rain 8 1016 93 10000 4.6 290 14:55 10.01.2020
4568 Rain 8 1016 87 7000 7.2 290 14:37 10.01.2020
4569 Rain 8 1016 87 7000 7.2 290 14:18 10.01.2020
4570 Clouds 9 1015 81 10000 4.6 220 13:43 10.01.2020
4571 Rain 9 1015 76 10000 5.7 220 13:25 10.01.2020
4572 Rain 9 1015 81 10000 5.7 200 12:58 10.01.2020
4573 Rain 9 1015 81 10000 5.7 200 12:39 10.01.2020
4574 Rain 9 1015 81 10000 5.7 200 12:39 10.01.2020
4575 Clouds 8 1016 81 10000 6.7 210 12:19 10.01.2020
4576 Rain 9 1015 76 10000 5.1 200 11:55 10.01.2020
4577 Rain 8 1015 76 10000 4.1 200 11:37 10.01.2020
4578 Rain 8 1015 76 10000 4.1 200 11:18 10.01.2020
4579 Rain 8 1015 87 10000 3.6 170 10:57 10.01.2020
4580 Clouds 8 1014 93 10000 2.1 170 10:36 10.01.2020
4581 Clouds 8 1014 93 10000 2.1 170 10:18 10.01.2020
4582 Clouds 8 1014 81 10000 2.1 160 09:42 10.01.2020
4583 Clouds 8 1014 87 10000 2.6 210 09:23 10.01.2020
4584 Clouds 8 1014 81 10000 2.6 190 08:43 10.01.2020
4585 Clouds 8 1014 87 10000 6.2 220 08:24 10.01.2020
4586 Rain 8 1013 87 10000 7.2 250 07:47 10.01.2020
4587 Clouds 8 1012 81 10000 7.2 220 07:28 10.01.2020
4588 Clouds 8 1013 87 10000 5.7 210 06:55 10.01.2020
4589 Clouds 9 1011 87 10000 5.7 210 06:27 10.01.2020
4590 Clouds 9 1013 93 10000 5.1 190 05:52 10.01.2020
4591 Rain 9 1012 87 10000 6.7 200 03:47 10.01.2020
4592 Rain 9 1010 87 10000 6.7 210 03:28 10.01.2020
4593 Clouds 9 1012 87 10000 5.1 190 02:51 10.01.2020
4594 Clouds 9 1011 93 10000 5.7 190 01:52 10.01.2020
4595 Clouds 10 1010 81 10000 7.2 200 01:28 10.01.2020
4596 Drizzle 10 1011 93 10000 5.7 190 00:47 10.01.2020
4597 Clouds 10 1010 81 10000 6.2 210 00:29 10.01.2020
4598 Clouds 10 1010 81 10000 6.7 200 23:39 09.01.2020
4599 Clouds 10 1010 81 10000 6.7 200 23:39 09.01.2020
4600 Clouds 10 1010 81 10000 6.7 200 23:39 09.01.2020
4601 Clouds 10 1010 81 10000 6.7 200 23:39 09.01.2020
4602 Clouds 10 1010 81 10000 6.7 200 23:39 09.01.2020
4603 Clouds 10 1010 81 10000 6.7 200 23:20 09.01.2020
4604 Clouds 10 1011 87 10000 3.1 170 22:58 09.01.2020
4605 Rain 10 1011 93 10000 2.1 180 22:39 09.01.2020
4606 Rain 10 1011 93 10000 2.1 180 22:19 09.01.2020
4607 Rain 10 1011 93 10000 2.1 180 21:57 09.01.2020
4608 Rain 10 1011 93 10000 2.1 180 21:38 09.01.2020
4609 Clouds 10 1011 93 10000 4.1 180 21:20 09.01.2020
4610 Clouds 10 1011 93 10000 6.2 190 20:58 09.01.2020
4611 Clouds 10 1011 93 10000 6.2 190 20:39 09.01.2020
4612 Clouds 10 1011 93 10000 4.6 170 20:20 09.01.2020
4613 Clouds 10 1011 93 10000 4.6 170 19:58 09.01.2020
4614 Clouds 10 1011 87 10000 5.1 180 19:38 09.01.2020
4615 Clouds 10 1011 87 10000 5.1 190 19:19 09.01.2020
4616 Clouds 10 1011 87 10000 5.1 190 18:55 09.01.2020
4617 Clouds 10 1011 87 10000 6.7 180 18:37 09.01.2020
4618 Clouds 10 1012 87 10000 4.6 170 18:19 09.01.2020
4619 Rain 10 1012 93 10000 5.1 160 17:41 09.01.2020
4620 Rain 10 1012 93 10000 5.1 160 17:41 09.01.2020
4621 Rain 10 1012 93 10000 6.2 180 17:18 09.01.2020
4622 Rain 10 1012 100 10000 4.6 170 16:55 09.01.2020
4623 Rain 10 1012 100 10000 4.6 170 16:36 09.01.2020
4624 Rain 10 1013 93 10000 3.6 190 16:18 09.01.2020
4625 Rain 10 1013 100 10000 3.6 160 15:41 09.01.2020
4626 Rain 10 1013 93 10000 3.6 150 15:19 09.01.2020
4627 Rain 10 1013 93 10000 4.1 170 14:44 09.01.2020
4628 Rain 10 1013 87 10000 5.1 190 14:22 09.01.2020
4629 Rain 10 1013 87 10000 5.1 190 13:58 09.01.2020
4630 Rain 10 1013 87 10000 5.1 190 13:58 09.01.2020
4631 Rain 10 1014 93 10000 5.1 200 13:39 09.01.2020
4632 Rain 10 1014 93 10000 5.7 200 13:21 09.01.2020
4633 Rain 10 1014 93 10000 5.7 200 12:59 09.01.2020
4634 Rain 10 1015 93 9000 6.2 190 12:40 09.01.2020
4635 Rain 10 1015 93 10000 7.7 190 12:22 09.01.2020
4636 Rain 9 1015 93 10000 7.7 190 11:57 09.01.2020
4637 Clouds 9 1015 93 10000 6.7 190 11:38 09.01.2020
4638 Rain 9 1016 100 10000 6.2 180 11:20 09.01.2020
4639 Rain 9 1016 93 10000 5.1 190 10:44 09.01.2020
4640 Rain 9 1016 93 10000 6.7 180 10:22 09.01.2020
4641 Rain 9 1016 93 10000 6.7 180 09:58 09.01.2020
4642 Clouds 9 1017 93 10000 6.2 180 09:38 09.01.2020
4643 Rain 9 1017 93 10000 4.6 200 09:19 09.01.2020
4644 Rain 8 1017 93 10000 4.6 200 08:55 09.01.2020
4645 Rain 8 1017 93 10000 4.1 170 08:37 09.01.2020
4646 Rain 8 1017 93 10000 3.6 150 08:19 09.01.2020
4647 Rain 8 1018 93 10000 4.1 170 07:42 09.01.2020
4648 Clouds 8 1017 93 10000 3.1 130 07:23 09.01.2020
4649 Rain 8 1019 93 10000 4.6 170 06:39 09.01.2020
4650 Clouds 8 1018 93 10000 3.1 140 06:20 09.01.2020
4651 Rain 8 1020 93 10000 4.1 190 05:48 09.01.2020
4652 Rain 7 1021 100 7000 5.1 190 04:43 09.01.2020
4653 Rain 7 1020 87 10000 3.1 160 03:31 09.01.2020
4654 Rain 7 1021 87 10000 3.1 140 02:53 09.01.2020
4655 Rain 7 1021 93 10000 3.6 180 02:24 09.01.2020
4656 Rain 7 1023 93 5000 3.1 210 01:39 09.01.2020
4657 Rain 7 1024 93 5000 2.6 200 00:43 09.01.2020
4658 Rain 7 1022 87 10000 3.6 180 00:21 09.01.2020
4659 Rain 7 1022 87 10000 3.6 180 00:21 09.01.2020
4660 Rain 7 1024 100 4000 3.1 200 23:42 08.01.2020
4661 Clouds 7 1023 87 10000 4.6 200 23:24 08.01.2020
4662 Clouds 7 1023 87 10000 4.6 200 22:59 08.01.2020
4663 Mist 7 1025 93 4500 2.6 190 22:39 08.01.2020
4664 Clouds 7 1023 93 10000 4.6 200 22:20 08.01.2020
4665 Clouds 7 1023 93 10000 4.6 200 21:57 08.01.2020
4666 Mist 7 1025 93 5000 3.6 200 21:38 08.01.2020
4667 Clouds 7 1023 87 10000 4.1 220 21:19 08.01.2020
4668 Clouds 7 1023 87 10000 4.1 220 20:57 08.01.2020
4669 Drizzle 7 1025 93 5000 3.6 190 20:38 08.01.2020
4670 Clouds 7 1024 93 9000 1 0 20:20 08.01.2020
4671 Clouds 7 1024 93 8000 2.1 190 19:56 08.01.2020
4672 Clouds 7 1024 93 9000 1 0 19:56 08.01.2020
4673 Clouds 7 1024 93 8000 2.1 190 19:36 08.01.2020
4674 Clouds 7 1024 93 8000 2.1 190 19:36 08.01.2020
4675 Clouds 7 1024 93 10000 1 0 19:18 08.01.2020
4676 Clouds 6 1024 93 10000 1 0 18:55 08.01.2020
4677 Clouds 6 1024 93 10000 1 0 18:55 08.01.2020
4678 Clouds 6 1024 93 10000 1 0 18:55 08.01.2020
4679 Clouds 6 1024 93 10000 1 0 18:36 08.01.2020
4680 Clouds 6 1024 93 8000 1.5 190 18:18 08.01.2020
4681 Clouds 6 1023 93 8000 3.1 190 17:45 08.01.2020
4682 Clouds 6 1023 93 8000 3.6 180 17:24 08.01.2020
4683 Clouds 6 1023 93 8000 3.6 180 16:57 08.01.2020
4684 Clouds 6 1023 93 8000 4.1 180 16:39 08.01.2020
4685 Clouds 6 1023 93 10000 3.6 190 16:19 08.01.2020
4686 Clouds 6 1023 93 10000 3.6 190 15:57 08.01.2020
4687 Clouds 7 1023 87 10000 3.1 200 15:39 08.01.2020
4688 Clouds 7 1023 87 10000 4.1 180 15:18 08.01.2020
4689 Clouds 6 1023 93 10000 3.6 190 14:55 08.01.2020
4690 Clouds 6 1023 93 10000 3.6 190 14:36 08.01.2020
4691 Clouds 6 1023 93 10000 2.1 160 14:18 08.01.2020
4692 Clouds 6 1023 93 10000 2.6 190 13:38 08.01.2020
4693 Clouds 6 1023 87 10000 3.6 190 13:18 08.01.2020
4694 Clouds 6 1024 87 10000 3.6 200 12:41 08.01.2020
4695 Clouds 6 1024 87 10000 2.1 180 12:18 08.01.2020
4696 Clouds 6 1024 87 10000 2.1 180 11:55 08.01.2020
4697 Clouds 6 1024 87 10000 3.6 180 11:36 08.01.2020
4698 Clouds 6 1025 93 8000 3.1 200 11:18 08.01.2020
4699 Clouds 5 1024 93 10000 4.1 180 10:41 08.01.2020
4700 -273 0 0 0 0 0 10:22 08.01.2020
4701 Clouds 5 1024 87 10000 2.6 200 09:58 08.01.2020
4702 Clouds 5 1023 87 10000 2.6 200 09:38 08.01.2020
4703 Clouds 5 1023 93 10000 2.6 200 09:18 08.01.2020
4704 Clouds 5 1023 93 10000 5.1 200 08:42 08.01.2020
4705 Clouds 5 1023 93 10000 5.1 200 08:24 08.01.2020
4706 Rain 5 1023 93 10000 4.1 200 07:59 08.01.2020
4707 Rain 5 1023 86 10000 3.1 180 07:41 08.01.2020
4708 Drizzle 5 1022 87 10000 5.7 210 07:23 08.01.2020
4709 Rain 5 1025 80 10000 2.6 250 06:44 08.01.2020
4710 Drizzle 5 1022 75 10000 6.2 200 05:57 08.01.2020
4711 Clouds 5 1022 70 10000 5.7 200 05:27 08.01.2020
4712 Clouds 5 1025 86 10000 5.1 200 04:39 08.01.2020
4713 Clouds 5 1025 80 10000 4.6 200 03:31 08.01.2020
4714 Clouds 5 1026 86 10000 6.2 210 02:36 08.01.2020
4715 Clouds 5 1023 65 10000 5.1 170 02:18 08.01.2020
4716 Clouds 5 1023 65 10000 5.1 170 02:18 08.01.2020
4717 Clouds 5 1026 86 10000 4.1 200 01:39 08.01.2020
4718 Clouds 5 1023 70 10000 6.2 180 00:53 08.01.2020
4719 Clouds 5 1025 81 10000 3.1 220 00:26 08.01.2020
4720 Clouds 5 1027 86 10000 3.6 220 23:46 07.01.2020
4721 Clouds 5 1025 65 10000 3.1 270 23:22 07.01.2020
4722 Clouds 5 1025 65 10000 3.1 270 22:58 07.01.2020
4723 Clouds 5 1027 93 10000 3.1 190 22:38 07.01.2020
4724 Clouds 4 1024 75 10000 7.7 180 22:19 07.01.2020
4725 Clouds 4 1024 75 10000 7.7 180 22:19 07.01.2020
4726 Clouds 4 1027 93 10000 3.1 190 21:42 07.01.2020
4727 Clouds 4 1025 75 10000 7.2 180 21:23 07.01.2020
4728 Clouds 4 1025 75 10000 7.2 180 20:59 07.01.2020
4729 Clouds 4 1027 93 10000 3.6 170 20:41 07.01.2020
4730 Clouds 4 1027 86 10000 4.1 170 20:22 07.01.2020
4731 Clouds 4 1027 86 10000 4.1 170 19:58 07.01.2020
4732 Clouds 4 1027 93 10000 4.1 180 19:38 07.01.2020
4733 Clouds 4 1028 93 10000 2.6 190 19:19 07.01.2020
4734 Clouds 4 1028 93 10000 2.6 190 18:56 07.01.2020
4735 Clouds 5 1027 86 10000 4.1 170 18:38 07.01.2020
4736 Clouds 5 1028 93 10000 3.6 180 18:18 07.01.2020
4737 Clouds 5 1028 93 10000 3.6 180 17:56 07.01.2020
4738 Clouds 5 1028 93 10000 2.6 180 17:37 07.01.2020
4739 Clouds 5 1028 86 10000 2.1 210 17:18 07.01.2020
4740 Clouds 5 1027 80 10000 2.6 200 16:55 07.01.2020
4741 Clouds 5 1027 80 10000 2.6 200 16:37 07.01.2020
4742 Clouds 5 1028 86 9000 5.7 210 16:18 07.01.2020
4743 Clouds 6 1027 81 10000 3.1 230 15:43 07.01.2020
4744 Clouds 6 1027 81 10000 3.1 230 15:24 07.01.2020
4745 Clouds 5 1027 86 10000 3.6 230 14:58 07.01.2020
4746 Clouds 6 1027 86 10000 3.6 230 14:40 07.01.2020
4747 Clouds 5 1027 86 10000 3.6 230 14:20 07.01.2020
4748 Clouds 5 1027 86 10000 2.1 180 13:46 07.01.2020
4749 Clouds 5 1026 93 9000 2.6 180 13:21 07.01.2020
4750 Clouds 5 1026 93 9000 2.6 180 12:56 07.01.2020
4751 Clouds 5 1027 93 9000 1.5 140 12:37 07.01.2020
4752 Clouds 4 1027 93 7000 1.5 120 12:19 07.01.2020
4753 Clouds 4 1027 86 10000 2.6 230 11:41 07.01.2020
4754 Clouds 4 1027 86 10000 2.6 230 11:41 07.01.2020
4755 Clouds 4 1026 93 10000 3.1 230 11:23 07.01.2020
4756 Clouds 3 1026 93 10000 3.1 230 10:57 07.01.2020
4757 Clouds 3 1026 93 10000 3.1 230 10:57 07.01.2020
4758 Clouds 3 1026 100 10000 1 0 10:39 07.01.2020
4759 Drizzle 3 1026 100 8000 1 0 10:20 07.01.2020
4760 Clouds 3 1025 100 7000 1.5 140 09:39 07.01.2020
4761 Drizzle 2 1025 100 7000 1.5 160 09:21 07.01.2020
4762 Drizzle 2 1025 100 7000 1.5 160 08:57 07.01.2020
4763 Drizzle 2 1024 100 7000 1.5 150 08:38 07.01.2020
4764 Drizzle 2 1024 100 7000 1.5 150 08:18 07.01.2020
4765 Drizzle 2 1023 100 4000 1 0 07:42 07.01.2020
4766 Drizzle 2 1023 100 5000 5.1 250 07:18 07.01.2020
4767 Clouds 2 1024 92 8000 2.6 170 06:36 07.01.2020
4768 Drizzle 2 1022 93 3900 4.1 240 05:59 07.01.2020
4769 Clouds 2 1023 92 8000 3.1 200 05:40 07.01.2020
4770 Clouds 1 1023 86 10000 3.6 210 03:46 07.01.2020
4771 Clouds 1 1021 80 10000 6.7 240 03:24 07.01.2020
4772 Clouds 1 1021 89 10000 5.1 220 02:18 07.01.2020
4773 Clouds 1 1023 86 10000 3.6 240 01:40 07.01.2020
4774 Clouds 0 1021 69 10000 4.6 230 00:57 07.01.2020
4775 Clouds 1 1019 56 10000 3.6 160 00:21 07.01.2020
4776 Clouds 0 1022 90 9000 3.6 200 23:57 06.01.2020
4777 Clouds 0 1022 90 9000 3.6 200 23:37 06.01.2020
4778 Clouds 0 1023 89 9000 4.1 210 23:19 06.01.2020
4779 Clouds 0 1023 89 9000 4.1 210 22:43 06.01.2020
4780 Clouds 0 1023 89 9000 4.1 190 22:24 06.01.2020
4781 Clouds 0 1023 89 9000 4.1 190 21:58 06.01.2020
4782 Clouds 0 1023 89 9000 4.1 190 21:58 06.01.2020
4783 Clouds 0 1023 89 9000 4.1 190 21:39 06.01.2020
4784 Clouds 0 1023 89 9000 3.6 190 21:20 06.01.2020
4785 Clouds 0 1023 89 9000 3.6 190 21:20 06.01.2020
4786 Clouds 0 1023 89 9000 3.6 190 21:20 06.01.2020
4787 Clouds 0 1023 89 9000 3.6 190 20:57 06.01.2020
4788 Clouds 0 1023 89 9000 3.6 190 20:39 06.01.2020
4789 Clear 1 1022 92 10000 4.1 170 20:20 06.01.2020
4790 Clear 1 1022 92 10000 4.1 170 20:20 06.01.2020
4791 Clear 1 1022 93 10000 4.1 170 19:57 06.01.2020
4792 Clear 1 1022 93 10000 2.1 140 19:38 06.01.2020
4793 Clear 1 1023 86 10000 2.1 170 19:20 06.01.2020
4794 Clear 1 1022 93 10000 1 0 18:48 06.01.2020
4795 Clear 1 1023 86 10000 2.1 160 18:23 06.01.2020
4796 Clear 1 1023 86 10000 2.1 160 17:59 06.01.2020
4797 Clear 2 1023 93 10000 2.1 160 17:38 06.01.2020
4798 Clouds 2 1024 92 10000 3.1 180 17:18 06.01.2020
4799 Clouds 3 1024 92 10000 3.1 200 16:46 06.01.2020
4800 Clouds 3 1024 92 10000 3.1 200 16:46 06.01.2020
4801 Clouds 3 1025 80 10000 3.1 230 16:27 06.01.2020
4802 Clouds 4 1024 80 10000 3.6 180 15:59 06.01.2020
4803 Clouds 4 1024 80 10000 2.6 180 15:39 06.01.2020
4804 Clouds 5 1025 92 10000 4.1 210 15:19 06.01.2020
4805 Clouds 5 1025 92 10000 4.1 210 14:57 06.01.2020
4806 Clouds 5 1025 92 10000 3.6 200 14:39 06.01.2020
4807 Clouds 5 1025 79 10000 2.6 210 14:19 06.01.2020
4808 Clouds 5 1025 79 10000 2.6 210 13:54 06.01.2020
4809 Clouds 5 1026 69 10000 4.6 220 13:36 06.01.2020
4810 Clouds 5 1027 69 10000 4.6 220 13:18 06.01.2020
4811 Clouds 5 1027 69 10000 3.6 200 12:41 06.01.2020
4812 Clouds 4 1027 80 10000 3.1 220 12:20 06.01.2020
4813 Clouds 4 1027 80 10000 3.1 220 11:57 06.01.2020
4814 Clouds 4 1028 80 10000 2.6 220 11:38 06.01.2020
4815 Clouds 4 1028 80 10000 2.6 220 11:38 06.01.2020
4816 Clouds 4 1028 85 10000 3.1 220 11:20 06.01.2020
4817 Clouds 4 1028 85 10000 3.1 220 11:20 06.01.2020
4818 Clouds 4 1028 85 10000 3.1 220 10:43 06.01.2020
4819 Clouds 4 1028 85 10000 3.1 210 10:21 06.01.2020
4820 Clouds 4 1028 85 10000 3.1 210 09:42 06.01.2020
4821 Clouds 4 1028 85 10000 3.1 210 09:24 06.01.2020
4822 Clouds 4 1029 85 10000 4.1 200 08:58 06.01.2020
4823 Clouds 4 1029 85 10000 3.6 220 08:39 06.01.2020
4824 Clouds 4 1029 85 10000 3.1 210 08:21 06.01.2020
4825 Clouds 3 1029 87 10000 3.1 210 07:46 06.01.2020
4826 Clouds 4 1029 75 10000 4.1 190 07:21 06.01.2020
4827 Clouds 4 1030 86 10000 1.5 230 06:38 06.01.2020
4828 Clouds 4 1030 87 10000 2.6 220 05:49 06.01.2020
4829 Clouds 4 1029 75 10000 4.1 210 05:28 06.01.2020
4830 Clouds 4 1030 75 10000 4.1 230 04:24 06.01.2020
4831 Clouds 4 1031 85 10000 3.6 220 03:51 06.01.2020
4832 Clouds 4 1030 75 10000 4.6 230 02:29 06.01.2020
4833 Clouds 4 1032 86 7000 2.1 250 01:54 06.01.2020
4834 Clouds 4 1031 75 10000 4.6 230 01:31 06.01.2020
4835 Clouds 4 1032 93 7000 2.6 210 00:48 06.01.2020
4836 Clouds 4 1031 75 10000 4.6 210 00:29 06.01.2020
4837 Clouds 4 1031 75 10000 4.1 210 23:58 05.01.2020
4838 Clouds 4 1032 93 7000 2.6 210 23:39 05.01.2020
4839 Clouds 4 1032 93 10000 3.1 210 23:21 05.01.2020
4840 Clouds 4 1032 93 10000 3.1 210 22:40 05.01.2020
4841 Clouds 4 1032 44 10000 2.6 210 22:21 05.01.2020
4842 Clouds 4 1032 44 10000 2.6 210 21:58 05.01.2020
4843 Rain 4 1032 86 10000 3.1 210 21:40 05.01.2020
4844 Clouds 4 1032 86 10000 3.1 220 21:20 05.01.2020
4845 Clouds 4 1032 86 10000 3.1 220 20:58 05.01.2020
4846 Drizzle 4 1033 100 6000 4.1 190 20:39 05.01.2020
4847 Drizzle 4 1033 100 6000 4.1 190 20:39 05.01.2020
4848 Clouds 4 1033 93 10000 3.1 220 20:19 05.01.2020
4849 Clouds 4 1033 93 10000 3.1 220 19:58 05.01.2020
4850 Clouds 4 1033 93 10000 3.6 220 19:39 05.01.2020
4851 Clouds 4 1033 93 10000 3.6 230 19:20 05.01.2020
4852 Clouds 4 1033 93 10000 3.6 230 18:55 05.01.2020
4853 Clouds 4 1033 93 10000 3.1 220 18:37 05.01.2020
4854 Clouds 4 1033 93 10000 3.1 220 18:19 05.01.2020
4855 Clouds 4 1033 93 10000 3.1 220 18:19 05.01.2020
4856 Clouds 4 1033 93 10000 3.1 220 17:57 05.01.2020
4857 Clouds 4 1033 93 10000 2.1 230 17:38 05.01.2020
4858 Clouds 4 1033 93 10000 2.1 230 17:38 05.01.2020
4859 Clouds 4 1033 93 10000 2.1 230 17:38 05.01.2020
4860 Clouds 4 1033 93 10000 3.6 230 17:19 05.01.2020
4861 Clouds 4 1033 100 10000 1 0 16:56 05.01.2020
4862 Clouds 4 1033 100 10000 1 0 16:38 05.01.2020
4863 Clouds 4 1033 100 10000 1 0 16:19 05.01.2020
4864 Clouds 4 1033 100 10000 1 0 16:19 05.01.2020
4865 Clouds 4 1033 100 10000 1 0 16:19 05.01.2020
4866 Fog 4 1033 100 10000 1.5 190 15:38 05.01.2020
4867 Fog 4 1033 100 10000 1.5 190 15:38 05.01.2020
4868 Clouds 4 1033 93 8000 2.6 140 15:20 05.01.2020
4869 Clouds 4 1033 93 8000 2.6 140 14:55 05.01.2020
4870 Drizzle 4 1033 93 9000 2.1 100 14:37 05.01.2020
4871 Drizzle 4 1033 93 9000 2.1 100 14:37 05.01.2020
4872 Clouds 4 1033 93 7000 1.5 130 14:19 05.01.2020
4873 Clouds 4 1033 93 7000 1.5 130 13:55 05.01.2020
4874 Drizzle 3 1034 100 7000 1.5 150 13:37 05.01.2020
4875 Drizzle 3 1034 100 3600 2.1 160 13:18 05.01.2020
4876 Drizzle 3 1034 100 3600 2.1 160 13:18 05.01.2020
4877 Drizzle 3 1034 100 3600 2.1 160 13:18 05.01.2020
4878 Drizzle 3 1034 100 3600 2.1 160 12:55 05.01.2020
4879 Drizzle 3 1034 100 3600 3.1 170 12:37 05.01.2020
4880 Mist 3 1034 100 4200 2.6 160 12:18 05.01.2020
4881 Drizzle 3 1035 93 4400 1.5 160 11:43 05.01.2020
4882 Drizzle 3 1035 93 4400 1.5 160 11:43 05.01.2020
4883 Drizzle 3 1035 93 4400 1.5 160 11:43 05.01.2020
4884 Drizzle 3 1035 93 4400 1.5 160 11:43 05.01.2020
4885 Drizzle 3 1035 93 4400 1.5 160 11:43 05.01.2020
4886 Clouds 3 1034 100 7000 1.5 140 11:19 05.01.2020
4887 Clouds 2 1034 100 7000 1.5 140 10:58 05.01.2020
4888 Fog 2 1034 91 10000 1.5 150 10:39 05.01.2020
4889 Fog 2 1034 91 10000 1.5 150 10:39 05.01.2020
4890 Fog 2 1034 91 10000 1.5 150 10:39 05.01.2020
4891 Fog 2 1034 91 10000 1.5 150 10:39 05.01.2020
4892 Fog 2 1034 91 10000 1.5 150 10:39 05.01.2020
4893 Clouds 1 1034 91 10000 1 0 10:19 05.01.2020
4894 Clouds 2 1034 91 10000 1 130 09:42 05.01.2020
4895 Clouds 1 1034 91 10000 1.5 150 09:22 05.01.2020
4896 Clouds 1 1034 86 10000 2.6 240 08:50 05.01.2020
4897 Clouds 0 1034 86 10000 2.6 240 08:30 05.01.2020
4898 Clouds 0 1033 86 10000 3.1 240 07:56 05.01.2020
4899 Clouds 0 1033 93 10000 3.6 230 07:37 05.01.2020
4900 Clouds 0 1033 93 10000 2.1 210 07:19 05.01.2020
4901 Clouds 1 1033 93 10000 2.6 170 05:59 05.01.2020
4902 Clouds 1 1034 93 10000 1 280 05:32 05.01.2020
4903 Clouds 1 1034 100 10000 1 290 04:43 05.01.2020
4904 Clouds 1 1034 100 10000 1 290 04:43 05.01.2020
4905 Clouds 1 1033 86 10000 1 220 04:18 05.01.2020
4906 Clouds 1 1033 86 10000 1 220 04:18 05.01.2020
4907 Clouds 2 1033 93 10000 1.5 300 02:46 05.01.2020
4908 Clouds 2 1033 86 10000 3.1 280 02:24 05.01.2020
4909 Clouds 2 1032 93 10000 2.6 270 01:48 05.01.2020
4910 Clouds 2 1032 93 10000 2.1 280 01:18 05.01.2020
4911 Clouds 2 1032 100 10000 0.5 290 00:41 05.01.2020
4912 Rain 2 1032 93 10000 1.5 270 00:23 05.01.2020
4913 Clouds 2 1032 93 10000 1.5 280 23:59 04.01.2020
4914 Clouds 2 1032 93 10000 1.5 280 23:59 04.01.2020
4915 Clouds 2 1031 100 10000 1 0 23:39 04.01.2020
4916 Clouds 3 1031 93 10000 2.6 290 23:19 04.01.2020
4917 Clouds 3 1031 86 10000 0.5 320 22:40 04.01.2020
4918 Clouds 3 1031 86 10000 0.5 320 22:40 04.01.2020
4919 Clouds 3 1030 93 10000 3.1 300 22:21 04.01.2020
4920 Clouds 3 1030 93 10000 3.1 300 21:57 04.01.2020
4921 Clouds 3 1030 93 10000 3.1 300 21:57 04.01.2020
4922 Clouds 3 1030 80 10000 3.6 310 21:39 04.01.2020
4923 Clouds 4 1029 100 10000 2.6 300 21:20 04.01.2020
4924 Clouds 4 1029 100 10000 2.6 300 21:20 04.01.2020
4925 Clouds 4 1029 100 10000 2.6 300 20:58 04.01.2020
4926 Rain 4 1029 93 10000 3.1 360 20:39 04.01.2020
4927 Rain 4 1029 93 10000 3.1 360 20:39 04.01.2020
4928 Clouds 4 1028 86 10000 4.6 330 20:21 04.01.2020
4929 Clouds 4 1028 86 10000 4.6 330 19:56 04.01.2020
4930 Clouds 4 1027 87 10000 4.1 280 19:37 04.01.2020
4931 Rain 4 1025 93 9000 9.3 300 19:18 04.01.2020
4932 Rain 5 1025 93 9000 9.3 300 18:54 04.01.2020
4933 Rain 4 1025 93 9000 9.3 300 18:36 04.01.2020
4934 Rain 5 1025 93 8000 9.8 290 18:18 04.01.2020
4935 Clouds 5 1024 93 10000 10.8 290 17:40 04.01.2020
4936 Clouds 5 1024 86 10000 9.3 290 17:22 04.01.2020
4937 Clouds 5 1024 93 9000 9.3 290 16:55 04.01.2020
4938 Clouds 5 1024 93 9000 9.3 290 16:36 04.01.2020
4939 Clouds 5 1024 93 8000 8.7 290 16:18 04.01.2020
4940 Rain 5 1024 86 7000 9.3 290 15:42 04.01.2020
4941 Clouds 5 1024 86 10000 8.7 290 15:20 04.01.2020
4942 Clouds 5 1024 86 10000 8.7 290 15:20 04.01.2020
4943 Clouds 5 1024 86 10000 8.7 290 14:58 04.01.2020
4944 Clouds 5 1024 86 10000 8.7 290 14:58 04.01.2020
4945 Clouds 5 1024 86 10000 9.8 290 14:40 04.01.2020
4946 Rain 5 1023 86 9000 9.3 280 14:20 04.01.2020
4947 Rain 5 1023 86 9000 9.3 280 13:58 04.01.2020
4948 Rain 5 1024 86 9000 8.7 280 13:37 04.01.2020
4949 Clouds 5 1024 86 10000 7.7 270 13:19 04.01.2020
4950 Rain 5 1024 80 6000 8.2 270 12:42 04.01.2020
4951 Clouds 5 1024 80 10000 8.2 290 12:20 04.01.2020
4952 Clouds 5 1024 80 10000 8.2 290 12:20 04.01.2020
4953 Clouds 5 1024 80 10000 8.2 290 11:59 04.01.2020
4954 Clouds 5 1024 75 10000 6.2 280 11:41 04.01.2020
4955 Clouds 5 1025 75 10000 7.7 270 11:20 04.01.2020
4956 Clouds 4 1025 75 10000 7.7 270 10:59 04.01.2020
4957 Clouds 4 1025 75 10000 6.2 270 10:38 04.01.2020
4958 Clouds 4 1025 80 10000 6.2 270 10:19 04.01.2020
4959 Clouds 4 1025 80 10000 6.7 270 09:43 04.01.2020
4960 Clouds 4 1025 80 10000 6.7 270 09:43 04.01.2020
4961 Clouds 4 1025 80 10000 6.7 270 09:25 04.01.2020
4962 Clouds 3 1025 80 10000 5.1 270 08:47 04.01.2020
4963 Clouds 3 1025 80 10000 5.1 270 08:28 04.01.2020
4964 Clouds 3 1025 80 10000 5.7 270 07:52 04.01.2020
4965 Clouds 3 1025 80 10000 5.7 270 07:52 04.01.2020
4966 Clouds 3 1025 80 10000 5.7 270 07:33 04.01.2020
4967 Clouds 3 1025 86 10000 4.1 260 06:43 04.01.2020
4968 Clouds 3 1026 87 10000 0.5 0 05:52 04.01.2020
4969 Clouds 3 1026 86 10000 4.1 260 04:48 04.01.2020
4970 Clouds 3 1026 86 10000 4.1 260 04:28 04.01.2020
4971 Clouds 3 1026 93 10000 4.1 250 03:20 04.01.2020
4972 Clouds 4 1026 80 10000 3.6 310 02:38 04.01.2020
4973 Clouds 4 1026 86 10000 3.6 260 02:18 04.01.2020
4974 Clouds 4 1025 86 10000 1.5 290 01:32 04.01.2020
4975 Clouds 4 1025 86 10000 1.5 290 01:32 04.01.2020
4976 Clouds 4 1025 86 10000 1.5 290 01:32 04.01.2020
4977 Clouds 4 1025 93 10000 3.6 270 00:58 04.01.2020
4978 Clouds 4 1025 86 10000 4.1 270 00:29 04.01.2020
4979 Drizzle 5 1024 93 10000 2.6 320 23:53 03.01.2020
4980 Clouds 5 1024 93 10000 4.6 280 23:28 03.01.2020
4981 Clouds 6 1022 81 10000 5.7 320 22:55 03.01.2020
4982 Clouds 6 1022 81 10000 5.7 320 22:37 03.01.2020
4983 Clouds 6 1023 93 10000 4.6 290 22:18 03.01.2020
4984 Clouds 6 1023 93 10000 4.6 290 21:56 03.01.2020
4985 Rain 7 1020 93 9000 3.6 290 21:37 03.01.2020
4986 Clouds 7 1020 93 10000 6.2 310 21:18 03.01.2020
4987 Clouds 7 1020 93 10000 6.2 310 20:54 03.01.2020
4988 Rain 7 1019 93 9000 1.5 0 20:36 03.01.2020
4989 Rain 7 1017 93 6000 5.1 250 20:18 03.01.2020
4990 Rain 7 1017 93 5000 4.6 240 19:41 03.01.2020
4991 Rain 7 1016 87 7000 6.2 230 19:23 03.01.2020
4992 Rain 7 1016 87 8000 6.7 220 18:47 03.01.2020
4993 Rain 7 1016 87 10000 6.7 200 18:26 03.01.2020
4994 Rain 7 1016 87 10000 6.7 200 17:58 03.01.2020
4995 Rain 7 1015 93 10000 6.7 210 17:40 03.01.2020
4996 Drizzle 7 1017 87 5000 6.2 190 17:21 03.01.2020
4997 Clouds 6 1016 87 10000 5.7 210 16:44 03.01.2020
4998 Clouds 6 1016 87 10000 5.7 210 16:24 03.01.2020
4999 Clouds 6 1016 87 10000 5.7 210 15:59 03.01.2020
5000 Clouds 6 1016 87 10000 4.1 180 15:41 03.01.2020
5001 Clouds 6 1016 87 10000 4.1 180 15:19 03.01.2020
5002 Clouds 6 1016 87 10000 4.1 180 15:19 03.01.2020
5003 Drizzle 6 1017 93 4000 8.2 180 14:39 03.01.2020
5004 Clouds 6 1016 87 10000 5.1 190 14:20 03.01.2020
5005 Clouds 6 1016 87 10000 5.1 190 13:57 03.01.2020
5006 Clouds 6 1016 93 9000 5.1 190 13:38 03.01.2020
5007 Clouds 6 1016 93 8000 6.7 210 13:20 03.01.2020
5008 Clouds 6 1017 93 9000 7.2 210 12:40 03.01.2020
5009 Clouds 6 1017 86 9000 8.2 200 12:21 03.01.2020
5010 Clouds 6 1017 86 9000 8.2 200 12:21 03.01.2020
5011 Clouds 6 1017 93 9000 6.7 190 11:49 03.01.2020
5012 Clouds 6 1017 93 9000 6.7 190 11:30 03.01.2020
5013 Clouds 5 1018 93 8000 5.7 180 10:48 03.01.2020
5014 Clouds 5 1018 93 8000 5.7 180 10:29 03.01.2020
5015 Clouds 5 1018 93 8000 5.1 170 09:59 03.01.2020
5016 Clouds 5 1018 93 7000 4.6 180 09:41 03.01.2020
5017 Clouds 5 1018 93 7000 4.6 180 09:23 03.01.2020
5018 Clouds 5 1018 93 7000 5.1 170 08:57 03.01.2020
5019 Clouds 5 1018 93 9000 5.1 170 08:39 03.01.2020
5020 Clouds 4 1018 93 10000 6.2 190 08:21 03.01.2020
5021 Clouds 4 1019 93 10000 6.2 180 07:42 03.01.2020
5022 Clouds 4 1019 100 10000 6.2 180 07:19 03.01.2020
5023 Clouds 4 1019 100 10000 6.2 180 06:56 03.01.2020
5024 Clouds 4 1019 100 10000 6.2 180 06:37 03.01.2020
5025 Clouds 4 1019 93 10000 7.2 180 06:18 03.01.2020
5026 Clouds 3 1021 93 8000 6.7 210 04:42 03.01.2020
5027 Drizzle 4 1022 93 4000 5.7 200 03:34 03.01.2020
5028 Drizzle 3 1022 93 7000 4.6 210 02:47 03.01.2020
5029 Clouds 3 1023 93 7000 3.6 220 01:47 03.01.2020
5030 Clouds 3 1021 80 10000 6.7 190 00:57 03.01.2020
5031 Clouds 3 1024 92 7000 2.6 210 00:33 03.01.2020
5032 Clouds 2 1021 80 10000 5.7 180 23:58 02.01.2020
5033 Clouds 2 1024 100 7000 1.5 0 23:39 02.01.2020
5034 Clouds 2 1022 80 10000 7.7 200 23:19 02.01.2020
5035 Clouds 2 1022 80 10000 7.7 200 22:58 02.01.2020
5036 Clouds 2 1024 94 7000 5.7 210 22:39 02.01.2020
5037 Clouds 2 1023 94 7000 2.1 180 22:19 02.01.2020
5038 Clouds 1 1023 94 7000 2.1 180 21:55 02.01.2020
5039 Clouds 1 1023 94 7000 2.1 180 21:36 02.01.2020
5040 Clouds 1 1023 94 7000 1 0 21:18 02.01.2020
5041 Clouds 1 1024 94 7000 2.6 150 20:40 02.01.2020
5042 Clouds 1 1024 95 9000 3.1 200 20:21 02.01.2020
5043 Clouds 1 1024 95 9000 3.1 200 19:56 02.01.2020
5044 Clouds 1 1025 95 8000 3.1 200 19:38 02.01.2020
5045 Clouds 1 1025 95 7000 3.1 200 19:19 02.01.2020
5046 Clouds 0 1025 95 7000 3.1 200 18:59 02.01.2020
5047 Mist 0 1025 95 5000 1.5 0 18:41 02.01.2020
5048 Mist 0 1025 100 4800 3.6 200 18:22 02.01.2020
5049 Mist 0 1025 100 4800 3.6 200 17:57 02.01.2020
5050 Mist 0 1025 100 4800 4.1 190 17:38 02.01.2020
5051 Clouds 1 1025 100 9000 4.6 180 17:19 02.01.2020
5052 Clouds 0 1025 100 9000 4.6 180 16:57 02.01.2020
5053 Clouds 0 1025 100 9000 4.6 140 16:39 02.01.2020
5054 Clouds 0 1025 100 7000 5.1 170 16:20 02.01.2020
5055 Clouds 0 1025 100 7000 5.1 170 15:57 02.01.2020
5056 Clouds 0 1025 92 10000 5.1 180 15:37 02.01.2020
5057 Clouds 0 1026 91 10000 3.1 190 15:19 02.01.2020
5058 Clouds 0 1026 92 9000 3.6 180 14:55 02.01.2020
5059 Clouds 0 1026 92 9000 3.6 180 14:55 02.01.2020
5060 Clouds 0 1026 92 9000 3.6 180 14:55 02.01.2020
5061 Clouds 0 1026 92 9000 3.6 180 14:36 02.01.2020
5062 Clouds 0 1026 92 8000 3.6 160 14:18 02.01.2020
5063 Clouds 0 1026 92 7000 3.6 180 13:47 02.01.2020
5064 Clouds 0 1026 92 7000 3.6 180 13:29 02.01.2020
5065 Clouds 0 1027 92 8000 4.6 170 12:45 02.01.2020
5066 Clouds 0 1027 92 8000 4.6 170 12:25 02.01.2020
5067 Clouds 0 1027 92 6000 4.6 180 11:44 02.01.2020
5068 Clear 0 1027 83 6000 3.6 180 11:26 02.01.2020
5069 Clear -1 1027 83 6000 3.6 180 10:58 02.01.2020
5070 Clear -1 1027 92 10000 3.6 180 10:39 02.01.2020
5071 Clear -2 1028 92 10000 2.6 170 10:19 02.01.2020
5072 Clear -3 1028 100 10000 1 0 09:42 02.01.2020
5073 Clear -3 1028 100 10000 1 0 09:24 02.01.2020
5074 Clear -3 1028 92 9000 1.5 210 08:45 02.01.2020
5075 Clear -3 1028 92 9000 1.5 210 08:45 02.01.2020
5076 Clear -4 1028 92 9000 0.5 0 08:27 02.01.2020
5077 Clear -4 1027 92 9000 3.1 140 07:50 02.01.2020
5078 Clear -4 1027 92 9000 3.1 140 07:30 02.01.2020
5079 Clear -4 1029 92 10000 2.67 178 06:45 02.01.2020
5080 Clear -4 1027 85 10000 3.1 170 06:26 02.01.2020
5081 Clear -4 1029 92 6000 2.32 166 04:53 02.01.2020
5082 Clear -4 1027 85 10000 3.6 150 04:30 02.01.2020
5083 Clear -3 1030 92 3500 1 300 02:32 02.01.2020
5084 Clear -3 1028 79 10000 2.1 200 01:58 02.01.2020
5085 Clear -3 1030 92 3400 1 300 01:33 02.01.2020
5086 Clear -3 1029 79 10000 2.6 170 00:57 02.01.2020
5087 Clear -3 1031 92 100 1.5 310 00:33 02.01.2020
5088 Clear -3 1031 92 100 0.5 310 23:49 01.01.2020
5089 Clear -3 1029 85 10000 1.5 170 23:27 01.01.2020
5090 Clear -2 1029 74 10000 1 0 22:56 01.01.2020
5091 Clear -3 1031 92 2700 0.5 300 22:37 01.01.2020
5092 Clear -3 1029 74 10000 4.6 150 22:19 01.01.2020
5093 Clear -2 1029 74 10000 4.6 150 21:55 01.01.2020
5094 Clear -2 1032 100 2900 0.5 320 21:37 01.01.2020
5095 Clear -2 1031 92 10000 3.1 160 21:18 01.01.2020
5096 Clear -2 1031 92 10000 3.1 160 20:42 01.01.2020
5097 Clear -2 1031 92 10000 3.1 150 20:22 01.01.2020
5098 Clear -1 1031 92 10000 3.1 150 19:58 01.01.2020
5099 Clear -2 1031 92 10000 3.6 160 19:40 01.01.2020
5100 Clear -1 1031 87 10000 2.1 160 19:21 01.01.2020
5101 Clear -1 1031 87 10000 2.1 160 18:59 01.01.2020
5102 Clear -1 1031 92 10000 2.6 150 18:39 01.01.2020
5103 Clear -1 1030 80 10000 3.1 130 18:20 01.01.2020
5104 Clear -1 1030 80 10000 3.1 130 17:59 01.01.2020
5105 Clear -1 1032 92 2600 1 290 17:40 01.01.2020
5106 Clear -1 1032 92 2600 1 290 17:40 01.01.2020
5107 Clear 0 1030 69 10000 3.6 130 17:20 01.01.2020
5108 Clear 0 1030 69 10000 3.6 130 16:59 01.01.2020
5109 Clear 0 1030 69 10000 3.6 130 16:59 01.01.2020
5110 Clear 0 1032 100 3300 0.5 240 16:38 01.01.2020
5111 Clear 1 1030 65 10000 2.6 130 16:20 01.01.2020
5112 Clear 1 1030 65 10000 2.6 130 15:57 01.01.2020
5113 Clear 2 1032 100 5000 0.5 240 15:38 01.01.2020
5114 Clear 2 1031 75 10000 2.1 120 15:20 01.01.2020
5115 Clear 2 1031 75 10000 2.1 120 14:56 01.01.2020
5116 Clear 3 1033 100 300 2.11 180 14:38 01.01.2020
5117 Clear 2 1031 70 10000 1 0 14:19 01.01.2020
5118 Clear 2 1031 70 10000 1 0 14:19 01.01.2020
5119 Clear 2 1031 70 10000 1 0 13:55 01.01.2020
5120 Clear 2 1031 69 10000 0.5 0 13:36 01.01.2020
5121 Clear 1 1031 69 10000 0.5 0 13:18 01.01.2020
5122 Clear 1 1031 69 10000 0.5 0 13:18 01.01.2020
5123 Clear 2 1031 69 10000 0.5 0 12:54 01.01.2020
5124 Clear 2 1031 69 10000 0.5 0 12:54 01.01.2020
5125 Clear 3 1032 72 10000 0.5 0 12:36 01.01.2020
5126 Clear 2 1032 69 10000 1 0 12:18 01.01.2020
5127 Clear 1 1032 74 10000 0.5 0 11:42 01.01.2020
5128 Clear -1 1032 80 10000 1 0 11:21 01.01.2020
5129 Clear -1 1032 80 10000 1 0 11:21 01.01.2020
5130 Clear -1 1035 92 50 0.5 0 10:56 01.01.2020
5131 Clear -2 1035 92 50 0.5 0 10:38 01.01.2020
5132 Fog -2 1034 100 300 2.6 130 10:19 01.01.2020
5133 Fog -3 1034 100 450 2.1 120 09:40 01.01.2020
5134 Fog -3 1033 100 100 1.5 120 09:22 01.01.2020
5135 Fog -3 1033 100 100 1.5 120 08:57 01.01.2020
5136 Fog -3 1033 100 100 2.6 120 08:38 01.01.2020
5137 Fog -3 1033 100 100 2.6 120 08:38 01.01.2020
5138 Clear -4 1032 92 10000 2.1 150 08:20 01.01.2020
5139 Clear -4 1032 92 10000 2.1 150 07:58 01.01.2020
5140 Clear -3 1034 100 50 1.39 148 07:39 01.01.2020
5141 Clear -3 1032 92 10000 2.1 150 07:19 01.01.2020
5142 Clear -3 1033 92 9000 1 0 06:36 01.01.2020
5143 Clear -2 1033 86 10000 1.5 110 05:51 01.01.2020
5144 Clear -2 1033 86 10000 3.1 130 04:28 01.01.2020
5145 Clear -1 1035 100 700 1 280 03:39 01.01.2020
5146 Clear -1 1034 92 10000 3.1 120 03:21 01.01.2020
5147 Clear -1 1035 92 150 1.64 165 02:42 01.01.2020
5148 Clouds -1 1034 94 10000 1.5 90 02:23 01.01.2020
5149 Clouds 0 1035 92 100 0.5 330 01:42 01.01.2020
5150 Clouds 0 1034 95 10000 3.1 170 01:22 01.01.2020
5151 Clouds 0 1035 95 3800 1.23 203 00:45 01.01.2020
5152 Clouds 0 1035 92 10000 2.6 160 00:26 01.01.2020
5153 Clouds 1 1035 92 10000 2.6 160 23:56 31.12.2019
5154 Clouds 1 1036 95 5000 1.23 203 23:36 31.12.2019
5155 Clouds 1 1035 96 10000 3.6 170 23:18 31.12.2019
5156 Clouds 1 1036 96 5000 1.05 212 22:55 31.12.2019
5157 Clouds 1 1036 96 5000 1.05 212 22:36 31.12.2019
5158 Clouds 1 1035 100 10000 3.1 170 22:18 31.12.2019
5159 Clouds 1 1036 96 5000 1 270 21:43 31.12.2019
5160 Clouds 2 1035 96 10000 2.6 170 21:25 31.12.2019
5161 Clouds 2 1035 93 10000 1 0 20:57 31.12.2019
5162 Clouds 2 1035 93 10000 1 0 20:57 31.12.2019
5163 Clouds 2 1036 96 7000 1.05 212 20:38 31.12.2019
5164 Clouds 2 1035 86 10000 1 0 20:20 31.12.2019
5165 Clouds 2 1035 86 10000 1 0 19:57 31.12.2019
5166 Clouds 2 1035 98 7000 0.5 350 19:39 31.12.2019
5167 Clouds 2 1035 86 10000 1.5 0 19:20 31.12.2019
5168 Clouds 2 1035 86 10000 1.5 0 18:56 31.12.2019
5169 Clouds 2 1035 86 7000 0.82 296 18:38 31.12.2019
5170 Clouds 2 1034 93 10000 3.1 200 18:19 31.12.2019
5171 Clouds 3 1035 80 7000 0.82 296 17:55 31.12.2019
5172 Clouds 2 1035 80 7000 0.82 296 17:36 31.12.2019
5173 Mist 3 1034 100 4500 2.6 230 17:18 31.12.2019
5174 Mist 3 1034 100 4500 2.6 230 16:55 31.12.2019
5175 Clouds 3 1034 80 8000 1 260 16:36 31.12.2019
5176 Mist 3 1034 100 1200 1.5 320 16:18 31.12.2019
5177 Clouds 3 1034 96 8000 0.5 0 15:55 31.12.2019
5178 Clouds 3 1034 96 8000 0.5 0 15:55 31.12.2019
5179 Clouds 3 1034 96 8000 0.5 0 15:37 31.12.2019
5180 Clouds 4 1033 100 10000 1 0 15:19 31.12.2019
5181 Clouds 3 1033 100 10000 1 0 14:55 31.12.2019
5182 Clouds 4 1033 80 9000 1 200 14:37 31.12.2019
5183 Clouds 4 1033 80 9000 1 200 14:37 31.12.2019
5184 Clouds 4 1033 93 8000 1 0 14:18 31.12.2019
5185 Clouds 3 1033 93 8000 1 0 13:55 31.12.2019
5186 Clouds 3 1033 93 8000 1 0 13:37 31.12.2019
5187 Clouds 3 1033 93 8000 1 0 13:19 31.12.2019
5188 Clouds 3 1033 93 8000 1 0 12:54 31.12.2019
5189 Clouds 3 1032 100 6000 2.1 250 12:36 31.12.2019
5190 Clouds 3 1032 100 6000 2.1 250 12:36 31.12.2019
5191 Mist 3 1033 100 3500 1 0 12:18 31.12.2019
5192 Mist 3 1033 100 2500 1 0 11:54 31.12.2019
5193 Mist 3 1033 100 2500 1 0 11:36 31.12.2019
5194 Mist 3 1033 100 2500 1 0 11:36 31.12.2019
5195 Mist 2 1032 100 3000 0.5 0 11:18 31.12.2019
5196 Mist 2 1032 100 3000 0.5 0 10:54 31.12.2019
5197 Mist 2 1032 100 1500 0.5 0 10:36 31.12.2019
5198 Mist 2 1032 100 1500 0.5 0 10:36 31.12.2019
5199 Mist 2 1032 100 1500 0.5 0 10:18 31.12.2019
5200 Mist 2 1032 100 1500 0.5 0 10:18 31.12.2019
5201 Mist 2 1032 100 1500 0.5 0 09:54 31.12.2019
5202 Mist 2 1031 94 3500 1 0 09:36 31.12.2019
5203 Mist 2 1031 94 5000 1.5 180 09:18 31.12.2019
5204 Mist 1 1030 94 4000 0.5 0 08:41 31.12.2019
5205 Snow 1 1030 87 3800 1.5 0 08:21 31.12.2019
5206 Clouds 1 1029 87 10000 2.1 100 07:44 31.12.2019
5207 Clouds 1 1029 86 10000 1.5 100 07:22 31.12.2019
5208 Clouds 1 1029 86 10000 1.5 100 06:51 31.12.2019
5209 Clouds 1 1029 86 10000 2.1 300 06:23 31.12.2019
5210 Clear 1 1028 86 10000 1 330 04:54 31.12.2019
5211 Clouds 0 1028 52 10000 4.1 260 04:21 31.12.2019
5212 Clouds 1 1028 48 10000 3.6 260 02:57 31.12.2019
5213 Clear 0 1028 58 10000 2.6 200 02:20 31.12.2019
5214 Clear 0 1028 58 10000 2.6 200 01:48 31.12.2019
5215 Clear 0 1028 59 10000 3.6 190 01:29 31.12.2019
5216 Clear 1 1028 59 10000 3.6 190 00:48 31.12.2019
5217 Clear 0 1028 59 10000 3.1 180 00:24 31.12.2019
5218 Clear 0 1028 59 10000 3.1 180 23:58 30.12.2019
5219 Clear 1 1028 59 10000 3.1 180 23:39 30.12.2019
5220 Clear 2 1026 22 10000 4.6 210 23:21 30.12.2019
5221 Clear 1 1026 22 10000 4.6 210 22:59 30.12.2019
5222 Clear 1 1029 64 10000 4.6 180 22:41 30.12.2019
5223 Clear 1 1026 28 10000 4.1 220 22:21 30.12.2019
5224 Clear 1 1026 28 10000 4.1 220 21:57 30.12.2019
5225 Clear 1 1029 64 10000 3.6 190 21:39 30.12.2019
5226 Clouds 1 1029 63 10000 0.5 100 21:20 30.12.2019
5227 Clouds 1 1029 63 10000 0.5 100 20:58 30.12.2019
5228 Clouds 1 1029 63 10000 0.5 100 20:40 30.12.2019
5229 Clouds 1 1028 59 10000 2.1 110 20:20 30.12.2019
5230 Clouds 2 1028 59 10000 2.1 110 19:58 30.12.2019
5231 Clouds 2 1028 59 10000 3.1 140 19:39 30.12.2019
5232 Clouds 2 1028 59 10000 3.6 140 19:19 30.12.2019
5233 Clouds 2 1028 59 10000 3.6 140 18:58 30.12.2019
5234 Clouds 2 1028 59 10000 1.5 110 18:40 30.12.2019
5235 Clouds 2 1028 55 10000 1 0 18:20 30.12.2019
5236 Clouds 2 1028 55 10000 1 0 17:56 30.12.2019
5237 Clouds 2 1029 59 10000 1.5 90 17:38 30.12.2019
5238 Clouds 3 1029 55 10000 2.6 140 17:18 30.12.2019
5239 Clouds 3 1029 55 10000 2.6 140 16:57 30.12.2019
5240 Clouds 3 1029 55 10000 2.1 150 16:37 30.12.2019
5241 Clouds 3 1029 55 10000 2.1 150 16:37 30.12.2019
5242 Clouds 4 1029 55 10000 2.6 150 16:18 30.12.2019
5243 Clouds 4 1029 55 10000 2.6 150 15:55 30.12.2019
5244 Clouds 4 1030 55 10000 2.6 140 15:37 30.12.2019
5245 Clouds 4 1029 55 10000 3.1 140 15:18 30.12.2019
5246 Clouds 5 1030 59 10000 2.6 130 14:42 30.12.2019
5247 Clouds 5 1030 48 10000 3.6 130 14:20 30.12.2019
5248 Clouds 5 1030 48 10000 3.6 140 13:56 30.12.2019
5249 Clouds 5 1030 48 10000 3.6 140 13:37 30.12.2019
5250 Clouds 4 1031 55 10000 4.1 140 13:19 30.12.2019
5251 Clouds 4 1031 55 10000 4.1 130 12:43 30.12.2019
5252 Clouds 3 1031 55 10000 4.6 150 12:22 30.12.2019
5253 Clouds 3 1031 55 10000 4.6 150 11:59 30.12.2019
5254 Clouds 3 1032 59 10000 3.6 150 11:40 30.12.2019
5255 Clouds 2 1032 64 10000 4.1 150 11:19 30.12.2019
5256 Clouds 2 1032 64 10000 4.1 150 11:19 30.12.2019
5257 Clouds 1 1032 64 10000 4.6 150 10:45 30.12.2019
5258 Clouds 1 1032 64 10000 5.1 170 10:22 30.12.2019
5259 Clouds 0 1032 64 10000 5.1 170 09:59 30.12.2019
5260 Clouds 0 1032 52 10000 3.1 130 09:41 30.12.2019
5261 Clouds -1 1032 52 10000 1.5 100 09:20 30.12.2019
5262 Clouds -1 1032 52 10000 1.5 100 08:55 30.12.2019
5263 Clouds -1 1032 52 10000 2.6 120 08:36 30.12.2019
5264 Clouds -1 1032 52 10000 2.6 120 08:36 30.12.2019
5265 Clouds -1 1032 74 10000 3.1 130 08:18 30.12.2019
5266 Clouds -1 1033 59 10000 3.1 120 07:39 30.12.2019
5267 Clouds -1 1034 59 10000 3.6 170 06:55 30.12.2019
5268 Clouds 0 1035 62 10000 4.1 160 05:24 30.12.2019
5269 Clouds 0 1035 80 10000 2.6 150 03:58 30.12.2019
5270 Clouds 0 1035 80 10000 2.6 150 03:32 30.12.2019
5271 Clouds -1 1035 86 10000 3.1 140 02:40 30.12.2019
5272 Clouds -1 1036 80 10000 2.1 150 01:56 30.12.2019
5273 Clouds -1 1036 69 10000 2.6 150 01:25 30.12.2019
5274 Clouds 0 1036 69 10000 2.6 150 00:45 30.12.2019
5275 Clouds 0 1037 69 10000 4.1 160 00:23 30.12.2019
5276 Clouds 0 1037 69 10000 4.1 160 23:40 29.12.2019
5277 Clouds 0 1037 72 10000 3.6 180 23:21 29.12.2019
5278 Clouds 0 1037 72 10000 3.6 180 22:56 29.12.2019
5279 Clouds 0 1037 72 10000 3.6 180 22:37 29.12.2019
5280 Clouds 0 1035 72 10000 3.1 130 22:18 29.12.2019
5281 Clouds 0 1036 72 10000 2.1 130 21:43 29.12.2019
5282 Clouds 0 1036 72 10000 2.6 150 21:21 29.12.2019
5283 Clouds 0 1036 72 10000 2.6 150 20:58 29.12.2019
5284 Clouds 0 1037 72 10000 3.1 150 20:39 29.12.2019
5285 Clouds 0 1036 69 10000 2.6 130 20:21 29.12.2019
5286 Clouds 0 1036 69 10000 2.6 130 19:59 29.12.2019
5287 Clouds 0 1036 74 10000 2.6 130 19:40 29.12.2019
5288 Clouds 0 1036 74 10000 2.6 130 19:40 29.12.2019
5289 Clouds 0 1036 74 10000 4.1 140 19:21 29.12.2019
5290 Clouds 0 1036 74 10000 4.1 140 18:58 29.12.2019
5291 Clouds 0 1036 69 10000 4.1 140 18:39 29.12.2019
5292 Clouds 0 1036 69 10000 3.1 140 18:20 29.12.2019
5293 Clouds 1 1036 69 10000 3.1 140 17:58 29.12.2019
5294 Clouds 1 1037 69 10000 1.5 130 17:39 29.12.2019
5295 Clouds 1 1037 74 10000 2.6 150 17:20 29.12.2019
5296 Clouds 1 1037 74 10000 2.6 150 16:57 29.12.2019
5297 Clouds 1 1036 74 10000 2.6 130 16:38 29.12.2019
5298 Clouds 1 1036 74 10000 2.6 130 16:38 29.12.2019
5299 Clouds 1 1036 74 10000 2.1 130 16:20 29.12.2019
5300 Clouds 1 1036 74 10000 2.1 130 15:58 29.12.2019
5301 Clouds 1 1036 74 10000 2.1 130 15:58 29.12.2019
5302 Clouds 1 1036 74 10000 2.6 130 15:39 29.12.2019
5303 Clouds 2 1036 69 10000 3.1 130 15:20 29.12.2019
5304 Clouds 1 1036 69 10000 3.1 130 14:58 29.12.2019
5305 Clouds 2 1037 74 10000 2.6 140 14:38 29.12.2019
5306 Clouds 2 1037 69 10000 3.1 130 14:18 29.12.2019
5307 Clouds 2 1037 69 10000 3.1 130 13:57 29.12.2019
5308 Clouds 2 1037 69 10000 2.6 150 13:38 29.12.2019
5309 Clouds 1 1037 69 10000 3.6 140 13:19 29.12.2019
5310 Clouds 1 1038 62 10000 3.6 140 12:45 29.12.2019
5311 Clouds 1 1038 62 10000 3.6 140 12:27 29.12.2019
5312 Clouds 1 1038 62 10000 3.6 140 11:58 29.12.2019
5313 Clouds 0 1038 62 10000 3.1 130 11:39 29.12.2019
5314 Clouds -1 1038 80 10000 3.6 140 11:20 29.12.2019
5315 Clouds -2 1038 86 10000 2.6 120 10:43 29.12.2019
5316 Clouds -2 1038 86 10000 2.6 140 10:25 29.12.2019
5317 Clouds -3 1038 86 10000 2.6 140 09:58 29.12.2019
5318 Clouds -4 1039 86 10000 2.1 110 09:39 29.12.2019
5319 Clouds -4 1038 92 10000 2.1 140 09:21 29.12.2019
5320 Clouds -4 1038 92 10000 1 0 08:48 29.12.2019
5321 Clouds -5 1038 92 10000 1 0 08:28 29.12.2019
5322 Clear -5 1038 86 10000 1 140 07:56 29.12.2019
5323 Clear -4 1038 86 10000 2.6 140 07:28 29.12.2019
5324 Clear -4 1038 86 10000 2.6 140 07:28 29.12.2019
5325 Clear -5 1037 85 10000 1 0 06:56 29.12.2019
5326 Clear -4 1037 86 10000 2.1 170 06:26 29.12.2019
5327 Clouds -4 1039 100 10000 1 90 05:53 29.12.2019
5328 Fog -4 1040 92 10000 1.78 176 04:36 29.12.2019
5329 Clear -4 1038 80 10000 1 0 03:58 29.12.2019
5330 Clear -4 1038 86 10000 3.1 160 03:21 29.12.2019
5331 Clouds -3 1038 86 10000 1.5 130 02:21 29.12.2019
5332 Fog -3 1040 92 10000 0.5 240 01:38 29.12.2019
5333 Clouds -3 1038 83 10000 3.6 130 01:19 29.12.2019
5334 Clouds -2 1040 100 10000 1.75 140 00:40 29.12.2019
5335 Clouds -2 1039 80 10000 4.1 140 00:22 29.12.2019
5336 Clouds -2 1041 100 10000 0.5 0 23:44 28.12.2019
5337 Clouds -2 1040 86 10000 2.6 140 23:18 28.12.2019
5338 Clouds -2 1041 92 10000 1 360 22:39 28.12.2019
5339 Clouds -2 1040 86 10000 2.1 150 22:21 28.12.2019
5340 Clouds -2 1040 86 10000 2.1 150 21:58 28.12.2019
5341 Clouds -2 1040 86 10000 2.1 150 21:58 28.12.2019
5342 Clouds -2 1042 92 10000 1.86 153 21:39 28.12.2019
5343 Clouds -2 1040 86 10000 1 140 21:21 28.12.2019
5344 Clouds -2 1040 86 10000 1 140 21:21 28.12.2019
5345 Clouds -2 1040 86 10000 1 140 20:57 28.12.2019
5346 Clouds -2 1041 92 10000 0.5 250 20:37 28.12.2019
5347 Clouds -2 1041 92 10000 0.5 250 20:37 28.12.2019
5348 Clouds -1 1041 80 10000 2.1 140 20:19 28.12.2019
5349 Clouds -1 1041 80 10000 2.1 140 19:57 28.12.2019
5350 Clouds -1 1041 80 10000 2.1 140 19:57 28.12.2019
5351 Clouds -2 1040 86 10000 1.5 150 19:39 28.12.2019
5352 Clouds -1 1040 86 10000 2.1 130 19:20 28.12.2019
5353 Clouds -2 1040 80 10000 2.1 140 18:57 28.12.2019
5354 Clouds -1 1040 80 10000 2.1 140 18:39 28.12.2019
5355 Clouds -1 1040 86 10000 1.5 130 18:18 28.12.2019
5356 Clouds -1 1040 86 10000 1.5 130 18:18 28.12.2019
5357 Clouds -1 1040 80 10000 2.1 130 17:54 28.12.2019
5358 Clouds -1 1040 80 10000 2.1 130 17:36 28.12.2019
5359 Clouds -1 1040 82 10000 1.5 130 17:18 28.12.2019
5360 Clouds 0 1040 82 10000 2.1 130 16:45 28.12.2019
5361 Clouds 0 1040 82 10000 2.1 130 16:24 28.12.2019
5362 Clouds 1 1040 74 10000 2.6 140 15:44 28.12.2019
5363 Clouds 1 1040 74 10000 2.6 140 15:23 28.12.2019
5364 Clouds 1 1040 74 10000 3.1 130 14:57 28.12.2019
5365 Clouds 1 1040 74 10000 4.6 120 14:38 28.12.2019
5366 Clouds 1 1040 80 10000 3.6 130 14:20 28.12.2019
5367 Clouds 1 1041 80 10000 3.6 130 13:43 28.12.2019
5368 Clouds 1 1040 80 10000 3.1 130 13:22 28.12.2019
5369 Clouds 1 1040 80 10000 3.1 130 12:59 28.12.2019
5370 Clouds 1 1041 73 10000 2.6 120 12:41 28.12.2019
5371 Clear 1 1041 80 10000 2.6 120 12:22 28.12.2019
5372 Clear 1 1040 80 10000 1.5 130 11:54 28.12.2019
5373 Clear 1 1040 80 10000 1.5 130 11:36 28.12.2019
5374 Clear 0 1040 86 10000 1.5 130 11:18 28.12.2019
5375 Clear -1 1040 92 10000 1 0 10:41 28.12.2019
5376 Clear -1 1040 100 10000 1 110 10:20 28.12.2019
5377 Clear -2 1040 100 10000 1 110 09:55 28.12.2019
5378 Clear -2 1040 92 10000 1.5 110 09:37 28.12.2019
5379 Clear -2 1040 92 10000 0.5 0 09:18 28.12.2019
5380 Clear -2 1040 92 10000 0.5 0 09:18 28.12.2019
5381 Clear -2 1039 92 10000 1.5 260 08:43 28.12.2019
5382 Clouds -2 1039 92 10000 1.5 130 08:25 28.12.2019
5383 Clouds -2 1039 92 10000 1.5 170 07:49 28.12.2019
5384 Clouds -2 1039 92 10000 1.5 170 07:27 28.12.2019
5385 Clouds -2 1039 92 10000 1 280 05:53 28.12.2019
5386 Clouds -1 1039 92 10000 2.6 320 03:52 28.12.2019
5387 Clouds -1 1039 92 10000 2.6 320 03:33 28.12.2019
5388 Clouds -1 1038 92 10000 2.1 300 02:43 28.12.2019
5389 Clouds -1 1037 92 10000 2.6 100 01:59 28.12.2019
5390 Clouds -1 1037 93 10000 2.1 80 01:25 28.12.2019
5391 Clouds 0 1037 93 10000 1.5 260 00:51 28.12.2019
5392 Clouds 0 1037 86 10000 2.1 70 00:32 28.12.2019
5393 Clouds 0 1037 86 10000 2.1 70 00:32 28.12.2019
5394 Clouds 0 1036 93 10000 3.1 80 23:59 27.12.2019
5395 Clouds 0 1037 93 10000 3.6 300 23:41 27.12.2019
5396 Clouds 0 1036 90 10000 3.1 90 23:19 27.12.2019
5397 Clouds 0 1036 90 10000 3.1 90 22:57 27.12.2019
5398 Clouds 0 1036 90 10000 3.1 90 22:57 27.12.2019
5399 Clouds 0 1036 92 10000 2.1 310 22:38 27.12.2019
5400 Clouds 0 1036 90 10000 2.6 80 22:20 27.12.2019
5401 Clouds 1 1036 90 10000 2.1 310 21:44 27.12.2019
5402 Clouds 1 1036 80 10000 3.1 70 21:25 27.12.2019
5403 Clouds 1 1035 86 10000 3.1 70 20:58 27.12.2019
5404 Clouds 1 1035 90 10000 2.6 310 20:40 27.12.2019
5405 Clouds 1 1035 74 10000 2.1 10 20:21 27.12.2019
5406 Clouds 1 1034 80 10000 1.5 10 19:42 27.12.2019
5407 Clouds 1 1033 80 10000 1.5 350 19:20 27.12.2019
5408 Clouds 1 1033 80 10000 1.5 350 19:20 27.12.2019
5409 Clouds 1 1033 80 10000 1.5 350 18:58 27.12.2019
5410 Clouds 1 1033 89 10000 1.5 360 18:37 27.12.2019
5411 Clouds 2 1032 89 10000 1.5 340 18:19 27.12.2019
5412 Clouds 2 1032 89 10000 1.5 340 17:56 27.12.2019
5413 Clouds 2 1032 74 10000 1.5 360 17:38 27.12.2019
5414 Clouds 2 1031 74 10000 2.1 40 17:18 27.12.2019
5415 Clear 3 1031 80 10000 2.1 30 16:44 27.12.2019
5416 Clear 3 1031 80 10000 2.1 30 16:26 27.12.2019
5417 Clear 4 1030 74 10000 2.1 50 15:59 27.12.2019
5418 Clouds 4 1030 69 10000 2.6 60 15:40 27.12.2019
5419 Clouds 4 1030 69 10000 3.1 60 15:20 27.12.2019
5420 Clouds 5 1030 69 10000 3.1 60 14:56 27.12.2019
5421 Clouds 5 1029 69 10000 3.1 60 14:38 27.12.2019
5422 Clouds 5 1029 69 10000 3.6 70 14:20 27.12.2019
5423 Clouds 5 1029 69 10000 3.6 70 14:20 27.12.2019
5424 Clouds 5 1029 69 10000 3.6 60 13:48 27.12.2019
5425 Clouds 5 1029 65 10000 2.6 50 13:25 27.12.2019
5426 Clouds 5 1029 65 10000 2.6 50 13:25 27.12.2019
5427 Clouds 5 1029 65 10000 2.6 50 12:56 27.12.2019
5428 Clear 4 1028 75 10000 1.5 10 12:38 27.12.2019
5429 Clear 4 1028 75 10000 2.1 10 12:20 27.12.2019
5430 Clear 4 1028 75 10000 2.6 20 11:43 27.12.2019
5431 Clear 4 1027 93 10000 2.1 20 11:23 27.12.2019
5432 Clear 3 1027 90 10000 2.1 20 10:55 27.12.2019
5433 Clear 3 1027 90 10000 2.1 20 10:36 27.12.2019
5434 Clear 2 1026 90 10000 1.5 20 10:18 27.12.2019
5435 Clear 2 1025 90 10000 1.5 30 09:42 27.12.2019
5436 Clouds 1 1025 90 10000 2.6 50 09:21 27.12.2019
5437 Clouds 1 1025 90 10000 2.6 50 08:55 27.12.2019
5438 Clouds 1 1024 93 10000 1 0 08:35 27.12.2019
5439 Clouds 1 1023 93 10000 1.5 80 07:50 27.12.2019
5440 Clouds 1 1023 93 10000 1.5 80 07:31 27.12.2019
5441 Clouds 2 1023 93 10000 1.21 73 06:36 27.12.2019
5442 Clouds 2 1022 93 10000 1.37 87 04:59 27.12.2019
5443 Clouds 2 1021 93 10000 1 80 03:26 27.12.2019
5444 Clouds 2 1020 80 8000 3.1 110 01:59 27.12.2019
5445 Clouds 2 1021 80 10000 2.6 120 01:24 27.12.2019
5446 Clouds 2 1021 80 10000 2.6 120 00:58 27.12.2019
5447 Clouds 2 1022 100 10000 1 280 00:40 27.12.2019
5448 Clouds 2 1021 80 10000 3.1 160 00:21 27.12.2019
5449 Clouds 2 1022 93 10000 1.37 124 23:41 26.12.2019
5450 Clouds 2 1022 93 10000 1 270 23:22 26.12.2019
5451 Rain 2 1023 93 10000 0.5 20 22:45 26.12.2019
5452 Clouds 3 1022 93 10000 2.1 120 22:23 26.12.2019
5453 Clouds 3 1022 93 10000 2.1 120 21:59 26.12.2019
5454 Clouds 3 1022 93 10000 1.5 150 21:38 26.12.2019
5455 Clouds 3 1022 93 10000 2.6 150 21:20 26.12.2019
5456 Clouds 3 1022 93 10000 2.1 140 20:46 26.12.2019
5457 Clouds 2 1022 93 10000 2.1 140 20:23 26.12.2019
5458 Clouds 2 1022 93 10000 2.1 140 20:23 26.12.2019
5459 Clouds 3 1023 100 10000 2.6 130 19:59 26.12.2019
5460 Clouds 3 1023 100 10000 2.1 140 19:40 26.12.2019
5461 Clouds 3 1023 93 10000 1 130 19:21 26.12.2019
5462 Clouds 3 1023 93 10000 1 130 18:57 26.12.2019
5463 Clouds 3 1023 93 10000 1.5 180 18:39 26.12.2019
5464 Clouds 3 1023 93 10000 2.1 160 18:19 26.12.2019
5465 Clouds 3 1023 93 10000 2.1 140 17:43 26.12.2019
5466 Clouds 4 1023 80 10000 1.5 190 17:22 26.12.2019
5467 Clouds 4 1023 80 10000 1.5 190 16:59 26.12.2019
5468 Clouds 4 1023 80 10000 1 0 16:41 26.12.2019
5469 Clouds 4 1023 83 10000 1.5 200 16:21 26.12.2019
5470 Clouds 5 1023 75 10000 2.1 180 15:55 26.12.2019
5471 Clouds 5 1023 75 10000 2.1 180 15:37 26.12.2019
5472 Clouds 5 1023 75 10000 2.1 200 15:18 26.12.2019
5473 Clouds 5 1023 80 10000 2.1 220 14:39 26.12.2019
5474 Clouds 5 1023 86 10000 2.1 190 14:21 26.12.2019
5475 Clouds 5 1024 86 10000 1 0 13:43 26.12.2019
5476 Clouds 5 1024 93 10000 0.5 0 13:21 26.12.2019
5477 Clouds 5 1024 93 10000 0.5 0 12:58 26.12.2019
5478 Clouds 5 1024 93 10000 1.5 130 12:39 26.12.2019
5479 Clouds 5 1024 73 10000 2.1 130 12:20 26.12.2019
5480 Clouds 5 1024 73 10000 2.1 130 11:57 26.12.2019
5481 Clouds 5 1024 93 10000 1.5 50 11:38 26.12.2019
5482 Clouds 4 1025 86 10000 2.1 180 11:20 26.12.2019
5483 Clouds 4 1025 93 10000 1.5 170 10:47 26.12.2019
5484 Clouds 3 1025 100 10000 1 0 10:19 26.12.2019
5485 Clouds 3 1024 93 10000 1 0 09:50 26.12.2019
5486 Clouds 3 1024 93 10000 1 0 09:31 26.12.2019
5487 Clouds 3 1024 93 10000 1 0 08:55 26.12.2019
5488 Clouds 3 1024 93 10000 1.5 200 08:36 26.12.2019
5489 Drizzle 3 1024 93 9000 1.5 270 08:18 26.12.2019
5490 Drizzle 3 1024 100 10000 1.5 240 07:30 26.12.2019
5491 Clouds 3 1025 100 6000 0.5 290 06:54 26.12.2019
5492 Clouds 3 1024 93 10000 2.6 210 06:32 26.12.2019
5493 Clouds 3 1025 93 6000 2.6 300 05:46 26.12.2019
5494 Clouds 3 1024 93 10000 1.5 260 04:59 26.12.2019
5495 Clouds 3 1024 93 10000 1 0 04:30 26.12.2019
5496 Clouds 3 1024 93 10000 2.1 270 03:18 26.12.2019
5497 Clouds 4 1025 93 6000 1 250 02:38 26.12.2019
5498 Clouds 4 1024 93 10000 2.1 270 02:19 26.12.2019
5499 Clouds 4 1025 93 6000 1 300 01:41 26.12.2019
5500 Clouds 4 1024 93 10000 2.1 260 01:22 26.12.2019
5501 Clouds 4 1024 93 7000 1 0 00:41 26.12.2019
5502 Clouds 4 1024 93 10000 2.1 270 00:22 26.12.2019
5503 Clouds 4 1024 93 7000 2.1 270 23:42 25.12.2019
5504 Rain 4 1024 93 10000 3.1 260 23:21 25.12.2019
5505 Rain 4 1024 93 10000 3.1 260 22:59 25.12.2019
5506 Rain 4 1024 93 6000 1 220 22:40 25.12.2019
5507 Clouds 4 1024 93 10000 2.6 270 22:22 25.12.2019
5508 Clouds 5 1024 93 10000 2.6 270 21:59 25.12.2019
5509 Rain 4 1024 93 7000 1.5 170 21:39 25.12.2019
5510 Clouds 5 1023 86 10000 2.1 280 21:20 25.12.2019
5511 Clouds 5 1023 86 10000 2.1 280 20:56 25.12.2019
5512 Rain 5 1023 81 7000 3.1 330 20:38 25.12.2019
5513 Rain 5 1022 93 10000 4.1 270 20:18 25.12.2019
5514 Rain 5 1022 93 10000 4.1 290 19:43 25.12.2019
5515 Rain 5 1022 93 10000 4.1 290 19:43 25.12.2019
5516 Rain 5 1021 93 10000 5.1 300 19:24 25.12.2019
5517 Rain 5 1021 93 10000 5.1 300 18:58 25.12.2019
5518 Rain 5 1021 93 8000 5.1 310 18:37 25.12.2019
5519 Rain 6 1021 93 8000 5.7 300 18:18 25.12.2019
5520 Rain 5 1021 87 6000 1.5 300 17:41 25.12.2019
5521 Clouds 6 1021 93 10000 3.1 290 17:19 25.12.2019
5522 Clouds 6 1021 93 10000 3.1 290 16:58 25.12.2019
5523 Rain 6 1021 87 6000 1 280 16:37 25.12.2019
5524 Clouds 6 1020 93 10000 3.6 280 16:18 25.12.2019
5525 Clouds 6 1020 93 10000 3.6 280 15:57 25.12.2019
5526 Rain 6 1020 87 6000 3.1 310 15:38 25.12.2019
5527 Clouds 6 1019 93 10000 3.1 280 15:20 25.12.2019
5528 Clouds 6 1019 93 10000 3.1 280 14:56 25.12.2019
5529 Rain 6 1019 81 5000 4.6 320 14:37 25.12.2019
5530 Rain 6 1018 93 4400 2.6 290 14:19 25.12.2019
5531 Rain 6 1018 93 6000 3.1 300 13:44 25.12.2019
5532 Clouds 6 1018 100 10000 4.1 280 13:21 25.12.2019
5533 Clouds 6 1018 100 10000 4.1 280 12:56 25.12.2019
5534 Rain 6 1017 87 6000 3.1 320 12:38 25.12.2019
5535 Clouds 6 1017 100 10000 3.6 300 12:18 25.12.2019
5536 Rain 6 1016 86 6000 3.1 310 11:42 25.12.2019
5537 Rain 6 1016 86 6000 3.1 310 11:42 25.12.2019
5538 Clouds 6 1016 100 10000 3.1 300 11:22 25.12.2019
5539 Clouds 6 1016 100 10000 3.1 300 10:58 25.12.2019
5540 Rain 6 1015 87 3300 1 350 10:36 25.12.2019
5541 Rain 6 1013 93 6000 5.1 300 10:18 25.12.2019
5542 Rain 6 1013 93 6000 5.1 300 09:43 25.12.2019
5543 Rain 6 1013 93 6000 5.1 300 09:25 25.12.2019
5544 Rain 6 1013 93 6000 5.1 300 09:25 25.12.2019
5545 Rain 6 1012 100 6000 2.6 330 08:45 25.12.2019
5546 Rain 6 1012 93 8000 4.6 270 08:25 25.12.2019
5547 Rain 6 1012 93 8000 4.6 270 08:25 25.12.2019
5548 Rain 6 1012 93 3400 1.5 300 07:45 25.12.2019
5549 Rain 6 1011 93 10000 4.1 270 07:23 25.12.2019
5550 Rain 7 1011 93 5000 1.5 220 06:47 25.12.2019
5551 Clouds 7 1011 93 10000 3.6 260 06:22 25.12.2019
5552 Rain 7 1011 93 4400 1 70 04:49 25.12.2019
5553 Clouds 7 1010 93 7000 3.1 280 04:25 25.12.2019
5554 Clouds 7 1010 93 7000 3.1 280 03:58 25.12.2019
5555 Rain 7 1011 100 5000 3.6 210 03:39 25.12.2019
5556 Rain 7 1010 93 10000 4.1 270 02:32 25.12.2019
5557 Rain 7 1009 93 9000 5.1 260 01:55 25.12.2019
5558 Rain 7 1009 93 8000 3.1 270 01:24 25.12.2019
5559 Rain 7 1010 93 3900 3.1 230 00:46 25.12.2019
5560 Rain 7 1009 93 10000 4.6 250 00:27 25.12.2019
5561 Rain 7 1009 87 10000 3.6 270 23:55 24.12.2019
5562 Rain 7 1010 87 3800 2.1 240 23:36 24.12.2019
5563 Rain 7 1009 93 8000 5.1 270 23:18 24.12.2019
5564 Rain 7 1009 81 7000 2.1 340 22:38 24.12.2019
5565 Rain 7 1008 100 10000 2.6 270 22:20 24.12.2019
5566 Rain 7 1008 100 10000 2.6 270 22:20 24.12.2019
5567 Rain 7 1008 87 6000 5.1 220 21:42 24.12.2019
5568 Rain 7 1008 93 7000 4.1 280 21:22 24.12.2019
5569 Clouds 7 1008 87 10000 5.1 230 20:45 24.12.2019
5570 Rain 7 1007 100 7000 3.6 280 20:24 24.12.2019
5571 Rain 7 1007 100 7000 3.6 280 19:57 24.12.2019
5572 Rain 7 1008 87 10000 3.6 230 19:39 24.12.2019
5573 Rain 7 1006 87 10000 4.6 260 19:18 24.12.2019
5574 Clouds 7 1007 93 10000 3.6 220 18:42 24.12.2019
5575 Rain 7 1006 81 10000 6.7 250 18:20 24.12.2019
5576 Clouds 7 1007 87 10000 5.1 230 17:50 24.12.2019
5577 Clouds 7 1006 81 10000 8.2 250 17:24 24.12.2019
5578 Clouds 7 1007 87 10000 6.2 220 16:59 24.12.2019
5579 Clouds 7 1007 87 10000 6.2 220 16:59 24.12.2019
5580 Clouds 7 1007 87 10000 6.2 220 16:41 24.12.2019
5581 Rain 6 1005 87 10000 7.7 250 16:22 24.12.2019
5582 -273 0 0 0 0 0 16:22 24.12.2019
5583 Rain 6 1005 87 10000 7.7 250 15:58 24.12.2019
5584 Clouds 6 1006 87 10000 7.7 220 15:38 24.12.2019
5585 Clouds 6 1006 87 10000 6.7 210 15:20 24.12.2019
5586 Rain 6 1004 93 4000 9.3 230 14:59 24.12.2019
5587 Rain 6 1004 93 4000 9.3 230 14:59 24.12.2019
5588 Rain 6 1006 93 10000 4.6 200 14:41 24.12.2019
5589 Clouds 5 1005 86 10000 6.7 200 14:22 24.12.2019
5590 Clouds 6 1005 86 10000 6.7 200 13:57 24.12.2019
5591 Rain 6 1006 86 10000 5.1 180 13:39 24.12.2019
5592 Rain 5 1007 93 8000 5.1 190 13:20 24.12.2019
5593 Rain 5 1007 93 8000 5.1 190 13:20 24.12.2019
5594 Rain 6 1007 93 8000 5.1 190 12:57 24.12.2019
5595 Rain 5 1007 93 9000 5.7 170 12:38 24.12.2019
5596 Rain 6 1008 93 9000 5.7 170 12:19 24.12.2019
5597 Rain 6 1008 93 9000 5.7 170 12:19 24.12.2019
5598 Rain 6 1008 93 9000 5.7 170 11:58 24.12.2019
5599 Clouds 6 1008 86 9000 8.2 190 11:38 24.12.2019
5600 Clouds 6 1009 81 10000 6.2 180 11:20 24.12.2019
5601 Clouds 6 1009 81 10000 6.2 180 10:57 24.12.2019
5602 Clouds 6 1010 86 10000 4.6 170 10:38 24.12.2019
5603 Clouds 6 1011 86 10000 6.2 170 10:20 24.12.2019
5604 Clouds 6 1011 86 10000 6.2 170 09:58 24.12.2019
5605 Clouds 6 1011 86 10000 6.2 170 09:58 24.12.2019
5606 Clouds 6 1011 86 10000 4.6 160 09:39 24.12.2019
5607 Clouds 6 1011 86 10000 4.6 160 09:39 24.12.2019
5608 Clouds 6 1012 86 10000 4.1 150 09:21 24.12.2019
5609 Clouds 5 1012 93 10000 4.1 170 08:47 24.12.2019
5610 Clouds 5 1012 93 10000 4.1 170 08:47 24.12.2019
5611 Clouds 5 1012 86 10000 4.1 180 08:24 24.12.2019
5612 Clouds 5 1012 86 10000 4.1 180 07:59 24.12.2019
5613 Clouds 5 1013 86 10000 4.1 170 07:39 24.12.2019
5614 Clouds 5 1014 93 10000 3.1 200 07:20 24.12.2019
5615 Clouds 5 1014 93 10000 3.1 200 06:39 24.12.2019
5616 Clouds 5 1012 87 10000 4.6 200 06:19 24.12.2019
5617 Clouds 5 1015 86 10000 4.1 210 05:51 24.12.2019
5618 Clouds 5 1013 87 10000 4.6 200 05:19 24.12.2019
5619 Clouds 5 1013 81 10000 5.1 220 04:21 24.12.2019
5620 Clouds 5 1015 86 10000 1.5 90 03:46 24.12.2019
5621 Clouds 6 1014 87 10000 5.1 250 02:29 24.12.2019
5622 Clouds 6 1013 81 10000 6.7 240 01:54 24.12.2019
5623 Clouds 6 1013 81 10000 5.1 240 01:26 24.12.2019
5624 Clouds 5 1013 81 10000 5.1 240 00:58 24.12.2019
5625 Clouds 6 1014 86 10000 0.5 50 00:39 24.12.2019
5626 Rain 5 1013 87 10000 4.6 250 00:19 24.12.2019
5627 Clouds 5 1013 86 10000 2.1 180 23:42 23.12.2019
5628 Clouds 5 1013 86 10000 2.1 180 23:42 23.12.2019
5629 Rain 5 1012 87 10000 5.1 250 23:24 23.12.2019
5630 Clouds 6 1013 86 10000 1 270 22:57 23.12.2019
5631 Clouds 6 1013 86 10000 1 270 22:38 23.12.2019
5632 Clouds 6 1012 87 10000 4.6 240 22:20 23.12.2019
5633 Clouds 6 1012 87 10000 4.6 240 21:56 23.12.2019
5634 Clouds 6 1012 81 10000 2.6 250 21:37 23.12.2019
5635 Rain 7 1011 87 10000 4.1 250 21:19 23.12.2019
5636 Rain 7 1011 87 10000 4.1 250 20:58 23.12.2019
5637 Rain 6 1012 81 10000 3.6 240 20:40 23.12.2019
5638 Clouds 6 1010 81 10000 3.6 270 20:19 23.12.2019
5639 Clouds 6 1010 81 10000 3.6 270 19:57 23.12.2019
5640 Rain 6 1010 87 10000 4.6 260 19:38 23.12.2019
5641 Rain 6 1010 81 10000 4.1 260 19:20 23.12.2019
5642 Rain 6 1010 81 10000 4.1 260 18:58 23.12.2019
5643 Rain 6 1010 81 10000 4.1 260 18:58 23.12.2019
5644 Clouds 6 1009 75 10000 3.6 240 18:39 23.12.2019
5645 Clouds 6 1009 75 10000 3.6 240 18:20 23.12.2019
5646 Clouds 6 1009 75 10000 3.6 240 17:58 23.12.2019
5647 Clouds 6 1009 75 10000 4.1 250 17:39 23.12.2019
5648 Clouds 6 1008 81 10000 4.1 260 17:19 23.12.2019
5649 Clouds 6 1008 81 10000 4.1 260 16:57 23.12.2019
5650 Clouds 6 1008 81 10000 3.6 250 16:39 23.12.2019
5651 Clouds 7 1008 75 10000 2.6 250 16:18 23.12.2019
5652 Clouds 7 1008 75 10000 2.6 250 15:56 23.12.2019
5653 Clouds 7 1007 70 10000 6.7 280 15:36 23.12.2019
5654 Clouds 7 1006 65 10000 4.1 280 15:18 23.12.2019
5655 Clouds 7 1006 65 10000 4.1 280 14:55 23.12.2019
5656 Clouds 8 1006 65 10000 6.2 280 14:36 23.12.2019
5657 Clouds 7 1005 65 10000 7.2 280 14:18 23.12.2019
5658 Clouds 7 1005 70 10000 5.7 280 13:41 23.12.2019
5659 Clouds 7 1005 70 10000 5.7 280 13:23 23.12.2019
5660 Clouds 7 1005 70 10000 6.2 280 12:59 23.12.2019
5661 Clouds 7 1004 81 10000 5.1 260 12:40 23.12.2019
5662 Clouds 7 1004 81 10000 5.7 250 12:21 23.12.2019
5663 Clouds 7 1004 87 10000 5.1 250 11:56 23.12.2019
5664 Clouds 7 1004 87 10000 5.1 250 11:38 23.12.2019
5665 Clouds 7 1003 87 10000 4.1 240 11:20 23.12.2019
5666 Clouds 7 1003 87 10000 4.1 240 11:20 23.12.2019
5667 Rain 7 1003 87 10000 4.6 230 10:55 23.12.2019
5668 Rain 7 1003 87 10000 4.6 230 10:55 23.12.2019
5669 Rain 7 1003 87 10000 4.6 230 10:37 23.12.2019
5670 Rain 6 1002 87 10000 4.1 220 10:18 23.12.2019
5671 Rain 6 1002 87 10000 4.1 220 09:54 23.12.2019
5672 Clouds 6 1002 86 10000 3.1 220 09:36 23.12.2019
5673 Clouds 6 1001 93 10000 2.6 210 09:18 23.12.2019
5674 Clouds 6 1001 87 10000 3.6 250 08:41 23.12.2019
5675 Rain 6 1001 87 10000 4.6 250 08:22 23.12.2019
5676 Rain 6 1001 87 10000 4.6 250 07:55 23.12.2019
5677 Clouds 6 1000 87 10000 3.1 250 07:37 23.12.2019
5678 Rain 6 999 81 10000 4.1 250 07:18 23.12.2019
5679 Clouds 6 999 81 10000 4.6 250 06:32 23.12.2019
5680 Clouds 6 999 86 10000 2.1 260 05:56 23.12.2019
5681 Clouds 6 999 86 10000 2.1 260 05:33 23.12.2019
5682 Clouds 6 998 81 10000 3.6 230 04:40 23.12.2019
5683 Clouds 7 997 87 10000 4.6 260 03:58 23.12.2019
5684 Clouds 7 995 75 10000 2.6 260 02:46 23.12.2019
5685 Rain 7 994 93 10000 6.7 250 02:19 23.12.2019
5686 Clouds 7 994 81 10000 3.6 250 01:46 23.12.2019
5687 Rain 7 994 93 7000 7.2 250 01:27 23.12.2019
5688 Clouds 7 994 81 10000 4.1 230 00:46 23.12.2019
5689 Rain 7 993 93 10000 6.2 260 00:25 23.12.2019
5690 Rain 7 992 93 10000 7.2 250 23:56 22.12.2019
5691 Clouds 7 992 81 10000 4.6 240 23:37 22.12.2019
5692 Clouds 7 992 87 10000 3.6 210 23:18 22.12.2019
5693 Clouds 7 991 87 10000 3.6 230 22:41 22.12.2019
5694 Rain 7 990 87 10000 3.6 250 22:22 22.12.2019
5695 Rain 7 990 87 10000 3.6 250 21:59 22.12.2019
5696 Rain 7 989 87 10000 4.6 230 21:40 22.12.2019
5697 Rain 7 988 87 10000 6.7 240 21:21 22.12.2019
5698 Rain 7 988 87 10000 6.7 240 21:21 22.12.2019
5699 Rain 7 988 87 10000 6.7 240 20:59 22.12.2019
5700 Clouds 8 989 87 10000 4.1 220 20:39 22.12.2019
5701 Rain 8 988 93 10000 4.1 190 20:19 22.12.2019
5702 Rain 8 988 93 10000 4.1 190 19:57 22.12.2019
5703 Clouds 8 987 93 10000 2.1 180 19:39 22.12.2019
5704 Clouds 7 987 93 10000 2.1 140 19:20 22.12.2019
5705 Clouds 8 987 93 10000 1.5 150 18:42 22.12.2019
5706 Clouds 7 987 93 10000 1.5 150 18:24 22.12.2019
5707 Clouds 7 986 93 10000 2.1 130 17:57 22.12.2019
5708 Clouds 8 986 93 10000 3.6 190 17:39 22.12.2019
5709 Clouds 7 986 93 10000 3.1 160 17:19 22.12.2019
5710 Clouds 7 986 93 10000 3.1 160 16:58 22.12.2019
5711 Clouds 8 986 93 10000 3.6 160 16:40 22.12.2019
5712 Clouds 8 986 93 10000 3.6 160 16:40 22.12.2019
5713 Clouds 8 985 93 10000 4.6 150 16:22 22.12.2019
5714 Clouds 8 985 93 10000 4.6 150 15:56 22.12.2019
5715 Clouds 8 985 87 10000 5.1 160 15:38 22.12.2019
5716 Clouds 8 985 81 10000 5.1 180 15:20 22.12.2019
5717 Clouds 8 985 81 10000 5.1 180 14:55 22.12.2019
5718 Clouds 8 985 81 10000 4.1 190 14:37 22.12.2019
5719 Clouds 8 985 81 10000 3.6 150 14:18 22.12.2019
5720 Clouds 8 985 81 10000 3.6 150 14:18 22.12.2019
5721 Clouds 8 985 81 10000 3.6 150 13:55 22.12.2019
5722 Drizzle 8 986 93 3000 4.6 190 13:37 22.12.2019
5723 Clouds 8 985 87 10000 4.6 140 13:19 22.12.2019
5724 Clouds 8 985 81 10000 4.6 140 12:56 22.12.2019
5725 Clouds 8 985 81 10000 4.6 140 12:37 22.12.2019
5726 Clouds 7 985 87 10000 5.1 140 12:18 22.12.2019
5727 Clouds 7 985 87 10000 5.1 130 11:56 22.12.2019
5728 Clouds 7 985 87 10000 5.1 130 11:38 22.12.2019
5729 Clouds 7 985 87 10000 4.6 130 11:18 22.12.2019
5730 Clouds 6 985 87 10000 4.6 130 10:55 22.12.2019
5731 Clouds 6 985 86 10000 3.6 130 10:36 22.12.2019
5732 Clouds 6 985 86 10000 3.6 150 10:18 22.12.2019
5733 Clouds 6 985 86 10000 3.6 150 09:56 22.12.2019
5734 Clouds 5 985 86 10000 3.6 140 09:37 22.12.2019
5735 Clouds 5 985 86 10000 3.6 140 09:37 22.12.2019
5736 Clouds 5 985 86 10000 3.1 120 09:19 22.12.2019
5737 Clouds 5 985 86 10000 3.6 140 08:39 22.12.2019
5738 Clouds 5 985 86 10000 1.5 0 08:21 22.12.2019
5739 Clouds 5 985 86 10000 3.6 130 07:40 22.12.2019
5740 Clouds 5 983 81 10000 6.2 160 07:21 22.12.2019
5741 Clouds 5 985 86 10000 3.6 200 06:42 22.12.2019
5742 Clouds 5 983 75 10000 5.7 170 06:21 22.12.2019
5743 Clouds 5 983 75 10000 5.7 170 05:29 22.12.2019
5744 Drizzle 5 985 86 10000 3.1 180 04:45 22.12.2019
5745 Clouds 5 983 81 10000 5.1 140 04:22 22.12.2019
5746 Clouds 4 986 93 10000 2.6 200 02:43 22.12.2019
5747 Clouds 4 986 93 10000 2.6 200 02:43 22.12.2019
5748 Clouds 4 986 93 10000 2.6 200 02:43 22.12.2019
5749 Clouds 4 984 75 10000 7.2 140 01:57 22.12.2019
5750 Clouds 4 984 80 10000 3.6 80 01:31 22.12.2019
5751 Clouds 4 987 93 10000 0.5 0 00:48 22.12.2019
5752 Clouds 4 985 86 10000 3.6 110 00:28 22.12.2019
5753 Clouds 5 986 80 10000 3.6 120 23:57 21.12.2019
5754 Clouds 5 986 80 10000 3.6 120 23:57 21.12.2019
5755 Clouds 4 988 93 10000 1 120 23:39 21.12.2019
5756 Clouds 5 988 86 10000 0.5 10 23:20 21.12.2019
5757 Clouds 5 988 81 10000 2.1 170 22:46 21.12.2019
5758 Clouds 5 988 81 10000 2.1 170 22:46 21.12.2019
5759 Clouds 5 987 81 10000 2.1 130 22:20 21.12.2019
5760 Clouds 5 987 81 10000 2.1 130 21:58 21.12.2019
5761 Clouds 5 989 87 10000 2.1 170 21:39 21.12.2019
5762 Clouds 5 988 81 10000 1.5 150 21:20 21.12.2019
5763 Clouds 5 988 81 10000 1.5 150 20:59 21.12.2019
5764 Clouds 6 989 81 10000 1.5 170 20:41 21.12.2019
5765 Clouds 5 989 81 10000 4.1 140 20:22 21.12.2019
5766 Clouds 5 989 81 10000 4.1 140 19:58 21.12.2019
5767 Clouds 5 990 81 10000 4.6 140 19:40 21.12.2019
5768 Clouds 6 990 75 10000 4.6 140 19:20 21.12.2019
5769 Clouds 6 990 75 10000 4.6 140 18:56 21.12.2019
5770 Clouds 5 990 81 10000 4.6 140 18:37 21.12.2019
5771 Clouds 6 990 81 10000 3.1 140 18:19 21.12.2019
5772 Clouds 6 990 81 10000 3.1 140 17:55 21.12.2019
5773 Clouds 6 990 75 10000 3.6 150 17:36 21.12.2019
5774 Clouds 6 990 75 10000 4.6 160 17:18 21.12.2019
5775 Clouds 6 990 75 10000 4.6 160 17:18 21.12.2019
5776 Clouds 6 991 75 10000 4.1 170 16:41 21.12.2019
5777 Clouds 7 991 81 10000 4.6 180 16:19 21.12.2019
5778 Clouds 7 991 81 10000 4.6 180 15:57 21.12.2019
5779 Clouds 8 991 75 10000 4.6 190 15:38 21.12.2019
5780 Clouds 8 992 75 10000 3.6 180 15:19 21.12.2019
5781 Clouds 9 992 75 10000 3.6 180 14:57 21.12.2019
5782 Clouds 9 992 75 10000 4.1 160 14:38 21.12.2019
5783 Clouds 9 992 70 10000 3.6 190 14:19 21.12.2019
5784 Clouds 8 992 70 10000 3.6 190 13:56 21.12.2019
5785 Clouds 8 992 75 10000 5.7 210 13:38 21.12.2019
5786 Clouds 8 993 81 10000 5.7 200 13:18 21.12.2019
5787 Clouds 8 993 81 10000 5.7 200 12:55 21.12.2019
5788 Clouds 8 993 81 10000 5.7 200 12:37 21.12.2019
5789 Clouds 8 994 87 10000 6.7 190 12:18 21.12.2019
5790 Clouds 7 994 87 10000 5.1 180 11:43 21.12.2019
5791 Clouds 7 994 87 10000 5.1 180 11:25 21.12.2019
5792 Clouds 7 994 87 10000 6.2 180 10:56 21.12.2019
5793 Clouds 6 994 87 10000 2.6 160 10:38 21.12.2019
5794 Clouds 6 994 87 10000 3.1 160 10:19 21.12.2019
5795 Clouds 5 994 87 10000 3.1 170 09:43 21.12.2019
5796 Clouds 5 993 93 10000 4.6 180 09:21 21.12.2019
5797 Clouds 5 993 93 10000 4.6 180 08:57 21.12.2019
5798 Clouds 5 993 93 10000 2.6 160 08:37 21.12.2019
5799 Clouds 5 993 93 10000 4.1 190 08:19 21.12.2019
5800 Clouds 5 993 93 10000 5.1 180 07:44 21.12.2019
5801 Clouds 5 993 100 10000 3.1 160 07:22 21.12.2019
5802 Clouds 5 993 93 10000 2.6 170 06:44 21.12.2019
5803 Clouds 6 993 93 10000 4.1 180 06:25 21.12.2019
5804 Clouds 6 994 93 10000 2.6 140 05:49 21.12.2019
5805 Clouds 6 996 94 0 3.69 212 04:58 21.12.2019
5806 Clouds 6 994 87 10000 4.6 180 03:57 21.12.2019
5807 Clouds 7 994 93 10000 4.6 170 02:52 21.12.2019
5808 Rain 7 991 75 10000 5.1 210 01:59 21.12.2019
5809 Rain 7 991 70 10000 5.7 220 01:28 21.12.2019
5810 Clouds 8 993 87 10000 3.6 180 00:53 21.12.2019
5811 Clouds 8 991 75 10000 5.7 210 00:33 21.12.2019
5812 Clouds 8 991 75 10000 6.2 200 23:59 20.12.2019
5813 Clouds 8 992 87 10000 3.6 190 23:38 20.12.2019
5814 Clouds 8 990 81 10000 4.6 230 23:18 20.12.2019
5815 Clouds 9 991 87 10000 5.1 210 22:40 20.12.2019
5816 Clouds 9 990 87 10000 4.6 190 22:21 20.12.2019
5817 Clouds 9 990 87 10000 4.6 190 21:58 20.12.2019
5818 Clouds 9 990 87 10000 4.6 190 21:39 20.12.2019
5819 Clouds 9 989 87 10000 5.7 200 21:20 20.12.2019
5820 Rain 9 989 87 10000 4.6 210 20:41 20.12.2019
5821 Clouds 9 989 81 10000 5.7 210 20:21 20.12.2019
5822 Clouds 9 989 81 10000 5.7 210 19:59 20.12.2019
5823 Clouds 9 988 87 10000 7.2 200 19:40 20.12.2019
5824 Rain 9 988 87 10000 7.2 200 19:19 20.12.2019
5825 Rain 10 988 81 10000 6.7 200 18:54 20.12.2019
5826 Rain 10 988 81 10000 6.7 200 18:36 20.12.2019
5827 Rain 9 988 81 10000 4.6 140 18:18 20.12.2019
5828 Rain 9 988 76 10000 4.6 140 17:42 20.12.2019
5829 Rain 9 988 76 10000 4.6 140 17:21 20.12.2019
5830 Clouds 8 988 81 10000 6.7 140 16:59 20.12.2019
5831 Clouds 8 988 81 10000 6.7 140 16:39 20.12.2019
5832 Clouds 8 988 81 10000 6.7 140 16:20 20.12.2019
5833 Clouds 8 989 75 10000 6.7 130 15:56 20.12.2019
5834 Clouds 8 990 81 10000 6.2 130 15:38 20.12.2019
5835 Clouds 8 990 81 10000 6.2 130 15:19 20.12.2019
5836 Rain 9 990 75 10000 5.1 140 14:55 20.12.2019
5837 Rain 9 991 66 10000 6.2 170 14:37 20.12.2019
5838 Clouds 8 991 66 10000 6.2 170 14:18 20.12.2019
5839 Clouds 8 991 66 10000 5.1 190 13:41 20.12.2019
5840 Clouds 8 992 66 10000 5.1 140 13:20 20.12.2019
5841 Clouds 7 992 66 10000 5.1 140 12:58 20.12.2019
5842 Clouds 8 992 70 10000 1.5 240 12:38 20.12.2019
5843 Clouds 8 992 70 10000 1.5 240 12:19 20.12.2019
5844 Clouds 8 992 75 10000 1 0 11:59 20.12.2019
5845 Clouds 8 992 75 10000 1 0 11:59 20.12.2019
5846 Clouds 8 992 75 10000 1 0 11:39 20.12.2019
5847 Clouds 6 992 81 10000 1 0 11:19 20.12.2019
5848 Clouds 5 993 86 10000 2.6 50 10:58 20.12.2019
5849 Clouds 5 993 86 10000 2.6 50 10:39 20.12.2019
5850 Clouds 4 993 86 10000 5.1 60 10:20 20.12.2019
5851 Fog 5 994 87 5000 1 0 09:44 20.12.2019
5852 Fog 5 994 87 5000 1 0 09:44 20.12.2019
5853 Clouds 3 995 93 10000 2.1 90 09:22 20.12.2019
5854 Clouds 3 995 100 10000 2.1 90 08:59 20.12.2019
5855 Clouds 3 995 100 10000 2.1 90 08:59 20.12.2019
5856 Clouds 3 995 100 10000 2.1 90 08:41 20.12.2019
5857 Clouds 3 996 86 10000 2.6 260 08:22 20.12.2019
5858 Fog 3 996 100 5000 2.1 300 07:58 20.12.2019
5859 Clouds 3 996 93 10000 3.6 70 07:39 20.12.2019
5860 Clouds 4 994 61 10000 3.1 100 07:18 20.12.2019
5861 Fog 4 997 100 800 2.1 300 06:49 20.12.2019
5862 Clouds 4 997 93 10000 3.1 40 06:30 20.12.2019
5863 Clouds 4 996 70 10000 4.1 110 05:49 20.12.2019
5864 Clouds 2 1000 100 350 1 270 05:25 20.12.2019
5865 Clear 3 1001 100 300 0.5 280 03:57 20.12.2019
5866 Clear 3 1000 70 10000 2.6 130 03:29 20.12.2019
5867 Clear 2 1004 90 100 0.5 10 02:38 20.12.2019
5868 Clouds 4 1004 90 100 0.5 10 01:44 20.12.2019
5869 Clouds 4 1002 62 10000 5.1 130 01:18 20.12.2019
5870 Clouds 3 1006 90 50 2.18 154 00:41 20.12.2019
5871 Clouds 3 1006 90 50 2.18 154 00:19 20.12.2019
5872 Clouds 4 1006 90 50 2.18 154 23:42 19.12.2019
5873 Clouds 4 1004 66 10000 2.6 130 23:23 19.12.2019
5874 Clouds 5 1007 100 100 1.5 100 22:56 19.12.2019
5875 Clouds 5 1006 87 10000 5.1 150 22:36 19.12.2019
5876 Clouds 5 1006 87 10000 5.1 150 22:18 19.12.2019
5877 Clouds 5 1006 87 10000 5.1 150 22:18 19.12.2019
5878 Clouds 5 1006 87 10000 5.1 150 21:42 19.12.2019
5879 Clouds 5 1007 81 10000 5.7 140 21:20 19.12.2019
5880 Clouds 5 1008 87 10000 3.1 140 20:58 19.12.2019
5881 Clouds 5 1008 93 10000 2.6 150 20:38 19.12.2019
5882 Clouds 6 1008 93 10000 2.6 150 20:20 19.12.2019
5883 Clouds 6 1008 93 10000 2.1 100 19:59 19.12.2019
5884 Clouds 6 1008 93 10000 2.1 100 19:59 19.12.2019
5885 Clouds 6 1008 93 10000 2.1 100 19:40 19.12.2019
5886 Clouds 6 1008 93 10000 2.1 90 19:20 19.12.2019
5887 Clouds 6 1009 87 10000 2.1 110 18:59 19.12.2019
5888 Clouds 6 1009 87 10000 2.1 110 18:40 19.12.2019
5889 Clouds 6 1009 87 10000 0.5 0 18:20 19.12.2019
5890 Clouds 6 1010 87 10000 2.1 90 17:56 19.12.2019
5891 Clouds 6 1010 76 10000 2.1 250 17:38 19.12.2019
5892 Clouds 8 1010 76 10000 2.1 250 17:18 19.12.2019
5893 Clouds 7 1010 81 10000 1 0 16:56 19.12.2019
5894 Clouds 7 1010 81 10000 1 0 16:56 19.12.2019
5895 Clouds 7 1010 81 10000 3.1 110 16:38 19.12.2019
5896 Clouds 8 1010 81 10000 3.1 110 16:19 19.12.2019
5897 Clouds 7 1011 81 10000 2.1 110 15:57 19.12.2019
5898 Clouds 7 1011 93 10000 1.5 120 15:38 19.12.2019
5899 Clouds 8 1011 93 10000 1.5 120 15:19 19.12.2019
5900 Clouds 8 1011 93 10000 1.5 120 15:19 19.12.2019
5901 Clouds 9 1011 81 10000 2.1 190 14:54 19.12.2019
5902 Clouds 8 1011 81 10000 1 0 14:36 19.12.2019
5903 Clear 10 1011 81 10000 1 0 14:18 19.12.2019
5904 Clear 10 1012 87 10000 4.1 80 13:38 19.12.2019
5905 Clear 10 1012 87 10000 4.1 80 13:20 19.12.2019
5906 Clear 9 1013 93 10000 3.1 80 12:58 19.12.2019
5907 Clear 9 1013 93 10000 3.1 80 12:58 19.12.2019
5908 Clear 9 1013 93 10000 3.1 80 12:39 19.12.2019
5909 Clear 9 1014 93 10000 1 90 12:19 19.12.2019
5910 Clear 9 1014 93 10000 1 90 12:19 19.12.2019
5911 Clear 9 1014 93 10000 2.6 110 11:58 19.12.2019
5912 Clear 9 1014 93 10000 2.6 110 11:40 19.12.2019
5913 Clear 8 1015 87 10000 3.6 110 11:18 19.12.2019
5914 Clear 8 1015 87 10000 3.6 110 11:18 19.12.2019
5915 Clear 7 1015 87 10000 3.1 120 10:58 19.12.2019
5916 Clear 7 1015 87 10000 3.1 120 10:58 19.12.2019
5917 Clear 7 1015 93 10000 2.6 140 10:38 19.12.2019
5918 Clear 8 1015 93 10000 2.6 140 10:20 19.12.2019
5919 Clear 7 1015 87 10000 4.6 130 09:55 19.12.2019
5920 Clear 6 1015 93 10000 3.6 130 09:37 19.12.2019
5921 Clear 5 1015 93 10000 3.6 130 09:18 19.12.2019
5922 Clear 5 1015 93 10000 4.1 120 08:42 19.12.2019
5923 Clouds 5 1015 100 10000 3.1 120 08:20 19.12.2019
5924 Clouds 5 1015 100 10000 3.1 120 08:20 19.12.2019
5925 Clouds 5 1015 86 10000 1 0 07:59 19.12.2019
5926 Fog 4 1017 93 500 1.5 300 07:40 19.12.2019
5927 Fog 5 1017 93 500 1.5 300 07:22 19.12.2019
5928 Fog 4 1017 93 500 1.5 300 06:52 19.12.2019
5929 Fog 4 1017 93 500 1.5 300 06:52 19.12.2019
5930 Fog 4 1017 93 200 1.5 300 06:33 19.12.2019
5931 Fog 3 1017 93 200 1.5 300 05:59 19.12.2019
5932 Fog 4 1017 93 300 1 300 05:41 19.12.2019
5933 Fog 4 1017 95 300 1 300 05:18 19.12.2019
5934 Fog 4 1017 95 300 1.5 290 03:46 19.12.2019
5935 Clouds 4 1015 81 10000 5.7 170 02:25 19.12.2019
5936 Fog 4 1018 93 800 0.5 300 01:24 19.12.2019
5937 Fog 4 1018 94 800 0.5 300 00:45 19.12.2019
5938 Clouds 4 1016 70 10000 3.1 140 00:25 19.12.2019
5939 Fog 4 1019 94 10000 0.5 290 23:59 18.12.2019
5940 Clouds 4 1016 70 10000 5.1 150 23:41 18.12.2019
5941 Clear 3 1016 70 10000 5.1 150 23:19 18.12.2019
5942 Fog 3 1019 93 10000 0.5 310 22:56 18.12.2019
5943 Clear 3 1017 75 10000 3.6 150 22:37 18.12.2019
5944 Clear 3 1017 75 10000 3.6 150 22:19 18.12.2019
5945 Fog 3 1019 93 10000 1 310 21:57 18.12.2019
5946 Clear 3 1017 75 10000 3.1 140 21:39 18.12.2019
5947 Clear 3 1017 75 10000 3.1 140 21:19 18.12.2019
5948 Clear 3 1019 93 10000 1 280 20:55 18.12.2019
5949 Clear 3 1018 86 10000 4.6 170 20:37 18.12.2019
5950 Clouds 4 1018 86 10000 4.6 170 20:19 18.12.2019
5951 Clouds 4 1018 93 10000 4.1 160 19:55 18.12.2019
5952 Clouds 4 1018 86 10000 4.1 160 19:37 18.12.2019
5953 Clouds 4 1018 86 10000 4.1 160 19:18 18.12.2019
5954 Clouds 4 1018 86 10000 4.1 160 19:18 18.12.2019
5955 Clouds 4 1018 86 10000 2.1 150 18:44 18.12.2019
5956 Clouds 4 1018 93 10000 1 0 18:25 18.12.2019
5957 Clouds 4 1018 93 10000 1 0 18:25 18.12.2019
5958 Clouds 5 1018 86 10000 2.6 180 17:57 18.12.2019
5959 Clouds 5 1018 80 10000 2.1 180 17:39 18.12.2019
5960 Clear 5 1018 80 10000 2.1 180 17:19 18.12.2019
5961 Clear 6 1018 81 10000 1.5 190 16:56 18.12.2019
5962 Clear 6 1018 81 10000 1.5 190 16:38 18.12.2019
5963 Clear 7 1018 75 10000 2.1 220 16:20 18.12.2019
5964 Clouds 8 1018 70 10000 2.1 200 15:55 18.12.2019
5965 Clouds 8 1018 70 10000 2.1 200 15:37 18.12.2019
5966 Clouds 9 1018 70 10000 2.6 250 15:18 18.12.2019
5967 Clouds 9 1018 70 10000 3.1 260 14:40 18.12.2019
5968 Clouds 10 1017 70 10000 3.1 250 14:21 18.12.2019
5969 Clouds 9 1017 70 10000 3.1 250 13:57 18.12.2019
5970 Clouds 10 1017 70 10000 3.6 250 13:38 18.12.2019
5971 Clouds 9 1017 76 10000 4.1 230 13:19 18.12.2019
5972 Clouds 9 1017 76 10000 4.1 220 12:57 18.12.2019
5973 Clouds 9 1017 76 10000 4.1 220 12:38 18.12.2019
5974 Clouds 9 1017 76 10000 4.1 220 12:19 18.12.2019
5975 Clouds 9 1017 81 10000 3.1 230 11:55 18.12.2019
5976 Clouds 9 1017 81 10000 3.1 230 11:55 18.12.2019
5977 Clouds 9 1017 81 10000 3.1 230 11:37 18.12.2019
5978 Clouds 8 1017 81 10000 3.6 230 11:18 18.12.2019
5979 Clouds 8 1016 81 10000 2.1 210 10:55 18.12.2019
5980 Clouds 8 1016 81 10000 2.1 210 10:37 18.12.2019
5981 Clouds 8 1016 93 10000 1.5 240 10:19 18.12.2019
5982 Clouds 8 1015 87 10000 1 0 09:43 18.12.2019
5983 Clouds 7 1015 87 10000 2.1 260 09:18 18.12.2019
5984 Clouds 7 1014 87 10000 2.6 290 08:40 18.12.2019
5985 Clouds 8 1014 81 10000 2.1 270 08:21 18.12.2019
5986 Clouds 8 1013 87 10000 2.1 230 07:43 18.12.2019
5987 Clouds 8 1013 87 10000 2.6 240 07:23 18.12.2019
5988 Clouds 8 1013 81 10000 2.6 230 06:55 18.12.2019
5989 Clouds 8 1012 87 10000 2.1 270 06:27 18.12.2019
5990 Rain 9 1012 76 10000 5.7 280 05:47 18.12.2019
5991 Rain 10 1011 81 9000 5.7 270 04:52 18.12.2019
5992 Rain 10 1009 87 10000 5.1 260 02:55 18.12.2019
5993 Clouds 10 1008 81 10000 5.1 210 02:36 18.12.2019
5994 Rain 10 1008 87 10000 6.2 260 02:18 18.12.2019
5995 Rain 11 1007 71 10000 4.6 210 01:40 18.12.2019
5996 Rain 11 1006 87 10000 7.2 210 01:21 18.12.2019
5997 Rain 11 1007 71 10000 6.7 220 00:40 18.12.2019
5998 Rain 11 1005 87 10000 6.7 240 00:22 18.12.2019
5999 Rain 11 1005 87 10000 6.7 240 23:56 17.12.2019
6000 Clouds 11 1006 76 10000 4.1 250 23:37 17.12.2019
6001 Rain 11 1003 76 10000 4.1 180 23:18 17.12.2019
6002 Rain 11 1003 76 10000 4.1 180 23:18 17.12.2019
6003 Rain 11 1005 76 10000 5.1 200 22:54 17.12.2019
6004 Rain 11 1003 66 9000 5.7 170 22:36 17.12.2019
6005 Clouds 11 1003 66 10000 4.6 170 22:18 17.12.2019
6006 Clouds 11 1003 66 10000 4.6 170 22:18 17.12.2019
6007 Clouds 11 1005 71 10000 3.6 210 21:55 17.12.2019
6008 Clouds 11 1005 71 10000 3.6 210 21:55 17.12.2019
6009 Clouds 11 1005 71 10000 3.6 210 21:36 17.12.2019
6010 Clouds 11 1003 62 10000 5.7 170 21:18 17.12.2019
6011 Clouds 11 1006 71 10000 4.6 190 20:55 17.12.2019
6012 Clouds 11 1006 71 10000 4.6 190 20:37 17.12.2019
6013 Clouds 11 1005 58 10000 7.2 190 20:18 17.12.2019
6014 Clouds 11 1005 58 10000 5.7 170 19:41 17.12.2019
6015 Rain 11 1005 66 10000 5.7 160 19:20 17.12.2019
6016 Rain 11 1005 66 10000 5.7 160 18:58 17.12.2019
6017 Rain 11 1005 58 10000 5.1 180 18:40 17.12.2019
6018 Clouds 11 1005 62 10000 3.6 160 18:21 17.12.2019
6019 Clouds 11 1005 62 10000 2.6 150 17:58 17.12.2019
6020 Clouds 11 1005 62 10000 2.6 150 17:39 17.12.2019
6021 Clouds 11 1005 62 10000 2.6 130 17:19 17.12.2019
6022 Clouds 11 1005 62 10000 3.6 180 16:56 17.12.2019
6023 Clouds 11 1005 62 10000 3.6 180 16:37 17.12.2019
6024 Clouds 11 1005 62 10000 4.6 200 16:18 17.12.2019
6025 Clouds 11 1004 58 10000 4.1 200 15:54 17.12.2019
6026 Clouds 11 1004 58 10000 4.1 200 15:36 17.12.2019
6027 Clouds 12 1004 58 10000 4.6 200 15:18 17.12.2019
6028 Clouds 12 1004 58 10000 4.6 200 14:54 17.12.2019
6029 Clouds 13 1004 54 10000 3.1 190 14:36 17.12.2019
6030 Clouds 13 1004 54 10000 3.1 190 14:36 17.12.2019
6031 Clouds 13 1004 54 10000 3.1 200 14:18 17.12.2019
6032 Clouds 12 1004 54 10000 6.7 210 13:54 17.12.2019
6033 Clouds 13 1004 54 10000 3.1 200 13:54 17.12.2019
6034 Clouds 12 1004 54 10000 6.7 210 13:36 17.12.2019
6035 Clouds 13 1004 51 10000 6.2 210 13:18 17.12.2019
6036 Clouds 13 1004 54 10000 6.7 190 12:39 17.12.2019
6037 Clouds 12 1004 54 10000 4.6 200 12:19 17.12.2019
6038 Clouds 12 1004 54 10000 4.6 200 11:59 17.12.2019
6039 Clouds 12 1004 62 10000 1.5 0 11:37 17.12.2019
6040 Clouds 11 1004 66 10000 1.5 50 11:18 17.12.2019
6041 Clouds 11 1005 71 10000 2.6 0 10:58 17.12.2019
6042 Clouds 10 1005 71 10000 2.6 0 10:39 17.12.2019
6043 Clouds 10 1004 66 10000 2.6 130 10:20 17.12.2019
6044 Clouds 9 1004 66 10000 2.6 130 09:58 17.12.2019
6045 Clouds 10 1004 75 10000 2.1 130 09:40 17.12.2019
6046 Clouds 8 1004 75 10000 2.6 130 09:19 17.12.2019
6047 Clouds 8 1003 62 10000 5.1 190 08:55 17.12.2019
6048 Clouds 8 1003 62 10000 5.1 190 08:36 17.12.2019
6049 Clouds 9 1003 58 10000 5.7 190 08:18 17.12.2019
6050 Clouds 8 1003 58 10000 5.1 190 07:42 17.12.2019
6051 Clouds 8 1001 62 10000 3.1 160 07:23 17.12.2019
6052 Clouds 8 1004 70 10000 4.6 180 06:53 17.12.2019
6053 Clouds 7 1001 62 10000 3.1 170 06:32 17.12.2019
6054 Clouds 8 1003 81 10000 5.7 180 05:50 17.12.2019
6055 Clouds 8 1003 81 10000 5.7 180 05:50 17.12.2019
6056 Clouds 7 1001 62 10000 3.1 170 05:31 17.12.2019
6057 Clouds 7 1002 71 10000 3.1 220 04:00 17.12.2019
6058 Clouds 6 1001 71 10000 2.1 70 02:26 17.12.2019
6059 Fog 6 1004 100 3500 3.31 167 01:22 17.12.2019
6060 Clouds 6 1002 87 10000 1.5 10 00:48 17.12.2019
6061 Fog 6 1004 100 800 3.31 167 00:22 17.12.2019
6062 Clouds 6 1003 81 10000 3.1 150 23:58 16.12.2019
6063 Fog 6 1004 93 200 3.31 167 23:40 16.12.2019
6064 Clouds 6 1003 81 10000 2.1 130 23:18 16.12.2019
6065 Fog 6 1005 100 100 2.73 169 22:54 16.12.2019
6066 Fog 6 1005 100 100 2.73 169 22:36 16.12.2019
6067 Clouds 6 1004 93 10000 3.1 110 22:18 16.12.2019
6068 Clouds 6 1004 93 10000 3.1 110 21:54 16.12.2019
6069 Clouds 6 1004 87 10000 3.6 120 21:36 16.12.2019
6070 Fog 6 1006 93 100 0.5 190 21:36 16.12.2019
6071 Clouds 7 1004 87 10000 2.1 130 21:18 16.12.2019
6072 Fog 7 1006 93 500 2.73 169 20:55 16.12.2019
6073 Fog 7 1006 93 500 2.73 169 20:37 16.12.2019
6074 Clouds 7 1005 93 10000 3.1 90 20:18 16.12.2019
6075 Clouds 7 1005 93 10000 3.1 90 20:18 16.12.2019
6076 Clouds 7 1005 93 10000 3.1 90 19:54 16.12.2019
6077 Fog 7 1006 100 200 1 60 19:36 16.12.2019
6078 Clouds 7 1005 93 10000 3.6 150 19:18 16.12.2019
6079 Clouds 7 1005 93 10000 3.6 150 19:18 16.12.2019
6080 Clouds 7 1006 87 10000 3.6 160 18:42 16.12.2019
6081 Clouds 8 1006 93 10000 3.1 180 18:20 16.12.2019
6082 Clouds 7 1006 93 10000 3.1 180 17:59 16.12.2019
6083 Clouds 7 1006 93 10000 2.6 160 17:41 16.12.2019
6084 Clouds 8 1006 93 10000 2.1 150 17:22 16.12.2019
6085 Clouds 8 1006 93 10000 2.1 150 16:58 16.12.2019
6086 Clouds 8 1006 93 10000 3.6 170 16:39 16.12.2019
6087 Clouds 8 1006 93 10000 3.6 170 16:39 16.12.2019
6088 Clouds 8 1006 93 10000 3.1 150 16:20 16.12.2019
6089 Clouds 8 1006 93 10000 3.1 150 15:59 16.12.2019
6090 Clouds 8 1006 93 10000 3.1 150 15:39 16.12.2019
6091 Rain 8 1006 93 10000 3.1 130 15:21 16.12.2019
6092 Rain 8 1006 93 10000 3.1 130 14:58 16.12.2019
6093 Rain 8 1006 93 10000 1.5 140 14:38 16.12.2019
6094 Rain 8 1006 93 9000 3.1 130 14:19 16.12.2019
6095 Clouds 8 1006 93 10000 3.6 130 13:57 16.12.2019
6096 Clouds 8 1006 93 10000 3.6 130 13:38 16.12.2019
6097 Clouds 8 1007 93 10000 2.6 140 13:20 16.12.2019
6098 Clouds 8 1007 93 10000 2.6 140 12:58 16.12.2019
6099 Drizzle 8 1007 93 10000 2.6 130 12:39 16.12.2019
6100 Clouds 8 1007 87 10000 2.6 160 12:19 16.12.2019
6101 Clouds 8 1007 87 10000 2.6 160 11:59 16.12.2019
6102 Drizzle 8 1008 93 8000 5.7 200 11:40 16.12.2019
6103 Clouds 7 1008 93 10000 4.1 170 11:20 16.12.2019
6104 Clouds 7 1008 93 10000 4.1 170 10:58 16.12.2019
6105 Clouds 8 1008 93 10000 2.1 190 10:40 16.12.2019
6106 Clouds 7 1008 93 10000 3.1 140 10:20 16.12.2019
6107 Clouds 7 1008 93 10000 1 0 09:45 16.12.2019
6108 Clouds 7 1008 93 10000 2.1 20 09:27 16.12.2019
6109 Clouds 6 1008 93 10000 2.1 0 08:56 16.12.2019
6110 Clouds 6 1008 93 10000 2.1 0 08:37 16.12.2019
6111 Clouds 6 1007 87 10000 2.6 140 08:18 16.12.2019
6112 Clouds 6 1007 87 10000 2.6 140 08:18 16.12.2019
6113 Clouds 6 1007 93 10000 2.1 140 07:44 16.12.2019
6114 Clouds 6 1006 81 10000 4.1 180 07:22 16.12.2019
6115 Clouds 6 1008 93 10000 3.6 210 06:45 16.12.2019
6116 Clouds 5 1008 87 10000 3.6 190 06:25 16.12.2019
6117 Clouds 5 1008 87 10000 3.6 190 05:50 16.12.2019
6118 Rain 5 1007 75 10000 4.6 170 05:31 16.12.2019
6119 Clouds 4 1008 93 10000 0.5 120 04:22 16.12.2019
6120 Clouds 3 1008 80 10000 3.6 120 02:31 16.12.2019
6121 Clouds 3 1009 90 10000 1 110 01:45 16.12.2019
6122 Clouds 4 1009 86 10000 0.5 130 00:43 16.12.2019
6123 Clouds 4 1008 87 10000 4.6 190 00:25 16.12.2019
6124 Clouds 4 1008 87 10000 4.6 190 23:58 15.12.2019
6125 Clouds 4 1009 80 10000 2.1 180 23:39 15.12.2019
6126 Clouds 4 1007 78 10000 4.6 190 23:20 15.12.2019
6127 Clouds 4 1009 80 10000 1.5 240 22:56 15.12.2019
6128 Clouds 4 1009 80 10000 1.5 240 22:37 15.12.2019
6129 Clouds 5 1007 78 10000 3.6 220 22:18 15.12.2019
6130 Clouds 5 1007 78 10000 3.6 220 21:56 15.12.2019
6131 Clouds 5 1007 78 10000 3.6 220 21:56 15.12.2019
6132 Clouds 5 1007 78 10000 3.6 220 21:37 15.12.2019
6133 Clouds 5 1007 78 10000 5.7 230 21:19 15.12.2019
6134 Clouds 5 1007 78 10000 5.7 230 20:55 15.12.2019
6135 Clouds 6 1006 78 10000 6.2 230 20:37 15.12.2019
6136 Clouds 6 1006 80 10000 6.2 230 20:18 15.12.2019
6137 Clouds 6 1006 80 10000 6.2 230 19:56 15.12.2019
6138 Clouds 6 1005 70 10000 6.7 230 19:38 15.12.2019
6139 Clouds 6 1005 70 10000 6.2 230 19:18 15.12.2019
6140 Clouds 6 1005 82 10000 8.7 230 18:55 15.12.2019
6141 Clouds 6 1005 82 10000 8.7 230 18:37 15.12.2019
6142 Clouds 6 1004 70 10000 5.1 230 18:18 15.12.2019
6143 Clouds 6 1004 70 10000 5.1 220 17:56 15.12.2019
6144 Clouds 6 1004 70 10000 5.1 220 17:36 15.12.2019
6145 Clouds 6 1004 77 10000 5.1 220 17:18 15.12.2019
6146 Clouds 6 1004 77 10000 5.1 220 17:18 15.12.2019
6147 Clouds 6 1004 77 10000 5.1 220 17:18 15.12.2019
6148 Clouds 6 1003 76 10000 4.6 230 16:43 15.12.2019
6149 Clouds 6 1003 77 10000 4.6 230 16:23 15.12.2019
6150 Clouds 7 1003 77 10000 4.6 230 15:58 15.12.2019
6151 Clouds 7 1003 77 10000 5.1 220 15:39 15.12.2019
6152 Clouds 7 1002 76 10000 4.6 230 15:20 15.12.2019
6153 Clouds 7 1002 76 10000 5.7 240 14:57 15.12.2019
6154 Clouds 8 1002 76 10000 5.7 240 14:38 15.12.2019
6155 Clouds 8 1001 68 10000 6.2 240 14:19 15.12.2019
6156 Clouds 8 1001 68 10000 6.2 240 13:59 15.12.2019
6157 Clouds 8 1001 65 10000 7.7 250 13:39 15.12.2019
6158 Clouds 8 1000 61 10000 7.7 250 13:20 15.12.2019
6159 Clouds 8 1000 61 10000 7.7 250 12:57 15.12.2019
6160 Clouds 8 1000 61 10000 7.7 250 12:57 15.12.2019
6161 Clouds 8 1000 65 10000 7.7 260 12:39 15.12.2019
6162 Clouds 8 999 70 10000 6.2 260 12:21 15.12.2019
6163 Clouds 8 999 70 10000 6.2 260 11:59 15.12.2019
6164 Clouds 8 999 70 10000 5.7 260 11:38 15.12.2019
6165 Clouds 8 999 70 10000 5.7 260 11:38 15.12.2019
6166 Clouds 7 998 75 10000 6.7 260 11:19 15.12.2019
6167 Clouds 7 997 75 10000 7.7 250 10:56 15.12.2019
6168 Clouds 7 997 75 10000 7.7 250 10:37 15.12.2019
6169 Clouds 7 997 87 10000 6.2 250 10:19 15.12.2019
6170 Clouds 7 997 87 10000 6.2 250 09:57 15.12.2019
6171 Rain 7 998 93 7000 5.7 280 09:37 15.12.2019
6172 Rain 8 994 87 10000 8.2 220 09:19 15.12.2019
6173 Clouds 8 994 87 10000 8.7 210 08:42 15.12.2019
6174 Drizzle 8 994 87 10000 9.3 210 08:23 15.12.2019
6175 Drizzle 7 994 87 10000 9.3 210 07:57 15.12.2019
6176 Drizzle 7 994 81 10000 8.2 200 07:38 15.12.2019
6177 Rain 7 992 81 10000 8.7 200 06:59 15.12.2019
6178 Clouds 6 993 75 10000 7.2 180 06:24 15.12.2019
6179 Drizzle 6 995 87 10000 8.2 180 05:42 15.12.2019
6180 Drizzle 6 995 87 10000 8.2 180 05:20 15.12.2019
6181 Clouds 5 995 70 10000 5.7 150 04:18 15.12.2019
6182 Clouds 4 999 86 10000 4.6 210 02:35 15.12.2019
6183 Clouds 4 1001 80 10000 5.1 210 01:57 15.12.2019
6184 Clouds 4 1001 80 10000 5.1 210 01:39 15.12.2019
6185 Clouds 4 999 75 10000 7.2 210 01:18 15.12.2019
6186 Clouds 4 1001 86 10000 1.5 260 00:44 15.12.2019
6187 Clouds 4 999 75 10000 7.7 220 00:25 15.12.2019
6188 Clouds 4 999 82 10000 5.7 230 23:40 14.12.2019
6189 Clouds 4 999 80 10000 7.2 230 23:22 14.12.2019
6190 Clouds 4 1001 78 10000 5.1 250 22:59 14.12.2019
6191 Clouds 4 1001 78 10000 5.1 250 22:41 14.12.2019
6192 Clouds 5 998 65 10000 8.7 270 22:21 14.12.2019
6193 Clouds 4 998 65 10000 8.7 270 21:56 14.12.2019
6194 Clouds 4 998 65 10000 8.7 270 21:38 14.12.2019
6195 Clouds 4 997 65 10000 9.8 270 21:19 14.12.2019
6196 Clouds 5 997 65 10000 9.8 270 20:57 14.12.2019
6197 Rain 5 996 78 10000 9.3 260 20:39 14.12.2019
6198 Rain 5 995 75 10000 8.7 260 20:19 14.12.2019
6199 Rain 5 994 86 10000 6.2 250 19:57 14.12.2019
6200 Rain 5 994 86 10000 6.2 250 19:37 14.12.2019
6201 Drizzle 5 993 80 10000 7.2 220 19:19 14.12.2019
6202 Rain 5 993 86 10000 8.2 210 18:56 14.12.2019
6203 Rain 4 993 86 10000 8.2 210 18:37 14.12.2019
6204 Rain 4 993 86 10000 6.7 200 18:19 14.12.2019
6205 Rain 5 993 86 10000 6.7 210 17:43 14.12.2019
6206 Clouds 5 994 75 10000 7.2 220 17:24 14.12.2019
6207 Clouds 5 994 75 10000 7.2 220 16:58 14.12.2019
6208 Clouds 5 993 73 10000 7.2 240 16:38 14.12.2019
6209 Clouds 5 993 73 10000 7.2 240 16:38 14.12.2019
6210 Clouds 5 993 75 10000 6.2 250 16:18 14.12.2019
6211 Clouds 5 993 80 10000 7.2 250 15:43 14.12.2019
6212 Clouds 5 993 86 10000 5.1 250 15:21 14.12.2019
6213 Clouds 5 993 86 10000 5.1 250 14:58 14.12.2019
6214 Rain 5 992 86 10000 6.7 270 14:38 14.12.2019
6215 Rain 5 991 86 10000 7.2 260 14:19 14.12.2019
6216 Rain 5 991 86 10000 7.2 260 14:19 14.12.2019
6217 Rain 5 990 80 10000 7.7 260 13:45 14.12.2019
6218 Clouds 5 990 75 10000 7.7 270 13:21 14.12.2019
6219 Clouds 5 990 75 10000 7.7 270 13:21 14.12.2019
6220 Clouds 5 990 75 10000 7.7 270 12:59 14.12.2019
6221 Clouds 5 989 75 10000 5.7 260 12:41 14.12.2019
6222 Clouds 5 989 80 10000 5.7 250 12:21 14.12.2019
6223 Clouds 5 989 80 10000 5.7 250 12:21 14.12.2019
6224 Clouds 5 989 80 10000 5.7 250 11:59 14.12.2019
6225 Clouds 5 988 80 10000 6.2 260 11:39 14.12.2019
6226 Drizzle 4 988 86 10000 9.8 280 11:20 14.12.2019
6227 Drizzle 4 986 93 10000 9.8 290 10:59 14.12.2019
6228 Drizzle 4 986 93 10000 9.8 290 10:40 14.12.2019
6229 Clouds 4 985 86 10000 7.2 280 10:22 14.12.2019
6230 Clouds 3 985 86 10000 7.2 280 09:57 14.12.2019
6231 Clouds 3 983 93 10000 4.6 230 09:39 14.12.2019
6232 Rain 3 982 93 10000 2.1 190 09:19 14.12.2019
6233 Rain 3 982 93 9000 4.6 170 08:43 14.12.2019
6234 Rain 3 981 86 10000 5.1 170 08:20 14.12.2019
6235 Rain 3 982 93 10000 7.2 180 07:44 14.12.2019
6236 Drizzle 3 982 86 10000 6.2 190 07:23 14.12.2019
6237 Drizzle 4 982 86 10000 6.2 190 06:57 14.12.2019
6238 Drizzle 4 982 86 10000 6.2 190 06:37 14.12.2019
6239 Drizzle 4 983 80 10000 5.7 190 05:59 14.12.2019
6240 Clouds 4 985 86 10000 4.6 210 04:48 14.12.2019
6241 Clouds 4 987 86 10000 6.7 220 02:35 14.12.2019
6242 Drizzle 4 986 93 8000 4.6 210 01:56 14.12.2019
6243 Clouds 4 984 80 10000 5.1 200 01:56 14.12.2019
6244 Drizzle 4 986 93 8000 4.6 210 01:37 14.12.2019
6245 Clouds 3 986 86 10000 5.7 220 00:47 14.12.2019
6246 Clouds 3 984 86 10000 6.7 240 00:27 14.12.2019
6247 Clouds 3 986 93 10000 3.1 210 23:56 13.12.2019
6248 Clouds 3 984 86 10000 4.1 260 23:37 13.12.2019
6249 Clouds 3 984 86 10000 4.1 260 23:18 13.12.2019
6250 Clouds 3 984 86 10000 4.1 260 22:40 13.12.2019
6251 Rain 3 984 86 10000 4.6 260 22:19 13.12.2019
6252 Drizzle 3 983 93 10000 4.6 260 21:56 13.12.2019
6253 Drizzle 3 983 93 10000 4.6 260 21:37 13.12.2019
6254 Drizzle 2 982 93 10000 4.6 230 21:19 13.12.2019
6255 Clouds 2 982 93 10000 4.1 230 20:41 13.12.2019
6256 Rain 2 981 100 10000 2.6 200 20:22 13.12.2019
6257 Rain 2 981 100 10000 2.6 200 19:59 13.12.2019
6258 Clouds 2 980 100 10000 2.6 190 19:40 13.12.2019
6259 Clouds 2 980 100 10000 2.6 190 19:22 13.12.2019
6260 Drizzle 2 980 100 8000 1.5 160 18:58 13.12.2019
6261 Drizzle 2 980 98 9000 1.5 130 18:40 13.12.2019
6262 Drizzle 2 980 98 9000 1.5 130 18:19 13.12.2019
6263 Rain 1 979 98 8000 3.1 140 17:43 13.12.2019
6264 Rain 1 979 97 8000 3.1 140 17:20 13.12.2019
6265 Rain 1 979 97 9000 3.6 140 16:59 13.12.2019
6266 Rain 1 978 100 8000 3.6 140 16:39 13.12.2019
6267 Rain 2 978 100 8000 3.6 140 16:20 13.12.2019
6268 Rain 2 978 100 6000 4.1 140 15:58 13.12.2019
6269 Rain 2 978 97 5000 2.6 130 15:37 13.12.2019
6270 Rain 2 978 97 5000 2.6 130 15:18 13.12.2019
6271 Snow 2 977 97 4000 4.6 130 14:41 13.12.2019
6272 Snow 2 977 91 8000 4.6 140 14:21 13.12.2019
6273 Snow 2 977 91 10000 4.6 140 13:57 13.12.2019
6274 Rain 2 976 91 10000 4.6 150 13:38 13.12.2019
6275 Rain 2 976 88 10000 4.6 150 13:19 13.12.2019
6276 Snow 2 976 88 10000 5.1 140 12:42 13.12.2019
6277 Clouds 3 977 88 8000 2.1 180 12:20 13.12.2019
6278 Rain 3 977 86 10000 4.1 140 11:57 13.12.2019
6279 Rain 2 976 80 10000 5.7 140 11:39 13.12.2019
6280 Rain 2 976 80 10000 5.7 140 11:21 13.12.2019
6281 Clouds 2 977 74 10000 5.1 130 10:42 13.12.2019
6282 Clouds 2 977 74 10000 5.1 130 10:23 13.12.2019
6283 Clouds 2 977 74 10000 5.7 130 09:56 13.12.2019
6284 Clouds 2 978 80 10000 7.2 140 09:38 13.12.2019
6285 Clouds 2 978 80 10000 7.2 140 09:18 13.12.2019
6286 Clouds 1 978 80 10000 6.7 140 08:41 13.12.2019
6287 Snow 1 978 80 10000 7.7 140 08:23 13.12.2019
6288 Snow 1 979 74 10000 8.2 130 07:45 13.12.2019
6289 Clouds 1 980 74 10000 5.1 170 07:21 13.12.2019
6290 Clouds 1 980 74 10000 5.1 170 06:54 13.12.2019
6291 Clouds 1 978 74 10000 8.7 150 06:28 13.12.2019
6292 Clouds 1 982 74 10000 5.1 160 05:46 13.12.2019
6293 Clouds 1 980 74 10000 7.7 140 05:26 13.12.2019
6294 Clouds 1 982 74 10000 7.2 150 04:35 13.12.2019
6295 Clouds 1 982 74 10000 8.7 140 03:39 13.12.2019
6296 Clouds 0 988 92 10000 3.5 134 02:33 13.12.2019
6297 Clear 0 988 89 10000 3.77 151 01:43 13.12.2019
6298 Clouds 1 990 86 10000 3.6 170 00:55 13.12.2019
6299 Clear 1 989 74 10000 6.2 160 00:36 13.12.2019
6300 Clouds 1 992 90 10000 3.1 170 23:57 12.12.2019
6301 Clouds 1 992 90 10000 3.1 160 23:37 12.12.2019
6302 Clouds 1 992 90 10000 3.1 160 23:19 12.12.2019
6303 Clouds 1 993 86 10000 3.1 170 22:54 12.12.2019
6304 Clouds 1 993 86 10000 5.1 150 22:36 12.12.2019
6305 Clouds 1 993 86 10000 5.1 150 22:18 12.12.2019
6306 Clouds 2 994 90 10000 4.6 160 21:54 12.12.2019
6307 Clouds 2 994 90 10000 8.2 180 21:36 12.12.2019
6308 Clouds 2 994 90 10000 8.2 180 21:18 12.12.2019
6309 Clouds 2 995 90 10000 5.7 170 20:55 12.12.2019
6310 Clouds 2 996 90 10000 6.7 180 20:37 12.12.2019
6311 Clouds 2 996 93 10000 6.7 180 20:19 12.12.2019
6312 Clouds 2 996 86 10000 6.2 180 19:42 12.12.2019
6313 Clouds 2 997 93 10000 3.6 190 19:22 12.12.2019
6314 Clouds 2 997 93 10000 3.1 170 18:58 12.12.2019
6315 Clouds 3 997 93 10000 3.1 170 18:39 12.12.2019
6316 Clouds 3 998 93 10000 4.6 180 18:20 12.12.2019
6317 Clouds 3 998 93 10000 4.6 180 17:57 12.12.2019
6318 Clouds 3 999 86 10000 3.6 190 17:39 12.12.2019
6319 Clouds 3 999 86 10000 3.6 190 17:20 12.12.2019
6320 Clouds 3 999 86 10000 3.6 200 16:57 12.12.2019
6321 Clouds 4 999 86 10000 3.6 190 16:39 12.12.2019
6322 Clouds 3 999 86 10000 3.6 190 16:20 12.12.2019
6323 Clouds 3 999 86 10000 5.7 180 15:56 12.12.2019
6324 Clouds 3 999 86 10000 3.6 170 15:37 12.12.2019
6325 Clouds 3 999 86 10000 3.6 170 15:18 12.12.2019
6326 Clouds 3 1000 86 10000 4.1 180 14:38 12.12.2019
6327 Clouds 4 1000 86 10000 4.1 180 14:20 12.12.2019
6328 Clouds 4 1001 86 10000 3.1 190 13:58 12.12.2019
6329 Clouds 4 1001 86 10000 3.1 190 13:39 12.12.2019
6330 Clouds 4 1001 86 10000 5.1 190 13:21 12.12.2019
6331 Clouds 4 1001 86 10000 5.1 190 13:21 12.12.2019
6332 Clouds 4 1001 86 10000 4.6 210 12:58 12.12.2019
6333 Clouds 4 1002 93 10000 3.6 190 12:40 12.12.2019
6334 Clouds 4 1002 93 10000 3.6 190 12:21 12.12.2019
6335 Clouds 3 1002 93 10000 4.6 170 11:56 12.12.2019
6336 Clouds 3 1002 93 10000 4.1 170 11:38 12.12.2019
6337 Clouds 3 1002 93 10000 4.1 170 11:19 12.12.2019
6338 Clouds 3 1002 93 10000 4.1 170 10:55 12.12.2019
6339 Drizzle 3 1003 93 4000 2.6 200 10:37 12.12.2019
6340 Drizzle 3 1003 93 4000 2.6 200 10:19 12.12.2019
6341 Clouds 2 1002 93 10000 5.1 180 09:42 12.12.2019
6342 Clouds 2 1002 93 10000 5.1 180 09:24 12.12.2019
6343 Clouds 2 1002 93 10000 3.6 190 08:59 12.12.2019
6344 Clouds 2 1002 93 10000 4.1 200 08:40 12.12.2019
6345 Clouds 1 1002 95 10000 4.1 200 08:22 12.12.2019
6346 Clouds 2 1003 93 7000 2.1 180 07:47 12.12.2019
6347 Clouds 2 1002 95 9000 2.1 150 07:25 12.12.2019
6348 Clouds 2 1003 93 10000 2.6 200 06:54 12.12.2019
6349 Clouds 2 1003 93 10000 2.6 200 06:34 12.12.2019
6350 Clouds 1 1002 86 10000 3.6 190 05:41 12.12.2019
6351 Mist 1 1004 100 5000 2.1 190 04:54 12.12.2019
6352 Clouds 2 1003 86 10000 4.1 180 03:37 12.12.2019
6353 Clouds 1 1003 93 10000 4.6 200 02:39 12.12.2019
6354 Clouds 1 1003 93 10000 4.6 200 02:20 12.12.2019
6355 Clouds 1 1005 95 6000 3.1 160 01:43 12.12.2019
6356 Clouds 1 1005 95 8000 2.6 190 01:24 12.12.2019
6357 Clouds 1 1005 98 10000 2.1 200 00:47 12.12.2019
6358 Clouds 1 1005 98 10000 3.1 190 00:20 12.12.2019
6359 Clouds 1 1004 93 10000 2.6 210 23:44 11.12.2019
6360 Clouds 1 1004 93 10000 2.6 210 23:21 11.12.2019
6361 Rain 1 1005 96 6000 2.1 170 22:58 11.12.2019
6362 Clouds 1 1004 93 10000 3.6 190 22:39 11.12.2019
6363 Snow 1 1005 96 3500 1.5 170 22:20 11.12.2019
6364 Snow 1 1005 96 3500 1.5 170 21:57 11.12.2019
6365 Snow 1 1006 96 3000 2.1 180 21:38 11.12.2019
6366 Snow 1 1006 96 3000 2.1 180 21:19 11.12.2019
6367 Snow 1 1005 96 9000 2.6 200 20:56 11.12.2019
6368 Snow 1 1005 96 9000 3.1 190 20:37 11.12.2019
6369 Snow 1 1005 94 9000 3.1 190 20:19 11.12.2019
6370 Snow 1 1006 94 1000 1 140 19:57 11.12.2019
6371 Snow 1 1005 94 8000 2.6 190 19:39 11.12.2019
6372 Snow 1 1005 94 8000 2.6 190 19:39 11.12.2019
6373 Snow 1 1005 94 8000 2.6 190 19:19 11.12.2019
6374 Snow 1 1005 94 8000 2.6 170 18:42 11.12.2019
6375 Clouds 1 1005 94 7000 4.1 150 18:21 11.12.2019
6376 Snow 1 1006 94 5000 2.6 140 17:57 11.12.2019
6377 Snow 1 1006 94 5000 2.6 140 17:57 11.12.2019
6378 Drizzle 1 1006 94 6000 6.2 180 17:39 11.12.2019
6379 Drizzle 1 1006 94 6000 6.2 180 17:18 11.12.2019
6380 Snow 1 1006 94 8000 3.6 190 16:57 11.12.2019
6381 Rain 1 1006 94 8000 4.6 180 16:38 11.12.2019
6382 Rain 1 1006 94 8000 4.6 180 16:38 11.12.2019
6383 Rain 1 1006 94 8000 4.6 180 16:38 11.12.2019
6384 Rain 1 1006 94 8000 4.6 180 16:20 11.12.2019
6385 Drizzle 2 1007 94 8000 2.1 180 15:59 11.12.2019
6386 Rain 2 1006 94 10000 4.1 190 15:39 11.12.2019
6387 Rain 2 1006 94 10000 4.1 190 15:21 11.12.2019
6388 Rain 2 1007 94 10000 3.6 190 14:56 11.12.2019
6389 Rain 2 1007 94 9000 4.6 190 14:37 11.12.2019
6390 Rain 2 1007 86 9000 4.6 190 14:19 11.12.2019
6391 Drizzle 3 1008 86 10000 4.1 180 13:54 11.12.2019
6392 Clouds 2 1008 90 10000 5.1 200 13:36 11.12.2019
6393 Clouds 2 1008 86 10000 5.1 200 13:36 11.12.2019
6394 Clouds 3 1008 90 10000 5.1 200 13:18 11.12.2019
6395 Clouds 3 1008 86 10000 5.1 200 13:18 11.12.2019
6396 Clouds 3 1009 90 10000 5.7 200 12:54 11.12.2019
6397 Drizzle 3 1009 90 10000 5.1 190 12:36 11.12.2019
6398 Drizzle 3 1009 90 10000 5.1 190 12:18 11.12.2019
6399 Rain 3 1009 90 10000 4.6 180 11:55 11.12.2019
6400 Rain 3 1010 90 10000 3.1 200 11:37 11.12.2019
6401 Rain 3 1010 87 10000 3.1 200 11:18 11.12.2019
6402 Rain 3 1010 87 10000 4.1 200 10:41 11.12.2019
6403 Rain 3 1010 87 10000 4.1 200 10:23 11.12.2019
6404 Rain 3 1010 87 10000 4.1 200 09:58 11.12.2019
6405 Rain 3 1011 87 10000 4.6 200 09:38 11.12.2019
6406 Rain 3 1011 87 10000 4.6 200 09:20 11.12.2019
6407 Rain 3 1011 87 10000 4.6 210 08:56 11.12.2019
6408 Rain 3 1011 80 10000 5.7 190 08:37 11.12.2019
6409 Rain 3 1011 80 10000 5.7 190 08:18 11.12.2019
6410 Rain 3 1011 74 10000 4.6 170 07:44 11.12.2019
6411 Rain 3 1010 86 10000 6.7 180 07:24 11.12.2019
6412 Rain 3 1013 74 10000 5.1 190 06:46 11.12.2019
6413 Rain 3 1010 86 10000 6.7 180 06:25 11.12.2019
6414 Clouds 3 1014 64 10000 6.2 190 05:56 11.12.2019
6415 Rain 3 1011 80 10000 7.7 170 05:35 11.12.2019
6416 Clouds 4 1015 69 10000 6.2 200 04:53 11.12.2019
6417 Clouds 4 1012 60 9000 4.6 180 03:37 11.12.2019
6418 Clouds 4 1012 45 10000 8.7 170 02:38 11.12.2019
6419 Clouds 4 1013 45 10000 11.8 180 01:22 11.12.2019
6420 Clouds 3 1013 45 10000 10.8 180 00:43 11.12.2019
6421 Clouds 3 1014 45 10000 9.8 170 00:19 11.12.2019
6422 Clouds 3 1019 78 10000 5.1 200 23:46 10.12.2019
6423 Clouds 3 1015 52 10000 10.8 170 23:26 10.12.2019
6424 Clouds 3 1020 87 10000 3.6 190 22:57 10.12.2019
6425 Clouds 3 1015 52 10000 11.3 170 22:39 10.12.2019
6426 Clouds 3 1017 56 10000 6.2 170 22:20 10.12.2019
6427 Clouds 3 1020 80 10000 4.1 180 21:54 10.12.2019
6428 Clouds 3 1017 56 10000 5.1 160 21:36 10.12.2019
6429 Clouds 2 1021 87 10000 4.1 190 21:18 10.12.2019
6430 Clouds 2 1021 87 10000 4.1 190 20:55 10.12.2019
6431 Clouds 2 1020 80 10000 4.6 170 20:36 10.12.2019
6432 Clouds 2 1020 80 10000 4.6 170 20:18 10.12.2019
6433 Clouds 2 1020 80 10000 4.6 170 20:18 10.12.2019
6434 Clouds 2 1020 80 10000 5.1 170 19:44 10.12.2019
6435 Clouds 2 1020 80 10000 5.1 170 19:44 10.12.2019
6436 Clouds 2 1020 80 10000 7.2 170 19:26 10.12.2019
6437 Clouds 2 1020 80 10000 7.2 170 19:26 10.12.2019
6438 Clouds 2 1021 87 10000 7.2 170 18:59 10.12.2019
6439 Clouds 2 1021 87 10000 6.2 170 18:39 10.12.2019
6440 Clouds 2 1021 87 10000 6.2 170 18:19 10.12.2019
6441 Clouds 2 1022 87 10000 5.1 170 17:55 10.12.2019
6442 Clouds 2 1023 87 10000 2.1 180 17:36 10.12.2019
6443 Clouds 2 1023 82 10000 2.1 180 17:18 10.12.2019
6444 Clouds 2 1023 82 10000 4.1 170 16:42 10.12.2019
6445 Clouds 3 1023 82 10000 4.1 170 16:20 10.12.2019
6446 Clouds 4 1023 69 10000 4.1 190 15:54 10.12.2019
6447 Clouds 4 1023 69 10000 4.1 220 15:36 10.12.2019
6448 Clouds 4 1023 69 10000 4.1 220 15:18 10.12.2019
6449 Clouds 4 1023 69 10000 4.1 220 15:18 10.12.2019
6450 Clouds 4 1024 69 10000 5.7 230 14:54 10.12.2019
6451 Clouds 4 1024 69 10000 5.7 210 14:36 10.12.2019
6452 Clouds 4 1024 69 10000 5.7 210 14:18 10.12.2019
6453 Clouds 4 1024 69 10000 5.7 210 14:18 10.12.2019
6454 Clouds 4 1024 68 10000 5.1 220 13:54 10.12.2019
6455 Clouds 4 1024 68 10000 4.6 220 13:36 10.12.2019
6456 Clouds 5 1024 71 10000 4.6 220 13:18 10.12.2019
6457 Clouds 4 1025 69 10000 3.6 240 12:38 10.12.2019
6458 Clouds 4 1025 69 10000 3.6 240 12:20 10.12.2019
6459 Clouds 4 1025 71 10000 1.5 0 11:41 10.12.2019
6460 Clouds 4 1025 71 10000 1.5 0 11:41 10.12.2019
6461 Clouds 3 1025 71 10000 1.5 190 11:23 10.12.2019
6462 Clear 2 1025 86 10000 1.5 140 10:55 10.12.2019
6463 Clouds 2 1024 80 10000 1 0 10:37 10.12.2019
6464 Clouds 2 1024 80 10000 1 0 10:18 10.12.2019
6465 Clouds 1 1024 86 10000 0.5 0 09:54 10.12.2019
6466 Clear 1 1024 86 10000 1 0 09:36 10.12.2019
6467 Clear 0 1024 86 10000 1 0 09:18 10.12.2019
6468 Clear 0 1023 80 10000 2.1 300 08:41 10.12.2019
6469 Clouds 0 1023 80 10000 2.1 300 08:22 10.12.2019
6470 Clouds 0 1023 80 10000 2.1 300 08:22 10.12.2019
6471 Clouds 1 1022 86 10000 1.5 60 07:57 10.12.2019
6472 Clouds 1 1022 86 10000 1.5 60 07:39 10.12.2019
6473 Clouds 1 1022 86 10000 1.5 60 07:39 10.12.2019
6474 Clouds 1 1022 86 10000 3.1 240 07:20 10.12.2019
6475 Clouds 1 1023 92 10000 1 180 06:46 10.12.2019
6476 Clouds 2 1022 92 10000 3.1 260 06:19 10.12.2019
6477 Clouds 2 1022 92 10000 3.1 260 06:19 10.12.2019
6478 Clouds 2 1022 80 10000 1 280 05:52 10.12.2019
6479 Clouds 2 1021 74 10000 4.1 310 04:51 10.12.2019
6480 Clouds 3 1019 86 10000 2.6 320 03:32 10.12.2019
6481 Clouds 3 1019 86 10000 4.1 270 02:40 10.12.2019
6482 Clouds 3 1018 85 10000 4.6 320 01:44 10.12.2019
6483 Clouds 3 1017 86 10000 4.6 270 01:20 10.12.2019
6484 Clouds 4 1017 86 10000 4.1 270 00:40 10.12.2019
6485 Clouds 4 1016 86 10000 4.1 270 00:19 10.12.2019
6486 Clouds 4 1015 86 10000 4.6 280 23:41 09.12.2019
6487 Clouds 4 1015 86 10000 4.6 280 23:41 09.12.2019
6488 Clouds 4 1014 80 10000 4.1 280 23:22 09.12.2019
6489 Clouds 5 1013 75 10000 5.1 320 22:58 09.12.2019
6490 Clouds 5 1010 86 10000 8.2 320 22:39 09.12.2019
6491 Clouds 5 1010 86 10000 8.2 320 22:19 09.12.2019
6492 Clouds 5 1010 86 10000 8.2 320 21:56 09.12.2019
6493 Clouds 5 1009 86 10000 7.2 330 21:38 09.12.2019
6494 Clouds 5 1009 86 10000 7.2 330 21:18 09.12.2019
6495 Rain 5 1009 86 10000 5.1 310 20:56 09.12.2019
6496 Clouds 5 1007 86 10000 8.7 310 20:38 09.12.2019
6497 Clouds 5 1007 86 10000 8.7 310 20:19 09.12.2019
6498 Rain 5 1005 93 10000 4.6 290 19:55 09.12.2019
6499 Rain 5 1005 86 10000 3.6 280 19:37 09.12.2019
6500 Rain 5 1005 86 10000 3.6 280 19:19 09.12.2019
6501 Rain 5 1004 93 10000 4.1 330 18:55 09.12.2019
6502 Rain 5 1003 93 9000 3.6 260 18:37 09.12.2019
6503 Rain 5 1003 93 9000 3.6 260 18:18 09.12.2019
6504 Rain 6 1002 93 9000 5.1 270 17:56 09.12.2019
6505 Rain 6 1002 86 7000 5.7 260 17:37 09.12.2019
6506 Rain 6 1002 86 7000 5.7 260 17:19 09.12.2019
6507 Rain 6 1001 93 10000 3.1 250 16:55 09.12.2019
6508 Rain 6 1000 86 10000 3.6 290 16:36 09.12.2019
6509 Rain 6 1000 86 10000 3.6 290 16:18 09.12.2019
6510 -273 0 0 0 0 0 15:55 09.12.2019
6511 Rain 6 999 86 10000 5.7 270 15:36 09.12.2019
6512 Rain 6 999 86 10000 5.7 270 15:18 09.12.2019
6513 Rain 6 998 86 8000 6.7 260 14:42 09.12.2019
6514 Rain 6 998 86 8000 6.7 260 14:42 09.12.2019
6515 Rain 6 998 86 10000 8.2 240 14:19 09.12.2019
6516 Rain 6 998 86 10000 8.2 240 14:19 09.12.2019
6517 Rain 6 997 93 10000 7.2 230 13:57 09.12.2019
6518 Rain 7 998 81 10000 7.2 220 13:38 09.12.2019
6519 Rain 7 998 81 10000 7.2 220 13:38 09.12.2019
6520 Rain 7 998 81 10000 7.2 220 13:19 09.12.2019
6521 Rain 7 998 81 10000 7.2 220 13:19 09.12.2019
6522 Clouds 7 996 75 10000 6.7 200 12:56 09.12.2019
6523 Rain 7 998 81 10000 7.7 210 12:37 09.12.2019
6524 Rain 7 998 81 10000 7.7 210 12:19 09.12.2019
6525 Rain 7 997 87 10000 6.7 200 11:55 09.12.2019
6526 Rain 7 997 81 10000 7.2 180 11:37 09.12.2019
6527 Rain 7 997 81 10000 7.2 180 11:18 09.12.2019
6528 Drizzle 7 996 86 10000 7.7 180 10:40 09.12.2019
6529 Drizzle 7 996 86 10000 7.2 180 10:20 09.12.2019
6530 Drizzle 7 997 86 10000 6.7 190 09:58 09.12.2019
6531 Clouds 7 997 86 10000 6.2 180 09:40 09.12.2019
6532 Clouds 6 997 86 10000 6.2 180 09:21 09.12.2019
6533 Drizzle 6 997 75 10000 6.2 180 08:44 09.12.2019
6534 Clouds 6 997 75 10000 6.7 180 08:25 09.12.2019
6535 Clouds 6 997 75 10000 6.2 180 07:56 09.12.2019
6536 Clouds 6 997 75 10000 5.7 210 07:38 09.12.2019
6537 Clouds 6 997 75 10000 5.7 210 07:20 09.12.2019
6538 Clouds 6 996 75 10000 7.7 200 06:43 09.12.2019
6539 Clouds 6 996 75 10000 8.2 200 06:24 09.12.2019
6540 Clear 6 997 70 10000 6.2 210 05:26 09.12.2019
6541 Clouds 6 997 75 10000 9.3 220 04:31 09.12.2019
6542 Clear 6 998 75 10000 7.7 230 03:19 09.12.2019
6543 Clear 6 998 75 10000 7.7 230 03:19 09.12.2019
6544 Clouds 6 998 75 10000 9.8 230 02:18 09.12.2019
6545 Clouds 7 998 81 10000 8.7 230 01:40 09.12.2019
6546 Clouds 7 999 70 10000 9.8 250 00:45 09.12.2019
6547 Rain 7 998 70 10000 9.3 240 00:24 09.12.2019
6548 Rain 7 998 75 10000 8.2 230 23:39 08.12.2019
6549 Rain 7 998 87 8000 5.7 250 23:21 08.12.2019
6550 Clouds 7 1000 81 10000 5.7 230 22:56 08.12.2019
6551 Clouds 7 999 81 10000 6.2 250 22:38 08.12.2019
6552 Clouds 7 999 81 10000 6.2 250 22:18 08.12.2019
6553 Clouds 7 999 81 10000 6.2 250 22:18 08.12.2019
6554 Clouds 7 999 81 10000 6.2 250 21:57 08.12.2019
6555 Clouds 7 999 81 10000 5.7 250 21:39 08.12.2019
6556 Clouds 7 999 81 10000 5.7 250 21:39 08.12.2019
6557 Clouds 7 999 81 10000 5.7 250 21:19 08.12.2019
6558 Clouds 7 1000 81 10000 4.1 180 20:57 08.12.2019
6559 Clouds 7 999 75 10000 5.7 220 20:38 08.12.2019
6560 Clouds 7 999 75 10000 5.7 220 20:19 08.12.2019
6561 Clouds 8 999 70 10000 4.6 240 19:57 08.12.2019
6562 Clouds 8 999 70 10000 4.6 240 19:57 08.12.2019
6563 Clouds 7 999 70 10000 5.1 250 19:39 08.12.2019
6564 Clouds 8 999 70 10000 5.1 250 19:21 08.12.2019
6565 Rain 8 1000 75 10000 5.1 260 18:55 08.12.2019
6566 Rain 8 999 76 10000 6.2 250 18:36 08.12.2019
6567 Rain 9 999 76 10000 6.2 250 18:18 08.12.2019
6568 Rain 9 1000 81 8000 8.7 250 17:56 08.12.2019
6569 Rain 9 1000 93 6000 6.7 230 17:37 08.12.2019
6570 Rain 9 1000 93 6000 6.7 230 17:37 08.12.2019
6571 Rain 9 1000 93 6000 6.7 230 17:19 08.12.2019
6572 Rain 9 1000 93 7000 5.7 230 16:55 08.12.2019
6573 Rain 9 1000 93 7000 5.7 230 16:55 08.12.2019
6574 Drizzle 9 999 87 10000 7.2 220 16:37 08.12.2019
6575 Drizzle 9 999 87 10000 7.2 220 16:19 08.12.2019
6576 Drizzle 10 1001 93 6000 6.2 190 15:38 08.12.2019
6577 Drizzle 10 1001 93 6000 6.2 190 15:19 08.12.2019
6578 Clouds 9 1000 76 10000 8.7 220 14:59 08.12.2019
6579 Clouds 10 1000 76 10000 8.7 220 14:39 08.12.2019
6580 Clouds 9 1000 76 10000 8.7 220 14:21 08.12.2019
6581 Clouds 10 1001 81 10000 8.2 210 13:57 08.12.2019
6582 Clouds 10 1001 81 10000 8.2 210 13:57 08.12.2019
6583 Clouds 10 1001 81 10000 8.2 220 13:38 08.12.2019
6584 Clouds 10 1001 81 10000 8.2 220 13:19 08.12.2019
6585 Clouds 10 1001 81 10000 6.7 200 12:54 08.12.2019
6586 Clouds 10 1001 81 10000 6.7 200 12:54 08.12.2019
6587 Clouds 10 1002 76 10000 7.2 220 12:36 08.12.2019
6588 Clouds 9 1002 76 10000 7.2 220 12:18 08.12.2019
6589 Clouds 9 1002 76 10000 8.2 200 11:38 08.12.2019
6590 Clouds 9 1002 76 10000 8.2 200 11:20 08.12.2019
6591 Clouds 9 1002 76 10000 9.3 210 10:58 08.12.2019
6592 Clouds 9 1003 81 10000 7.7 200 10:38 08.12.2019
6593 Clouds 9 1003 81 10000 7.7 200 10:19 08.12.2019
6594 Clouds 9 1004 75 10000 7.2 190 09:56 08.12.2019
6595 Clouds 9 1004 75 10000 8.2 200 09:37 08.12.2019
6596 Clouds 9 1004 75 10000 8.2 200 09:19 08.12.2019
6597 Clouds 8 1004 75 10000 7.7 210 08:57 08.12.2019
6598 Clouds 8 1004 75 10000 7.7 210 08:57 08.12.2019
6599 Clouds 8 1004 75 10000 7.7 210 08:57 08.12.2019
6600 Clouds 8 1005 75 10000 6.2 210 08:36 08.12.2019
6601 Clouds 8 1005 75 10000 6.2 210 08:18 08.12.2019
6602 Clouds 8 1005 70 10000 7.2 210 07:42 08.12.2019
6603 Clouds 8 1005 70 10000 7.2 210 07:19 08.12.2019
6604 Clouds 8 1008 75 10000 5.1 210 06:47 08.12.2019
6605 Clouds 8 1007 75 10000 8.2 230 06:22 08.12.2019
6606 Clouds 8 1008 70 10000 7.2 230 05:35 08.12.2019
6607 Clouds 8 1010 81 10000 4.1 190 04:59 08.12.2019
6608 Clouds 7 1011 81 10000 5.1 200 03:47 08.12.2019
6609 Clouds 7 1009 75 10000 7.2 220 03:21 08.12.2019
6610 Clouds 7 1011 81 10000 6.7 220 02:34 08.12.2019
6611 Clouds 7 1013 81 10000 4.6 210 01:48 08.12.2019
6612 Clouds 7 1013 81 10000 4.1 200 00:59 08.12.2019
6613 Clouds 7 1013 81 10000 7.2 210 00:39 08.12.2019
6614 Clouds 7 1012 81 10000 6.7 210 00:39 08.12.2019
6615 Clouds 7 1013 81 10000 7.2 210 00:19 08.12.2019
6616 Clouds 7 1013 81 10000 7.2 210 00:19 08.12.2019
6617 Clouds 7 1013 81 10000 5.7 230 23:40 07.12.2019
6618 Clouds 7 1013 75 10000 6.7 230 23:20 07.12.2019
6619 Clouds 7 1014 75 10000 3.6 220 22:56 07.12.2019
6620 Clouds 7 1013 75 10000 5.7 220 22:38 07.12.2019
6621 Clouds 7 1013 75 10000 5.7 220 22:20 07.12.2019
6622 Clouds 7 1015 81 10000 4.6 220 21:56 07.12.2019
6623 Clouds 7 1015 81 10000 4.6 220 21:56 07.12.2019
6624 Clouds 7 1014 81 10000 5.1 230 21:38 07.12.2019
6625 Clouds 7 1014 81 10000 5.1 230 21:19 07.12.2019
6626 Clouds 7 1015 81 10000 4.1 220 20:55 07.12.2019
6627 Clouds 7 1014 81 10000 4.6 220 20:36 07.12.2019
6628 Clouds 7 1014 81 10000 4.6 220 20:18 07.12.2019
6629 Rain 7 1014 81 10000 5.1 230 19:55 07.12.2019
6630 Clouds 7 1013 87 10000 4.1 230 19:36 07.12.2019
6631 Clouds 7 1013 87 10000 4.1 230 19:18 07.12.2019
6632 Rain 7 1013 87 10000 4.1 230 18:44 07.12.2019
6633 Rain 7 1013 93 10000 6.2 230 18:19 07.12.2019
6634 Rain 7 1013 87 10000 6.7 250 17:57 07.12.2019
6635 Clouds 7 1013 81 10000 5.7 250 17:39 07.12.2019
6636 Clouds 8 1013 81 10000 5.7 250 17:20 07.12.2019
6637 Clouds 8 1013 81 10000 4.6 250 16:56 07.12.2019
6638 Clouds 8 1013 81 10000 4.6 250 16:56 07.12.2019
6639 Clouds 8 1012 81 10000 5.7 230 16:37 07.12.2019
6640 Clouds 8 1012 81 10000 5.7 230 16:18 07.12.2019
6641 Clouds 8 1012 75 10000 5.7 260 15:42 07.12.2019
6642 Clouds 8 1012 75 10000 5.7 260 15:23 07.12.2019
6643 Clouds 8 1012 75 10000 6.2 270 14:57 07.12.2019
6644 Clouds 8 1012 75 10000 6.2 270 14:39 07.12.2019
6645 Drizzle 8 1011 75 10000 7.7 260 14:18 07.12.2019
6646 Clouds 8 1011 75 10000 7.2 260 13:41 07.12.2019
6647 Clouds 9 1011 70 10000 6.2 260 13:21 07.12.2019
6648 Clouds 9 1011 70 10000 6.2 280 12:56 07.12.2019
6649 Clouds 8 1011 76 10000 6.2 280 12:38 07.12.2019
6650 Clouds 8 1011 76 10000 6.2 280 12:20 07.12.2019
6651 Clouds 8 1011 81 10000 5.7 270 11:56 07.12.2019
6652 Clouds 8 1011 81 10000 5.7 260 11:37 07.12.2019
6653 Clouds 8 1011 81 10000 5.7 260 11:19 07.12.2019
6654 Clouds 8 1010 87 10000 5.1 260 10:37 07.12.2019
6655 Clouds 8 1010 87 10000 5.1 260 10:19 07.12.2019
6656 Clouds 7 1010 87 10000 5.1 260 10:19 07.12.2019
6657 Clouds 7 1010 87 10000 4.1 250 09:41 07.12.2019
6658 Clouds 7 1009 87 10000 5.7 260 09:22 07.12.2019
6659 Clouds 7 1009 81 10000 4.6 250 08:47 07.12.2019
6660 Clouds 7 1009 81 10000 5.1 260 08:27 07.12.2019
6661 Clouds 7 1008 81 9000 5.1 270 07:58 07.12.2019
6662 Clouds 7 1008 81 9000 5.1 270 07:39 07.12.2019
6663 Drizzle 7 1007 87 10000 4.1 230 07:21 07.12.2019
6664 Drizzle 7 1007 87 10000 4.1 230 07:21 07.12.2019
6665 Drizzle 7 1007 87 10000 4.1 230 06:45 07.12.2019
6666 Clouds 7 1007 87 10000 6.2 250 06:24 07.12.2019
6667 Rain 7 1007 87 10000 6.7 220 04:52 07.12.2019
6668 Rain 6 1006 93 10000 7.7 220 03:54 07.12.2019
6669 Rain 6 1006 87 10000 6.7 210 02:56 07.12.2019
6670 Clouds 6 1004 81 10000 10.8 220 02:21 07.12.2019
6671 Clouds 5 1005 86 10000 6.7 210 01:31 07.12.2019
6672 Clouds 5 1005 86 10000 6.7 200 00:52 07.12.2019
6673 Clouds 5 1005 86 10000 6.2 210 00:19 07.12.2019
6674 Clouds 5 1007 86 10000 8.2 220 23:48 06.12.2019
6675 Rain 5 1004 81 10000 9.3 210 23:25 06.12.2019
6676 Drizzle 5 1007 86 10000 6.2 230 22:59 06.12.2019
6677 Clouds 4 1006 86 10000 8.2 200 22:37 06.12.2019
6678 Clouds 5 1006 86 10000 8.2 200 22:19 06.12.2019
6679 Clouds 4 1006 86 10000 8.2 200 21:57 06.12.2019
6680 Rain 4 1006 86 10000 8.7 200 21:38 06.12.2019
6681 Rain 4 1006 86 10000 8.7 200 21:19 06.12.2019
6682 Rain 4 1006 86 10000 8.2 200 20:42 06.12.2019
6683 -273 0 0 0 0 0 20:23 06.12.2019
6684 Rain 4 1007 93 10000 5.7 180 19:58 06.12.2019
6685 Rain 4 1007 93 10000 5.7 180 19:39 06.12.2019
6686 Rain 4 1007 93 10000 6.7 180 19:21 06.12.2019
6687 Rain 3 1007 93 10000 6.7 190 18:55 06.12.2019
6688 Rain 3 1007 93 10000 6.7 190 18:55 06.12.2019
6689 Clouds 3 1007 93 9000 6.2 200 18:36 06.12.2019
6690 Clouds 3 1007 93 9000 6.2 200 18:18 06.12.2019
6691 Rain 3 1007 93 10000 5.7 180 17:55 06.12.2019
6692 Rain 3 1008 93 10000 3.6 140 17:37 06.12.2019
6693 Rain 3 1008 93 10000 3.6 140 17:19 06.12.2019
6694 Clouds 3 1009 86 10000 4.1 170 16:42 06.12.2019
6695 Clouds 3 1009 86 10000 4.1 170 16:23 06.12.2019
6696 Clouds 2 1009 86 10000 6.2 160 15:56 06.12.2019
6697 Drizzle 2 1010 86 10000 4.6 150 15:38 06.12.2019
6698 Drizzle 2 1010 86 10000 4.6 150 15:18 06.12.2019
6699 Clouds 2 1010 86 10000 5.1 150 14:41 06.12.2019
6700 Rain 3 1012 86 10000 4.1 170 14:20 06.12.2019
6701 Drizzle 3 1011 76 10000 4.6 160 13:58 06.12.2019
6702 Rain 3 1013 86 10000 4.6 170 13:40 06.12.2019
6703 Rain 3 1013 86 10000 4.6 170 13:22 06.12.2019
6704 Clouds 2 1012 71 9000 2.6 150 12:41 06.12.2019
6705 Clouds 3 1012 71 9000 4.6 160 12:22 06.12.2019
6706 Clouds 3 1013 71 9000 5.1 180 11:55 06.12.2019
6707 Clouds 3 1015 71 10000 6.2 200 11:37 06.12.2019
6708 Clouds 2 1015 63 10000 6.2 200 11:19 06.12.2019
6709 Clouds 2 1014 63 6000 5.7 170 10:42 06.12.2019
6710 Clouds 2 1014 63 8000 5.1 180 10:21 06.12.2019
6711 Clouds 2 1014 63 8000 4.1 200 09:57 06.12.2019
6712 Clouds 1 1014 63 8000 5.1 190 09:37 06.12.2019
6713 Clouds 1 1014 63 8000 5.1 190 09:19 06.12.2019
6714 Clouds 1 1015 63 9000 5.1 200 08:45 06.12.2019
6715 Clouds 1 1014